<?xml version="1.0" encoding="UTF-8" standalone="no" ?>
<gpx xmlns="http://www.topografix.com/GPX/1/1" xmlns:xsi="http://www.w3.org/2001/XMLSchema-instance" xsi:schemaLocation="http://www.topografix.com/GPX/1/1 http://www.topografix.com/GPX/1/1/gpx.xsd" version="1.1" creator="VisuGPX - https://www.visugpx.com">
  <metadata>
    <name>Circuit autour de Thurins (Rhône)</name>
    <desc><![CDATA[Boucle autour de Thurins passant par lr \"Bas Marjon, Rontalon, Yzeron]]></desc>
  </metadata>
  <trk>
    <name><![CDATA[Yzeron]]></name>
    <trkseg>
      <trkpt lat="45.68388" lon="4.64092">
        <ele>378.20001220703</ele>
        <time>2012-04-02T12:02:44.000Z</time>
      </trkpt>
      <trkpt lat="45.68388" lon="4.64092">
        <ele>378.20001220703</ele>
        <time>2012-04-02T12:02:58.000Z</time>
      </trkpt>
      <trkpt lat="45.68387" lon="4.64092">
        <ele>378.20001220703</ele>
        <time>2012-04-02T12:03:02.000Z</time>
      </trkpt>
      <trkpt lat="45.68388" lon="4.641">
        <ele>378.20001220703</ele>
        <time>2012-04-02T12:03:06.000Z</time>
      </trkpt>
      <trkpt lat="45.68389" lon="4.64108">
        <ele>378.39999389648</ele>
        <time>2012-04-02T12:03:08.000Z</time>
      </trkpt>
      <trkpt lat="45.68378" lon="4.64123">
        <ele>377.39999389648</ele>
        <time>2012-04-02T12:03:12.000Z</time>
      </trkpt>
      <trkpt lat="45.68377" lon="4.64131">
        <ele>377.39999389648</ele>
        <time>2012-04-02T12:03:13.000Z</time>
      </trkpt>
      <trkpt lat="45.68377" lon="4.64139">
        <ele>377.20001220703</ele>
        <time>2012-04-02T12:03:14.000Z</time>
      </trkpt>
      <trkpt lat="45.68375" lon="4.64146">
        <ele>377</ele>
        <time>2012-04-02T12:03:15.000Z</time>
      </trkpt>
      <trkpt lat="45.68372" lon="4.64151">
        <ele>376.39999389648</ele>
        <time>2012-04-02T12:03:16.000Z</time>
      </trkpt>
      <trkpt lat="45.68369" lon="4.64153">
        <ele>376</ele>
        <time>2012-04-02T12:03:17.000Z</time>
      </trkpt>
      <trkpt lat="45.68366" lon="4.64154">
        <ele>375.60000610352</ele>
        <time>2012-04-02T12:03:18.000Z</time>
      </trkpt>
      <trkpt lat="45.68363" lon="4.64154">
        <ele>375.39999389648</ele>
        <time>2012-04-02T12:03:19.000Z</time>
      </trkpt>
      <trkpt lat="45.68354" lon="4.64152">
        <ele>374.39999389648</ele>
        <time>2012-04-02T12:03:25.000Z</time>
      </trkpt>
      <trkpt lat="45.68352" lon="4.64154">
        <ele>374.20001220703</ele>
        <time>2012-04-02T12:03:26.000Z</time>
      </trkpt>
      <trkpt lat="45.68351" lon="4.64156">
        <ele>373.79998779297</ele>
        <time>2012-04-02T12:03:27.000Z</time>
      </trkpt>
      <trkpt lat="45.68351" lon="4.6416">
        <ele>373.60000610352</ele>
        <time>2012-04-02T12:03:28.000Z</time>
      </trkpt>
      <trkpt lat="45.68351" lon="4.64165">
        <ele>373.39999389648</ele>
        <time>2012-04-02T12:03:29.000Z</time>
      </trkpt>
      <trkpt lat="45.68327" lon="4.6421">
        <ele>371.79998779297</ele>
        <time>2012-04-02T12:03:39.000Z</time>
      </trkpt>
      <trkpt lat="45.68323" lon="4.64216">
        <ele>371.60000610352</ele>
        <time>2012-04-02T12:03:40.000Z</time>
      </trkpt>
      <trkpt lat="45.68313" lon="4.64229">
        <ele>370.79998779297</ele>
        <time>2012-04-02T12:03:42.000Z</time>
      </trkpt>
      <trkpt lat="45.68307" lon="4.64235">
        <ele>370.20001220703</ele>
        <time>2012-04-02T12:03:43.000Z</time>
      </trkpt>
      <trkpt lat="45.68286" lon="4.64253">
        <ele>367.39999389648</ele>
        <time>2012-04-02T12:03:46.000Z</time>
      </trkpt>
      <trkpt lat="45.68255" lon="4.64278">
        <ele>364.60000610352</ele>
        <time>2012-04-02T12:03:50.000Z</time>
      </trkpt>
      <trkpt lat="45.68247" lon="4.64285">
        <ele>364.20001220703</ele>
        <time>2012-04-02T12:03:51.000Z</time>
      </trkpt>
      <trkpt lat="45.68239" lon="4.64293">
        <ele>364.20001220703</ele>
        <time>2012-04-02T12:03:52.000Z</time>
      </trkpt>
      <trkpt lat="45.68232" lon="4.64303">
        <ele>364</ele>
        <time>2012-04-02T12:03:53.000Z</time>
      </trkpt>
      <trkpt lat="45.682" lon="4.64355">
        <ele>360.60000610352</ele>
        <time>2012-04-02T12:03:58.000Z</time>
      </trkpt>
      <trkpt lat="45.68194" lon="4.64365">
        <ele>359.79998779297</ele>
        <time>2012-04-02T12:03:59.000Z</time>
      </trkpt>
      <trkpt lat="45.68178" lon="4.64391">
        <ele>357.39999389648</ele>
        <time>2012-04-02T12:04:02.000Z</time>
      </trkpt>
      <trkpt lat="45.68161" lon="4.64426">
        <ele>355.20001220703</ele>
        <time>2012-04-02T12:04:06.000Z</time>
      </trkpt>
      <trkpt lat="45.68126" lon="4.64548">
        <ele>353.60000610352</ele>
        <time>2012-04-02T12:04:19.000Z</time>
      </trkpt>
      <trkpt lat="45.681" lon="4.64653">
        <ele>350.39999389648</ele>
        <time>2012-04-02T12:04:30.000Z</time>
      </trkpt>
      <trkpt lat="45.68095" lon="4.64666">
        <ele>350</ele>
        <time>2012-04-02T12:04:32.000Z</time>
      </trkpt>
      <trkpt lat="45.68084" lon="4.6469">
        <ele>349.20001220703</ele>
        <time>2012-04-02T12:04:37.000Z</time>
      </trkpt>
      <trkpt lat="45.68081" lon="4.64694">
        <ele>349</ele>
        <time>2012-04-02T12:04:38.000Z</time>
      </trkpt>
      <trkpt lat="45.68078" lon="4.64697">
        <ele>348.60000610352</ele>
        <time>2012-04-02T12:04:39.000Z</time>
      </trkpt>
      <trkpt lat="45.68075" lon="4.64699">
        <ele>348.20001220703</ele>
        <time>2012-04-02T12:04:40.000Z</time>
      </trkpt>
      <trkpt lat="45.68074" lon="4.647">
        <ele>348</ele>
        <time>2012-04-02T12:04:41.000Z</time>
      </trkpt>
      <trkpt lat="45.6807" lon="4.64706">
        <ele>347.60000610352</ele>
        <time>2012-04-02T12:04:45.000Z</time>
      </trkpt>
      <trkpt lat="45.68072" lon="4.64707">
        <ele>348</ele>
        <time>2012-04-02T12:04:48.000Z</time>
      </trkpt>
      <trkpt lat="45.68074" lon="4.64705">
        <ele>348.39999389648</ele>
        <time>2012-04-02T12:04:49.000Z</time>
      </trkpt>
      <trkpt lat="45.68077" lon="4.64701">
        <ele>348.60000610352</ele>
        <time>2012-04-02T12:04:50.000Z</time>
      </trkpt>
      <trkpt lat="45.68084" lon="4.64693">
        <ele>349.39999389648</ele>
        <time>2012-04-02T12:04:52.000Z</time>
      </trkpt>
      <trkpt lat="45.68087" lon="4.64688">
        <ele>349.60000610352</ele>
        <time>2012-04-02T12:04:53.000Z</time>
      </trkpt>
      <trkpt lat="45.6809" lon="4.64683">
        <ele>349.79998779297</ele>
        <time>2012-04-02T12:04:54.000Z</time>
      </trkpt>
      <trkpt lat="45.68092" lon="4.64678">
        <ele>350</ele>
        <time>2012-04-02T12:04:55.000Z</time>
      </trkpt>
      <trkpt lat="45.68094" lon="4.64673">
        <ele>350</ele>
        <time>2012-04-02T12:04:56.000Z</time>
      </trkpt>
      <trkpt lat="45.68095" lon="4.64669">
        <ele>350.20001220703</ele>
        <time>2012-04-02T12:04:57.000Z</time>
      </trkpt>
      <trkpt lat="45.68097" lon="4.64666">
        <ele>350.20001220703</ele>
        <time>2012-04-02T12:04:58.000Z</time>
      </trkpt>
      <trkpt lat="45.68099" lon="4.64667">
        <ele>350.60000610352</ele>
        <time>2012-04-02T12:05:00.000Z</time>
      </trkpt>
      <trkpt lat="45.68099" lon="4.64669">
        <ele>350.79998779297</ele>
        <time>2012-04-02T12:05:01.000Z</time>
      </trkpt>
      <trkpt lat="45.68098" lon="4.64672">
        <ele>350.79998779297</ele>
        <time>2012-04-02T12:05:02.000Z</time>
      </trkpt>
      <trkpt lat="45.68088" lon="4.64704">
        <ele>350.39999389648</ele>
        <time>2012-04-02T12:05:13.000Z</time>
      </trkpt>
      <trkpt lat="45.68088" lon="4.64707">
        <ele>350.60000610352</ele>
        <time>2012-04-02T12:05:14.000Z</time>
      </trkpt>
      <trkpt lat="45.68088" lon="4.64709">
        <ele>350.60000610352</ele>
        <time>2012-04-02T12:05:15.000Z</time>
      </trkpt>
      <trkpt lat="45.68098" lon="4.64742">
        <ele>353.60000610352</ele>
        <time>2012-04-02T12:05:30.000Z</time>
      </trkpt>
      <trkpt lat="45.68098" lon="4.64757">
        <ele>354.20001220703</ele>
        <time>2012-04-02T12:05:37.000Z</time>
      </trkpt>
      <trkpt lat="45.68073" lon="4.64812">
        <ele>352.39999389648</ele>
        <time>2012-04-02T12:05:49.000Z</time>
      </trkpt>
      <trkpt lat="45.68064" lon="4.64833">
        <ele>351.79998779297</ele>
        <time>2012-04-02T12:05:52.000Z</time>
      </trkpt>
      <trkpt lat="45.6806" lon="4.6484">
        <ele>350.79998779297</ele>
        <time>2012-04-02T12:05:53.000Z</time>
      </trkpt>
      <trkpt lat="45.68056" lon="4.64847">
        <ele>350</ele>
        <time>2012-04-02T12:05:54.000Z</time>
      </trkpt>
      <trkpt lat="45.68052" lon="4.64855">
        <ele>349</ele>
        <time>2012-04-02T12:05:55.000Z</time>
      </trkpt>
      <trkpt lat="45.68048" lon="4.64864">
        <ele>348.20001220703</ele>
        <time>2012-04-02T12:05:56.000Z</time>
      </trkpt>
      <trkpt lat="45.68027" lon="4.64921">
        <ele>343</ele>
        <time>2012-04-02T12:06:02.000Z</time>
      </trkpt>
      <trkpt lat="45.68014" lon="4.64963">
        <ele>339.79998779297</ele>
        <time>2012-04-02T12:06:06.000Z</time>
      </trkpt>
      <trkpt lat="45.68003" lon="4.64998">
        <ele>337.39999389648</ele>
        <time>2012-04-02T12:06:09.000Z</time>
      </trkpt>
      <trkpt lat="45.67994" lon="4.6503">
        <ele>333.79998779297</ele>
        <time>2012-04-02T12:06:12.000Z</time>
      </trkpt>
      <trkpt lat="45.67992" lon="4.65041">
        <ele>332.79998779297</ele>
        <time>2012-04-02T12:06:13.000Z</time>
      </trkpt>
      <trkpt lat="45.67992" lon="4.65053">
        <ele>331.79998779297</ele>
        <time>2012-04-02T12:06:14.000Z</time>
      </trkpt>
      <trkpt lat="45.67991" lon="4.65077">
        <ele>330</ele>
        <time>2012-04-02T12:06:16.000Z</time>
      </trkpt>
      <trkpt lat="45.6799" lon="4.65096">
        <ele>329.39999389648</ele>
        <time>2012-04-02T12:06:18.000Z</time>
      </trkpt>
      <trkpt lat="45.67987" lon="4.65116">
        <ele>329.20001220703</ele>
        <time>2012-04-02T12:06:22.000Z</time>
      </trkpt>
      <trkpt lat="45.67977" lon="4.65131">
        <ele>328.39999389648</ele>
        <time>2012-04-02T12:06:28.000Z</time>
      </trkpt>
      <trkpt lat="45.67976" lon="4.65135">
        <ele>328.39999389648</ele>
        <time>2012-04-02T12:06:29.000Z</time>
      </trkpt>
      <trkpt lat="45.67976" lon="4.6514">
        <ele>328.39999389648</ele>
        <time>2012-04-02T12:06:30.000Z</time>
      </trkpt>
      <trkpt lat="45.67975" lon="4.65145">
        <ele>328.39999389648</ele>
        <time>2012-04-02T12:06:31.000Z</time>
      </trkpt>
      <trkpt lat="45.67975" lon="4.6515">
        <ele>328.20001220703</ele>
        <time>2012-04-02T12:06:32.000Z</time>
      </trkpt>
      <trkpt lat="45.67974" lon="4.65156">
        <ele>328.20001220703</ele>
        <time>2012-04-02T12:06:33.000Z</time>
      </trkpt>
      <trkpt lat="45.67973" lon="4.65162">
        <ele>328</ele>
        <time>2012-04-02T12:06:34.000Z</time>
      </trkpt>
      <trkpt lat="45.67957" lon="4.65258">
        <ele>330</ele>
        <time>2012-04-02T12:06:47.000Z</time>
      </trkpt>
      <trkpt lat="45.67956" lon="4.65275">
        <ele>330.20001220703</ele>
        <time>2012-04-02T12:06:49.000Z</time>
      </trkpt>
      <trkpt lat="45.67953" lon="4.653">
        <ele>330.20001220703</ele>
        <time>2012-04-02T12:06:52.000Z</time>
      </trkpt>
      <trkpt lat="45.67954" lon="4.65399">
        <ele>329.79998779297</ele>
        <time>2012-04-02T12:07:04.000Z</time>
      </trkpt>
      <trkpt lat="45.67953" lon="4.65407">
        <ele>329.60000610352</ele>
        <time>2012-04-02T12:07:05.000Z</time>
      </trkpt>
      <trkpt lat="45.67953" lon="4.65416">
        <ele>329.39999389648</ele>
        <time>2012-04-02T12:07:06.000Z</time>
      </trkpt>
      <trkpt lat="45.67953" lon="4.65425">
        <ele>329</ele>
        <time>2012-04-02T12:07:07.000Z</time>
      </trkpt>
      <trkpt lat="45.67953" lon="4.65434">
        <ele>328.79998779297</ele>
        <time>2012-04-02T12:07:08.000Z</time>
      </trkpt>
      <trkpt lat="45.67953" lon="4.6548">
        <ele>327.20001220703</ele>
        <time>2012-04-02T12:07:13.000Z</time>
      </trkpt>
      <trkpt lat="45.67941" lon="4.6558">
        <ele>324</ele>
        <time>2012-04-02T12:07:24.000Z</time>
      </trkpt>
      <trkpt lat="45.67911" lon="4.65699">
        <ele>321.60000610352</ele>
        <time>2012-04-02T12:07:37.000Z</time>
      </trkpt>
      <trkpt lat="45.67908" lon="4.65719">
        <ele>321.39999389648</ele>
        <time>2012-04-02T12:07:39.000Z</time>
      </trkpt>
      <trkpt lat="45.67906" lon="4.65751">
        <ele>321.20001220703</ele>
        <time>2012-04-02T12:07:42.000Z</time>
      </trkpt>
      <trkpt lat="45.67907" lon="4.65761">
        <ele>320.79998779297</ele>
        <time>2012-04-02T12:07:43.000Z</time>
      </trkpt>
      <trkpt lat="45.67907" lon="4.65771">
        <ele>320.39999389648</ele>
        <time>2012-04-02T12:07:44.000Z</time>
      </trkpt>
      <trkpt lat="45.67908" lon="4.65782">
        <ele>320</ele>
        <time>2012-04-02T12:07:45.000Z</time>
      </trkpt>
      <trkpt lat="45.67909" lon="4.65792">
        <ele>319.60000610352</ele>
        <time>2012-04-02T12:07:46.000Z</time>
      </trkpt>
      <trkpt lat="45.67915" lon="4.65861">
        <ele>318</ele>
        <time>2012-04-02T12:07:54.000Z</time>
      </trkpt>
      <trkpt lat="45.67914" lon="4.65868">
        <ele>318</ele>
        <time>2012-04-02T12:07:55.000Z</time>
      </trkpt>
      <trkpt lat="45.67912" lon="4.65873">
        <ele>318</ele>
        <time>2012-04-02T12:07:56.000Z</time>
      </trkpt>
      <trkpt lat="45.67909" lon="4.65878">
        <ele>317.79998779297</ele>
        <time>2012-04-02T12:07:57.000Z</time>
      </trkpt>
      <trkpt lat="45.67905" lon="4.65881">
        <ele>317.79998779297</ele>
        <time>2012-04-02T12:07:58.000Z</time>
      </trkpt>
      <trkpt lat="45.67902" lon="4.65882">
        <ele>317.79998779297</ele>
        <time>2012-04-02T12:07:59.000Z</time>
      </trkpt>
      <trkpt lat="45.67898" lon="4.65883">
        <ele>317.60000610352</ele>
        <time>2012-04-02T12:08:00.000Z</time>
      </trkpt>
      <trkpt lat="45.67896" lon="4.65883">
        <ele>317.60000610352</ele>
        <time>2012-04-02T12:08:01.000Z</time>
      </trkpt>
      <trkpt lat="45.67894" lon="4.65884">
        <ele>317.60000610352</ele>
        <time>2012-04-02T12:08:02.000Z</time>
      </trkpt>
      <trkpt lat="45.67893" lon="4.65887">
        <ele>317.60000610352</ele>
        <time>2012-04-02T12:08:03.000Z</time>
      </trkpt>
      <trkpt lat="45.67892" lon="4.65891">
        <ele>317.60000610352</ele>
        <time>2012-04-02T12:08:04.000Z</time>
      </trkpt>
      <trkpt lat="45.67892" lon="4.65895">
        <ele>317.60000610352</ele>
        <time>2012-04-02T12:08:05.000Z</time>
      </trkpt>
      <trkpt lat="45.67891" lon="4.659">
        <ele>317.60000610352</ele>
        <time>2012-04-02T12:08:06.000Z</time>
      </trkpt>
      <trkpt lat="45.6789" lon="4.65904">
        <ele>317.60000610352</ele>
        <time>2012-04-02T12:08:07.000Z</time>
      </trkpt>
      <trkpt lat="45.67889" lon="4.6591">
        <ele>317.60000610352</ele>
        <time>2012-04-02T12:08:08.000Z</time>
      </trkpt>
      <trkpt lat="45.6789" lon="4.65915">
        <ele>317.60000610352</ele>
        <time>2012-04-02T12:08:09.000Z</time>
      </trkpt>
      <trkpt lat="45.6789" lon="4.65921">
        <ele>317.79998779297</ele>
        <time>2012-04-02T12:08:10.000Z</time>
      </trkpt>
      <trkpt lat="45.67891" lon="4.65928">
        <ele>318</ele>
        <time>2012-04-02T12:08:11.000Z</time>
      </trkpt>
      <trkpt lat="45.67891" lon="4.65934">
        <ele>318.39999389648</ele>
        <time>2012-04-02T12:08:12.000Z</time>
      </trkpt>
      <trkpt lat="45.67891" lon="4.65941">
        <ele>318.60000610352</ele>
        <time>2012-04-02T12:08:13.000Z</time>
      </trkpt>
      <trkpt lat="45.6789" lon="4.65949">
        <ele>318.79998779297</ele>
        <time>2012-04-02T12:08:15.000Z</time>
      </trkpt>
      <trkpt lat="45.67888" lon="4.65952">
        <ele>319</ele>
        <time>2012-04-02T12:08:16.000Z</time>
      </trkpt>
      <trkpt lat="45.67886" lon="4.65953">
        <ele>319</ele>
        <time>2012-04-02T12:08:17.000Z</time>
      </trkpt>
      <trkpt lat="45.67884" lon="4.65955">
        <ele>319</ele>
        <time>2012-04-02T12:08:18.000Z</time>
      </trkpt>
      <trkpt lat="45.67883" lon="4.65955">
        <ele>319</ele>
        <time>2012-04-02T12:08:19.000Z</time>
      </trkpt>
      <trkpt lat="45.6788" lon="4.65956">
        <ele>319.20001220703</ele>
        <time>2012-04-02T12:08:20.000Z</time>
      </trkpt>
      <trkpt lat="45.67873" lon="4.65956">
        <ele>319.20001220703</ele>
        <time>2012-04-02T12:08:23.000Z</time>
      </trkpt>
      <trkpt lat="45.67872" lon="4.65956">
        <ele>319.20001220703</ele>
        <time>2012-04-02T12:08:33.000Z</time>
      </trkpt>
      <trkpt lat="45.67873" lon="4.65954">
        <ele>319</ele>
        <time>2012-04-02T12:08:49.000Z</time>
      </trkpt>
      <trkpt lat="45.67873" lon="4.65954">
        <ele>319</ele>
        <time>2012-04-02T12:08:50.000Z</time>
      </trkpt>
      <trkpt lat="45.67873" lon="4.65954">
        <ele>319</ele>
        <time>2012-04-02T12:08:51.000Z</time>
      </trkpt>
      <trkpt lat="45.67873" lon="4.65952">
        <ele>319</ele>
        <time>2012-04-02T12:09:18.000Z</time>
      </trkpt>
      <trkpt lat="45.67872" lon="4.65953">
        <ele>319</ele>
        <time>2012-04-02T12:09:54.000Z</time>
      </trkpt>
      <trkpt lat="45.67872" lon="4.65953">
        <ele>319</ele>
        <time>2012-04-02T12:10:26.000Z</time>
      </trkpt>
      <trkpt lat="45.67872" lon="4.65952">
        <ele>319</ele>
        <time>2012-04-02T12:10:40.000Z</time>
      </trkpt>
      <trkpt lat="45.67873" lon="4.6595">
        <ele>319</ele>
        <time>2012-04-02T12:10:41.000Z</time>
      </trkpt>
      <trkpt lat="45.67874" lon="4.6595">
        <ele>319</ele>
        <time>2012-04-02T12:10:42.000Z</time>
      </trkpt>
      <trkpt lat="45.67876" lon="4.65952">
        <ele>319</ele>
        <time>2012-04-02T12:10:43.000Z</time>
      </trkpt>
      <trkpt lat="45.67877" lon="4.65954">
        <ele>319</ele>
        <time>2012-04-02T12:10:44.000Z</time>
      </trkpt>
      <trkpt lat="45.67878" lon="4.65956">
        <ele>319.20001220703</ele>
        <time>2012-04-02T12:10:45.000Z</time>
      </trkpt>
      <trkpt lat="45.67874" lon="4.65995">
        <ele>320.79998779297</ele>
        <time>2012-04-02T12:10:55.000Z</time>
      </trkpt>
      <trkpt lat="45.67873" lon="4.66001">
        <ele>321</ele>
        <time>2012-04-02T12:10:56.000Z</time>
      </trkpt>
      <trkpt lat="45.67873" lon="4.66007">
        <ele>321.20001220703</ele>
        <time>2012-04-02T12:10:57.000Z</time>
      </trkpt>
      <trkpt lat="45.67873" lon="4.66012">
        <ele>321.20001220703</ele>
        <time>2012-04-02T12:10:58.000Z</time>
      </trkpt>
      <trkpt lat="45.67874" lon="4.66018">
        <ele>321.20001220703</ele>
        <time>2012-04-02T12:10:59.000Z</time>
      </trkpt>
      <trkpt lat="45.67874" lon="4.66024">
        <ele>321.20001220703</ele>
        <time>2012-04-02T12:11:00.000Z</time>
      </trkpt>
      <trkpt lat="45.67874" lon="4.66031">
        <ele>321.20001220703</ele>
        <time>2012-04-02T12:11:01.000Z</time>
      </trkpt>
      <trkpt lat="45.67873" lon="4.66045">
        <ele>321.39999389648</ele>
        <time>2012-04-02T12:11:03.000Z</time>
      </trkpt>
      <trkpt lat="45.67874" lon="4.66052">
        <ele>321.39999389648</ele>
        <time>2012-04-02T12:11:04.000Z</time>
      </trkpt>
      <trkpt lat="45.67875" lon="4.66059">
        <ele>321.39999389648</ele>
        <time>2012-04-02T12:11:05.000Z</time>
      </trkpt>
      <trkpt lat="45.6789" lon="4.66162">
        <ele>318.39999389648</ele>
        <time>2012-04-02T12:11:19.000Z</time>
      </trkpt>
      <trkpt lat="45.67892" lon="4.6621">
        <ele>318.60000610352</ele>
        <time>2012-04-02T12:11:26.000Z</time>
      </trkpt>
      <trkpt lat="45.67895" lon="4.66278">
        <ele>320</ele>
        <time>2012-04-02T12:11:39.000Z</time>
      </trkpt>
      <trkpt lat="45.67892" lon="4.66355">
        <ele>323.60000610352</ele>
        <time>2012-04-02T12:11:55.000Z</time>
      </trkpt>
      <trkpt lat="45.67886" lon="4.66433">
        <ele>327</ele>
        <time>2012-04-02T12:12:11.000Z</time>
      </trkpt>
      <trkpt lat="45.67876" lon="4.66511">
        <ele>328</ele>
        <time>2012-04-02T12:12:27.000Z</time>
      </trkpt>
      <trkpt lat="45.67853" lon="4.66591">
        <ele>329.79998779297</ele>
        <time>2012-04-02T12:12:44.000Z</time>
      </trkpt>
      <trkpt lat="45.67816" lon="4.66683">
        <ele>330.79998779297</ele>
        <time>2012-04-02T12:13:04.000Z</time>
      </trkpt>
      <trkpt lat="45.67801" lon="4.66761">
        <ele>331</ele>
        <time>2012-04-02T12:13:19.000Z</time>
      </trkpt>
      <trkpt lat="45.678" lon="4.66767">
        <ele>331.39999389648</ele>
        <time>2012-04-02T12:13:20.000Z</time>
      </trkpt>
      <trkpt lat="45.67803" lon="4.66861">
        <ele>334.39999389648</ele>
        <time>2012-04-02T12:13:38.000Z</time>
      </trkpt>
      <trkpt lat="45.67805" lon="4.66945">
        <ele>337.39999389648</ele>
        <time>2012-04-02T12:13:54.000Z</time>
      </trkpt>
      <trkpt lat="45.67796" lon="4.67031">
        <ele>339.60000610352</ele>
        <time>2012-04-02T12:14:10.000Z</time>
      </trkpt>
      <trkpt lat="45.67782" lon="4.67135">
        <ele>340.79998779297</ele>
        <time>2012-04-02T12:14:29.000Z</time>
      </trkpt>
      <trkpt lat="45.67777" lon="4.67213">
        <ele>343</ele>
        <time>2012-04-02T12:14:43.000Z</time>
      </trkpt>
      <trkpt lat="45.67777" lon="4.67233">
        <ele>343.79998779297</ele>
        <time>2012-04-02T12:14:47.000Z</time>
      </trkpt>
      <trkpt lat="45.67774" lon="4.67235">
        <ele>344</ele>
        <time>2012-04-02T12:14:48.000Z</time>
      </trkpt>
      <trkpt lat="45.67771" lon="4.67236">
        <ele>344.20001220703</ele>
        <time>2012-04-02T12:14:49.000Z</time>
      </trkpt>
      <trkpt lat="45.67768" lon="4.67235">
        <ele>344.39999389648</ele>
        <time>2012-04-02T12:14:50.000Z</time>
      </trkpt>
      <trkpt lat="45.67764" lon="4.67233">
        <ele>344.60000610352</ele>
        <time>2012-04-02T12:14:51.000Z</time>
      </trkpt>
      <trkpt lat="45.67761" lon="4.67231">
        <ele>344.60000610352</ele>
        <time>2012-04-02T12:14:52.000Z</time>
      </trkpt>
      <trkpt lat="45.67758" lon="4.6723">
        <ele>344.79998779297</ele>
        <time>2012-04-02T12:14:53.000Z</time>
      </trkpt>
      <trkpt lat="45.67754" lon="4.67229">
        <ele>345</ele>
        <time>2012-04-02T12:14:54.000Z</time>
      </trkpt>
      <trkpt lat="45.67711" lon="4.67215">
        <ele>346.79998779297</ele>
        <time>2012-04-02T12:15:07.000Z</time>
      </trkpt>
      <trkpt lat="45.67672" lon="4.67199">
        <ele>348.60000610352</ele>
        <time>2012-04-02T12:15:21.000Z</time>
      </trkpt>
      <trkpt lat="45.67642" lon="4.67185">
        <ele>350.79998779297</ele>
        <time>2012-04-02T12:15:34.000Z</time>
      </trkpt>
      <trkpt lat="45.6761" lon="4.67176">
        <ele>353</ele>
        <time>2012-04-02T12:15:49.000Z</time>
      </trkpt>
      <trkpt lat="45.67581" lon="4.67172">
        <ele>355.20001220703</ele>
        <time>2012-04-02T12:16:03.000Z</time>
      </trkpt>
      <trkpt lat="45.67557" lon="4.67165">
        <ele>357.79998779297</ele>
        <time>2012-04-02T12:16:15.000Z</time>
      </trkpt>
      <trkpt lat="45.67528" lon="4.67153">
        <ele>360.79998779297</ele>
        <time>2012-04-02T12:16:31.000Z</time>
      </trkpt>
      <trkpt lat="45.67524" lon="4.6715">
        <ele>361.20001220703</ele>
        <time>2012-04-02T12:16:33.000Z</time>
      </trkpt>
      <trkpt lat="45.67522" lon="4.6715">
        <ele>361.39999389648</ele>
        <time>2012-04-02T12:16:34.000Z</time>
      </trkpt>
      <trkpt lat="45.67521" lon="4.67149">
        <ele>361.60000610352</ele>
        <time>2012-04-02T12:16:35.000Z</time>
      </trkpt>
      <trkpt lat="45.67519" lon="4.67148">
        <ele>361.79998779297</ele>
        <time>2012-04-02T12:16:36.000Z</time>
      </trkpt>
      <trkpt lat="45.67517" lon="4.67147">
        <ele>362</ele>
        <time>2012-04-02T12:16:37.000Z</time>
      </trkpt>
      <trkpt lat="45.67497" lon="4.67142">
        <ele>364</ele>
        <time>2012-04-02T12:16:50.000Z</time>
      </trkpt>
      <trkpt lat="45.67469" lon="4.67139">
        <ele>367</ele>
        <time>2012-04-02T12:17:07.000Z</time>
      </trkpt>
      <trkpt lat="45.67446" lon="4.67135">
        <ele>369.20001220703</ele>
        <time>2012-04-02T12:17:21.000Z</time>
      </trkpt>
      <trkpt lat="45.67416" lon="4.67124">
        <ele>372</ele>
        <time>2012-04-02T12:17:40.000Z</time>
      </trkpt>
      <trkpt lat="45.67388" lon="4.67114">
        <ele>374.20001220703</ele>
        <time>2012-04-02T12:17:56.000Z</time>
      </trkpt>
      <trkpt lat="45.67358" lon="4.67108">
        <ele>376.79998779297</ele>
        <time>2012-04-02T12:18:13.000Z</time>
      </trkpt>
      <trkpt lat="45.67329" lon="4.67104">
        <ele>379</ele>
        <time>2012-04-02T12:18:29.000Z</time>
      </trkpt>
      <trkpt lat="45.67324" lon="4.67101">
        <ele>379.20001220703</ele>
        <time>2012-04-02T12:18:39.000Z</time>
      </trkpt>
      <trkpt lat="45.67324" lon="4.67101">
        <ele>379.20001220703</ele>
        <time>2012-04-02T12:19:03.000Z</time>
      </trkpt>
      <trkpt lat="45.67324" lon="4.67101">
        <ele>379.20001220703</ele>
        <time>2012-04-02T12:19:25.000Z</time>
      </trkpt>
      <trkpt lat="45.67323" lon="4.67101">
        <ele>379.39999389648</ele>
        <time>2012-04-02T12:19:26.000Z</time>
      </trkpt>
      <trkpt lat="45.67322" lon="4.67102">
        <ele>379.39999389648</ele>
        <time>2012-04-02T12:19:27.000Z</time>
      </trkpt>
      <trkpt lat="45.6732" lon="4.67103">
        <ele>379.60000610352</ele>
        <time>2012-04-02T12:19:28.000Z</time>
      </trkpt>
      <trkpt lat="45.67319" lon="4.67103">
        <ele>379.60000610352</ele>
        <time>2012-04-02T12:19:29.000Z</time>
      </trkpt>
      <trkpt lat="45.67317" lon="4.67103">
        <ele>379.79998779297</ele>
        <time>2012-04-02T12:19:30.000Z</time>
      </trkpt>
      <trkpt lat="45.67316" lon="4.67103">
        <ele>379.79998779297</ele>
        <time>2012-04-02T12:19:31.000Z</time>
      </trkpt>
      <trkpt lat="45.6729" lon="4.67105">
        <ele>381.60000610352</ele>
        <time>2012-04-02T12:19:44.000Z</time>
      </trkpt>
      <trkpt lat="45.6726" lon="4.67108">
        <ele>383.79998779297</ele>
        <time>2012-04-02T12:20:00.000Z</time>
      </trkpt>
      <trkpt lat="45.67234" lon="4.6711">
        <ele>385.60000610352</ele>
        <time>2012-04-02T12:20:13.000Z</time>
      </trkpt>
      <trkpt lat="45.67201" lon="4.67118">
        <ele>387.79998779297</ele>
        <time>2012-04-02T12:20:29.000Z</time>
      </trkpt>
      <trkpt lat="45.67172" lon="4.67115">
        <ele>389.39999389648</ele>
        <time>2012-04-02T12:20:43.000Z</time>
      </trkpt>
      <trkpt lat="45.67145" lon="4.67113">
        <ele>391.60000610352</ele>
        <time>2012-04-02T12:20:56.000Z</time>
      </trkpt>
      <trkpt lat="45.67121" lon="4.67116">
        <ele>394.20001220703</ele>
        <time>2012-04-02T12:21:10.000Z</time>
      </trkpt>
      <trkpt lat="45.67112" lon="4.67119">
        <ele>395.20001220703</ele>
        <time>2012-04-02T12:21:16.000Z</time>
      </trkpt>
      <trkpt lat="45.67111" lon="4.6712">
        <ele>395.39999389648</ele>
        <time>2012-04-02T12:21:17.000Z</time>
      </trkpt>
      <trkpt lat="45.67103" lon="4.67123">
        <ele>396.39999389648</ele>
        <time>2012-04-02T12:21:22.000Z</time>
      </trkpt>
      <trkpt lat="45.67102" lon="4.67124">
        <ele>396.60000610352</ele>
        <time>2012-04-02T12:21:23.000Z</time>
      </trkpt>
      <trkpt lat="45.67101" lon="4.67125">
        <ele>396.79998779297</ele>
        <time>2012-04-02T12:21:24.000Z</time>
      </trkpt>
      <trkpt lat="45.671" lon="4.67126">
        <ele>397</ele>
        <time>2012-04-02T12:21:25.000Z</time>
      </trkpt>
      <trkpt lat="45.67098" lon="4.67127">
        <ele>397.20001220703</ele>
        <time>2012-04-02T12:21:26.000Z</time>
      </trkpt>
      <trkpt lat="45.67096" lon="4.67128">
        <ele>397.39999389648</ele>
        <time>2012-04-02T12:21:27.000Z</time>
      </trkpt>
      <trkpt lat="45.67095" lon="4.67128">
        <ele>397.60000610352</ele>
        <time>2012-04-02T12:21:28.000Z</time>
      </trkpt>
      <trkpt lat="45.67093" lon="4.67128">
        <ele>397.79998779297</ele>
        <time>2012-04-02T12:21:29.000Z</time>
      </trkpt>
      <trkpt lat="45.67072" lon="4.67127">
        <ele>400</ele>
        <time>2012-04-02T12:21:42.000Z</time>
      </trkpt>
      <trkpt lat="45.67046" lon="4.67121">
        <ele>402.60000610352</ele>
        <time>2012-04-02T12:21:57.000Z</time>
      </trkpt>
      <trkpt lat="45.67045" lon="4.67122">
        <ele>402.79998779297</ele>
        <time>2012-04-02T12:21:58.000Z</time>
      </trkpt>
      <trkpt lat="45.67043" lon="4.67122">
        <ele>403</ele>
        <time>2012-04-02T12:21:59.000Z</time>
      </trkpt>
      <trkpt lat="45.67021" lon="4.67116">
        <ele>405.20001220703</ele>
        <time>2012-04-02T12:22:11.000Z</time>
      </trkpt>
      <trkpt lat="45.66994" lon="4.67117">
        <ele>408.20001220703</ele>
        <time>2012-04-02T12:22:27.000Z</time>
      </trkpt>
      <trkpt lat="45.66986" lon="4.6712">
        <ele>409</ele>
        <time>2012-04-02T12:22:32.000Z</time>
      </trkpt>
      <trkpt lat="45.66985" lon="4.67121">
        <ele>409</ele>
        <time>2012-04-02T12:22:33.000Z</time>
      </trkpt>
      <trkpt lat="45.66983" lon="4.67121">
        <ele>409.20001220703</ele>
        <time>2012-04-02T12:22:34.000Z</time>
      </trkpt>
      <trkpt lat="45.66969" lon="4.67125">
        <ele>410.20001220703</ele>
        <time>2012-04-02T12:22:43.000Z</time>
      </trkpt>
      <trkpt lat="45.66964" lon="4.67125">
        <ele>410.60000610352</ele>
        <time>2012-04-02T12:22:47.000Z</time>
      </trkpt>
      <trkpt lat="45.66962" lon="4.67125">
        <ele>410.79998779297</ele>
        <time>2012-04-02T12:22:48.000Z</time>
      </trkpt>
      <trkpt lat="45.66961" lon="4.67124">
        <ele>410.79998779297</ele>
        <time>2012-04-02T12:22:49.000Z</time>
      </trkpt>
      <trkpt lat="45.66933" lon="4.67137">
        <ele>412.60000610352</ele>
        <time>2012-04-02T12:23:05.000Z</time>
      </trkpt>
      <trkpt lat="45.66908" lon="4.67151">
        <ele>414.20001220703</ele>
        <time>2012-04-02T12:23:18.000Z</time>
      </trkpt>
      <trkpt lat="45.6688" lon="4.67164">
        <ele>416.20001220703</ele>
        <time>2012-04-02T12:23:31.000Z</time>
      </trkpt>
      <trkpt lat="45.66846" lon="4.67178">
        <ele>418.39999389648</ele>
        <time>2012-04-02T12:23:46.000Z</time>
      </trkpt>
      <trkpt lat="45.66807" lon="4.67192">
        <ele>419.79998779297</ele>
        <time>2012-04-02T12:23:59.000Z</time>
      </trkpt>
      <trkpt lat="45.66763" lon="4.67208">
        <ele>421</ele>
        <time>2012-04-02T12:24:12.000Z</time>
      </trkpt>
      <trkpt lat="45.66713" lon="4.67231">
        <ele>421</ele>
        <time>2012-04-02T12:24:26.000Z</time>
      </trkpt>
      <trkpt lat="45.66691" lon="4.67258">
        <ele>420.39999389648</ele>
        <time>2012-04-02T12:24:35.000Z</time>
      </trkpt>
      <trkpt lat="45.66681" lon="4.6727">
        <ele>420.39999389648</ele>
        <time>2012-04-02T12:24:38.000Z</time>
      </trkpt>
      <trkpt lat="45.66674" lon="4.67276">
        <ele>420.20001220703</ele>
        <time>2012-04-02T12:24:40.000Z</time>
      </trkpt>
      <trkpt lat="45.66669" lon="4.67279">
        <ele>420.20001220703</ele>
        <time>2012-04-02T12:24:41.000Z</time>
      </trkpt>
      <trkpt lat="45.66665" lon="4.67281">
        <ele>420.20001220703</ele>
        <time>2012-04-02T12:24:42.000Z</time>
      </trkpt>
      <trkpt lat="45.66661" lon="4.67283">
        <ele>420.20001220703</ele>
        <time>2012-04-02T12:24:43.000Z</time>
      </trkpt>
      <trkpt lat="45.66656" lon="4.67285">
        <ele>420</ele>
        <time>2012-04-02T12:24:44.000Z</time>
      </trkpt>
      <trkpt lat="45.66652" lon="4.67286">
        <ele>420</ele>
        <time>2012-04-02T12:24:45.000Z</time>
      </trkpt>
      <trkpt lat="45.66647" lon="4.67287">
        <ele>419.79998779297</ele>
        <time>2012-04-02T12:24:46.000Z</time>
      </trkpt>
      <trkpt lat="45.66633" lon="4.67289">
        <ele>419.60000610352</ele>
        <time>2012-04-02T12:24:49.000Z</time>
      </trkpt>
      <trkpt lat="45.66611" lon="4.67288">
        <ele>419.39999389648</ele>
        <time>2012-04-02T12:24:54.000Z</time>
      </trkpt>
      <trkpt lat="45.66606" lon="4.6729">
        <ele>419.39999389648</ele>
        <time>2012-04-02T12:24:55.000Z</time>
      </trkpt>
      <trkpt lat="45.66598" lon="4.67293">
        <ele>419.20001220703</ele>
        <time>2012-04-02T12:24:57.000Z</time>
      </trkpt>
      <trkpt lat="45.66582" lon="4.67304">
        <ele>418.79998779297</ele>
        <time>2012-04-02T12:25:01.000Z</time>
      </trkpt>
      <trkpt lat="45.6657" lon="4.67315">
        <ele>418.60000610352</ele>
        <time>2012-04-02T12:25:04.000Z</time>
      </trkpt>
      <trkpt lat="45.66566" lon="4.6732">
        <ele>418.60000610352</ele>
        <time>2012-04-02T12:25:05.000Z</time>
      </trkpt>
      <trkpt lat="45.66563" lon="4.67326">
        <ele>418.39999389648</ele>
        <time>2012-04-02T12:25:06.000Z</time>
      </trkpt>
      <trkpt lat="45.6656" lon="4.67332">
        <ele>418.39999389648</ele>
        <time>2012-04-02T12:25:07.000Z</time>
      </trkpt>
      <trkpt lat="45.66557" lon="4.67339">
        <ele>418.20001220703</ele>
        <time>2012-04-02T12:25:08.000Z</time>
      </trkpt>
      <trkpt lat="45.66556" lon="4.67348">
        <ele>418</ele>
        <time>2012-04-02T12:25:09.000Z</time>
      </trkpt>
      <trkpt lat="45.66555" lon="4.67356">
        <ele>417.79998779297</ele>
        <time>2012-04-02T12:25:10.000Z</time>
      </trkpt>
      <trkpt lat="45.66555" lon="4.67366">
        <ele>417.60000610352</ele>
        <time>2012-04-02T12:25:11.000Z</time>
      </trkpt>
      <trkpt lat="45.66557" lon="4.67377">
        <ele>417.39999389648</ele>
        <time>2012-04-02T12:25:12.000Z</time>
      </trkpt>
      <trkpt lat="45.66558" lon="4.67388">
        <ele>417.20001220703</ele>
        <time>2012-04-02T12:25:13.000Z</time>
      </trkpt>
      <trkpt lat="45.66559" lon="4.67412">
        <ele>416.60000610352</ele>
        <time>2012-04-02T12:25:15.000Z</time>
      </trkpt>
      <trkpt lat="45.66558" lon="4.67423">
        <ele>416.39999389648</ele>
        <time>2012-04-02T12:25:16.000Z</time>
      </trkpt>
      <trkpt lat="45.66555" lon="4.67444">
        <ele>415.79998779297</ele>
        <time>2012-04-02T12:25:18.000Z</time>
      </trkpt>
      <trkpt lat="45.66552" lon="4.67452">
        <ele>415.60000610352</ele>
        <time>2012-04-02T12:25:19.000Z</time>
      </trkpt>
      <trkpt lat="45.66547" lon="4.67457">
        <ele>415.60000610352</ele>
        <time>2012-04-02T12:25:20.000Z</time>
      </trkpt>
      <trkpt lat="45.66542" lon="4.6746">
        <ele>415.79998779297</ele>
        <time>2012-04-02T12:25:21.000Z</time>
      </trkpt>
      <trkpt lat="45.66537" lon="4.67461">
        <ele>415.79998779297</ele>
        <time>2012-04-02T12:25:22.000Z</time>
      </trkpt>
      <trkpt lat="45.66532" lon="4.67461">
        <ele>416</ele>
        <time>2012-04-02T12:25:23.000Z</time>
      </trkpt>
      <trkpt lat="45.66493" lon="4.67468">
        <ele>417.79998779297</ele>
        <time>2012-04-02T12:25:34.000Z</time>
      </trkpt>
      <trkpt lat="45.66472" lon="4.67505">
        <ele>418.60000610352</ele>
        <time>2012-04-02T12:25:44.000Z</time>
      </trkpt>
      <trkpt lat="45.66448" lon="4.67566">
        <ele>419.20001220703</ele>
        <time>2012-04-02T12:25:58.000Z</time>
      </trkpt>
      <trkpt lat="45.66421" lon="4.67641">
        <ele>420.79998779297</ele>
        <time>2012-04-02T12:26:14.000Z</time>
      </trkpt>
      <trkpt lat="45.66411" lon="4.67721">
        <ele>421.39999389648</ele>
        <time>2012-04-02T12:26:29.000Z</time>
      </trkpt>
      <trkpt lat="45.66419" lon="4.6781">
        <ele>420.79998779297</ele>
        <time>2012-04-02T12:26:44.000Z</time>
      </trkpt>
      <trkpt lat="45.66422" lon="4.67834">
        <ele>420.39999389648</ele>
        <time>2012-04-02T12:26:48.000Z</time>
      </trkpt>
      <trkpt lat="45.66423" lon="4.67848">
        <ele>420</ele>
        <time>2012-04-02T12:26:50.000Z</time>
      </trkpt>
      <trkpt lat="45.66421" lon="4.67889">
        <ele>418.79998779297</ele>
        <time>2012-04-02T12:26:56.000Z</time>
      </trkpt>
      <trkpt lat="45.66415" lon="4.67949">
        <ele>416.79998779297</ele>
        <time>2012-04-02T12:27:05.000Z</time>
      </trkpt>
      <trkpt lat="45.66414" lon="4.67954">
        <ele>416.79998779297</ele>
        <time>2012-04-02T12:27:06.000Z</time>
      </trkpt>
      <trkpt lat="45.66413" lon="4.67957">
        <ele>416.60000610352</ele>
        <time>2012-04-02T12:27:07.000Z</time>
      </trkpt>
      <trkpt lat="45.66411" lon="4.67962">
        <ele>416.60000610352</ele>
        <time>2012-04-02T12:27:19.000Z</time>
      </trkpt>
      <trkpt lat="45.66411" lon="4.67961">
        <ele>416.60000610352</ele>
        <time>2012-04-02T12:27:55.000Z</time>
      </trkpt>
      <trkpt lat="45.66409" lon="4.67966">
        <ele>416.39999389648</ele>
        <time>2012-04-02T12:28:19.000Z</time>
      </trkpt>
      <trkpt lat="45.66404" lon="4.67975">
        <ele>416.20001220703</ele>
        <time>2012-04-02T12:28:21.000Z</time>
      </trkpt>
      <trkpt lat="45.66351" lon="4.68024">
        <ele>414.60000610352</ele>
        <time>2012-04-02T12:28:32.000Z</time>
      </trkpt>
      <trkpt lat="45.66344" lon="4.68028">
        <ele>414.39999389648</ele>
        <time>2012-04-02T12:28:33.000Z</time>
      </trkpt>
      <trkpt lat="45.66336" lon="4.68031">
        <ele>414.39999389648</ele>
        <time>2012-04-02T12:28:34.000Z</time>
      </trkpt>
      <trkpt lat="45.66305" lon="4.68043">
        <ele>414.60000610352</ele>
        <time>2012-04-02T12:28:39.000Z</time>
      </trkpt>
      <trkpt lat="45.66301" lon="4.68047">
        <ele>414.60000610352</ele>
        <time>2012-04-02T12:28:40.000Z</time>
      </trkpt>
      <trkpt lat="45.66297" lon="4.68051">
        <ele>414.60000610352</ele>
        <time>2012-04-02T12:28:41.000Z</time>
      </trkpt>
      <trkpt lat="45.66289" lon="4.68061">
        <ele>414.39999389648</ele>
        <time>2012-04-02T12:28:43.000Z</time>
      </trkpt>
      <trkpt lat="45.66274" lon="4.68082">
        <ele>414.20001220703</ele>
        <time>2012-04-02T12:28:47.000Z</time>
      </trkpt>
      <trkpt lat="45.6627" lon="4.68087">
        <ele>414.20001220703</ele>
        <time>2012-04-02T12:28:48.000Z</time>
      </trkpt>
      <trkpt lat="45.66211" lon="4.68122">
        <ele>412.20001220703</ele>
        <time>2012-04-02T12:29:00.000Z</time>
      </trkpt>
      <trkpt lat="45.66205" lon="4.68124">
        <ele>412</ele>
        <time>2012-04-02T12:29:01.000Z</time>
      </trkpt>
      <trkpt lat="45.66199" lon="4.68126">
        <ele>411.79998779297</ele>
        <time>2012-04-02T12:29:02.000Z</time>
      </trkpt>
      <trkpt lat="45.66157" lon="4.68133">
        <ele>409.20001220703</ele>
        <time>2012-04-02T12:29:09.000Z</time>
      </trkpt>
      <trkpt lat="45.66151" lon="4.68132">
        <ele>408.79998779297</ele>
        <time>2012-04-02T12:29:10.000Z</time>
      </trkpt>
      <trkpt lat="45.66145" lon="4.68129">
        <ele>408.60000610352</ele>
        <time>2012-04-02T12:29:11.000Z</time>
      </trkpt>
      <trkpt lat="45.6614" lon="4.68126">
        <ele>408.39999389648</ele>
        <time>2012-04-02T12:29:12.000Z</time>
      </trkpt>
      <trkpt lat="45.66135" lon="4.68122">
        <ele>408.20001220703</ele>
        <time>2012-04-02T12:29:13.000Z</time>
      </trkpt>
      <trkpt lat="45.6613" lon="4.68118">
        <ele>408.20001220703</ele>
        <time>2012-04-02T12:29:14.000Z</time>
      </trkpt>
      <trkpt lat="45.66125" lon="4.68114">
        <ele>408.39999389648</ele>
        <time>2012-04-02T12:29:15.000Z</time>
      </trkpt>
      <trkpt lat="45.66105" lon="4.68096">
        <ele>408.79998779297</ele>
        <time>2012-04-02T12:29:19.000Z</time>
      </trkpt>
      <trkpt lat="45.66081" lon="4.68074">
        <ele>409.60000610352</ele>
        <time>2012-04-02T12:29:23.000Z</time>
      </trkpt>
      <trkpt lat="45.66068" lon="4.68064">
        <ele>408.39999389648</ele>
        <time>2012-04-02T12:29:25.000Z</time>
      </trkpt>
      <trkpt lat="45.66062" lon="4.68057">
        <ele>408</ele>
        <time>2012-04-02T12:29:26.000Z</time>
      </trkpt>
      <trkpt lat="45.66038" lon="4.68037">
        <ele>406.79998779297</ele>
        <time>2012-04-02T12:29:30.000Z</time>
      </trkpt>
      <trkpt lat="45.66033" lon="4.68032">
        <ele>406.79998779297</ele>
        <time>2012-04-02T12:29:31.000Z</time>
      </trkpt>
      <trkpt lat="45.66028" lon="4.68028">
        <ele>406.60000610352</ele>
        <time>2012-04-02T12:29:32.000Z</time>
      </trkpt>
      <trkpt lat="45.65971" lon="4.67985">
        <ele>404.60000610352</ele>
        <time>2012-04-02T12:29:42.000Z</time>
      </trkpt>
      <trkpt lat="45.65967" lon="4.67982">
        <ele>404.60000610352</ele>
        <time>2012-04-02T12:29:43.000Z</time>
      </trkpt>
      <trkpt lat="45.65962" lon="4.67978">
        <ele>404.39999389648</ele>
        <time>2012-04-02T12:29:44.000Z</time>
      </trkpt>
      <trkpt lat="45.65935" lon="4.6795">
        <ele>404.60000610352</ele>
        <time>2012-04-02T12:29:50.000Z</time>
      </trkpt>
      <trkpt lat="45.65931" lon="4.67947">
        <ele>404.39999389648</ele>
        <time>2012-04-02T12:29:51.000Z</time>
      </trkpt>
      <trkpt lat="45.65928" lon="4.67944">
        <ele>404.39999389648</ele>
        <time>2012-04-02T12:29:52.000Z</time>
      </trkpt>
      <trkpt lat="45.65925" lon="4.6794">
        <ele>404.60000610352</ele>
        <time>2012-04-02T12:29:53.000Z</time>
      </trkpt>
      <trkpt lat="45.6592" lon="4.67935">
        <ele>404.60000610352</ele>
        <time>2012-04-02T12:29:54.000Z</time>
      </trkpt>
      <trkpt lat="45.65893" lon="4.67908">
        <ele>403.79998779297</ele>
        <time>2012-04-02T12:29:59.000Z</time>
      </trkpt>
      <trkpt lat="45.65876" lon="4.67889">
        <ele>402.79998779297</ele>
        <time>2012-04-02T12:30:02.000Z</time>
      </trkpt>
      <trkpt lat="45.65872" lon="4.67883">
        <ele>402.60000610352</ele>
        <time>2012-04-02T12:30:03.000Z</time>
      </trkpt>
      <trkpt lat="45.65868" lon="4.67876">
        <ele>402.39999389648</ele>
        <time>2012-04-02T12:30:04.000Z</time>
      </trkpt>
      <trkpt lat="45.65856" lon="4.67853">
        <ele>402</ele>
        <time>2012-04-02T12:30:07.000Z</time>
      </trkpt>
      <trkpt lat="45.65821" lon="4.67786">
        <ele>400.20001220703</ele>
        <time>2012-04-02T12:30:16.000Z</time>
      </trkpt>
      <trkpt lat="45.65818" lon="4.67779">
        <ele>400.60000610352</ele>
        <time>2012-04-02T12:30:17.000Z</time>
      </trkpt>
      <trkpt lat="45.65817" lon="4.67772">
        <ele>400.79998779297</ele>
        <time>2012-04-02T12:30:18.000Z</time>
      </trkpt>
      <trkpt lat="45.65815" lon="4.67765">
        <ele>401.20001220703</ele>
        <time>2012-04-02T12:30:19.000Z</time>
      </trkpt>
      <trkpt lat="45.65813" lon="4.67758">
        <ele>401.39999389648</ele>
        <time>2012-04-02T12:30:20.000Z</time>
      </trkpt>
      <trkpt lat="45.6581" lon="4.67743">
        <ele>402</ele>
        <time>2012-04-02T12:30:22.000Z</time>
      </trkpt>
      <trkpt lat="45.65809" lon="4.67735">
        <ele>402.39999389648</ele>
        <time>2012-04-02T12:30:23.000Z</time>
      </trkpt>
      <trkpt lat="45.65807" lon="4.67718">
        <ele>402.79998779297</ele>
        <time>2012-04-02T12:30:26.000Z</time>
      </trkpt>
      <trkpt lat="45.65805" lon="4.67713">
        <ele>402.79998779297</ele>
        <time>2012-04-02T12:30:27.000Z</time>
      </trkpt>
      <trkpt lat="45.65804" lon="4.67708">
        <ele>403</ele>
        <time>2012-04-02T12:30:28.000Z</time>
      </trkpt>
      <trkpt lat="45.65803" lon="4.67703">
        <ele>403</ele>
        <time>2012-04-02T12:30:29.000Z</time>
      </trkpt>
      <trkpt lat="45.658" lon="4.677">
        <ele>403</ele>
        <time>2012-04-02T12:30:30.000Z</time>
      </trkpt>
      <trkpt lat="45.65798" lon="4.67696">
        <ele>403</ele>
        <time>2012-04-02T12:30:31.000Z</time>
      </trkpt>
      <trkpt lat="45.65795" lon="4.67691">
        <ele>403</ele>
        <time>2012-04-02T12:30:32.000Z</time>
      </trkpt>
      <trkpt lat="45.65791" lon="4.67687">
        <ele>402.79998779297</ele>
        <time>2012-04-02T12:30:33.000Z</time>
      </trkpt>
      <trkpt lat="45.65788" lon="4.67683">
        <ele>402.79998779297</ele>
        <time>2012-04-02T12:30:34.000Z</time>
      </trkpt>
      <trkpt lat="45.65777" lon="4.67667">
        <ele>402</ele>
        <time>2012-04-02T12:30:39.000Z</time>
      </trkpt>
      <trkpt lat="45.65777" lon="4.67663">
        <ele>402.20001220703</ele>
        <time>2012-04-02T12:30:40.000Z</time>
      </trkpt>
      <trkpt lat="45.65778" lon="4.67658">
        <ele>402.39999389648</ele>
        <time>2012-04-02T12:30:41.000Z</time>
      </trkpt>
      <trkpt lat="45.65777" lon="4.67652">
        <ele>402.39999389648</ele>
        <time>2012-04-02T12:30:42.000Z</time>
      </trkpt>
      <trkpt lat="45.65777" lon="4.67646">
        <ele>402.60000610352</ele>
        <time>2012-04-02T12:30:43.000Z</time>
      </trkpt>
      <trkpt lat="45.65775" lon="4.6764">
        <ele>402.79998779297</ele>
        <time>2012-04-02T12:30:44.000Z</time>
      </trkpt>
      <trkpt lat="45.65773" lon="4.67634">
        <ele>402.79998779297</ele>
        <time>2012-04-02T12:30:45.000Z</time>
      </trkpt>
      <trkpt lat="45.6577" lon="4.6763">
        <ele>402.60000610352</ele>
        <time>2012-04-02T12:30:46.000Z</time>
      </trkpt>
      <trkpt lat="45.65767" lon="4.67629">
        <ele>402.39999389648</ele>
        <time>2012-04-02T12:30:47.000Z</time>
      </trkpt>
      <trkpt lat="45.65765" lon="4.67629">
        <ele>402.20001220703</ele>
        <time>2012-04-02T12:30:48.000Z</time>
      </trkpt>
      <trkpt lat="45.65761" lon="4.67628">
        <ele>402</ele>
        <time>2012-04-02T12:30:49.000Z</time>
      </trkpt>
      <trkpt lat="45.65759" lon="4.67627">
        <ele>401.79998779297</ele>
        <time>2012-04-02T12:30:50.000Z</time>
      </trkpt>
      <trkpt lat="45.65757" lon="4.67627">
        <ele>401.60000610352</ele>
        <time>2012-04-02T12:30:51.000Z</time>
      </trkpt>
      <trkpt lat="45.65754" lon="4.67626">
        <ele>401.39999389648</ele>
        <time>2012-04-02T12:30:52.000Z</time>
      </trkpt>
      <trkpt lat="45.65738" lon="4.67625">
        <ele>401.79998779297</ele>
        <time>2012-04-02T12:30:57.000Z</time>
      </trkpt>
      <trkpt lat="45.65735" lon="4.67623">
        <ele>402</ele>
        <time>2012-04-02T12:30:58.000Z</time>
      </trkpt>
      <trkpt lat="45.65733" lon="4.67621">
        <ele>402.20001220703</ele>
        <time>2012-04-02T12:30:59.000Z</time>
      </trkpt>
      <trkpt lat="45.6573" lon="4.67619">
        <ele>402.39999389648</ele>
        <time>2012-04-02T12:31:00.000Z</time>
      </trkpt>
      <trkpt lat="45.65728" lon="4.67617">
        <ele>402.39999389648</ele>
        <time>2012-04-02T12:31:01.000Z</time>
      </trkpt>
      <trkpt lat="45.65726" lon="4.67616">
        <ele>402.60000610352</ele>
        <time>2012-04-02T12:31:02.000Z</time>
      </trkpt>
      <trkpt lat="45.65723" lon="4.67617">
        <ele>402.79998779297</ele>
        <time>2012-04-02T12:31:03.000Z</time>
      </trkpt>
      <trkpt lat="45.65721" lon="4.67618">
        <ele>402.79998779297</ele>
        <time>2012-04-02T12:31:04.000Z</time>
      </trkpt>
      <trkpt lat="45.65711" lon="4.67621">
        <ele>403.60000610352</ele>
        <time>2012-04-02T12:31:11.000Z</time>
      </trkpt>
      <trkpt lat="45.65709" lon="4.67621">
        <ele>403.60000610352</ele>
        <time>2012-04-02T12:31:12.000Z</time>
      </trkpt>
      <trkpt lat="45.65706" lon="4.67621">
        <ele>403.79998779297</ele>
        <time>2012-04-02T12:31:13.000Z</time>
      </trkpt>
      <trkpt lat="45.65704" lon="4.67622">
        <ele>404</ele>
        <time>2012-04-02T12:31:14.000Z</time>
      </trkpt>
      <trkpt lat="45.65702" lon="4.67623">
        <ele>404</ele>
        <time>2012-04-02T12:31:15.000Z</time>
      </trkpt>
      <trkpt lat="45.65701" lon="4.67622">
        <ele>404.20001220703</ele>
        <time>2012-04-02T12:31:16.000Z</time>
      </trkpt>
      <trkpt lat="45.65699" lon="4.67621">
        <ele>404.20001220703</ele>
        <time>2012-04-02T12:31:17.000Z</time>
      </trkpt>
      <trkpt lat="45.65697" lon="4.67621">
        <ele>404.39999389648</ele>
        <time>2012-04-02T12:31:18.000Z</time>
      </trkpt>
      <trkpt lat="45.65677" lon="4.67621">
        <ele>405.60000610352</ele>
        <time>2012-04-02T12:31:27.000Z</time>
      </trkpt>
      <trkpt lat="45.65672" lon="4.67626">
        <ele>406.20001220703</ele>
        <time>2012-04-02T12:31:31.000Z</time>
      </trkpt>
      <trkpt lat="45.65669" lon="4.67627">
        <ele>406.39999389648</ele>
        <time>2012-04-02T12:31:32.000Z</time>
      </trkpt>
      <trkpt lat="45.65668" lon="4.67628">
        <ele>406.60000610352</ele>
        <time>2012-04-02T12:31:33.000Z</time>
      </trkpt>
      <trkpt lat="45.65666" lon="4.6763">
        <ele>406.79998779297</ele>
        <time>2012-04-02T12:31:34.000Z</time>
      </trkpt>
      <trkpt lat="45.65664" lon="4.67631">
        <ele>407</ele>
        <time>2012-04-02T12:31:35.000Z</time>
      </trkpt>
      <trkpt lat="45.65658" lon="4.67633">
        <ele>407.60000610352</ele>
        <time>2012-04-02T12:31:40.000Z</time>
      </trkpt>
      <trkpt lat="45.65649" lon="4.67636">
        <ele>408.39999389648</ele>
        <time>2012-04-02T12:31:45.000Z</time>
      </trkpt>
      <trkpt lat="45.65634" lon="4.67642">
        <ele>409.60000610352</ele>
        <time>2012-04-02T12:31:55.000Z</time>
      </trkpt>
      <trkpt lat="45.65616" lon="4.67647">
        <ele>410.79998779297</ele>
        <time>2012-04-02T12:32:07.000Z</time>
      </trkpt>
      <trkpt lat="45.65603" lon="4.67647">
        <ele>411.60000610352</ele>
        <time>2012-04-02T12:32:16.000Z</time>
      </trkpt>
      <trkpt lat="45.65601" lon="4.67648">
        <ele>411.79998779297</ele>
        <time>2012-04-02T12:32:17.000Z</time>
      </trkpt>
      <trkpt lat="45.65587" lon="4.67652">
        <ele>412.60000610352</ele>
        <time>2012-04-02T12:32:28.000Z</time>
      </trkpt>
      <trkpt lat="45.65563" lon="4.67659">
        <ele>412.79998779297</ele>
        <time>2012-04-02T12:32:43.000Z</time>
      </trkpt>
      <trkpt lat="45.65543" lon="4.67666">
        <ele>412.60000610352</ele>
        <time>2012-04-02T12:32:55.000Z</time>
      </trkpt>
      <trkpt lat="45.65519" lon="4.67673">
        <ele>412.60000610352</ele>
        <time>2012-04-02T12:33:08.000Z</time>
      </trkpt>
      <trkpt lat="45.65498" lon="4.6768">
        <ele>413.20001220703</ele>
        <time>2012-04-02T12:33:21.000Z</time>
      </trkpt>
      <trkpt lat="45.6549" lon="4.67683">
        <ele>413.79998779297</ele>
        <time>2012-04-02T12:33:26.000Z</time>
      </trkpt>
      <trkpt lat="45.65488" lon="4.67684">
        <ele>414</ele>
        <time>2012-04-02T12:33:27.000Z</time>
      </trkpt>
      <trkpt lat="45.65487" lon="4.67684">
        <ele>414.20001220703</ele>
        <time>2012-04-02T12:33:28.000Z</time>
      </trkpt>
      <trkpt lat="45.65485" lon="4.67685">
        <ele>414.39999389648</ele>
        <time>2012-04-02T12:33:29.000Z</time>
      </trkpt>
      <trkpt lat="45.65483" lon="4.67686">
        <ele>414.39999389648</ele>
        <time>2012-04-02T12:33:30.000Z</time>
      </trkpt>
      <trkpt lat="45.65482" lon="4.67686">
        <ele>414.60000610352</ele>
        <time>2012-04-02T12:33:31.000Z</time>
      </trkpt>
      <trkpt lat="45.65458" lon="4.67702">
        <ele>417.20001220703</ele>
        <time>2012-04-02T12:33:45.000Z</time>
      </trkpt>
      <trkpt lat="45.65437" lon="4.67713">
        <ele>419</ele>
        <time>2012-04-02T12:33:57.000Z</time>
      </trkpt>
      <trkpt lat="45.65431" lon="4.67715">
        <ele>419.60000610352</ele>
        <time>2012-04-02T12:34:01.000Z</time>
      </trkpt>
      <trkpt lat="45.65429" lon="4.67715">
        <ele>419.60000610352</ele>
        <time>2012-04-02T12:34:02.000Z</time>
      </trkpt>
      <trkpt lat="45.65412" lon="4.67725">
        <ele>421</ele>
        <time>2012-04-02T12:34:14.000Z</time>
      </trkpt>
      <trkpt lat="45.65397" lon="4.67731">
        <ele>422</ele>
        <time>2012-04-02T12:34:23.000Z</time>
      </trkpt>
      <trkpt lat="45.65389" lon="4.67739">
        <ele>422.60000610352</ele>
        <time>2012-04-02T12:34:30.000Z</time>
      </trkpt>
      <trkpt lat="45.65374" lon="4.67759">
        <ele>423.39999389648</ele>
        <time>2012-04-02T12:34:41.000Z</time>
      </trkpt>
      <trkpt lat="45.65349" lon="4.67784">
        <ele>423.60000610352</ele>
        <time>2012-04-02T12:34:55.000Z</time>
      </trkpt>
      <trkpt lat="45.65339" lon="4.67792">
        <ele>423.39999389648</ele>
        <time>2012-04-02T12:34:59.000Z</time>
      </trkpt>
      <trkpt lat="45.65336" lon="4.67791">
        <ele>423.60000610352</ele>
        <time>2012-04-02T12:35:00.000Z</time>
      </trkpt>
      <trkpt lat="45.65333" lon="4.67789">
        <ele>423.60000610352</ele>
        <time>2012-04-02T12:35:01.000Z</time>
      </trkpt>
      <trkpt lat="45.65331" lon="4.67786">
        <ele>423.79998779297</ele>
        <time>2012-04-02T12:35:02.000Z</time>
      </trkpt>
      <trkpt lat="45.6533" lon="4.67784">
        <ele>423.79998779297</ele>
        <time>2012-04-02T12:35:03.000Z</time>
      </trkpt>
      <trkpt lat="45.65312" lon="4.67763">
        <ele>424.79998779297</ele>
        <time>2012-04-02T12:35:14.000Z</time>
      </trkpt>
      <trkpt lat="45.65288" lon="4.67735">
        <ele>426.39999389648</ele>
        <time>2012-04-02T12:35:29.000Z</time>
      </trkpt>
      <trkpt lat="45.65261" lon="4.67711">
        <ele>428</ele>
        <time>2012-04-02T12:35:44.000Z</time>
      </trkpt>
      <trkpt lat="45.65233" lon="4.67703">
        <ele>429.39999389648</ele>
        <time>2012-04-02T12:35:57.000Z</time>
      </trkpt>
      <trkpt lat="45.65204" lon="4.67689">
        <ele>431.60000610352</ele>
        <time>2012-04-02T12:36:12.000Z</time>
      </trkpt>
      <trkpt lat="45.65175" lon="4.67673">
        <ele>434</ele>
        <time>2012-04-02T12:36:27.000Z</time>
      </trkpt>
      <trkpt lat="45.6515" lon="4.67655">
        <ele>437</ele>
        <time>2012-04-02T12:36:41.000Z</time>
      </trkpt>
      <trkpt lat="45.65132" lon="4.67642">
        <ele>439.60000610352</ele>
        <time>2012-04-02T12:36:52.000Z</time>
      </trkpt>
      <trkpt lat="45.6511" lon="4.67626">
        <ele>442.60000610352</ele>
        <time>2012-04-02T12:37:07.000Z</time>
      </trkpt>
      <trkpt lat="45.65086" lon="4.67609">
        <ele>446.20001220703</ele>
        <time>2012-04-02T12:37:24.000Z</time>
      </trkpt>
      <trkpt lat="45.65062" lon="4.67593">
        <ele>449.60000610352</ele>
        <time>2012-04-02T12:37:41.000Z</time>
      </trkpt>
      <trkpt lat="45.65045" lon="4.67578">
        <ele>452.39999389648</ele>
        <time>2012-04-02T12:37:57.000Z</time>
      </trkpt>
      <trkpt lat="45.65041" lon="4.67573">
        <ele>453.20001220703</ele>
        <time>2012-04-02T12:38:01.000Z</time>
      </trkpt>
      <trkpt lat="45.65025" lon="4.67553">
        <ele>456.20001220703</ele>
        <time>2012-04-02T12:38:19.000Z</time>
      </trkpt>
      <trkpt lat="45.65008" lon="4.67532">
        <ele>459</ele>
        <time>2012-04-02T12:38:36.000Z</time>
      </trkpt>
      <trkpt lat="45.65001" lon="4.67523">
        <ele>460</ele>
        <time>2012-04-02T12:38:43.000Z</time>
      </trkpt>
      <trkpt lat="45.65" lon="4.67521">
        <ele>460.20001220703</ele>
        <time>2012-04-02T12:38:44.000Z</time>
      </trkpt>
      <trkpt lat="45.64999" lon="4.67519">
        <ele>460.39999389648</ele>
        <time>2012-04-02T12:38:45.000Z</time>
      </trkpt>
      <trkpt lat="45.64998" lon="4.67518">
        <ele>460.60000610352</ele>
        <time>2012-04-02T12:38:46.000Z</time>
      </trkpt>
      <trkpt lat="45.64997" lon="4.67517">
        <ele>460.79998779297</ele>
        <time>2012-04-02T12:38:47.000Z</time>
      </trkpt>
      <trkpt lat="45.64995" lon="4.67516">
        <ele>460.79998779297</ele>
        <time>2012-04-02T12:38:48.000Z</time>
      </trkpt>
      <trkpt lat="45.64994" lon="4.67514">
        <ele>461</ele>
        <time>2012-04-02T12:38:49.000Z</time>
      </trkpt>
      <trkpt lat="45.64993" lon="4.67512">
        <ele>461.20001220703</ele>
        <time>2012-04-02T12:38:50.000Z</time>
      </trkpt>
      <trkpt lat="45.64978" lon="4.67493">
        <ele>462.60000610352</ele>
        <time>2012-04-02T12:39:04.000Z</time>
      </trkpt>
      <trkpt lat="45.64958" lon="4.6747">
        <ele>463.60000610352</ele>
        <time>2012-04-02T12:39:20.000Z</time>
      </trkpt>
      <trkpt lat="45.64931" lon="4.6745">
        <ele>464.39999389648</ele>
        <time>2012-04-02T12:39:36.000Z</time>
      </trkpt>
      <trkpt lat="45.64903" lon="4.67439">
        <ele>465.60000610352</ele>
        <time>2012-04-02T12:39:51.000Z</time>
      </trkpt>
      <trkpt lat="45.64873" lon="4.67432">
        <ele>467.79998779297</ele>
        <time>2012-04-02T12:40:07.000Z</time>
      </trkpt>
      <trkpt lat="45.64855" lon="4.67425">
        <ele>469.20001220703</ele>
        <time>2012-04-02T12:40:17.000Z</time>
      </trkpt>
      <trkpt lat="45.64853" lon="4.67423">
        <ele>469.39999389648</ele>
        <time>2012-04-02T12:40:18.000Z</time>
      </trkpt>
      <trkpt lat="45.64852" lon="4.6742">
        <ele>469.60000610352</ele>
        <time>2012-04-02T12:40:19.000Z</time>
      </trkpt>
      <trkpt lat="45.64851" lon="4.67418">
        <ele>469.79998779297</ele>
        <time>2012-04-02T12:40:20.000Z</time>
      </trkpt>
      <trkpt lat="45.64849" lon="4.67415">
        <ele>469.79998779297</ele>
        <time>2012-04-02T12:40:21.000Z</time>
      </trkpt>
      <trkpt lat="45.64849" lon="4.67412">
        <ele>470</ele>
        <time>2012-04-02T12:40:22.000Z</time>
      </trkpt>
      <trkpt lat="45.64848" lon="4.6741">
        <ele>470</ele>
        <time>2012-04-02T12:40:23.000Z</time>
      </trkpt>
      <trkpt lat="45.64848" lon="4.67407">
        <ele>470.20001220703</ele>
        <time>2012-04-02T12:40:24.000Z</time>
      </trkpt>
      <trkpt lat="45.64848" lon="4.67405">
        <ele>470.20001220703</ele>
        <time>2012-04-02T12:40:25.000Z</time>
      </trkpt>
      <trkpt lat="45.64847" lon="4.67402">
        <ele>470.39999389648</ele>
        <time>2012-04-02T12:40:26.000Z</time>
      </trkpt>
      <trkpt lat="45.64847" lon="4.674">
        <ele>470.39999389648</ele>
        <time>2012-04-02T12:40:27.000Z</time>
      </trkpt>
      <trkpt lat="45.64837" lon="4.67364">
        <ele>472</ele>
        <time>2012-04-02T12:40:41.000Z</time>
      </trkpt>
      <trkpt lat="45.64828" lon="4.67321">
        <ele>474</ele>
        <time>2012-04-02T12:40:57.000Z</time>
      </trkpt>
      <trkpt lat="45.64842" lon="4.67281">
        <ele>474</ele>
        <time>2012-04-02T12:41:07.000Z</time>
      </trkpt>
      <trkpt lat="45.64849" lon="4.67264">
        <ele>473.79998779297</ele>
        <time>2012-04-02T12:41:10.000Z</time>
      </trkpt>
      <trkpt lat="45.6486" lon="4.6724">
        <ele>473.60000610352</ele>
        <time>2012-04-02T12:41:14.000Z</time>
      </trkpt>
      <trkpt lat="45.6487" lon="4.67207">
        <ele>473.60000610352</ele>
        <time>2012-04-02T12:41:18.000Z</time>
      </trkpt>
      <trkpt lat="45.64873" lon="4.67199">
        <ele>473.60000610352</ele>
        <time>2012-04-02T12:41:19.000Z</time>
      </trkpt>
      <trkpt lat="45.64876" lon="4.67191">
        <ele>473.60000610352</ele>
        <time>2012-04-02T12:41:20.000Z</time>
      </trkpt>
      <trkpt lat="45.64877" lon="4.67182">
        <ele>473.60000610352</ele>
        <time>2012-04-02T12:41:21.000Z</time>
      </trkpt>
      <trkpt lat="45.6488" lon="4.67173">
        <ele>473.60000610352</ele>
        <time>2012-04-02T12:41:22.000Z</time>
      </trkpt>
      <trkpt lat="45.64884" lon="4.67167">
        <ele>473.39999389648</ele>
        <time>2012-04-02T12:41:23.000Z</time>
      </trkpt>
      <trkpt lat="45.64889" lon="4.67162">
        <ele>473.20001220703</ele>
        <time>2012-04-02T12:41:24.000Z</time>
      </trkpt>
      <trkpt lat="45.64894" lon="4.67158">
        <ele>473</ele>
        <time>2012-04-02T12:41:25.000Z</time>
      </trkpt>
      <trkpt lat="45.649" lon="4.67156">
        <ele>472.60000610352</ele>
        <time>2012-04-02T12:41:26.000Z</time>
      </trkpt>
      <trkpt lat="45.64935" lon="4.67139">
        <ele>471.60000610352</ele>
        <time>2012-04-02T12:41:34.000Z</time>
      </trkpt>
      <trkpt lat="45.64939" lon="4.67136">
        <ele>471.60000610352</ele>
        <time>2012-04-02T12:41:35.000Z</time>
      </trkpt>
      <trkpt lat="45.64943" lon="4.67134">
        <ele>471.60000610352</ele>
        <time>2012-04-02T12:41:36.000Z</time>
      </trkpt>
      <trkpt lat="45.64956" lon="4.67129">
        <ele>471.39999389648</ele>
        <time>2012-04-02T12:41:39.000Z</time>
      </trkpt>
      <trkpt lat="45.6496" lon="4.67127">
        <ele>471.20001220703</ele>
        <time>2012-04-02T12:41:40.000Z</time>
      </trkpt>
      <trkpt lat="45.64965" lon="4.67125">
        <ele>471.20001220703</ele>
        <time>2012-04-02T12:41:41.000Z</time>
      </trkpt>
      <trkpt lat="45.64985" lon="4.67112">
        <ele>471.60000610352</ele>
        <time>2012-04-02T12:41:46.000Z</time>
      </trkpt>
      <trkpt lat="45.65032" lon="4.6707">
        <ele>473.60000610352</ele>
        <time>2012-04-02T12:41:59.000Z</time>
      </trkpt>
      <trkpt lat="45.65035" lon="4.67067">
        <ele>473.79998779297</ele>
        <time>2012-04-02T12:42:00.000Z</time>
      </trkpt>
      <trkpt lat="45.65038" lon="4.67063">
        <ele>473.79998779297</ele>
        <time>2012-04-02T12:42:01.000Z</time>
      </trkpt>
      <trkpt lat="45.65045" lon="4.67055">
        <ele>474.20001220703</ele>
        <time>2012-04-02T12:42:03.000Z</time>
      </trkpt>
      <trkpt lat="45.65048" lon="4.67051">
        <ele>474.39999389648</ele>
        <time>2012-04-02T12:42:04.000Z</time>
      </trkpt>
      <trkpt lat="45.65051" lon="4.67046">
        <ele>474.79998779297</ele>
        <time>2012-04-02T12:42:05.000Z</time>
      </trkpt>
      <trkpt lat="45.65054" lon="4.67039">
        <ele>475.39999389648</ele>
        <time>2012-04-02T12:42:06.000Z</time>
      </trkpt>
      <trkpt lat="45.65058" lon="4.67034">
        <ele>475.60000610352</ele>
        <time>2012-04-02T12:42:07.000Z</time>
      </trkpt>
      <trkpt lat="45.65063" lon="4.67028">
        <ele>475.60000610352</ele>
        <time>2012-04-02T12:42:08.000Z</time>
      </trkpt>
      <trkpt lat="45.65081" lon="4.67006">
        <ele>475.60000610352</ele>
        <time>2012-04-02T12:42:12.000Z</time>
      </trkpt>
      <trkpt lat="45.65087" lon="4.67003">
        <ele>475.39999389648</ele>
        <time>2012-04-02T12:42:13.000Z</time>
      </trkpt>
      <trkpt lat="45.65092" lon="4.67">
        <ele>475</ele>
        <time>2012-04-02T12:42:14.000Z</time>
      </trkpt>
      <trkpt lat="45.65098" lon="4.66999">
        <ele>474.39999389648</ele>
        <time>2012-04-02T12:42:15.000Z</time>
      </trkpt>
      <trkpt lat="45.65103" lon="4.66998">
        <ele>473.79998779297</ele>
        <time>2012-04-02T12:42:16.000Z</time>
      </trkpt>
      <trkpt lat="45.65118" lon="4.66994">
        <ele>472.39999389648</ele>
        <time>2012-04-02T12:42:19.000Z</time>
      </trkpt>
      <trkpt lat="45.65132" lon="4.66985">
        <ele>471.39999389648</ele>
        <time>2012-04-02T12:42:22.000Z</time>
      </trkpt>
      <trkpt lat="45.65174" lon="4.66933">
        <ele>468.60000610352</ele>
        <time>2012-04-02T12:42:35.000Z</time>
      </trkpt>
      <trkpt lat="45.65181" lon="4.66921">
        <ele>468.60000610352</ele>
        <time>2012-04-02T12:42:38.000Z</time>
      </trkpt>
      <trkpt lat="45.65184" lon="4.66915">
        <ele>468.60000610352</ele>
        <time>2012-04-02T12:42:39.000Z</time>
      </trkpt>
      <trkpt lat="45.65187" lon="4.66909">
        <ele>468.39999389648</ele>
        <time>2012-04-02T12:42:40.000Z</time>
      </trkpt>
      <trkpt lat="45.6519" lon="4.66903">
        <ele>468</ele>
        <time>2012-04-02T12:42:41.000Z</time>
      </trkpt>
      <trkpt lat="45.65194" lon="4.66897">
        <ele>467.60000610352</ele>
        <time>2012-04-02T12:42:42.000Z</time>
      </trkpt>
      <trkpt lat="45.65196" lon="4.66891">
        <ele>467.20001220703</ele>
        <time>2012-04-02T12:42:43.000Z</time>
      </trkpt>
      <trkpt lat="45.65201" lon="4.66878">
        <ele>466.39999389648</ele>
        <time>2012-04-02T12:42:46.000Z</time>
      </trkpt>
      <trkpt lat="45.65203" lon="4.66872">
        <ele>466.20001220703</ele>
        <time>2012-04-02T12:42:48.000Z</time>
      </trkpt>
      <trkpt lat="45.65206" lon="4.66864">
        <ele>465.60000610352</ele>
        <time>2012-04-02T12:42:52.000Z</time>
      </trkpt>
      <trkpt lat="45.65206" lon="4.66862">
        <ele>465.39999389648</ele>
        <time>2012-04-02T12:42:53.000Z</time>
      </trkpt>
      <trkpt lat="45.65207" lon="4.6686">
        <ele>465.39999389648</ele>
        <time>2012-04-02T12:42:54.000Z</time>
      </trkpt>
      <trkpt lat="45.65207" lon="4.66855">
        <ele>465.20001220703</ele>
        <time>2012-04-02T12:42:55.000Z</time>
      </trkpt>
      <trkpt lat="45.65207" lon="4.6685">
        <ele>465.20001220703</ele>
        <time>2012-04-02T12:42:56.000Z</time>
      </trkpt>
      <trkpt lat="45.65207" lon="4.66844">
        <ele>465</ele>
        <time>2012-04-02T12:42:57.000Z</time>
      </trkpt>
      <trkpt lat="45.65208" lon="4.66837">
        <ele>464.60000610352</ele>
        <time>2012-04-02T12:42:58.000Z</time>
      </trkpt>
      <trkpt lat="45.65209" lon="4.66831">
        <ele>464.20001220703</ele>
        <time>2012-04-02T12:42:59.000Z</time>
      </trkpt>
      <trkpt lat="45.65209" lon="4.66824">
        <ele>463.79998779297</ele>
        <time>2012-04-02T12:43:00.000Z</time>
      </trkpt>
      <trkpt lat="45.65206" lon="4.66818">
        <ele>464</ele>
        <time>2012-04-02T12:43:01.000Z</time>
      </trkpt>
      <trkpt lat="45.65203" lon="4.66811">
        <ele>464.20001220703</ele>
        <time>2012-04-02T12:43:02.000Z</time>
      </trkpt>
      <trkpt lat="45.65199" lon="4.66805">
        <ele>464.60000610352</ele>
        <time>2012-04-02T12:43:03.000Z</time>
      </trkpt>
      <trkpt lat="45.65195" lon="4.66799">
        <ele>464.79998779297</ele>
        <time>2012-04-02T12:43:04.000Z</time>
      </trkpt>
      <trkpt lat="45.65192" lon="4.66793">
        <ele>465</ele>
        <time>2012-04-02T12:43:05.000Z</time>
      </trkpt>
      <trkpt lat="45.6518" lon="4.66767">
        <ele>465.20001220703</ele>
        <time>2012-04-02T12:43:09.000Z</time>
      </trkpt>
      <trkpt lat="45.65179" lon="4.66758">
        <ele>464.79998779297</ele>
        <time>2012-04-02T12:43:10.000Z</time>
      </trkpt>
      <trkpt lat="45.65175" lon="4.66741">
        <ele>465</ele>
        <time>2012-04-02T12:43:12.000Z</time>
      </trkpt>
      <trkpt lat="45.65174" lon="4.66737">
        <ele>465.20001220703</ele>
        <time>2012-04-02T12:43:13.000Z</time>
      </trkpt>
      <trkpt lat="45.65174" lon="4.66734">
        <ele>465.39999389648</ele>
        <time>2012-04-02T12:43:14.000Z</time>
      </trkpt>
      <trkpt lat="45.65175" lon="4.66731">
        <ele>465.39999389648</ele>
        <time>2012-04-02T12:43:15.000Z</time>
      </trkpt>
      <trkpt lat="45.65175" lon="4.66728">
        <ele>465.39999389648</ele>
        <time>2012-04-02T12:43:16.000Z</time>
      </trkpt>
      <trkpt lat="45.65176" lon="4.66725">
        <ele>465.39999389648</ele>
        <time>2012-04-02T12:43:17.000Z</time>
      </trkpt>
      <trkpt lat="45.65178" lon="4.66723">
        <ele>465.20001220703</ele>
        <time>2012-04-02T12:43:18.000Z</time>
      </trkpt>
      <trkpt lat="45.65178" lon="4.66713">
        <ele>465.60000610352</ele>
        <time>2012-04-02T12:43:21.000Z</time>
      </trkpt>
      <trkpt lat="45.65202" lon="4.66713">
        <ele>463.60000610352</ele>
        <time>2012-04-02T12:43:34.000Z</time>
      </trkpt>
      <trkpt lat="45.65205" lon="4.66713">
        <ele>463.39999389648</ele>
        <time>2012-04-02T12:43:36.000Z</time>
      </trkpt>
      <trkpt lat="45.65211" lon="4.6671">
        <ele>463.20001220703</ele>
        <time>2012-04-02T12:43:40.000Z</time>
      </trkpt>
      <trkpt lat="45.65219" lon="4.66706">
        <ele>463</ele>
        <time>2012-04-02T12:43:46.000Z</time>
      </trkpt>
      <trkpt lat="45.65234" lon="4.66695">
        <ele>463.39999389648</ele>
        <time>2012-04-02T12:43:59.000Z</time>
      </trkpt>
      <trkpt lat="45.65246" lon="4.66692">
        <ele>463.20001220703</ele>
        <time>2012-04-02T12:44:10.000Z</time>
      </trkpt>
      <trkpt lat="45.65249" lon="4.66691">
        <ele>463.20001220703</ele>
        <time>2012-04-02T12:44:12.000Z</time>
      </trkpt>
      <trkpt lat="45.65255" lon="4.6669">
        <ele>462.60000610352</ele>
        <time>2012-04-02T12:44:17.000Z</time>
      </trkpt>
      <trkpt lat="45.65282" lon="4.66669">
        <ele>461.60000610352</ele>
        <time>2012-04-02T12:44:26.000Z</time>
      </trkpt>
      <trkpt lat="45.65304" lon="4.66636">
        <ele>461.20001220703</ele>
        <time>2012-04-02T12:44:33.000Z</time>
      </trkpt>
      <trkpt lat="45.65328" lon="4.66605">
        <ele>460.60000610352</ele>
        <time>2012-04-02T12:44:42.000Z</time>
      </trkpt>
      <trkpt lat="45.65351" lon="4.66572">
        <ele>460.79998779297</ele>
        <time>2012-04-02T12:44:52.000Z</time>
      </trkpt>
      <trkpt lat="45.65387" lon="4.66524">
        <ele>460.20001220703</ele>
        <time>2012-04-02T12:45:04.000Z</time>
      </trkpt>
      <trkpt lat="45.65395" lon="4.66517">
        <ele>460</ele>
        <time>2012-04-02T12:45:06.000Z</time>
      </trkpt>
      <trkpt lat="45.65398" lon="4.66513">
        <ele>460</ele>
        <time>2012-04-02T12:45:07.000Z</time>
      </trkpt>
      <trkpt lat="45.65401" lon="4.6651">
        <ele>459.79998779297</ele>
        <time>2012-04-02T12:45:08.000Z</time>
      </trkpt>
      <trkpt lat="45.65405" lon="4.66507">
        <ele>459.60000610352</ele>
        <time>2012-04-02T12:45:09.000Z</time>
      </trkpt>
      <trkpt lat="45.65409" lon="4.66502">
        <ele>459.60000610352</ele>
        <time>2012-04-02T12:45:10.000Z</time>
      </trkpt>
      <trkpt lat="45.65412" lon="4.66497">
        <ele>459.79998779297</ele>
        <time>2012-04-02T12:45:11.000Z</time>
      </trkpt>
      <trkpt lat="45.65415" lon="4.66491">
        <ele>460.39999389648</ele>
        <time>2012-04-02T12:45:12.000Z</time>
      </trkpt>
      <trkpt lat="45.65418" lon="4.66485">
        <ele>461</ele>
        <time>2012-04-02T12:45:13.000Z</time>
      </trkpt>
      <trkpt lat="45.65431" lon="4.66455">
        <ele>464.79998779297</ele>
        <time>2012-04-02T12:45:18.000Z</time>
      </trkpt>
      <trkpt lat="45.65436" lon="4.66445">
        <ele>465.79998779297</ele>
        <time>2012-04-02T12:45:22.000Z</time>
      </trkpt>
      <trkpt lat="45.65438" lon="4.66444">
        <ele>465.79998779297</ele>
        <time>2012-04-02T12:45:23.000Z</time>
      </trkpt>
      <trkpt lat="45.65446" lon="4.66435">
        <ele>466.79998779297</ele>
        <time>2012-04-02T12:45:31.000Z</time>
      </trkpt>
      <trkpt lat="45.65447" lon="4.66434">
        <ele>466.79998779297</ele>
        <time>2012-04-02T12:45:32.000Z</time>
      </trkpt>
      <trkpt lat="45.65455" lon="4.66431">
        <ele>467</ele>
        <time>2012-04-02T12:45:40.000Z</time>
      </trkpt>
      <trkpt lat="45.65456" lon="4.66431">
        <ele>467</ele>
        <time>2012-04-02T12:45:41.000Z</time>
      </trkpt>
      <trkpt lat="45.65462" lon="4.66429">
        <ele>467</ele>
        <time>2012-04-02T12:45:46.000Z</time>
      </trkpt>
      <trkpt lat="45.65463" lon="4.66429">
        <ele>467</ele>
        <time>2012-04-02T12:45:47.000Z</time>
      </trkpt>
      <trkpt lat="45.65465" lon="4.66429">
        <ele>466.79998779297</ele>
        <time>2012-04-02T12:45:48.000Z</time>
      </trkpt>
      <trkpt lat="45.65466" lon="4.66429">
        <ele>466.79998779297</ele>
        <time>2012-04-02T12:45:49.000Z</time>
      </trkpt>
      <trkpt lat="45.65467" lon="4.66429">
        <ele>466.79998779297</ele>
        <time>2012-04-02T12:45:50.000Z</time>
      </trkpt>
      <trkpt lat="45.65468" lon="4.6643">
        <ele>466.79998779297</ele>
        <time>2012-04-02T12:45:51.000Z</time>
      </trkpt>
      <trkpt lat="45.65469" lon="4.6643">
        <ele>466.60000610352</ele>
        <time>2012-04-02T12:45:52.000Z</time>
      </trkpt>
      <trkpt lat="45.65471" lon="4.6643">
        <ele>466.60000610352</ele>
        <time>2012-04-02T12:45:53.000Z</time>
      </trkpt>
      <trkpt lat="45.65477" lon="4.66427">
        <ele>466.79998779297</ele>
        <time>2012-04-02T12:45:58.000Z</time>
      </trkpt>
      <trkpt lat="45.6549" lon="4.66425">
        <ele>466.39999389648</ele>
        <time>2012-04-02T12:46:10.000Z</time>
      </trkpt>
      <trkpt lat="45.65496" lon="4.66417">
        <ele>467.20001220703</ele>
        <time>2012-04-02T12:46:16.000Z</time>
      </trkpt>
      <trkpt lat="45.65496" lon="4.66412">
        <ele>467.39999389648</ele>
        <time>2012-04-02T12:46:19.000Z</time>
      </trkpt>
      <trkpt lat="45.65493" lon="4.66408">
        <ele>467.60000610352</ele>
        <time>2012-04-02T12:46:23.000Z</time>
      </trkpt>
      <trkpt lat="45.65487" lon="4.66398">
        <ele>468.39999389648</ele>
        <time>2012-04-02T12:46:30.000Z</time>
      </trkpt>
      <trkpt lat="45.6548" lon="4.6639">
        <ele>469.20001220703</ele>
        <time>2012-04-02T12:46:37.000Z</time>
      </trkpt>
      <trkpt lat="45.65474" lon="4.66383">
        <ele>470</ele>
        <time>2012-04-02T12:46:42.000Z</time>
      </trkpt>
      <trkpt lat="45.65461" lon="4.66367">
        <ele>472.20001220703</ele>
        <time>2012-04-02T12:46:55.000Z</time>
      </trkpt>
      <trkpt lat="45.65455" lon="4.66354">
        <ele>473.79998779297</ele>
        <time>2012-04-02T12:47:07.000Z</time>
      </trkpt>
      <trkpt lat="45.65448" lon="4.66335">
        <ele>476.20001220703</ele>
        <time>2012-04-02T12:47:20.000Z</time>
      </trkpt>
      <trkpt lat="45.65436" lon="4.66316">
        <ele>478.39999389648</ele>
        <time>2012-04-02T12:47:34.000Z</time>
      </trkpt>
      <trkpt lat="45.65425" lon="4.66298">
        <ele>480.60000610352</ele>
        <time>2012-04-02T12:47:46.000Z</time>
      </trkpt>
      <trkpt lat="45.65415" lon="4.6628">
        <ele>482.60000610352</ele>
        <time>2012-04-02T12:48:00.000Z</time>
      </trkpt>
      <trkpt lat="45.65415" lon="4.66278">
        <ele>482.79998779297</ele>
        <time>2012-04-02T12:48:01.000Z</time>
      </trkpt>
      <trkpt lat="45.65407" lon="4.66262">
        <ele>484.20001220703</ele>
        <time>2012-04-02T12:48:13.000Z</time>
      </trkpt>
      <trkpt lat="45.65406" lon="4.66257">
        <ele>484.60000610352</ele>
        <time>2012-04-02T12:48:17.000Z</time>
      </trkpt>
      <trkpt lat="45.65406" lon="4.66242">
        <ele>485</ele>
        <time>2012-04-02T12:48:26.000Z</time>
      </trkpt>
      <trkpt lat="45.65406" lon="4.66235">
        <ele>485.20001220703</ele>
        <time>2012-04-02T12:48:30.000Z</time>
      </trkpt>
      <trkpt lat="45.65405" lon="4.66231">
        <ele>485.20001220703</ele>
        <time>2012-04-02T12:48:32.000Z</time>
      </trkpt>
      <trkpt lat="45.65403" lon="4.6622">
        <ele>485.60000610352</ele>
        <time>2012-04-02T12:48:39.000Z</time>
      </trkpt>
      <trkpt lat="45.65399" lon="4.66212">
        <ele>486.20001220703</ele>
        <time>2012-04-02T12:48:43.000Z</time>
      </trkpt>
      <trkpt lat="45.65382" lon="4.66196">
        <ele>489</ele>
        <time>2012-04-02T12:48:57.000Z</time>
      </trkpt>
      <trkpt lat="45.65378" lon="4.66193">
        <ele>489.60000610352</ele>
        <time>2012-04-02T12:49:00.000Z</time>
      </trkpt>
      <trkpt lat="45.65364" lon="4.66174">
        <ele>492.60000610352</ele>
        <time>2012-04-02T12:49:16.000Z</time>
      </trkpt>
      <trkpt lat="45.65349" lon="4.66157">
        <ele>494.39999389648</ele>
        <time>2012-04-02T12:49:31.000Z</time>
      </trkpt>
      <trkpt lat="45.65334" lon="4.66153">
        <ele>496.60000610352</ele>
        <time>2012-04-02T12:49:45.000Z</time>
      </trkpt>
      <trkpt lat="45.65327" lon="4.66153">
        <ele>497.79998779297</ele>
        <time>2012-04-02T12:49:51.000Z</time>
      </trkpt>
      <trkpt lat="45.65312" lon="4.66155">
        <ele>500.79998779297</ele>
        <time>2012-04-02T12:50:03.000Z</time>
      </trkpt>
      <trkpt lat="45.65307" lon="4.66157">
        <ele>502</ele>
        <time>2012-04-02T12:50:08.000Z</time>
      </trkpt>
      <trkpt lat="45.65293" lon="4.66162">
        <ele>504.79998779297</ele>
        <time>2012-04-02T12:50:20.000Z</time>
      </trkpt>
      <trkpt lat="45.65283" lon="4.66167">
        <ele>507</ele>
        <time>2012-04-02T12:50:28.000Z</time>
      </trkpt>
      <trkpt lat="45.65269" lon="4.66178">
        <ele>508.60000610352</ele>
        <time>2012-04-02T12:50:42.000Z</time>
      </trkpt>
      <trkpt lat="45.65263" lon="4.66181">
        <ele>509.20001220703</ele>
        <time>2012-04-02T12:50:48.000Z</time>
      </trkpt>
      <trkpt lat="45.65246" lon="4.66183">
        <ele>511.60000610352</ele>
        <time>2012-04-02T12:51:03.000Z</time>
      </trkpt>
      <trkpt lat="45.65235" lon="4.66185">
        <ele>512.59997558594</ele>
        <time>2012-04-02T12:51:12.000Z</time>
      </trkpt>
      <trkpt lat="45.65219" lon="4.66187">
        <ele>514</ele>
        <time>2012-04-02T12:51:25.000Z</time>
      </trkpt>
      <trkpt lat="45.65215" lon="4.66187">
        <ele>514.40002441406</ele>
        <time>2012-04-02T12:51:28.000Z</time>
      </trkpt>
      <trkpt lat="45.65212" lon="4.66188">
        <ele>514.59997558594</ele>
        <time>2012-04-02T12:51:31.000Z</time>
      </trkpt>
      <trkpt lat="45.65197" lon="4.66184">
        <ele>516.40002441406</ele>
        <time>2012-04-02T12:51:44.000Z</time>
      </trkpt>
      <trkpt lat="45.65186" lon="4.66179">
        <ele>518</ele>
        <time>2012-04-02T12:51:54.000Z</time>
      </trkpt>
      <trkpt lat="45.65183" lon="4.66177">
        <ele>518.40002441406</ele>
        <time>2012-04-02T12:51:56.000Z</time>
      </trkpt>
      <trkpt lat="45.6518" lon="4.66176">
        <ele>519</ele>
        <time>2012-04-02T12:51:58.000Z</time>
      </trkpt>
      <trkpt lat="45.65161" lon="4.66175">
        <ele>520.79998779297</ele>
        <time>2012-04-02T12:52:11.000Z</time>
      </trkpt>
      <trkpt lat="45.65153" lon="4.66176">
        <ele>521.20001220703</ele>
        <time>2012-04-02T12:52:16.000Z</time>
      </trkpt>
      <trkpt lat="45.65147" lon="4.66176">
        <ele>521.59997558594</ele>
        <time>2012-04-02T12:52:20.000Z</time>
      </trkpt>
      <trkpt lat="45.65124" lon="4.66179">
        <ele>523.40002441406</ele>
        <time>2012-04-02T12:52:32.000Z</time>
      </trkpt>
      <trkpt lat="45.65097" lon="4.66197">
        <ele>524.79998779297</ele>
        <time>2012-04-02T12:52:42.000Z</time>
      </trkpt>
      <trkpt lat="45.65061" lon="4.66229">
        <ele>526.79998779297</ele>
        <time>2012-04-02T12:52:55.000Z</time>
      </trkpt>
      <trkpt lat="45.65041" lon="4.66256">
        <ele>527.59997558594</ele>
        <time>2012-04-02T12:53:05.000Z</time>
      </trkpt>
      <trkpt lat="45.65011" lon="4.66265">
        <ele>529.40002441406</ele>
        <time>2012-04-02T12:53:15.000Z</time>
      </trkpt>
      <trkpt lat="45.64983" lon="4.66253">
        <ele>531.40002441406</ele>
        <time>2012-04-02T12:53:27.000Z</time>
      </trkpt>
      <trkpt lat="45.64945" lon="4.66232">
        <ele>532</ele>
        <time>2012-04-02T12:53:42.000Z</time>
      </trkpt>
      <trkpt lat="45.64918" lon="4.66209">
        <ele>533</ele>
        <time>2012-04-02T12:53:53.000Z</time>
      </trkpt>
      <trkpt lat="45.64906" lon="4.66191">
        <ele>533.40002441406</ele>
        <time>2012-04-02T12:54:01.000Z</time>
      </trkpt>
      <trkpt lat="45.64911" lon="4.66166">
        <ele>534.79998779297</ele>
        <time>2012-04-02T12:54:09.000Z</time>
      </trkpt>
      <trkpt lat="45.64944" lon="4.66119">
        <ele>534.59997558594</ele>
        <time>2012-04-02T12:54:23.000Z</time>
      </trkpt>
      <trkpt lat="45.64974" lon="4.66076">
        <ele>534.20001220703</ele>
        <time>2012-04-02T12:54:34.000Z</time>
      </trkpt>
      <trkpt lat="45.64993" lon="4.66049">
        <ele>534.40002441406</ele>
        <time>2012-04-02T12:54:40.000Z</time>
      </trkpt>
      <trkpt lat="45.65002" lon="4.66032">
        <ele>534.40002441406</ele>
        <time>2012-04-02T12:54:43.000Z</time>
      </trkpt>
      <trkpt lat="45.65004" lon="4.66026">
        <ele>534.40002441406</ele>
        <time>2012-04-02T12:54:44.000Z</time>
      </trkpt>
      <trkpt lat="45.65009" lon="4.66012">
        <ele>534.20001220703</ele>
        <time>2012-04-02T12:54:46.000Z</time>
      </trkpt>
      <trkpt lat="45.65016" lon="4.66">
        <ele>533.79998779297</ele>
        <time>2012-04-02T12:54:48.000Z</time>
      </trkpt>
      <trkpt lat="45.6502" lon="4.65995">
        <ele>533.59997558594</ele>
        <time>2012-04-02T12:54:49.000Z</time>
      </trkpt>
      <trkpt lat="45.65026" lon="4.65989">
        <ele>533.20001220703</ele>
        <time>2012-04-02T12:54:55.000Z</time>
      </trkpt>
      <trkpt lat="45.65027" lon="4.65988">
        <ele>533</ele>
        <time>2012-04-02T12:54:57.000Z</time>
      </trkpt>
      <trkpt lat="45.65028" lon="4.65986">
        <ele>533</ele>
        <time>2012-04-02T12:54:58.000Z</time>
      </trkpt>
      <trkpt lat="45.65029" lon="4.65984">
        <ele>532.79998779297</ele>
        <time>2012-04-02T12:54:59.000Z</time>
      </trkpt>
      <trkpt lat="45.65052" lon="4.65954">
        <ele>531.79998779297</ele>
        <time>2012-04-02T12:55:07.000Z</time>
      </trkpt>
      <trkpt lat="45.65072" lon="4.65927">
        <ele>531.20001220703</ele>
        <time>2012-04-02T12:55:13.000Z</time>
      </trkpt>
      <trkpt lat="45.65075" lon="4.65923">
        <ele>531.20001220703</ele>
        <time>2012-04-02T12:55:14.000Z</time>
      </trkpt>
      <trkpt lat="45.65078" lon="4.65919">
        <ele>531.20001220703</ele>
        <time>2012-04-02T12:55:15.000Z</time>
      </trkpt>
      <trkpt lat="45.65081" lon="4.65915">
        <ele>531.20001220703</ele>
        <time>2012-04-02T12:55:16.000Z</time>
      </trkpt>
      <trkpt lat="45.65083" lon="4.6591">
        <ele>531.20001220703</ele>
        <time>2012-04-02T12:55:17.000Z</time>
      </trkpt>
      <trkpt lat="45.65087" lon="4.65905">
        <ele>531</ele>
        <time>2012-04-02T12:55:18.000Z</time>
      </trkpt>
      <trkpt lat="45.6509" lon="4.65901">
        <ele>531</ele>
        <time>2012-04-02T12:55:19.000Z</time>
      </trkpt>
      <trkpt lat="45.65111" lon="4.65874">
        <ele>530.20001220703</ele>
        <time>2012-04-02T12:55:26.000Z</time>
      </trkpt>
      <trkpt lat="45.65113" lon="4.65869">
        <ele>530.20001220703</ele>
        <time>2012-04-02T12:55:27.000Z</time>
      </trkpt>
      <trkpt lat="45.65116" lon="4.65864">
        <ele>530</ele>
        <time>2012-04-02T12:55:28.000Z</time>
      </trkpt>
      <trkpt lat="45.65119" lon="4.6586">
        <ele>530</ele>
        <time>2012-04-02T12:55:29.000Z</time>
      </trkpt>
      <trkpt lat="45.65122" lon="4.65855">
        <ele>529.79998779297</ele>
        <time>2012-04-02T12:55:30.000Z</time>
      </trkpt>
      <trkpt lat="45.65126" lon="4.65851">
        <ele>529.59997558594</ele>
        <time>2012-04-02T12:55:31.000Z</time>
      </trkpt>
      <trkpt lat="45.65141" lon="4.65835">
        <ele>528.79998779297</ele>
        <time>2012-04-02T12:55:35.000Z</time>
      </trkpt>
      <trkpt lat="45.6516" lon="4.65802">
        <ele>526.79998779297</ele>
        <time>2012-04-02T12:55:43.000Z</time>
      </trkpt>
      <trkpt lat="45.65161" lon="4.65795">
        <ele>526.59997558594</ele>
        <time>2012-04-02T12:55:44.000Z</time>
      </trkpt>
      <trkpt lat="45.65161" lon="4.65788">
        <ele>526.40002441406</ele>
        <time>2012-04-02T12:55:45.000Z</time>
      </trkpt>
      <trkpt lat="45.6516" lon="4.65781">
        <ele>526.40002441406</ele>
        <time>2012-04-02T12:55:46.000Z</time>
      </trkpt>
      <trkpt lat="45.65157" lon="4.65773">
        <ele>526.59997558594</ele>
        <time>2012-04-02T12:55:47.000Z</time>
      </trkpt>
      <trkpt lat="45.65155" lon="4.65765">
        <ele>526.59997558594</ele>
        <time>2012-04-02T12:55:48.000Z</time>
      </trkpt>
      <trkpt lat="45.65149" lon="4.65749">
        <ele>527.20001220703</ele>
        <time>2012-04-02T12:55:50.000Z</time>
      </trkpt>
      <trkpt lat="45.65145" lon="4.65742">
        <ele>527.59997558594</ele>
        <time>2012-04-02T12:55:51.000Z</time>
      </trkpt>
      <trkpt lat="45.65144" lon="4.65734">
        <ele>528</ele>
        <time>2012-04-02T12:55:52.000Z</time>
      </trkpt>
      <trkpt lat="45.65143" lon="4.65715">
        <ele>528.20001220703</ele>
        <time>2012-04-02T12:55:54.000Z</time>
      </trkpt>
      <trkpt lat="45.65145" lon="4.65707">
        <ele>528</ele>
        <time>2012-04-02T12:55:55.000Z</time>
      </trkpt>
      <trkpt lat="45.65148" lon="4.65699">
        <ele>527.59997558594</ele>
        <time>2012-04-02T12:55:56.000Z</time>
      </trkpt>
      <trkpt lat="45.65162" lon="4.65665">
        <ele>525.59997558594</ele>
        <time>2012-04-02T12:56:00.000Z</time>
      </trkpt>
      <trkpt lat="45.65167" lon="4.65657">
        <ele>525</ele>
        <time>2012-04-02T12:56:01.000Z</time>
      </trkpt>
      <trkpt lat="45.65175" lon="4.65639">
        <ele>523.79998779297</ele>
        <time>2012-04-02T12:56:03.000Z</time>
      </trkpt>
      <trkpt lat="45.65177" lon="4.65629">
        <ele>523.59997558594</ele>
        <time>2012-04-02T12:56:04.000Z</time>
      </trkpt>
      <trkpt lat="45.65178" lon="4.6562">
        <ele>523.59997558594</ele>
        <time>2012-04-02T12:56:05.000Z</time>
      </trkpt>
      <trkpt lat="45.65178" lon="4.65611">
        <ele>523.59997558594</ele>
        <time>2012-04-02T12:56:06.000Z</time>
      </trkpt>
      <trkpt lat="45.65177" lon="4.65604">
        <ele>524</ele>
        <time>2012-04-02T12:56:07.000Z</time>
      </trkpt>
      <trkpt lat="45.65176" lon="4.65596">
        <ele>524.20001220703</ele>
        <time>2012-04-02T12:56:08.000Z</time>
      </trkpt>
      <trkpt lat="45.65176" lon="4.65586">
        <ele>524.40002441406</ele>
        <time>2012-04-02T12:56:09.000Z</time>
      </trkpt>
      <trkpt lat="45.65177" lon="4.65575">
        <ele>525.40002441406</ele>
        <time>2012-04-02T12:56:10.000Z</time>
      </trkpt>
      <trkpt lat="45.6518" lon="4.65565">
        <ele>526.79998779297</ele>
        <time>2012-04-02T12:56:11.000Z</time>
      </trkpt>
      <trkpt lat="45.65184" lon="4.65556">
        <ele>528</ele>
        <time>2012-04-02T12:56:12.000Z</time>
      </trkpt>
      <trkpt lat="45.65192" lon="4.6554">
        <ele>529.79998779297</ele>
        <time>2012-04-02T12:56:15.000Z</time>
      </trkpt>
      <trkpt lat="45.65195" lon="4.65539">
        <ele>530</ele>
        <time>2012-04-02T12:56:16.000Z</time>
      </trkpt>
      <trkpt lat="45.65198" lon="4.65538">
        <ele>530</ele>
        <time>2012-04-02T12:56:17.000Z</time>
      </trkpt>
      <trkpt lat="45.65202" lon="4.65539">
        <ele>529.59997558594</ele>
        <time>2012-04-02T12:56:18.000Z</time>
      </trkpt>
      <trkpt lat="45.65204" lon="4.6554">
        <ele>529.20001220703</ele>
        <time>2012-04-02T12:56:19.000Z</time>
      </trkpt>
      <trkpt lat="45.65207" lon="4.6554">
        <ele>529</ele>
        <time>2012-04-02T12:56:20.000Z</time>
      </trkpt>
      <trkpt lat="45.65211" lon="4.65541">
        <ele>528.79998779297</ele>
        <time>2012-04-02T12:56:21.000Z</time>
      </trkpt>
      <trkpt lat="45.65214" lon="4.65542">
        <ele>528.40002441406</ele>
        <time>2012-04-02T12:56:22.000Z</time>
      </trkpt>
      <trkpt lat="45.65244" lon="4.65539">
        <ele>527.40002441406</ele>
        <time>2012-04-02T12:56:35.000Z</time>
      </trkpt>
      <trkpt lat="45.65271" lon="4.6554">
        <ele>525</ele>
        <time>2012-04-02T12:56:50.000Z</time>
      </trkpt>
      <trkpt lat="45.65272" lon="4.6554">
        <ele>525</ele>
        <time>2012-04-02T12:56:51.000Z</time>
      </trkpt>
      <trkpt lat="45.65294" lon="4.65535">
        <ele>523.79998779297</ele>
        <time>2012-04-02T12:57:04.000Z</time>
      </trkpt>
      <trkpt lat="45.65314" lon="4.6552">
        <ele>524.59997558594</ele>
        <time>2012-04-02T12:57:15.000Z</time>
      </trkpt>
      <trkpt lat="45.6533" lon="4.65502">
        <ele>526</ele>
        <time>2012-04-02T12:57:25.000Z</time>
      </trkpt>
      <trkpt lat="45.65341" lon="4.65481">
        <ele>527</ele>
        <time>2012-04-02T12:57:33.000Z</time>
      </trkpt>
      <trkpt lat="45.65341" lon="4.65478">
        <ele>527.40002441406</ele>
        <time>2012-04-02T12:57:34.000Z</time>
      </trkpt>
      <trkpt lat="45.65348" lon="4.65452">
        <ele>529.20001220703</ele>
        <time>2012-04-02T12:57:42.000Z</time>
      </trkpt>
      <trkpt lat="45.65349" lon="4.6545">
        <ele>529.40002441406</ele>
        <time>2012-04-02T12:57:43.000Z</time>
      </trkpt>
      <trkpt lat="45.65357" lon="4.65427">
        <ele>531</ele>
        <time>2012-04-02T12:57:51.000Z</time>
      </trkpt>
      <trkpt lat="45.65362" lon="4.65413">
        <ele>532</ele>
        <time>2012-04-02T12:57:56.000Z</time>
      </trkpt>
      <trkpt lat="45.65362" lon="4.6541">
        <ele>532.40002441406</ele>
        <time>2012-04-02T12:57:57.000Z</time>
      </trkpt>
      <trkpt lat="45.65363" lon="4.65407">
        <ele>532.59997558594</ele>
        <time>2012-04-02T12:57:58.000Z</time>
      </trkpt>
      <trkpt lat="45.65368" lon="4.65395">
        <ele>533.40002441406</ele>
        <time>2012-04-02T12:58:03.000Z</time>
      </trkpt>
      <trkpt lat="45.65369" lon="4.65392">
        <ele>533.59997558594</ele>
        <time>2012-04-02T12:58:04.000Z</time>
      </trkpt>
      <trkpt lat="45.65369" lon="4.65389">
        <ele>533.79998779297</ele>
        <time>2012-04-02T12:58:05.000Z</time>
      </trkpt>
      <trkpt lat="45.65372" lon="4.65379">
        <ele>534.79998779297</ele>
        <time>2012-04-02T12:58:09.000Z</time>
      </trkpt>
      <trkpt lat="45.6537" lon="4.65369">
        <ele>536.20001220703</ele>
        <time>2012-04-02T12:58:12.000Z</time>
      </trkpt>
      <trkpt lat="45.6537" lon="4.65366">
        <ele>536.59997558594</ele>
        <time>2012-04-02T12:58:13.000Z</time>
      </trkpt>
      <trkpt lat="45.65371" lon="4.65364">
        <ele>536.79998779297</ele>
        <time>2012-04-02T12:58:14.000Z</time>
      </trkpt>
      <trkpt lat="45.65372" lon="4.65363">
        <ele>536.79998779297</ele>
        <time>2012-04-02T12:58:15.000Z</time>
      </trkpt>
      <trkpt lat="45.65373" lon="4.65363">
        <ele>536.59997558594</ele>
        <time>2012-04-02T12:58:16.000Z</time>
      </trkpt>
      <trkpt lat="45.65393" lon="4.65368">
        <ele>534.20001220703</ele>
        <time>2012-04-02T12:58:29.000Z</time>
      </trkpt>
      <trkpt lat="45.65411" lon="4.65379">
        <ele>531</ele>
        <time>2012-04-02T12:58:40.000Z</time>
      </trkpt>
      <trkpt lat="45.65427" lon="4.65391">
        <ele>528.79998779297</ele>
        <time>2012-04-02T12:58:49.000Z</time>
      </trkpt>
      <trkpt lat="45.65429" lon="4.65392">
        <ele>528.59997558594</ele>
        <time>2012-04-02T12:58:50.000Z</time>
      </trkpt>
      <trkpt lat="45.65431" lon="4.65392">
        <ele>528.59997558594</ele>
        <time>2012-04-02T12:58:51.000Z</time>
      </trkpt>
      <trkpt lat="45.65433" lon="4.65392">
        <ele>528.59997558594</ele>
        <time>2012-04-02T12:58:52.000Z</time>
      </trkpt>
      <trkpt lat="45.65436" lon="4.65393">
        <ele>528.40002441406</ele>
        <time>2012-04-02T12:58:53.000Z</time>
      </trkpt>
      <trkpt lat="45.65438" lon="4.65394">
        <ele>528.40002441406</ele>
        <time>2012-04-02T12:58:54.000Z</time>
      </trkpt>
      <trkpt lat="45.65458" lon="4.65383">
        <ele>529.79998779297</ele>
        <time>2012-04-02T12:59:05.000Z</time>
      </trkpt>
      <trkpt lat="45.6546" lon="4.6538">
        <ele>530.40002441406</ele>
        <time>2012-04-02T12:59:07.000Z</time>
      </trkpt>
      <trkpt lat="45.65461" lon="4.65378">
        <ele>530.59997558594</ele>
        <time>2012-04-02T12:59:08.000Z</time>
      </trkpt>
      <trkpt lat="45.65476" lon="4.65342">
        <ele>535.20001220703</ele>
        <time>2012-04-02T12:59:21.000Z</time>
      </trkpt>
      <trkpt lat="45.65491" lon="4.65316">
        <ele>537.40002441406</ele>
        <time>2012-04-02T12:59:31.000Z</time>
      </trkpt>
      <trkpt lat="45.65503" lon="4.65301">
        <ele>538</ele>
        <time>2012-04-02T12:59:38.000Z</time>
      </trkpt>
      <trkpt lat="45.65505" lon="4.65298">
        <ele>538</ele>
        <time>2012-04-02T12:59:39.000Z</time>
      </trkpt>
      <trkpt lat="45.65508" lon="4.65296">
        <ele>537.79998779297</ele>
        <time>2012-04-02T12:59:40.000Z</time>
      </trkpt>
      <trkpt lat="45.65536" lon="4.65264">
        <ele>536.79998779297</ele>
        <time>2012-04-02T12:59:48.000Z</time>
      </trkpt>
      <trkpt lat="45.65544" lon="4.65251">
        <ele>536.59997558594</ele>
        <time>2012-04-02T12:59:50.000Z</time>
      </trkpt>
      <trkpt lat="45.65557" lon="4.65226">
        <ele>535</ele>
        <time>2012-04-02T12:59:58.000Z</time>
      </trkpt>
      <trkpt lat="45.65558" lon="4.65226">
        <ele>534.79998779297</ele>
        <time>2012-04-02T13:00:06.000Z</time>
      </trkpt>
      <trkpt lat="45.65559" lon="4.65227">
        <ele>534.79998779297</ele>
        <time>2012-04-02T13:00:07.000Z</time>
      </trkpt>
      <trkpt lat="45.65562" lon="4.65231">
        <ele>534.40002441406</ele>
        <time>2012-04-02T13:00:20.000Z</time>
      </trkpt>
      <trkpt lat="45.65563" lon="4.65231">
        <ele>534.40002441406</ele>
        <time>2012-04-02T13:00:47.000Z</time>
      </trkpt>
      <trkpt lat="45.65562" lon="4.6523">
        <ele>534.40002441406</ele>
        <time>2012-04-02T13:01:24.000Z</time>
      </trkpt>
      <trkpt lat="45.65562" lon="4.65231">
        <ele>534.40002441406</ele>
        <time>2012-04-02T13:01:59.000Z</time>
      </trkpt>
      <trkpt lat="45.65562" lon="4.65231">
        <ele>534.40002441406</ele>
        <time>2012-04-02T13:02:20.000Z</time>
      </trkpt>
      <trkpt lat="45.65561" lon="4.65229">
        <ele>534.59997558594</ele>
        <time>2012-04-02T13:02:33.000Z</time>
      </trkpt>
      <trkpt lat="45.65561" lon="4.65228">
        <ele>534.59997558594</ele>
        <time>2012-04-02T13:02:40.000Z</time>
      </trkpt>
      <trkpt lat="45.65567" lon="4.65209">
        <ele>533.79998779297</ele>
        <time>2012-04-02T13:02:47.000Z</time>
      </trkpt>
      <trkpt lat="45.65571" lon="4.65204">
        <ele>533.40002441406</ele>
        <time>2012-04-02T13:02:48.000Z</time>
      </trkpt>
      <trkpt lat="45.65575" lon="4.65199">
        <ele>533</ele>
        <time>2012-04-02T13:02:49.000Z</time>
      </trkpt>
      <trkpt lat="45.65579" lon="4.65193">
        <ele>532.40002441406</ele>
        <time>2012-04-02T13:02:50.000Z</time>
      </trkpt>
      <trkpt lat="45.65582" lon="4.65187">
        <ele>532</ele>
        <time>2012-04-02T13:02:51.000Z</time>
      </trkpt>
      <trkpt lat="45.65586" lon="4.65181">
        <ele>531.79998779297</ele>
        <time>2012-04-02T13:02:52.000Z</time>
      </trkpt>
      <trkpt lat="45.65631" lon="4.65114">
        <ele>526.79998779297</ele>
        <time>2012-04-02T13:03:01.000Z</time>
      </trkpt>
      <trkpt lat="45.6564" lon="4.651">
        <ele>525.59997558594</ele>
        <time>2012-04-02T13:03:03.000Z</time>
      </trkpt>
      <trkpt lat="45.65644" lon="4.65094">
        <ele>525.20001220703</ele>
        <time>2012-04-02T13:03:04.000Z</time>
      </trkpt>
      <trkpt lat="45.65654" lon="4.65077">
        <ele>524</ele>
        <time>2012-04-02T13:03:08.000Z</time>
      </trkpt>
      <trkpt lat="45.65657" lon="4.65072">
        <ele>523.59997558594</ele>
        <time>2012-04-02T13:03:09.000Z</time>
      </trkpt>
      <trkpt lat="45.65661" lon="4.65067">
        <ele>523.20001220703</ele>
        <time>2012-04-02T13:03:10.000Z</time>
      </trkpt>
      <trkpt lat="45.65666" lon="4.65063">
        <ele>522.79998779297</ele>
        <time>2012-04-02T13:03:11.000Z</time>
      </trkpt>
      <trkpt lat="45.65671" lon="4.65057">
        <ele>522.40002441406</ele>
        <time>2012-04-02T13:03:12.000Z</time>
      </trkpt>
      <trkpt lat="45.65675" lon="4.65051">
        <ele>522.20001220703</ele>
        <time>2012-04-02T13:03:13.000Z</time>
      </trkpt>
      <trkpt lat="45.65689" lon="4.65031">
        <ele>521.20001220703</ele>
        <time>2012-04-02T13:03:16.000Z</time>
      </trkpt>
      <trkpt lat="45.65694" lon="4.65025">
        <ele>520.79998779297</ele>
        <time>2012-04-02T13:03:17.000Z</time>
      </trkpt>
      <trkpt lat="45.65699" lon="4.65021">
        <ele>520.59997558594</ele>
        <time>2012-04-02T13:03:18.000Z</time>
      </trkpt>
      <trkpt lat="45.65705" lon="4.65017">
        <ele>520.20001220703</ele>
        <time>2012-04-02T13:03:19.000Z</time>
      </trkpt>
      <trkpt lat="45.65711" lon="4.65012">
        <ele>520</ele>
        <time>2012-04-02T13:03:20.000Z</time>
      </trkpt>
      <trkpt lat="45.65736" lon="4.6499">
        <ele>518.59997558594</ele>
        <time>2012-04-02T13:03:27.000Z</time>
      </trkpt>
      <trkpt lat="45.65739" lon="4.64986">
        <ele>518.40002441406</ele>
        <time>2012-04-02T13:03:28.000Z</time>
      </trkpt>
      <trkpt lat="45.65767" lon="4.64967">
        <ele>517</ele>
        <time>2012-04-02T13:03:35.000Z</time>
      </trkpt>
      <trkpt lat="45.65771" lon="4.64963">
        <ele>516.79998779297</ele>
        <time>2012-04-02T13:03:36.000Z</time>
      </trkpt>
      <trkpt lat="45.65773" lon="4.64959">
        <ele>516.59997558594</ele>
        <time>2012-04-02T13:03:37.000Z</time>
      </trkpt>
      <trkpt lat="45.65776" lon="4.64955">
        <ele>516.40002441406</ele>
        <time>2012-04-02T13:03:38.000Z</time>
      </trkpt>
      <trkpt lat="45.65779" lon="4.64952">
        <ele>516.40002441406</ele>
        <time>2012-04-02T13:03:39.000Z</time>
      </trkpt>
      <trkpt lat="45.65781" lon="4.64949">
        <ele>516.20001220703</ele>
        <time>2012-04-02T13:03:40.000Z</time>
      </trkpt>
      <trkpt lat="45.65783" lon="4.64947">
        <ele>516</ele>
        <time>2012-04-02T13:03:41.000Z</time>
      </trkpt>
      <trkpt lat="45.65786" lon="4.64945">
        <ele>516</ele>
        <time>2012-04-02T13:03:42.000Z</time>
      </trkpt>
      <trkpt lat="45.65788" lon="4.64942">
        <ele>515.79998779297</ele>
        <time>2012-04-02T13:03:43.000Z</time>
      </trkpt>
      <trkpt lat="45.6579" lon="4.64938">
        <ele>515.59997558594</ele>
        <time>2012-04-02T13:03:44.000Z</time>
      </trkpt>
      <trkpt lat="45.65793" lon="4.64934">
        <ele>515.40002441406</ele>
        <time>2012-04-02T13:03:45.000Z</time>
      </trkpt>
      <trkpt lat="45.65816" lon="4.64912">
        <ele>513.59997558594</ele>
        <time>2012-04-02T13:03:51.000Z</time>
      </trkpt>
      <trkpt lat="45.65821" lon="4.64909">
        <ele>513</ele>
        <time>2012-04-02T13:03:52.000Z</time>
      </trkpt>
      <trkpt lat="45.65827" lon="4.64906">
        <ele>512.59997558594</ele>
        <time>2012-04-02T13:03:53.000Z</time>
      </trkpt>
      <trkpt lat="45.65832" lon="4.64901">
        <ele>512</ele>
        <time>2012-04-02T13:03:54.000Z</time>
      </trkpt>
      <trkpt lat="45.65838" lon="4.64896">
        <ele>511.60000610352</ele>
        <time>2012-04-02T13:03:55.000Z</time>
      </trkpt>
      <trkpt lat="45.65842" lon="4.6489">
        <ele>511</ele>
        <time>2012-04-02T13:03:56.000Z</time>
      </trkpt>
      <trkpt lat="45.65847" lon="4.64885">
        <ele>510.79998779297</ele>
        <time>2012-04-02T13:03:57.000Z</time>
      </trkpt>
      <trkpt lat="45.65852" lon="4.6488">
        <ele>510.39999389648</ele>
        <time>2012-04-02T13:03:58.000Z</time>
      </trkpt>
      <trkpt lat="45.65857" lon="4.64875">
        <ele>509.79998779297</ele>
        <time>2012-04-02T13:03:59.000Z</time>
      </trkpt>
      <trkpt lat="45.65868" lon="4.64862">
        <ele>508.79998779297</ele>
        <time>2012-04-02T13:04:01.000Z</time>
      </trkpt>
      <trkpt lat="45.65873" lon="4.64855">
        <ele>508</ele>
        <time>2012-04-02T13:04:02.000Z</time>
      </trkpt>
      <trkpt lat="45.65878" lon="4.64847">
        <ele>507.20001220703</ele>
        <time>2012-04-02T13:04:03.000Z</time>
      </trkpt>
      <trkpt lat="45.65909" lon="4.64802">
        <ele>502.39999389648</ele>
        <time>2012-04-02T13:04:09.000Z</time>
      </trkpt>
      <trkpt lat="45.65911" lon="4.64793">
        <ele>501.60000610352</ele>
        <time>2012-04-02T13:04:10.000Z</time>
      </trkpt>
      <trkpt lat="45.65912" lon="4.64783">
        <ele>500.79998779297</ele>
        <time>2012-04-02T13:04:11.000Z</time>
      </trkpt>
      <trkpt lat="45.65921" lon="4.64712">
        <ele>496.79998779297</ele>
        <time>2012-04-02T13:04:18.000Z</time>
      </trkpt>
      <trkpt lat="45.65921" lon="4.64702">
        <ele>496.39999389648</ele>
        <time>2012-04-02T13:04:19.000Z</time>
      </trkpt>
      <trkpt lat="45.65921" lon="4.64684">
        <ele>496</ele>
        <time>2012-04-02T13:04:21.000Z</time>
      </trkpt>
      <trkpt lat="45.6592" lon="4.64675">
        <ele>495.79998779297</ele>
        <time>2012-04-02T13:04:22.000Z</time>
      </trkpt>
      <trkpt lat="45.65921" lon="4.64667">
        <ele>495.39999389648</ele>
        <time>2012-04-02T13:04:23.000Z</time>
      </trkpt>
      <trkpt lat="45.65922" lon="4.64658">
        <ele>494.60000610352</ele>
        <time>2012-04-02T13:04:24.000Z</time>
      </trkpt>
      <trkpt lat="45.65922" lon="4.6465">
        <ele>494</ele>
        <time>2012-04-02T13:04:25.000Z</time>
      </trkpt>
      <trkpt lat="45.65922" lon="4.64641">
        <ele>493.20001220703</ele>
        <time>2012-04-02T13:04:26.000Z</time>
      </trkpt>
      <trkpt lat="45.65924" lon="4.64632">
        <ele>492.20001220703</ele>
        <time>2012-04-02T13:04:27.000Z</time>
      </trkpt>
      <trkpt lat="45.65926" lon="4.64623">
        <ele>491</ele>
        <time>2012-04-02T13:04:28.000Z</time>
      </trkpt>
      <trkpt lat="45.65929" lon="4.64613">
        <ele>489.79998779297</ele>
        <time>2012-04-02T13:04:29.000Z</time>
      </trkpt>
      <trkpt lat="45.65931" lon="4.64602">
        <ele>488.60000610352</ele>
        <time>2012-04-02T13:04:30.000Z</time>
      </trkpt>
      <trkpt lat="45.65932" lon="4.6459">
        <ele>487.39999389648</ele>
        <time>2012-04-02T13:04:31.000Z</time>
      </trkpt>
      <trkpt lat="45.65932" lon="4.64577">
        <ele>486</ele>
        <time>2012-04-02T13:04:32.000Z</time>
      </trkpt>
      <trkpt lat="45.6593" lon="4.64563">
        <ele>484.60000610352</ele>
        <time>2012-04-02T13:04:33.000Z</time>
      </trkpt>
      <trkpt lat="45.65928" lon="4.64553">
        <ele>483.79998779297</ele>
        <time>2012-04-02T13:04:34.000Z</time>
      </trkpt>
      <trkpt lat="45.65925" lon="4.64544">
        <ele>483.20001220703</ele>
        <time>2012-04-02T13:04:35.000Z</time>
      </trkpt>
      <trkpt lat="45.65922" lon="4.64536">
        <ele>482.60000610352</ele>
        <time>2012-04-02T13:04:36.000Z</time>
      </trkpt>
      <trkpt lat="45.65919" lon="4.64521">
        <ele>481.20001220703</ele>
        <time>2012-04-02T13:04:38.000Z</time>
      </trkpt>
      <trkpt lat="45.65918" lon="4.64513">
        <ele>480.20001220703</ele>
        <time>2012-04-02T13:04:39.000Z</time>
      </trkpt>
      <trkpt lat="45.65918" lon="4.64505">
        <ele>479.39999389648</ele>
        <time>2012-04-02T13:04:40.000Z</time>
      </trkpt>
      <trkpt lat="45.65917" lon="4.64498">
        <ele>478.60000610352</ele>
        <time>2012-04-02T13:04:41.000Z</time>
      </trkpt>
      <trkpt lat="45.65917" lon="4.6449">
        <ele>477.60000610352</ele>
        <time>2012-04-02T13:04:42.000Z</time>
      </trkpt>
      <trkpt lat="45.65917" lon="4.64483">
        <ele>476.60000610352</ele>
        <time>2012-04-02T13:04:43.000Z</time>
      </trkpt>
      <trkpt lat="45.65919" lon="4.64476">
        <ele>475.60000610352</ele>
        <time>2012-04-02T13:04:44.000Z</time>
      </trkpt>
      <trkpt lat="45.65922" lon="4.6447">
        <ele>474.39999389648</ele>
        <time>2012-04-02T13:04:45.000Z</time>
      </trkpt>
      <trkpt lat="45.65927" lon="4.64467">
        <ele>473.39999389648</ele>
        <time>2012-04-02T13:04:46.000Z</time>
      </trkpt>
      <trkpt lat="45.65932" lon="4.64465">
        <ele>472.60000610352</ele>
        <time>2012-04-02T13:04:47.000Z</time>
      </trkpt>
      <trkpt lat="45.65937" lon="4.64463">
        <ele>471.79998779297</ele>
        <time>2012-04-02T13:04:48.000Z</time>
      </trkpt>
      <trkpt lat="45.65941" lon="4.6446">
        <ele>471</ele>
        <time>2012-04-02T13:04:49.000Z</time>
      </trkpt>
      <trkpt lat="45.65945" lon="4.64457">
        <ele>470.20001220703</ele>
        <time>2012-04-02T13:04:50.000Z</time>
      </trkpt>
      <trkpt lat="45.6595" lon="4.64453">
        <ele>469.20001220703</ele>
        <time>2012-04-02T13:04:51.000Z</time>
      </trkpt>
      <trkpt lat="45.65953" lon="4.64447">
        <ele>468</ele>
        <time>2012-04-02T13:04:52.000Z</time>
      </trkpt>
      <trkpt lat="45.65957" lon="4.64441">
        <ele>467.20001220703</ele>
        <time>2012-04-02T13:04:53.000Z</time>
      </trkpt>
      <trkpt lat="45.65959" lon="4.64435">
        <ele>466.20001220703</ele>
        <time>2012-04-02T13:04:54.000Z</time>
      </trkpt>
      <trkpt lat="45.65961" lon="4.64429">
        <ele>465.60000610352</ele>
        <time>2012-04-02T13:04:55.000Z</time>
      </trkpt>
      <trkpt lat="45.65961" lon="4.64423">
        <ele>464.79998779297</ele>
        <time>2012-04-02T13:04:56.000Z</time>
      </trkpt>
      <trkpt lat="45.65963" lon="4.64411">
        <ele>463.60000610352</ele>
        <time>2012-04-02T13:04:58.000Z</time>
      </trkpt>
      <trkpt lat="45.65974" lon="4.64373">
        <ele>460.39999389648</ele>
        <time>2012-04-02T13:05:03.000Z</time>
      </trkpt>
      <trkpt lat="45.65978" lon="4.64353">
        <ele>459</ele>
        <time>2012-04-02T13:05:06.000Z</time>
      </trkpt>
      <trkpt lat="45.6598" lon="4.6434">
        <ele>458</ele>
        <time>2012-04-02T13:05:08.000Z</time>
      </trkpt>
      <trkpt lat="45.65982" lon="4.64333">
        <ele>457.60000610352</ele>
        <time>2012-04-02T13:05:09.000Z</time>
      </trkpt>
      <trkpt lat="45.65982" lon="4.64327">
        <ele>457</ele>
        <time>2012-04-02T13:05:10.000Z</time>
      </trkpt>
      <trkpt lat="45.65982" lon="4.64319">
        <ele>456.20001220703</ele>
        <time>2012-04-02T13:05:11.000Z</time>
      </trkpt>
      <trkpt lat="45.65982" lon="4.64312">
        <ele>455.60000610352</ele>
        <time>2012-04-02T13:05:12.000Z</time>
      </trkpt>
      <trkpt lat="45.65979" lon="4.64305">
        <ele>455</ele>
        <time>2012-04-02T13:05:13.000Z</time>
      </trkpt>
      <trkpt lat="45.65976" lon="4.64299">
        <ele>454.39999389648</ele>
        <time>2012-04-02T13:05:14.000Z</time>
      </trkpt>
      <trkpt lat="45.65972" lon="4.64294">
        <ele>454.20001220703</ele>
        <time>2012-04-02T13:05:15.000Z</time>
      </trkpt>
      <trkpt lat="45.65968" lon="4.6429">
        <ele>453.79998779297</ele>
        <time>2012-04-02T13:05:16.000Z</time>
      </trkpt>
      <trkpt lat="45.65965" lon="4.64285">
        <ele>453.39999389648</ele>
        <time>2012-04-02T13:05:17.000Z</time>
      </trkpt>
      <trkpt lat="45.65962" lon="4.6428">
        <ele>453</ele>
        <time>2012-04-02T13:05:18.000Z</time>
      </trkpt>
      <trkpt lat="45.6596" lon="4.64273">
        <ele>452.20001220703</ele>
        <time>2012-04-02T13:05:19.000Z</time>
      </trkpt>
      <trkpt lat="45.65959" lon="4.64265">
        <ele>451.60000610352</ele>
        <time>2012-04-02T13:05:20.000Z</time>
      </trkpt>
      <trkpt lat="45.65956" lon="4.64258">
        <ele>450.79998779297</ele>
        <time>2012-04-02T13:05:21.000Z</time>
      </trkpt>
      <trkpt lat="45.65953" lon="4.64252">
        <ele>450.39999389648</ele>
        <time>2012-04-02T13:05:22.000Z</time>
      </trkpt>
      <trkpt lat="45.6595" lon="4.64247">
        <ele>449.79998779297</ele>
        <time>2012-04-02T13:05:23.000Z</time>
      </trkpt>
      <trkpt lat="45.6594" lon="4.64241">
        <ele>448.79998779297</ele>
        <time>2012-04-02T13:05:26.000Z</time>
      </trkpt>
      <trkpt lat="45.65939" lon="4.64239">
        <ele>448.39999389648</ele>
        <time>2012-04-02T13:05:27.000Z</time>
      </trkpt>
      <trkpt lat="45.65932" lon="4.64232">
        <ele>447.20001220703</ele>
        <time>2012-04-02T13:05:29.000Z</time>
      </trkpt>
      <trkpt lat="45.65929" lon="4.64228">
        <ele>446.39999389648</ele>
        <time>2012-04-02T13:05:30.000Z</time>
      </trkpt>
      <trkpt lat="45.65927" lon="4.64221">
        <ele>445.20001220703</ele>
        <time>2012-04-02T13:05:31.000Z</time>
      </trkpt>
      <trkpt lat="45.65927" lon="4.64213">
        <ele>443.79998779297</ele>
        <time>2012-04-02T13:05:32.000Z</time>
      </trkpt>
      <trkpt lat="45.65928" lon="4.64205">
        <ele>442.20001220703</ele>
        <time>2012-04-02T13:05:33.000Z</time>
      </trkpt>
      <trkpt lat="45.6593" lon="4.642">
        <ele>441.20001220703</ele>
        <time>2012-04-02T13:05:34.000Z</time>
      </trkpt>
      <trkpt lat="45.65931" lon="4.64195">
        <ele>440.20001220703</ele>
        <time>2012-04-02T13:05:35.000Z</time>
      </trkpt>
      <trkpt lat="45.65932" lon="4.64191">
        <ele>439.39999389648</ele>
        <time>2012-04-02T13:05:36.000Z</time>
      </trkpt>
      <trkpt lat="45.65933" lon="4.64187">
        <ele>438.79998779297</ele>
        <time>2012-04-02T13:05:37.000Z</time>
      </trkpt>
      <trkpt lat="45.65934" lon="4.64182">
        <ele>437.79998779297</ele>
        <time>2012-04-02T13:05:38.000Z</time>
      </trkpt>
      <trkpt lat="45.65935" lon="4.64176">
        <ele>436.79998779297</ele>
        <time>2012-04-02T13:05:39.000Z</time>
      </trkpt>
      <trkpt lat="45.65936" lon="4.6417">
        <ele>435.60000610352</ele>
        <time>2012-04-02T13:05:40.000Z</time>
      </trkpt>
      <trkpt lat="45.65938" lon="4.64165">
        <ele>434.60000610352</ele>
        <time>2012-04-02T13:05:41.000Z</time>
      </trkpt>
      <trkpt lat="45.65941" lon="4.6416">
        <ele>433.79998779297</ele>
        <time>2012-04-02T13:05:42.000Z</time>
      </trkpt>
      <trkpt lat="45.65944" lon="4.64155">
        <ele>433</ele>
        <time>2012-04-02T13:05:43.000Z</time>
      </trkpt>
      <trkpt lat="45.65948" lon="4.64151">
        <ele>432.20001220703</ele>
        <time>2012-04-02T13:05:44.000Z</time>
      </trkpt>
      <trkpt lat="45.65951" lon="4.64147">
        <ele>431.60000610352</ele>
        <time>2012-04-02T13:05:45.000Z</time>
      </trkpt>
      <trkpt lat="45.65955" lon="4.64144">
        <ele>431</ele>
        <time>2012-04-02T13:05:46.000Z</time>
      </trkpt>
      <trkpt lat="45.65958" lon="4.64142">
        <ele>430.60000610352</ele>
        <time>2012-04-02T13:05:47.000Z</time>
      </trkpt>
      <trkpt lat="45.65965" lon="4.64137">
        <ele>429.79998779297</ele>
        <time>2012-04-02T13:05:49.000Z</time>
      </trkpt>
      <trkpt lat="45.65976" lon="4.64134">
        <ele>429.39999389648</ele>
        <time>2012-04-02T13:05:53.000Z</time>
      </trkpt>
      <trkpt lat="45.65978" lon="4.64135">
        <ele>429.39999389648</ele>
        <time>2012-04-02T13:05:54.000Z</time>
      </trkpt>
      <trkpt lat="45.65981" lon="4.64133">
        <ele>429.39999389648</ele>
        <time>2012-04-02T13:05:55.000Z</time>
      </trkpt>
      <trkpt lat="45.65984" lon="4.64132">
        <ele>429.20001220703</ele>
        <time>2012-04-02T13:05:56.000Z</time>
      </trkpt>
      <trkpt lat="45.65988" lon="4.64132">
        <ele>429.20001220703</ele>
        <time>2012-04-02T13:05:57.000Z</time>
      </trkpt>
      <trkpt lat="45.65993" lon="4.64131">
        <ele>429</ele>
        <time>2012-04-02T13:05:58.000Z</time>
      </trkpt>
      <trkpt lat="45.65999" lon="4.6413">
        <ele>428.79998779297</ele>
        <time>2012-04-02T13:05:59.000Z</time>
      </trkpt>
      <trkpt lat="45.66017" lon="4.64127">
        <ele>425</ele>
        <time>2012-04-02T13:06:02.000Z</time>
      </trkpt>
      <trkpt lat="45.66023" lon="4.64126">
        <ele>423.79998779297</ele>
        <time>2012-04-02T13:06:03.000Z</time>
      </trkpt>
      <trkpt lat="45.66028" lon="4.64124">
        <ele>422.39999389648</ele>
        <time>2012-04-02T13:06:04.000Z</time>
      </trkpt>
      <trkpt lat="45.66031" lon="4.6412">
        <ele>421.20001220703</ele>
        <time>2012-04-02T13:06:05.000Z</time>
      </trkpt>
      <trkpt lat="45.66033" lon="4.64117">
        <ele>420.20001220703</ele>
        <time>2012-04-02T13:06:06.000Z</time>
      </trkpt>
      <trkpt lat="45.66033" lon="4.64109">
        <ele>419</ele>
        <time>2012-04-02T13:06:14.000Z</time>
      </trkpt>
      <trkpt lat="45.66033" lon="4.64103">
        <ele>418</ele>
        <time>2012-04-02T13:06:20.000Z</time>
      </trkpt>
      <trkpt lat="45.66031" lon="4.64098">
        <ele>417.60000610352</ele>
        <time>2012-04-02T13:06:21.000Z</time>
      </trkpt>
      <trkpt lat="45.66029" lon="4.64093">
        <ele>417</ele>
        <time>2012-04-02T13:06:22.000Z</time>
      </trkpt>
      <trkpt lat="45.66028" lon="4.64086">
        <ele>416</ele>
        <time>2012-04-02T13:06:23.000Z</time>
      </trkpt>
      <trkpt lat="45.66027" lon="4.64078">
        <ele>415.20001220703</ele>
        <time>2012-04-02T13:06:24.000Z</time>
      </trkpt>
      <trkpt lat="45.6602" lon="4.64051">
        <ele>412.39999389648</ele>
        <time>2012-04-02T13:06:27.000Z</time>
      </trkpt>
      <trkpt lat="45.66017" lon="4.64043">
        <ele>411.79998779297</ele>
        <time>2012-04-02T13:06:28.000Z</time>
      </trkpt>
      <trkpt lat="45.66014" lon="4.64036">
        <ele>411.20001220703</ele>
        <time>2012-04-02T13:06:29.000Z</time>
      </trkpt>
      <trkpt lat="45.66011" lon="4.6403">
        <ele>410.60000610352</ele>
        <time>2012-04-02T13:06:30.000Z</time>
      </trkpt>
      <trkpt lat="45.66007" lon="4.64023">
        <ele>410</ele>
        <time>2012-04-02T13:06:31.000Z</time>
      </trkpt>
      <trkpt lat="45.66003" lon="4.64018">
        <ele>409.60000610352</ele>
        <time>2012-04-02T13:06:32.000Z</time>
      </trkpt>
      <trkpt lat="45.65998" lon="4.64012">
        <ele>409.20001220703</ele>
        <time>2012-04-02T13:06:33.000Z</time>
      </trkpt>
      <trkpt lat="45.65994" lon="4.64005">
        <ele>408.20001220703</ele>
        <time>2012-04-02T13:06:34.000Z</time>
      </trkpt>
      <trkpt lat="45.65993" lon="4.63996">
        <ele>407.60000610352</ele>
        <time>2012-04-02T13:06:35.000Z</time>
      </trkpt>
      <trkpt lat="45.65993" lon="4.63987">
        <ele>407.79998779297</ele>
        <time>2012-04-02T13:06:36.000Z</time>
      </trkpt>
      <trkpt lat="45.65993" lon="4.63978">
        <ele>408</ele>
        <time>2012-04-02T13:06:37.000Z</time>
      </trkpt>
      <trkpt lat="45.65993" lon="4.63969">
        <ele>408.20001220703</ele>
        <time>2012-04-02T13:06:38.000Z</time>
      </trkpt>
      <trkpt lat="45.65993" lon="4.63961">
        <ele>408.39999389648</ele>
        <time>2012-04-02T13:06:39.000Z</time>
      </trkpt>
      <trkpt lat="45.65992" lon="4.63953">
        <ele>408.60000610352</ele>
        <time>2012-04-02T13:06:40.000Z</time>
      </trkpt>
      <trkpt lat="45.65989" lon="4.63945">
        <ele>408.79998779297</ele>
        <time>2012-04-02T13:06:41.000Z</time>
      </trkpt>
      <trkpt lat="45.65986" lon="4.63937">
        <ele>409.20001220703</ele>
        <time>2012-04-02T13:06:42.000Z</time>
      </trkpt>
      <trkpt lat="45.65983" lon="4.63931">
        <ele>409.39999389648</ele>
        <time>2012-04-02T13:06:43.000Z</time>
      </trkpt>
      <trkpt lat="45.65978" lon="4.63905">
        <ele>411.79998779297</ele>
        <time>2012-04-02T13:06:49.000Z</time>
      </trkpt>
      <trkpt lat="45.65979" lon="4.63903">
        <ele>412.20001220703</ele>
        <time>2012-04-02T13:06:51.000Z</time>
      </trkpt>
      <trkpt lat="45.65981" lon="4.63904">
        <ele>412.20001220703</ele>
        <time>2012-04-02T13:06:52.000Z</time>
      </trkpt>
      <trkpt lat="45.65984" lon="4.63904">
        <ele>412</ele>
        <time>2012-04-02T13:06:53.000Z</time>
      </trkpt>
      <trkpt lat="45.65998" lon="4.6391">
        <ele>410.39999389648</ele>
        <time>2012-04-02T13:07:03.000Z</time>
      </trkpt>
      <trkpt lat="45.66006" lon="4.63913">
        <ele>409.79998779297</ele>
        <time>2012-04-02T13:07:12.000Z</time>
      </trkpt>
      <trkpt lat="45.66008" lon="4.63913">
        <ele>409.60000610352</ele>
        <time>2012-04-02T13:07:13.000Z</time>
      </trkpt>
      <trkpt lat="45.66011" lon="4.63913">
        <ele>409.60000610352</ele>
        <time>2012-04-02T13:07:14.000Z</time>
      </trkpt>
      <trkpt lat="45.66013" lon="4.63913">
        <ele>409.60000610352</ele>
        <time>2012-04-02T13:07:15.000Z</time>
      </trkpt>
      <trkpt lat="45.66015" lon="4.63914">
        <ele>409.39999389648</ele>
        <time>2012-04-02T13:07:16.000Z</time>
      </trkpt>
      <trkpt lat="45.66017" lon="4.63914">
        <ele>409.39999389648</ele>
        <time>2012-04-02T13:07:17.000Z</time>
      </trkpt>
      <trkpt lat="45.66019" lon="4.63914">
        <ele>409.39999389648</ele>
        <time>2012-04-02T13:07:18.000Z</time>
      </trkpt>
      <trkpt lat="45.66022" lon="4.63914">
        <ele>409.20001220703</ele>
        <time>2012-04-02T13:07:19.000Z</time>
      </trkpt>
      <trkpt lat="45.66024" lon="4.63915">
        <ele>409</ele>
        <time>2012-04-02T13:07:20.000Z</time>
      </trkpt>
      <trkpt lat="45.66026" lon="4.63915">
        <ele>409.20001220703</ele>
        <time>2012-04-02T13:07:21.000Z</time>
      </trkpt>
      <trkpt lat="45.66027" lon="4.63914">
        <ele>409.20001220703</ele>
        <time>2012-04-02T13:07:22.000Z</time>
      </trkpt>
      <trkpt lat="45.66029" lon="4.63913">
        <ele>409.39999389648</ele>
        <time>2012-04-02T13:07:23.000Z</time>
      </trkpt>
      <trkpt lat="45.66031" lon="4.63913">
        <ele>409.39999389648</ele>
        <time>2012-04-02T13:07:24.000Z</time>
      </trkpt>
      <trkpt lat="45.66033" lon="4.63913">
        <ele>409.39999389648</ele>
        <time>2012-04-02T13:07:25.000Z</time>
      </trkpt>
      <trkpt lat="45.66035" lon="4.63913">
        <ele>409.39999389648</ele>
        <time>2012-04-02T13:07:26.000Z</time>
      </trkpt>
      <trkpt lat="45.66055" lon="4.63908">
        <ele>410.20001220703</ele>
        <time>2012-04-02T13:07:37.000Z</time>
      </trkpt>
      <trkpt lat="45.66075" lon="4.63893">
        <ele>413</ele>
        <time>2012-04-02T13:07:52.000Z</time>
      </trkpt>
      <trkpt lat="45.66097" lon="4.63886">
        <ele>415</ele>
        <time>2012-04-02T13:08:06.000Z</time>
      </trkpt>
      <trkpt lat="45.66124" lon="4.6389">
        <ele>415.60000610352</ele>
        <time>2012-04-02T13:08:21.000Z</time>
      </trkpt>
      <trkpt lat="45.66152" lon="4.63899">
        <ele>415.60000610352</ele>
        <time>2012-04-02T13:08:37.000Z</time>
      </trkpt>
      <trkpt lat="45.66179" lon="4.63914">
        <ele>415.39999389648</ele>
        <time>2012-04-02T13:08:53.000Z</time>
      </trkpt>
      <trkpt lat="45.66199" lon="4.63925">
        <ele>417.20001220703</ele>
        <time>2012-04-02T13:09:07.000Z</time>
      </trkpt>
      <trkpt lat="45.66213" lon="4.63932">
        <ele>418.60000610352</ele>
        <time>2012-04-02T13:09:19.000Z</time>
      </trkpt>
      <trkpt lat="45.66215" lon="4.63931">
        <ele>418.79998779297</ele>
        <time>2012-04-02T13:09:20.000Z</time>
      </trkpt>
      <trkpt lat="45.66216" lon="4.63931">
        <ele>419</ele>
        <time>2012-04-02T13:09:21.000Z</time>
      </trkpt>
      <trkpt lat="45.66217" lon="4.63931">
        <ele>419.20001220703</ele>
        <time>2012-04-02T13:09:22.000Z</time>
      </trkpt>
      <trkpt lat="45.66218" lon="4.63931">
        <ele>419.39999389648</ele>
        <time>2012-04-02T13:09:23.000Z</time>
      </trkpt>
      <trkpt lat="45.66219" lon="4.63932">
        <ele>419.60000610352</ele>
        <time>2012-04-02T13:09:24.000Z</time>
      </trkpt>
      <trkpt lat="45.66227" lon="4.63934">
        <ele>420.39999389648</ele>
        <time>2012-04-02T13:09:29.000Z</time>
      </trkpt>
      <trkpt lat="45.66228" lon="4.63934">
        <ele>420.60000610352</ele>
        <time>2012-04-02T13:09:30.000Z</time>
      </trkpt>
      <trkpt lat="45.66229" lon="4.63934">
        <ele>420.79998779297</ele>
        <time>2012-04-02T13:09:31.000Z</time>
      </trkpt>
      <trkpt lat="45.66231" lon="4.63935">
        <ele>421</ele>
        <time>2012-04-02T13:09:32.000Z</time>
      </trkpt>
      <trkpt lat="45.66232" lon="4.63936">
        <ele>421</ele>
        <time>2012-04-02T13:09:33.000Z</time>
      </trkpt>
      <trkpt lat="45.66233" lon="4.63937">
        <ele>421.20001220703</ele>
        <time>2012-04-02T13:09:34.000Z</time>
      </trkpt>
      <trkpt lat="45.66235" lon="4.63938">
        <ele>421.20001220703</ele>
        <time>2012-04-02T13:09:35.000Z</time>
      </trkpt>
      <trkpt lat="45.66261" lon="4.63952">
        <ele>422.39999389648</ele>
        <time>2012-04-02T13:09:51.000Z</time>
      </trkpt>
      <trkpt lat="45.66295" lon="4.63967">
        <ele>422.79998779297</ele>
        <time>2012-04-02T13:10:08.000Z</time>
      </trkpt>
      <trkpt lat="45.66333" lon="4.63983">
        <ele>423</ele>
        <time>2012-04-02T13:10:22.000Z</time>
      </trkpt>
      <trkpt lat="45.66352" lon="4.63989">
        <ele>422.60000610352</ele>
        <time>2012-04-02T13:10:28.000Z</time>
      </trkpt>
      <trkpt lat="45.66354" lon="4.63987">
        <ele>422.79998779297</ele>
        <time>2012-04-02T13:10:29.000Z</time>
      </trkpt>
      <trkpt lat="45.66355" lon="4.63986">
        <ele>423</ele>
        <time>2012-04-02T13:10:30.000Z</time>
      </trkpt>
      <trkpt lat="45.66355" lon="4.63984">
        <ele>423.20001220703</ele>
        <time>2012-04-02T13:10:32.000Z</time>
      </trkpt>
      <trkpt lat="45.66347" lon="4.63959">
        <ele>426.20001220703</ele>
        <time>2012-04-02T13:10:46.000Z</time>
      </trkpt>
      <trkpt lat="45.66342" lon="4.63938">
        <ele>428.60000610352</ele>
        <time>2012-04-02T13:10:59.000Z</time>
      </trkpt>
      <trkpt lat="45.66341" lon="4.63936">
        <ele>428.79998779297</ele>
        <time>2012-04-02T13:11:00.000Z</time>
      </trkpt>
      <trkpt lat="45.66338" lon="4.63918">
        <ele>430.79998779297</ele>
        <time>2012-04-02T13:11:13.000Z</time>
      </trkpt>
      <trkpt lat="45.66337" lon="4.63915">
        <ele>431.20001220703</ele>
        <time>2012-04-02T13:11:15.000Z</time>
      </trkpt>
      <trkpt lat="45.66337" lon="4.63912">
        <ele>431.39999389648</ele>
        <time>2012-04-02T13:11:17.000Z</time>
      </trkpt>
      <trkpt lat="45.66335" lon="4.63906">
        <ele>431.79998779297</ele>
        <time>2012-04-02T13:11:21.000Z</time>
      </trkpt>
      <trkpt lat="45.66334" lon="4.63903">
        <ele>432</ele>
        <time>2012-04-02T13:11:23.000Z</time>
      </trkpt>
      <trkpt lat="45.66331" lon="4.63879">
        <ele>433.60000610352</ele>
        <time>2012-04-02T13:11:37.000Z</time>
      </trkpt>
      <trkpt lat="45.66325" lon="4.63854">
        <ele>435</ele>
        <time>2012-04-02T13:11:52.000Z</time>
      </trkpt>
      <trkpt lat="45.66319" lon="4.6383">
        <ele>436.60000610352</ele>
        <time>2012-04-02T13:12:06.000Z</time>
      </trkpt>
      <trkpt lat="45.66316" lon="4.63821">
        <ele>437.39999389648</ele>
        <time>2012-04-02T13:12:12.000Z</time>
      </trkpt>
      <trkpt lat="45.66315" lon="4.63819">
        <ele>437.60000610352</ele>
        <time>2012-04-02T13:12:13.000Z</time>
      </trkpt>
      <trkpt lat="45.66309" lon="4.6379">
        <ele>441</ele>
        <time>2012-04-02T13:12:31.000Z</time>
      </trkpt>
      <trkpt lat="45.66308" lon="4.63787">
        <ele>441.39999389648</ele>
        <time>2012-04-02T13:12:33.000Z</time>
      </trkpt>
      <trkpt lat="45.66307" lon="4.63786">
        <ele>441.39999389648</ele>
        <time>2012-04-02T13:12:34.000Z</time>
      </trkpt>
      <trkpt lat="45.66307" lon="4.63784">
        <ele>441.60000610352</ele>
        <time>2012-04-02T13:12:35.000Z</time>
      </trkpt>
      <trkpt lat="45.66306" lon="4.63783">
        <ele>441.79998779297</ele>
        <time>2012-04-02T13:12:36.000Z</time>
      </trkpt>
      <trkpt lat="45.66306" lon="4.63781">
        <ele>442</ele>
        <time>2012-04-02T13:12:37.000Z</time>
      </trkpt>
      <trkpt lat="45.66301" lon="4.63758">
        <ele>445</ele>
        <time>2012-04-02T13:12:51.000Z</time>
      </trkpt>
      <trkpt lat="45.66301" lon="4.63757">
        <ele>445.20001220703</ele>
        <time>2012-04-02T13:12:52.000Z</time>
      </trkpt>
      <trkpt lat="45.663" lon="4.63755">
        <ele>445.39999389648</ele>
        <time>2012-04-02T13:12:53.000Z</time>
      </trkpt>
      <trkpt lat="45.663" lon="4.63754">
        <ele>445.60000610352</ele>
        <time>2012-04-02T13:12:54.000Z</time>
      </trkpt>
      <trkpt lat="45.66299" lon="4.63751">
        <ele>446</ele>
        <time>2012-04-02T13:12:56.000Z</time>
      </trkpt>
      <trkpt lat="45.66296" lon="4.63735">
        <ele>447.79998779297</ele>
        <time>2012-04-02T13:13:06.000Z</time>
      </trkpt>
      <trkpt lat="45.66296" lon="4.63734">
        <ele>448</ele>
        <time>2012-04-02T13:13:07.000Z</time>
      </trkpt>
      <trkpt lat="45.66295" lon="4.63732">
        <ele>448.20001220703</ele>
        <time>2012-04-02T13:13:08.000Z</time>
      </trkpt>
      <trkpt lat="45.66296" lon="4.63712">
        <ele>450.79998779297</ele>
        <time>2012-04-02T13:13:21.000Z</time>
      </trkpt>
      <trkpt lat="45.66299" lon="4.63701">
        <ele>452</ele>
        <time>2012-04-02T13:13:27.000Z</time>
      </trkpt>
      <trkpt lat="45.66299" lon="4.63699">
        <ele>452.20001220703</ele>
        <time>2012-04-02T13:13:28.000Z</time>
      </trkpt>
      <trkpt lat="45.66299" lon="4.63697">
        <ele>452.39999389648</ele>
        <time>2012-04-02T13:13:29.000Z</time>
      </trkpt>
      <trkpt lat="45.66299" lon="4.63695">
        <ele>452.60000610352</ele>
        <time>2012-04-02T13:13:30.000Z</time>
      </trkpt>
      <trkpt lat="45.663" lon="4.63693">
        <ele>452.79998779297</ele>
        <time>2012-04-02T13:13:31.000Z</time>
      </trkpt>
      <trkpt lat="45.66301" lon="4.63691">
        <ele>452.79998779297</ele>
        <time>2012-04-02T13:13:32.000Z</time>
      </trkpt>
      <trkpt lat="45.66302" lon="4.63688">
        <ele>453</ele>
        <time>2012-04-02T13:13:33.000Z</time>
      </trkpt>
      <trkpt lat="45.66303" lon="4.63686">
        <ele>453.20001220703</ele>
        <time>2012-04-02T13:13:34.000Z</time>
      </trkpt>
      <trkpt lat="45.66305" lon="4.63684">
        <ele>453.20001220703</ele>
        <time>2012-04-02T13:13:35.000Z</time>
      </trkpt>
      <trkpt lat="45.66328" lon="4.6366">
        <ele>451.79998779297</ele>
        <time>2012-04-02T13:13:47.000Z</time>
      </trkpt>
      <trkpt lat="45.66338" lon="4.63655">
        <ele>450.60000610352</ele>
        <time>2012-04-02T13:13:50.000Z</time>
      </trkpt>
      <trkpt lat="45.66358" lon="4.6364">
        <ele>447.60000610352</ele>
        <time>2012-04-02T13:13:56.000Z</time>
      </trkpt>
      <trkpt lat="45.66361" lon="4.63633">
        <ele>447</ele>
        <time>2012-04-02T13:13:57.000Z</time>
      </trkpt>
      <trkpt lat="45.66364" lon="4.63626">
        <ele>446.60000610352</ele>
        <time>2012-04-02T13:13:58.000Z</time>
      </trkpt>
      <trkpt lat="45.66366" lon="4.63618">
        <ele>446</ele>
        <time>2012-04-02T13:13:59.000Z</time>
      </trkpt>
      <trkpt lat="45.66367" lon="4.63609">
        <ele>445.60000610352</ele>
        <time>2012-04-02T13:14:00.000Z</time>
      </trkpt>
      <trkpt lat="45.66368" lon="4.636">
        <ele>445.39999389648</ele>
        <time>2012-04-02T13:14:01.000Z</time>
      </trkpt>
      <trkpt lat="45.66368" lon="4.6359">
        <ele>445.20001220703</ele>
        <time>2012-04-02T13:14:02.000Z</time>
      </trkpt>
      <trkpt lat="45.66366" lon="4.6358">
        <ele>445.20001220703</ele>
        <time>2012-04-02T13:14:03.000Z</time>
      </trkpt>
      <trkpt lat="45.66363" lon="4.63569">
        <ele>444.79998779297</ele>
        <time>2012-04-02T13:14:04.000Z</time>
      </trkpt>
      <trkpt lat="45.6636" lon="4.63558">
        <ele>444.60000610352</ele>
        <time>2012-04-02T13:14:05.000Z</time>
      </trkpt>
      <trkpt lat="45.66357" lon="4.63547">
        <ele>444.39999389648</ele>
        <time>2012-04-02T13:14:06.000Z</time>
      </trkpt>
      <trkpt lat="45.66346" lon="4.63498">
        <ele>443</ele>
        <time>2012-04-02T13:14:10.000Z</time>
      </trkpt>
      <trkpt lat="45.66344" lon="4.63484">
        <ele>442.60000610352</ele>
        <time>2012-04-02T13:14:11.000Z</time>
      </trkpt>
      <trkpt lat="45.6634" lon="4.63459">
        <ele>441.79998779297</ele>
        <time>2012-04-02T13:14:13.000Z</time>
      </trkpt>
      <trkpt lat="45.66333" lon="4.63421">
        <ele>440.39999389648</ele>
        <time>2012-04-02T13:14:16.000Z</time>
      </trkpt>
      <trkpt lat="45.66334" lon="4.63409">
        <ele>439.79998779297</ele>
        <time>2012-04-02T13:14:17.000Z</time>
      </trkpt>
      <trkpt lat="45.66338" lon="4.63386">
        <ele>439</ele>
        <time>2012-04-02T13:14:19.000Z</time>
      </trkpt>
      <trkpt lat="45.6634" lon="4.63376">
        <ele>438.60000610352</ele>
        <time>2012-04-02T13:14:20.000Z</time>
      </trkpt>
      <trkpt lat="45.66354" lon="4.63278">
        <ele>438.39999389648</ele>
        <time>2012-04-02T13:14:29.000Z</time>
      </trkpt>
      <trkpt lat="45.66361" lon="4.63215">
        <ele>440</ele>
        <time>2012-04-02T13:14:34.000Z</time>
      </trkpt>
      <trkpt lat="45.66363" lon="4.63203">
        <ele>440.39999389648</ele>
        <time>2012-04-02T13:14:35.000Z</time>
      </trkpt>
      <trkpt lat="45.66367" lon="4.63193">
        <ele>440.60000610352</ele>
        <time>2012-04-02T13:14:36.000Z</time>
      </trkpt>
      <trkpt lat="45.66372" lon="4.63185">
        <ele>440.60000610352</ele>
        <time>2012-04-02T13:14:37.000Z</time>
      </trkpt>
      <trkpt lat="45.66378" lon="4.6318">
        <ele>440.79998779297</ele>
        <time>2012-04-02T13:14:38.000Z</time>
      </trkpt>
      <trkpt lat="45.66383" lon="4.63175">
        <ele>441</ele>
        <time>2012-04-02T13:14:39.000Z</time>
      </trkpt>
      <trkpt lat="45.66388" lon="4.63171">
        <ele>441</ele>
        <time>2012-04-02T13:14:40.000Z</time>
      </trkpt>
      <trkpt lat="45.664" lon="4.63162">
        <ele>441.39999389648</ele>
        <time>2012-04-02T13:14:47.000Z</time>
      </trkpt>
      <trkpt lat="45.66402" lon="4.63162">
        <ele>441.39999389648</ele>
        <time>2012-04-02T13:14:48.000Z</time>
      </trkpt>
      <trkpt lat="45.66403" lon="4.63163">
        <ele>441.39999389648</ele>
        <time>2012-04-02T13:14:49.000Z</time>
      </trkpt>
      <trkpt lat="45.66405" lon="4.63165">
        <ele>441.20001220703</ele>
        <time>2012-04-02T13:14:50.000Z</time>
      </trkpt>
      <trkpt lat="45.66406" lon="4.63166">
        <ele>441.20001220703</ele>
        <time>2012-04-02T13:14:51.000Z</time>
      </trkpt>
      <trkpt lat="45.66424" lon="4.63183">
        <ele>440.39999389648</ele>
        <time>2012-04-02T13:15:05.000Z</time>
      </trkpt>
      <trkpt lat="45.66425" lon="4.63183">
        <ele>440.60000610352</ele>
        <time>2012-04-02T13:15:06.000Z</time>
      </trkpt>
      <trkpt lat="45.66426" lon="4.63181">
        <ele>440.79998779297</ele>
        <time>2012-04-02T13:15:07.000Z</time>
      </trkpt>
      <trkpt lat="45.66427" lon="4.6318">
        <ele>441</ele>
        <time>2012-04-02T13:15:08.000Z</time>
      </trkpt>
      <trkpt lat="45.66428" lon="4.63178">
        <ele>441.20001220703</ele>
        <time>2012-04-02T13:15:09.000Z</time>
      </trkpt>
      <trkpt lat="45.66429" lon="4.63176">
        <ele>441.60000610352</ele>
        <time>2012-04-02T13:15:10.000Z</time>
      </trkpt>
      <trkpt lat="45.6643" lon="4.63174">
        <ele>441.79998779297</ele>
        <time>2012-04-02T13:15:11.000Z</time>
      </trkpt>
      <trkpt lat="45.66432" lon="4.63173">
        <ele>442</ele>
        <time>2012-04-02T13:15:12.000Z</time>
      </trkpt>
      <trkpt lat="45.66433" lon="4.63171">
        <ele>442.39999389648</ele>
        <time>2012-04-02T13:15:13.000Z</time>
      </trkpt>
      <trkpt lat="45.66434" lon="4.63169">
        <ele>442.60000610352</ele>
        <time>2012-04-02T13:15:14.000Z</time>
      </trkpt>
      <trkpt lat="45.66445" lon="4.63157">
        <ele>445</ele>
        <time>2012-04-02T13:15:26.000Z</time>
      </trkpt>
      <trkpt lat="45.66456" lon="4.63154">
        <ele>446.39999389648</ele>
        <time>2012-04-02T13:15:34.000Z</time>
      </trkpt>
      <trkpt lat="45.66472" lon="4.63155">
        <ele>448</ele>
        <time>2012-04-02T13:15:45.000Z</time>
      </trkpt>
      <trkpt lat="45.66475" lon="4.63154">
        <ele>448.39999389648</ele>
        <time>2012-04-02T13:15:47.000Z</time>
      </trkpt>
      <trkpt lat="45.66477" lon="4.63154">
        <ele>448.60000610352</ele>
        <time>2012-04-02T13:15:48.000Z</time>
      </trkpt>
      <trkpt lat="45.66478" lon="4.63154">
        <ele>448.79998779297</ele>
        <time>2012-04-02T13:15:49.000Z</time>
      </trkpt>
      <trkpt lat="45.66492" lon="4.63156">
        <ele>450.20001220703</ele>
        <time>2012-04-02T13:15:58.000Z</time>
      </trkpt>
      <trkpt lat="45.66493" lon="4.63157">
        <ele>450.20001220703</ele>
        <time>2012-04-02T13:15:59.000Z</time>
      </trkpt>
      <trkpt lat="45.66495" lon="4.63158">
        <ele>450.20001220703</ele>
        <time>2012-04-02T13:16:00.000Z</time>
      </trkpt>
      <trkpt lat="45.66496" lon="4.63159">
        <ele>450.39999389648</ele>
        <time>2012-04-02T13:16:01.000Z</time>
      </trkpt>
      <trkpt lat="45.66498" lon="4.63159">
        <ele>450.39999389648</ele>
        <time>2012-04-02T13:16:02.000Z</time>
      </trkpt>
      <trkpt lat="45.66499" lon="4.6316">
        <ele>450.60000610352</ele>
        <time>2012-04-02T13:16:03.000Z</time>
      </trkpt>
      <trkpt lat="45.665" lon="4.6316">
        <ele>450.60000610352</ele>
        <time>2012-04-02T13:16:04.000Z</time>
      </trkpt>
      <trkpt lat="45.66511" lon="4.6316">
        <ele>450.79998779297</ele>
        <time>2012-04-02T13:16:11.000Z</time>
      </trkpt>
      <trkpt lat="45.66513" lon="4.6316">
        <ele>450.79998779297</ele>
        <time>2012-04-02T13:16:12.000Z</time>
      </trkpt>
      <trkpt lat="45.66515" lon="4.6316">
        <ele>450.79998779297</ele>
        <time>2012-04-02T13:16:13.000Z</time>
      </trkpt>
      <trkpt lat="45.66516" lon="4.6316">
        <ele>450.79998779297</ele>
        <time>2012-04-02T13:16:14.000Z</time>
      </trkpt>
      <trkpt lat="45.66518" lon="4.6316">
        <ele>450.79998779297</ele>
        <time>2012-04-02T13:16:15.000Z</time>
      </trkpt>
      <trkpt lat="45.66533" lon="4.63161">
        <ele>451</ele>
        <time>2012-04-02T13:16:25.000Z</time>
      </trkpt>
      <trkpt lat="45.66534" lon="4.63161">
        <ele>451</ele>
        <time>2012-04-02T13:16:26.000Z</time>
      </trkpt>
      <trkpt lat="45.66536" lon="4.6316">
        <ele>451.20001220703</ele>
        <time>2012-04-02T13:16:27.000Z</time>
      </trkpt>
      <trkpt lat="45.66539" lon="4.6316">
        <ele>451.20001220703</ele>
        <time>2012-04-02T13:16:29.000Z</time>
      </trkpt>
      <trkpt lat="45.6654" lon="4.63159">
        <ele>451.39999389648</ele>
        <time>2012-04-02T13:16:30.000Z</time>
      </trkpt>
      <trkpt lat="45.66542" lon="4.63159">
        <ele>451.39999389648</ele>
        <time>2012-04-02T13:16:31.000Z</time>
      </trkpt>
      <trkpt lat="45.66563" lon="4.63151">
        <ele>452.79998779297</ele>
        <time>2012-04-02T13:16:46.000Z</time>
      </trkpt>
      <trkpt lat="45.66584" lon="4.63142">
        <ele>454.60000610352</ele>
        <time>2012-04-02T13:17:01.000Z</time>
      </trkpt>
      <trkpt lat="45.66592" lon="4.63139">
        <ele>455.39999389648</ele>
        <time>2012-04-02T13:17:07.000Z</time>
      </trkpt>
      <trkpt lat="45.66593" lon="4.63138">
        <ele>455.60000610352</ele>
        <time>2012-04-02T13:17:08.000Z</time>
      </trkpt>
      <trkpt lat="45.66595" lon="4.63138">
        <ele>455.79998779297</ele>
        <time>2012-04-02T13:17:09.000Z</time>
      </trkpt>
      <trkpt lat="45.66597" lon="4.63138">
        <ele>455.79998779297</ele>
        <time>2012-04-02T13:17:10.000Z</time>
      </trkpt>
      <trkpt lat="45.66598" lon="4.63138">
        <ele>455.79998779297</ele>
        <time>2012-04-02T13:17:11.000Z</time>
      </trkpt>
      <trkpt lat="45.666" lon="4.63138">
        <ele>456</ele>
        <time>2012-04-02T13:17:12.000Z</time>
      </trkpt>
      <trkpt lat="45.66603" lon="4.63137">
        <ele>456.39999389648</ele>
        <time>2012-04-02T13:17:14.000Z</time>
      </trkpt>
      <trkpt lat="45.66613" lon="4.63131">
        <ele>457.79998779297</ele>
        <time>2012-04-02T13:17:20.000Z</time>
      </trkpt>
      <trkpt lat="45.66619" lon="4.6313">
        <ele>458.39999389648</ele>
        <time>2012-04-02T13:17:25.000Z</time>
      </trkpt>
      <trkpt lat="45.6662" lon="4.6313">
        <ele>458.39999389648</ele>
        <time>2012-04-02T13:17:26.000Z</time>
      </trkpt>
      <trkpt lat="45.66621" lon="4.63129">
        <ele>458.60000610352</ele>
        <time>2012-04-02T13:17:27.000Z</time>
      </trkpt>
      <trkpt lat="45.66626" lon="4.63127">
        <ele>459.20001220703</ele>
        <time>2012-04-02T13:17:30.000Z</time>
      </trkpt>
      <trkpt lat="45.66642" lon="4.63115">
        <ele>462.39999389648</ele>
        <time>2012-04-02T13:17:42.000Z</time>
      </trkpt>
      <trkpt lat="45.66648" lon="4.6311">
        <ele>463.60000610352</ele>
        <time>2012-04-02T13:17:47.000Z</time>
      </trkpt>
      <trkpt lat="45.6665" lon="4.63109">
        <ele>464</ele>
        <time>2012-04-02T13:17:48.000Z</time>
      </trkpt>
      <trkpt lat="45.66652" lon="4.63108">
        <ele>464.20001220703</ele>
        <time>2012-04-02T13:17:49.000Z</time>
      </trkpt>
      <trkpt lat="45.66654" lon="4.63108">
        <ele>464.39999389648</ele>
        <time>2012-04-02T13:17:50.000Z</time>
      </trkpt>
      <trkpt lat="45.66655" lon="4.63108">
        <ele>464.60000610352</ele>
        <time>2012-04-02T13:17:51.000Z</time>
      </trkpt>
      <trkpt lat="45.66657" lon="4.63107">
        <ele>464.79998779297</ele>
        <time>2012-04-02T13:17:52.000Z</time>
      </trkpt>
      <trkpt lat="45.66668" lon="4.63101">
        <ele>466.60000610352</ele>
        <time>2012-04-02T13:18:00.000Z</time>
      </trkpt>
      <trkpt lat="45.6667" lon="4.63102">
        <ele>466.60000610352</ele>
        <time>2012-04-02T13:18:01.000Z</time>
      </trkpt>
      <trkpt lat="45.66672" lon="4.63102">
        <ele>466.60000610352</ele>
        <time>2012-04-02T13:18:02.000Z</time>
      </trkpt>
      <trkpt lat="45.66673" lon="4.63101">
        <ele>466.79998779297</ele>
        <time>2012-04-02T13:18:03.000Z</time>
      </trkpt>
      <trkpt lat="45.66675" lon="4.63101">
        <ele>467</ele>
        <time>2012-04-02T13:18:04.000Z</time>
      </trkpt>
      <trkpt lat="45.66677" lon="4.631">
        <ele>467</ele>
        <time>2012-04-02T13:18:05.000Z</time>
      </trkpt>
      <trkpt lat="45.66678" lon="4.631">
        <ele>467.20001220703</ele>
        <time>2012-04-02T13:18:06.000Z</time>
      </trkpt>
      <trkpt lat="45.6668" lon="4.631">
        <ele>467.20001220703</ele>
        <time>2012-04-02T13:18:07.000Z</time>
      </trkpt>
      <trkpt lat="45.66681" lon="4.631">
        <ele>467.20001220703</ele>
        <time>2012-04-02T13:18:08.000Z</time>
      </trkpt>
      <trkpt lat="45.66683" lon="4.631">
        <ele>467.20001220703</ele>
        <time>2012-04-02T13:18:09.000Z</time>
      </trkpt>
      <trkpt lat="45.66696" lon="4.63101">
        <ele>467.60000610352</ele>
        <time>2012-04-02T13:18:16.000Z</time>
      </trkpt>
      <trkpt lat="45.66697" lon="4.63101">
        <ele>467.60000610352</ele>
        <time>2012-04-02T13:18:17.000Z</time>
      </trkpt>
      <trkpt lat="45.66699" lon="4.63102">
        <ele>467.39999389648</ele>
        <time>2012-04-02T13:18:18.000Z</time>
      </trkpt>
      <trkpt lat="45.66701" lon="4.63102">
        <ele>467.60000610352</ele>
        <time>2012-04-02T13:18:19.000Z</time>
      </trkpt>
      <trkpt lat="45.66702" lon="4.63102">
        <ele>467.60000610352</ele>
        <time>2012-04-02T13:18:20.000Z</time>
      </trkpt>
      <trkpt lat="45.66703" lon="4.63102">
        <ele>467.60000610352</ele>
        <time>2012-04-02T13:18:21.000Z</time>
      </trkpt>
      <trkpt lat="45.66705" lon="4.63104">
        <ele>467.39999389648</ele>
        <time>2012-04-02T13:18:23.000Z</time>
      </trkpt>
      <trkpt lat="45.66715" lon="4.63107">
        <ele>467.20001220703</ele>
        <time>2012-04-02T13:18:30.000Z</time>
      </trkpt>
      <trkpt lat="45.66716" lon="4.63106">
        <ele>467.39999389648</ele>
        <time>2012-04-02T13:18:31.000Z</time>
      </trkpt>
      <trkpt lat="45.66717" lon="4.63105">
        <ele>467.60000610352</ele>
        <time>2012-04-02T13:18:32.000Z</time>
      </trkpt>
      <trkpt lat="45.66719" lon="4.63104">
        <ele>467.79998779297</ele>
        <time>2012-04-02T13:18:33.000Z</time>
      </trkpt>
      <trkpt lat="45.6672" lon="4.63104">
        <ele>467.79998779297</ele>
        <time>2012-04-02T13:18:34.000Z</time>
      </trkpt>
      <trkpt lat="45.66721" lon="4.63103">
        <ele>468</ele>
        <time>2012-04-02T13:18:35.000Z</time>
      </trkpt>
      <trkpt lat="45.66723" lon="4.63102">
        <ele>468.20001220703</ele>
        <time>2012-04-02T13:18:36.000Z</time>
      </trkpt>
      <trkpt lat="45.66723" lon="4.63101">
        <ele>468.39999389648</ele>
        <time>2012-04-02T13:18:37.000Z</time>
      </trkpt>
      <trkpt lat="45.66736" lon="4.63091">
        <ele>470.39999389648</ele>
        <time>2012-04-02T13:18:49.000Z</time>
      </trkpt>
      <trkpt lat="45.66751" lon="4.63081">
        <ele>472.39999389648</ele>
        <time>2012-04-02T13:19:00.000Z</time>
      </trkpt>
      <trkpt lat="45.66768" lon="4.6307">
        <ele>474.60000610352</ele>
        <time>2012-04-02T13:19:13.000Z</time>
      </trkpt>
      <trkpt lat="45.66799" lon="4.6307">
        <ele>474</ele>
        <time>2012-04-02T13:19:25.000Z</time>
      </trkpt>
      <trkpt lat="45.66863" lon="4.63069">
        <ele>471.20001220703</ele>
        <time>2012-04-02T13:19:40.000Z</time>
      </trkpt>
      <trkpt lat="45.66895" lon="4.63053">
        <ele>469.60000610352</ele>
        <time>2012-04-02T13:19:51.000Z</time>
      </trkpt>
      <trkpt lat="45.66898" lon="4.6305">
        <ele>469.39999389648</ele>
        <time>2012-04-02T13:20:00.000Z</time>
      </trkpt>
      <trkpt lat="45.66899" lon="4.63048">
        <ele>469.60000610352</ele>
        <time>2012-04-02T13:20:10.000Z</time>
      </trkpt>
      <trkpt lat="45.66898" lon="4.63046">
        <ele>469.60000610352</ele>
        <time>2012-04-02T13:20:42.000Z</time>
      </trkpt>
      <trkpt lat="45.66898" lon="4.63047">
        <ele>469.60000610352</ele>
        <time>2012-04-02T13:21:08.000Z</time>
      </trkpt>
      <trkpt lat="45.66897" lon="4.63047">
        <ele>469.79998779297</ele>
        <time>2012-04-02T13:21:34.000Z</time>
      </trkpt>
      <trkpt lat="45.66898" lon="4.63047">
        <ele>469.60000610352</ele>
        <time>2012-04-02T13:22:05.000Z</time>
      </trkpt>
      <trkpt lat="45.66898" lon="4.63047">
        <ele>469.60000610352</ele>
        <time>2012-04-02T13:22:07.000Z</time>
      </trkpt>
      <trkpt lat="45.66897" lon="4.63048">
        <ele>469.79998779297</ele>
        <time>2012-04-02T13:22:10.000Z</time>
      </trkpt>
      <trkpt lat="45.66895" lon="4.63048">
        <ele>469.79998779297</ele>
        <time>2012-04-02T13:22:20.000Z</time>
      </trkpt>
      <trkpt lat="45.66895" lon="4.63045">
        <ele>470</ele>
        <time>2012-04-02T13:22:25.000Z</time>
      </trkpt>
      <trkpt lat="45.66895" lon="4.63043">
        <ele>470.20001220703</ele>
        <time>2012-04-02T13:22:26.000Z</time>
      </trkpt>
      <trkpt lat="45.66895" lon="4.63041">
        <ele>470.39999389648</ele>
        <time>2012-04-02T13:22:27.000Z</time>
      </trkpt>
      <trkpt lat="45.66894" lon="4.63039">
        <ele>470.39999389648</ele>
        <time>2012-04-02T13:22:28.000Z</time>
      </trkpt>
      <trkpt lat="45.66894" lon="4.63037">
        <ele>470.60000610352</ele>
        <time>2012-04-02T13:22:29.000Z</time>
      </trkpt>
      <trkpt lat="45.66893" lon="4.63035">
        <ele>470.79998779297</ele>
        <time>2012-04-02T13:22:30.000Z</time>
      </trkpt>
      <trkpt lat="45.66893" lon="4.63033">
        <ele>471</ele>
        <time>2012-04-02T13:22:31.000Z</time>
      </trkpt>
      <trkpt lat="45.66892" lon="4.63031">
        <ele>471.20001220703</ele>
        <time>2012-04-02T13:22:32.000Z</time>
      </trkpt>
      <trkpt lat="45.66884" lon="4.63007">
        <ele>474.20001220703</ele>
        <time>2012-04-02T13:22:44.000Z</time>
      </trkpt>
      <trkpt lat="45.66884" lon="4.63005">
        <ele>474.39999389648</ele>
        <time>2012-04-02T13:22:45.000Z</time>
      </trkpt>
      <trkpt lat="45.66883" lon="4.63003">
        <ele>474.60000610352</ele>
        <time>2012-04-02T13:22:46.000Z</time>
      </trkpt>
      <trkpt lat="45.66883" lon="4.63001">
        <ele>474.79998779297</ele>
        <time>2012-04-02T13:22:47.000Z</time>
      </trkpt>
      <trkpt lat="45.66882" lon="4.62999">
        <ele>475</ele>
        <time>2012-04-02T13:22:48.000Z</time>
      </trkpt>
      <trkpt lat="45.66882" lon="4.62996">
        <ele>475</ele>
        <time>2012-04-02T13:22:49.000Z</time>
      </trkpt>
      <trkpt lat="45.66882" lon="4.62993">
        <ele>475</ele>
        <time>2012-04-02T13:22:50.000Z</time>
      </trkpt>
      <trkpt lat="45.66884" lon="4.62984">
        <ele>474.39999389648</ele>
        <time>2012-04-02T13:22:53.000Z</time>
      </trkpt>
      <trkpt lat="45.66884" lon="4.6298">
        <ele>474.60000610352</ele>
        <time>2012-04-02T13:22:54.000Z</time>
      </trkpt>
      <trkpt lat="45.66883" lon="4.62972">
        <ele>474.60000610352</ele>
        <time>2012-04-02T13:22:56.000Z</time>
      </trkpt>
      <trkpt lat="45.66883" lon="4.62967">
        <ele>474.60000610352</ele>
        <time>2012-04-02T13:22:57.000Z</time>
      </trkpt>
      <trkpt lat="45.66883" lon="4.62963">
        <ele>474.39999389648</ele>
        <time>2012-04-02T13:22:58.000Z</time>
      </trkpt>
      <trkpt lat="45.66883" lon="4.6296">
        <ele>474.39999389648</ele>
        <time>2012-04-02T13:22:59.000Z</time>
      </trkpt>
      <trkpt lat="45.66883" lon="4.62956">
        <ele>474.39999389648</ele>
        <time>2012-04-02T13:23:00.000Z</time>
      </trkpt>
      <trkpt lat="45.66884" lon="4.62952">
        <ele>474.20001220703</ele>
        <time>2012-04-02T13:23:01.000Z</time>
      </trkpt>
      <trkpt lat="45.66884" lon="4.62948">
        <ele>474</ele>
        <time>2012-04-02T13:23:02.000Z</time>
      </trkpt>
      <trkpt lat="45.66879" lon="4.62898">
        <ele>475.20001220703</ele>
        <time>2012-04-02T13:23:12.000Z</time>
      </trkpt>
      <trkpt lat="45.66878" lon="4.62892">
        <ele>475.79998779297</ele>
        <time>2012-04-02T13:23:13.000Z</time>
      </trkpt>
      <trkpt lat="45.66875" lon="4.62861">
        <ele>476.39999389648</ele>
        <time>2012-04-02T13:23:18.000Z</time>
      </trkpt>
      <trkpt lat="45.66876" lon="4.62848">
        <ele>476.20001220703</ele>
        <time>2012-04-02T13:23:20.000Z</time>
      </trkpt>
      <trkpt lat="45.66878" lon="4.62841">
        <ele>475.79998779297</ele>
        <time>2012-04-02T13:23:21.000Z</time>
      </trkpt>
      <trkpt lat="45.66895" lon="4.62797">
        <ele>477.39999389648</ele>
        <time>2012-04-02T13:23:28.000Z</time>
      </trkpt>
      <trkpt lat="45.66897" lon="4.62791">
        <ele>477.79998779297</ele>
        <time>2012-04-02T13:23:29.000Z</time>
      </trkpt>
      <trkpt lat="45.66899" lon="4.62786">
        <ele>478</ele>
        <time>2012-04-02T13:23:30.000Z</time>
      </trkpt>
      <trkpt lat="45.66904" lon="4.62776">
        <ele>478.20001220703</ele>
        <time>2012-04-02T13:23:32.000Z</time>
      </trkpt>
      <trkpt lat="45.66929" lon="4.6274">
        <ele>475.39999389648</ele>
        <time>2012-04-02T13:23:39.000Z</time>
      </trkpt>
      <trkpt lat="45.66931" lon="4.62734">
        <ele>475</ele>
        <time>2012-04-02T13:23:40.000Z</time>
      </trkpt>
      <trkpt lat="45.6694" lon="4.62709">
        <ele>473.79998779297</ele>
        <time>2012-04-02T13:23:44.000Z</time>
      </trkpt>
      <trkpt lat="45.66942" lon="4.62702">
        <ele>473.39999389648</ele>
        <time>2012-04-02T13:23:45.000Z</time>
      </trkpt>
      <trkpt lat="45.66944" lon="4.62695">
        <ele>473.20001220703</ele>
        <time>2012-04-02T13:23:46.000Z</time>
      </trkpt>
      <trkpt lat="45.66946" lon="4.62688">
        <ele>472.79998779297</ele>
        <time>2012-04-02T13:23:47.000Z</time>
      </trkpt>
      <trkpt lat="45.66947" lon="4.6268">
        <ele>472.60000610352</ele>
        <time>2012-04-02T13:23:48.000Z</time>
      </trkpt>
      <trkpt lat="45.66948" lon="4.62672">
        <ele>472.79998779297</ele>
        <time>2012-04-02T13:23:49.000Z</time>
      </trkpt>
      <trkpt lat="45.66951" lon="4.62649">
        <ele>471</ele>
        <time>2012-04-02T13:23:52.000Z</time>
      </trkpt>
      <trkpt lat="45.66951" lon="4.62641">
        <ele>470.39999389648</ele>
        <time>2012-04-02T13:23:53.000Z</time>
      </trkpt>
      <trkpt lat="45.6695" lon="4.62603">
        <ele>468.79998779297</ele>
        <time>2012-04-02T13:23:58.000Z</time>
      </trkpt>
      <trkpt lat="45.66945" lon="4.6258">
        <ele>469.39999389648</ele>
        <time>2012-04-02T13:24:01.000Z</time>
      </trkpt>
      <trkpt lat="45.66934" lon="4.62539">
        <ele>470.60000610352</ele>
        <time>2012-04-02T13:24:06.000Z</time>
      </trkpt>
      <trkpt lat="45.66931" lon="4.62531">
        <ele>471</ele>
        <time>2012-04-02T13:24:07.000Z</time>
      </trkpt>
      <trkpt lat="45.66929" lon="4.62523">
        <ele>471.20001220703</ele>
        <time>2012-04-02T13:24:08.000Z</time>
      </trkpt>
      <trkpt lat="45.66926" lon="4.62516">
        <ele>471.60000610352</ele>
        <time>2012-04-02T13:24:09.000Z</time>
      </trkpt>
      <trkpt lat="45.66923" lon="4.62509">
        <ele>472.39999389648</ele>
        <time>2012-04-02T13:24:10.000Z</time>
      </trkpt>
      <trkpt lat="45.66919" lon="4.62503">
        <ele>473.39999389648</ele>
        <time>2012-04-02T13:24:11.000Z</time>
      </trkpt>
      <trkpt lat="45.66897" lon="4.62468">
        <ele>478</ele>
        <time>2012-04-02T13:24:17.000Z</time>
      </trkpt>
      <trkpt lat="45.66894" lon="4.62462">
        <ele>478.79998779297</ele>
        <time>2012-04-02T13:24:18.000Z</time>
      </trkpt>
      <trkpt lat="45.66892" lon="4.62456">
        <ele>479</ele>
        <time>2012-04-02T13:24:19.000Z</time>
      </trkpt>
      <trkpt lat="45.6689" lon="4.62449">
        <ele>479</ele>
        <time>2012-04-02T13:24:20.000Z</time>
      </trkpt>
      <trkpt lat="45.66889" lon="4.62442">
        <ele>478.79998779297</ele>
        <time>2012-04-02T13:24:21.000Z</time>
      </trkpt>
      <trkpt lat="45.66885" lon="4.62421">
        <ele>478</ele>
        <time>2012-04-02T13:24:24.000Z</time>
      </trkpt>
      <trkpt lat="45.66885" lon="4.62413">
        <ele>478</ele>
        <time>2012-04-02T13:24:25.000Z</time>
      </trkpt>
      <trkpt lat="45.66889" lon="4.62399">
        <ele>478.39999389648</ele>
        <time>2012-04-02T13:24:27.000Z</time>
      </trkpt>
      <trkpt lat="45.66891" lon="4.62392">
        <ele>478.39999389648</ele>
        <time>2012-04-02T13:24:28.000Z</time>
      </trkpt>
      <trkpt lat="45.66895" lon="4.62385">
        <ele>478.20001220703</ele>
        <time>2012-04-02T13:24:29.000Z</time>
      </trkpt>
      <trkpt lat="45.66898" lon="4.62377">
        <ele>478</ele>
        <time>2012-04-02T13:24:30.000Z</time>
      </trkpt>
      <trkpt lat="45.66901" lon="4.62371">
        <ele>477.79998779297</ele>
        <time>2012-04-02T13:24:31.000Z</time>
      </trkpt>
      <trkpt lat="45.66907" lon="4.62358">
        <ele>477.39999389648</ele>
        <time>2012-04-02T13:24:33.000Z</time>
      </trkpt>
      <trkpt lat="45.66911" lon="4.62353">
        <ele>477</ele>
        <time>2012-04-02T13:24:34.000Z</time>
      </trkpt>
      <trkpt lat="45.66914" lon="4.62347">
        <ele>476.79998779297</ele>
        <time>2012-04-02T13:24:35.000Z</time>
      </trkpt>
      <trkpt lat="45.66918" lon="4.62343">
        <ele>476.20001220703</ele>
        <time>2012-04-02T13:24:36.000Z</time>
      </trkpt>
      <trkpt lat="45.66922" lon="4.62339">
        <ele>475.60000610352</ele>
        <time>2012-04-02T13:24:37.000Z</time>
      </trkpt>
      <trkpt lat="45.66931" lon="4.62332">
        <ele>474.39999389648</ele>
        <time>2012-04-02T13:24:39.000Z</time>
      </trkpt>
      <trkpt lat="45.66935" lon="4.62328">
        <ele>473.79998779297</ele>
        <time>2012-04-02T13:24:40.000Z</time>
      </trkpt>
      <trkpt lat="45.66939" lon="4.62325">
        <ele>473.39999389648</ele>
        <time>2012-04-02T13:24:41.000Z</time>
      </trkpt>
      <trkpt lat="45.66956" lon="4.62311">
        <ele>470.60000610352</ele>
        <time>2012-04-02T13:24:45.000Z</time>
      </trkpt>
      <trkpt lat="45.66959" lon="4.62306">
        <ele>470.60000610352</ele>
        <time>2012-04-02T13:24:46.000Z</time>
      </trkpt>
      <trkpt lat="45.66962" lon="4.62301">
        <ele>470.39999389648</ele>
        <time>2012-04-02T13:24:47.000Z</time>
      </trkpt>
      <trkpt lat="45.66966" lon="4.62294">
        <ele>470.20001220703</ele>
        <time>2012-04-02T13:24:48.000Z</time>
      </trkpt>
      <trkpt lat="45.66969" lon="4.62288">
        <ele>470</ele>
        <time>2012-04-02T13:24:49.000Z</time>
      </trkpt>
      <trkpt lat="45.66973" lon="4.62281">
        <ele>469.79998779297</ele>
        <time>2012-04-02T13:24:50.000Z</time>
      </trkpt>
      <trkpt lat="45.66976" lon="4.62274">
        <ele>469.60000610352</ele>
        <time>2012-04-02T13:24:51.000Z</time>
      </trkpt>
      <trkpt lat="45.66979" lon="4.62267">
        <ele>469.60000610352</ele>
        <time>2012-04-02T13:24:52.000Z</time>
      </trkpt>
      <trkpt lat="45.66982" lon="4.62259">
        <ele>469.39999389648</ele>
        <time>2012-04-02T13:24:53.000Z</time>
      </trkpt>
      <trkpt lat="45.66987" lon="4.62245">
        <ele>469.39999389648</ele>
        <time>2012-04-02T13:24:55.000Z</time>
      </trkpt>
      <trkpt lat="45.66988" lon="4.62237">
        <ele>469.79998779297</ele>
        <time>2012-04-02T13:24:56.000Z</time>
      </trkpt>
      <trkpt lat="45.6699" lon="4.6223">
        <ele>470</ele>
        <time>2012-04-02T13:24:57.000Z</time>
      </trkpt>
      <trkpt lat="45.66991" lon="4.62223">
        <ele>470.39999389648</ele>
        <time>2012-04-02T13:24:58.000Z</time>
      </trkpt>
      <trkpt lat="45.66993" lon="4.62215">
        <ele>470.60000610352</ele>
        <time>2012-04-02T13:24:59.000Z</time>
      </trkpt>
      <trkpt lat="45.66999" lon="4.62186">
        <ele>471.20001220703</ele>
        <time>2012-04-02T13:25:03.000Z</time>
      </trkpt>
      <trkpt lat="45.67004" lon="4.62168">
        <ele>471.39999389648</ele>
        <time>2012-04-02T13:25:06.000Z</time>
      </trkpt>
      <trkpt lat="45.67006" lon="4.62162">
        <ele>471</ele>
        <time>2012-04-02T13:25:07.000Z</time>
      </trkpt>
      <trkpt lat="45.67012" lon="4.62149">
        <ele>469.60000610352</ele>
        <time>2012-04-02T13:25:09.000Z</time>
      </trkpt>
      <trkpt lat="45.67016" lon="4.62143">
        <ele>468.39999389648</ele>
        <time>2012-04-02T13:25:10.000Z</time>
      </trkpt>
      <trkpt lat="45.67021" lon="4.62138">
        <ele>467</ele>
        <time>2012-04-02T13:25:11.000Z</time>
      </trkpt>
      <trkpt lat="45.67031" lon="4.62129">
        <ele>463.79998779297</ele>
        <time>2012-04-02T13:25:13.000Z</time>
      </trkpt>
      <trkpt lat="45.67041" lon="4.62117">
        <ele>461</ele>
        <time>2012-04-02T13:25:15.000Z</time>
      </trkpt>
      <trkpt lat="45.67046" lon="4.6211">
        <ele>459.60000610352</ele>
        <time>2012-04-02T13:25:16.000Z</time>
      </trkpt>
      <trkpt lat="45.67052" lon="4.62104">
        <ele>458.20001220703</ele>
        <time>2012-04-02T13:25:17.000Z</time>
      </trkpt>
      <trkpt lat="45.67068" lon="4.62088">
        <ele>453.20001220703</ele>
        <time>2012-04-02T13:25:20.000Z</time>
      </trkpt>
      <trkpt lat="45.67074" lon="4.62082">
        <ele>451.60000610352</ele>
        <time>2012-04-02T13:25:21.000Z</time>
      </trkpt>
      <trkpt lat="45.6711" lon="4.62035">
        <ele>445.60000610352</ele>
        <time>2012-04-02T13:25:28.000Z</time>
      </trkpt>
      <trkpt lat="45.67114" lon="4.62027">
        <ele>445.20001220703</ele>
        <time>2012-04-02T13:25:29.000Z</time>
      </trkpt>
      <trkpt lat="45.67118" lon="4.62018">
        <ele>445.39999389648</ele>
        <time>2012-04-02T13:25:30.000Z</time>
      </trkpt>
      <trkpt lat="45.67121" lon="4.62009">
        <ele>445.60000610352</ele>
        <time>2012-04-02T13:25:31.000Z</time>
      </trkpt>
      <trkpt lat="45.67122" lon="4.62">
        <ele>446</ele>
        <time>2012-04-02T13:25:32.000Z</time>
      </trkpt>
      <trkpt lat="45.67123" lon="4.61991">
        <ele>445.79998779297</ele>
        <time>2012-04-02T13:25:33.000Z</time>
      </trkpt>
      <trkpt lat="45.67124" lon="4.61982">
        <ele>445.39999389648</ele>
        <time>2012-04-02T13:25:34.000Z</time>
      </trkpt>
      <trkpt lat="45.67124" lon="4.61964">
        <ele>445</ele>
        <time>2012-04-02T13:25:36.000Z</time>
      </trkpt>
      <trkpt lat="45.67123" lon="4.61955">
        <ele>445.20001220703</ele>
        <time>2012-04-02T13:25:37.000Z</time>
      </trkpt>
      <trkpt lat="45.67121" lon="4.61947">
        <ele>445.20001220703</ele>
        <time>2012-04-02T13:25:38.000Z</time>
      </trkpt>
      <trkpt lat="45.67118" lon="4.61939">
        <ele>445.39999389648</ele>
        <time>2012-04-02T13:25:39.000Z</time>
      </trkpt>
      <trkpt lat="45.67115" lon="4.61932">
        <ele>445.79998779297</ele>
        <time>2012-04-02T13:25:40.000Z</time>
      </trkpt>
      <trkpt lat="45.67111" lon="4.61924">
        <ele>446.20001220703</ele>
        <time>2012-04-02T13:25:41.000Z</time>
      </trkpt>
      <trkpt lat="45.67099" lon="4.61905">
        <ele>446.60000610352</ele>
        <time>2012-04-02T13:25:44.000Z</time>
      </trkpt>
      <trkpt lat="45.67095" lon="4.61899">
        <ele>446.79998779297</ele>
        <time>2012-04-02T13:25:45.000Z</time>
      </trkpt>
      <trkpt lat="45.67083" lon="4.6188">
        <ele>446.60000610352</ele>
        <time>2012-04-02T13:25:48.000Z</time>
      </trkpt>
      <trkpt lat="45.6708" lon="4.61872">
        <ele>446.39999389648</ele>
        <time>2012-04-02T13:25:49.000Z</time>
      </trkpt>
      <trkpt lat="45.67076" lon="4.61857">
        <ele>446</ele>
        <time>2012-04-02T13:25:51.000Z</time>
      </trkpt>
      <trkpt lat="45.67073" lon="4.61831">
        <ele>444.60000610352</ele>
        <time>2012-04-02T13:25:54.000Z</time>
      </trkpt>
      <trkpt lat="45.67073" lon="4.61822">
        <ele>445.20001220703</ele>
        <time>2012-04-02T13:25:55.000Z</time>
      </trkpt>
      <trkpt lat="45.67073" lon="4.61814">
        <ele>445.79998779297</ele>
        <time>2012-04-02T13:25:56.000Z</time>
      </trkpt>
      <trkpt lat="45.67075" lon="4.61806">
        <ele>446</ele>
        <time>2012-04-02T13:25:57.000Z</time>
      </trkpt>
      <trkpt lat="45.67077" lon="4.61798">
        <ele>446.39999389648</ele>
        <time>2012-04-02T13:25:58.000Z</time>
      </trkpt>
      <trkpt lat="45.67079" lon="4.61791">
        <ele>446.60000610352</ele>
        <time>2012-04-02T13:25:59.000Z</time>
      </trkpt>
      <trkpt lat="45.67085" lon="4.61774">
        <ele>446.60000610352</ele>
        <time>2012-04-02T13:26:05.000Z</time>
      </trkpt>
      <trkpt lat="45.67093" lon="4.61756">
        <ele>446.79998779297</ele>
        <time>2012-04-02T13:26:11.000Z</time>
      </trkpt>
      <trkpt lat="45.67095" lon="4.61753">
        <ele>446.79998779297</ele>
        <time>2012-04-02T13:26:12.000Z</time>
      </trkpt>
      <trkpt lat="45.67098" lon="4.61749">
        <ele>446.39999389648</ele>
        <time>2012-04-02T13:26:13.000Z</time>
      </trkpt>
      <trkpt lat="45.67113" lon="4.61738">
        <ele>444.79998779297</ele>
        <time>2012-04-02T13:26:17.000Z</time>
      </trkpt>
      <trkpt lat="45.67117" lon="4.61736">
        <ele>444.20001220703</ele>
        <time>2012-04-02T13:26:18.000Z</time>
      </trkpt>
      <trkpt lat="45.67121" lon="4.61734">
        <ele>443.60000610352</ele>
        <time>2012-04-02T13:26:19.000Z</time>
      </trkpt>
      <trkpt lat="45.67126" lon="4.6173">
        <ele>443.20001220703</ele>
        <time>2012-04-02T13:26:20.000Z</time>
      </trkpt>
      <trkpt lat="45.67131" lon="4.61727">
        <ele>442.60000610352</ele>
        <time>2012-04-02T13:26:21.000Z</time>
      </trkpt>
      <trkpt lat="45.67148" lon="4.61716">
        <ele>440.39999389648</ele>
        <time>2012-04-02T13:26:24.000Z</time>
      </trkpt>
      <trkpt lat="45.6716" lon="4.6171">
        <ele>439</ele>
        <time>2012-04-02T13:26:26.000Z</time>
      </trkpt>
      <trkpt lat="45.67179" lon="4.61697">
        <ele>438.39999389648</ele>
        <time>2012-04-02T13:26:29.000Z</time>
      </trkpt>
      <trkpt lat="45.67207" lon="4.61688">
        <ele>438.39999389648</ele>
        <time>2012-04-02T13:26:33.000Z</time>
      </trkpt>
      <trkpt lat="45.67214" lon="4.61687">
        <ele>438.20001220703</ele>
        <time>2012-04-02T13:26:34.000Z</time>
      </trkpt>
      <trkpt lat="45.6722" lon="4.61687">
        <ele>438</ele>
        <time>2012-04-02T13:26:35.000Z</time>
      </trkpt>
      <trkpt lat="45.67262" lon="4.61701">
        <ele>434</ele>
        <time>2012-04-02T13:26:42.000Z</time>
      </trkpt>
      <trkpt lat="45.67281" lon="4.61706">
        <ele>432.20001220703</ele>
        <time>2012-04-02T13:26:45.000Z</time>
      </trkpt>
      <trkpt lat="45.67287" lon="4.61706">
        <ele>431.79998779297</ele>
        <time>2012-04-02T13:26:46.000Z</time>
      </trkpt>
      <trkpt lat="45.67299" lon="4.61705">
        <ele>431.39999389648</ele>
        <time>2012-04-02T13:26:48.000Z</time>
      </trkpt>
      <trkpt lat="45.67304" lon="4.61704">
        <ele>431.20001220703</ele>
        <time>2012-04-02T13:26:49.000Z</time>
      </trkpt>
      <trkpt lat="45.67309" lon="4.61702">
        <ele>431.20001220703</ele>
        <time>2012-04-02T13:26:50.000Z</time>
      </trkpt>
      <trkpt lat="45.67318" lon="4.61697">
        <ele>431.60000610352</ele>
        <time>2012-04-02T13:26:52.000Z</time>
      </trkpt>
      <trkpt lat="45.67322" lon="4.61694">
        <ele>432</ele>
        <time>2012-04-02T13:26:53.000Z</time>
      </trkpt>
      <trkpt lat="45.67326" lon="4.6169">
        <ele>432.39999389648</ele>
        <time>2012-04-02T13:26:54.000Z</time>
      </trkpt>
      <trkpt lat="45.67333" lon="4.61681">
        <ele>433.60000610352</ele>
        <time>2012-04-02T13:26:56.000Z</time>
      </trkpt>
      <trkpt lat="45.67337" lon="4.61677">
        <ele>433.20001220703</ele>
        <time>2012-04-02T13:26:57.000Z</time>
      </trkpt>
      <trkpt lat="45.67341" lon="4.61672">
        <ele>432.60000610352</ele>
        <time>2012-04-02T13:26:58.000Z</time>
      </trkpt>
      <trkpt lat="45.67344" lon="4.61666">
        <ele>432.60000610352</ele>
        <time>2012-04-02T13:26:59.000Z</time>
      </trkpt>
      <trkpt lat="45.67347" lon="4.6166">
        <ele>432.20001220703</ele>
        <time>2012-04-02T13:27:00.000Z</time>
      </trkpt>
      <trkpt lat="45.67349" lon="4.61653">
        <ele>431.79998779297</ele>
        <time>2012-04-02T13:27:01.000Z</time>
      </trkpt>
      <trkpt lat="45.67355" lon="4.61638">
        <ele>431.20001220703</ele>
        <time>2012-04-02T13:27:03.000Z</time>
      </trkpt>
      <trkpt lat="45.67358" lon="4.61623">
        <ele>431.20001220703</ele>
        <time>2012-04-02T13:27:05.000Z</time>
      </trkpt>
      <trkpt lat="45.67358" lon="4.61615">
        <ele>431.39999389648</ele>
        <time>2012-04-02T13:27:06.000Z</time>
      </trkpt>
      <trkpt lat="45.67358" lon="4.61606">
        <ele>432</ele>
        <time>2012-04-02T13:27:07.000Z</time>
      </trkpt>
      <trkpt lat="45.67358" lon="4.61598">
        <ele>432.79998779297</ele>
        <time>2012-04-02T13:27:08.000Z</time>
      </trkpt>
      <trkpt lat="45.67357" lon="4.6159">
        <ele>433.79998779297</ele>
        <time>2012-04-02T13:27:09.000Z</time>
      </trkpt>
      <trkpt lat="45.67356" lon="4.61582">
        <ele>434.60000610352</ele>
        <time>2012-04-02T13:27:10.000Z</time>
      </trkpt>
      <trkpt lat="45.67354" lon="4.61574">
        <ele>435.20001220703</ele>
        <time>2012-04-02T13:27:11.000Z</time>
      </trkpt>
      <trkpt lat="45.67351" lon="4.61558">
        <ele>436.39999389648</ele>
        <time>2012-04-02T13:27:13.000Z</time>
      </trkpt>
      <trkpt lat="45.67349" lon="4.61542">
        <ele>437.39999389648</ele>
        <time>2012-04-02T13:27:15.000Z</time>
      </trkpt>
      <trkpt lat="45.67347" lon="4.61535">
        <ele>438.20001220703</ele>
        <time>2012-04-02T13:27:16.000Z</time>
      </trkpt>
      <trkpt lat="45.67345" lon="4.61528">
        <ele>438.79998779297</ele>
        <time>2012-04-02T13:27:17.000Z</time>
      </trkpt>
      <trkpt lat="45.67344" lon="4.6152">
        <ele>439.39999389648</ele>
        <time>2012-04-02T13:27:18.000Z</time>
      </trkpt>
      <trkpt lat="45.67342" lon="4.61513">
        <ele>440</ele>
        <time>2012-04-02T13:27:19.000Z</time>
      </trkpt>
      <trkpt lat="45.67341" lon="4.61506">
        <ele>440.79998779297</ele>
        <time>2012-04-02T13:27:20.000Z</time>
      </trkpt>
      <trkpt lat="45.67338" lon="4.61492">
        <ele>442</ele>
        <time>2012-04-02T13:27:22.000Z</time>
      </trkpt>
      <trkpt lat="45.67337" lon="4.61485">
        <ele>442.39999389648</ele>
        <time>2012-04-02T13:27:23.000Z</time>
      </trkpt>
      <trkpt lat="45.67335" lon="4.61478">
        <ele>442.79998779297</ele>
        <time>2012-04-02T13:27:24.000Z</time>
      </trkpt>
      <trkpt lat="45.67334" lon="4.61471">
        <ele>443.20001220703</ele>
        <time>2012-04-02T13:27:25.000Z</time>
      </trkpt>
      <trkpt lat="45.67333" lon="4.61465">
        <ele>443.20001220703</ele>
        <time>2012-04-02T13:27:26.000Z</time>
      </trkpt>
      <trkpt lat="45.67332" lon="4.61458">
        <ele>443.60000610352</ele>
        <time>2012-04-02T13:27:27.000Z</time>
      </trkpt>
      <trkpt lat="45.6733" lon="4.61451">
        <ele>444</ele>
        <time>2012-04-02T13:27:28.000Z</time>
      </trkpt>
      <trkpt lat="45.67329" lon="4.61445">
        <ele>444.20001220703</ele>
        <time>2012-04-02T13:27:29.000Z</time>
      </trkpt>
      <trkpt lat="45.67329" lon="4.61439">
        <ele>444.20001220703</ele>
        <time>2012-04-02T13:27:30.000Z</time>
      </trkpt>
      <trkpt lat="45.67328" lon="4.61431">
        <ele>444.20001220703</ele>
        <time>2012-04-02T13:27:31.000Z</time>
      </trkpt>
      <trkpt lat="45.67326" lon="4.61415">
        <ele>444.79998779297</ele>
        <time>2012-04-02T13:27:33.000Z</time>
      </trkpt>
      <trkpt lat="45.67326" lon="4.61406">
        <ele>444.79998779297</ele>
        <time>2012-04-02T13:27:34.000Z</time>
      </trkpt>
      <trkpt lat="45.67327" lon="4.61398">
        <ele>444.60000610352</ele>
        <time>2012-04-02T13:27:35.000Z</time>
      </trkpt>
      <trkpt lat="45.67328" lon="4.6138">
        <ele>444.39999389648</ele>
        <time>2012-04-02T13:27:37.000Z</time>
      </trkpt>
      <trkpt lat="45.6733" lon="4.61372">
        <ele>443.79998779297</ele>
        <time>2012-04-02T13:27:38.000Z</time>
      </trkpt>
      <trkpt lat="45.67331" lon="4.61364">
        <ele>443.20001220703</ele>
        <time>2012-04-02T13:27:39.000Z</time>
      </trkpt>
      <trkpt lat="45.67333" lon="4.61357">
        <ele>442.79998779297</ele>
        <time>2012-04-02T13:27:40.000Z</time>
      </trkpt>
      <trkpt lat="45.67336" lon="4.6135">
        <ele>442</ele>
        <time>2012-04-02T13:27:41.000Z</time>
      </trkpt>
      <trkpt lat="45.67338" lon="4.61343">
        <ele>441.20001220703</ele>
        <time>2012-04-02T13:27:42.000Z</time>
      </trkpt>
      <trkpt lat="45.67341" lon="4.61337">
        <ele>440.20001220703</ele>
        <time>2012-04-02T13:27:43.000Z</time>
      </trkpt>
      <trkpt lat="45.67345" lon="4.61332">
        <ele>439</ele>
        <time>2012-04-02T13:27:44.000Z</time>
      </trkpt>
      <trkpt lat="45.67349" lon="4.61327">
        <ele>437.39999389648</ele>
        <time>2012-04-02T13:27:45.000Z</time>
      </trkpt>
      <trkpt lat="45.67367" lon="4.61305">
        <ele>431.39999389648</ele>
        <time>2012-04-02T13:27:50.000Z</time>
      </trkpt>
      <trkpt lat="45.67371" lon="4.613">
        <ele>430.39999389648</ele>
        <time>2012-04-02T13:27:51.000Z</time>
      </trkpt>
      <trkpt lat="45.67374" lon="4.61294">
        <ele>429.60000610352</ele>
        <time>2012-04-02T13:27:52.000Z</time>
      </trkpt>
      <trkpt lat="45.67377" lon="4.61288">
        <ele>428.79998779297</ele>
        <time>2012-04-02T13:27:53.000Z</time>
      </trkpt>
      <trkpt lat="45.67381" lon="4.61282">
        <ele>428</ele>
        <time>2012-04-02T13:27:54.000Z</time>
      </trkpt>
      <trkpt lat="45.67389" lon="4.61268">
        <ele>426.39999389648</ele>
        <time>2012-04-02T13:27:56.000Z</time>
      </trkpt>
      <trkpt lat="45.67393" lon="4.6126">
        <ele>425.79998779297</ele>
        <time>2012-04-02T13:27:57.000Z</time>
      </trkpt>
      <trkpt lat="45.67397" lon="4.61252">
        <ele>425.39999389648</ele>
        <time>2012-04-02T13:27:58.000Z</time>
      </trkpt>
      <trkpt lat="45.67404" lon="4.61194">
        <ele>421.79998779297</ele>
        <time>2012-04-02T13:28:06.000Z</time>
      </trkpt>
      <trkpt lat="45.67406" lon="4.61159">
        <ele>420.60000610352</ele>
        <time>2012-04-02T13:28:11.000Z</time>
      </trkpt>
      <trkpt lat="45.67408" lon="4.61152">
        <ele>420.39999389648</ele>
        <time>2012-04-02T13:28:12.000Z</time>
      </trkpt>
      <trkpt lat="45.6741" lon="4.61146">
        <ele>420.20001220703</ele>
        <time>2012-04-02T13:28:13.000Z</time>
      </trkpt>
      <trkpt lat="45.67429" lon="4.61111">
        <ele>420.60000610352</ele>
        <time>2012-04-02T13:28:23.000Z</time>
      </trkpt>
      <trkpt lat="45.67447" lon="4.61085">
        <ele>422.79998779297</ele>
        <time>2012-04-02T13:28:34.000Z</time>
      </trkpt>
      <trkpt lat="45.67473" lon="4.61071">
        <ele>427.39999389648</ele>
        <time>2012-04-02T13:28:45.000Z</time>
      </trkpt>
      <trkpt lat="45.6748" lon="4.61075">
        <ele>427</ele>
        <time>2012-04-02T13:28:47.000Z</time>
      </trkpt>
      <trkpt lat="45.67485" lon="4.61077">
        <ele>426.60000610352</ele>
        <time>2012-04-02T13:28:48.000Z</time>
      </trkpt>
      <trkpt lat="45.67489" lon="4.6108">
        <ele>426.39999389648</ele>
        <time>2012-04-02T13:28:49.000Z</time>
      </trkpt>
      <trkpt lat="45.67527" lon="4.61107">
        <ele>424.79998779297</ele>
        <time>2012-04-02T13:28:57.000Z</time>
      </trkpt>
      <trkpt lat="45.6754" lon="4.61127">
        <ele>423.79998779297</ele>
        <time>2012-04-02T13:29:00.000Z</time>
      </trkpt>
      <trkpt lat="45.67544" lon="4.61135">
        <ele>423.20001220703</ele>
        <time>2012-04-02T13:29:01.000Z</time>
      </trkpt>
      <trkpt lat="45.67547" lon="4.61143">
        <ele>422.60000610352</ele>
        <time>2012-04-02T13:29:02.000Z</time>
      </trkpt>
      <trkpt lat="45.6755" lon="4.61152">
        <ele>422</ele>
        <time>2012-04-02T13:29:03.000Z</time>
      </trkpt>
      <trkpt lat="45.67552" lon="4.61162">
        <ele>421.39999389648</ele>
        <time>2012-04-02T13:29:04.000Z</time>
      </trkpt>
      <trkpt lat="45.67555" lon="4.61173">
        <ele>421.39999389648</ele>
        <time>2012-04-02T13:29:05.000Z</time>
      </trkpt>
      <trkpt lat="45.67556" lon="4.61183">
        <ele>421.79998779297</ele>
        <time>2012-04-02T13:29:06.000Z</time>
      </trkpt>
      <trkpt lat="45.67556" lon="4.61193">
        <ele>422.20001220703</ele>
        <time>2012-04-02T13:29:07.000Z</time>
      </trkpt>
      <trkpt lat="45.67556" lon="4.61202">
        <ele>422.39999389648</ele>
        <time>2012-04-02T13:29:08.000Z</time>
      </trkpt>
      <trkpt lat="45.67549" lon="4.6127">
        <ele>422.79998779297</ele>
        <time>2012-04-02T13:29:18.000Z</time>
      </trkpt>
      <trkpt lat="45.67537" lon="4.61324">
        <ele>421.79998779297</ele>
        <time>2012-04-02T13:29:31.000Z</time>
      </trkpt>
      <trkpt lat="45.67535" lon="4.61343">
        <ele>422.20001220703</ele>
        <time>2012-04-02T13:29:38.000Z</time>
      </trkpt>
      <trkpt lat="45.67536" lon="4.61345">
        <ele>422.39999389648</ele>
        <time>2012-04-02T13:29:39.000Z</time>
      </trkpt>
      <trkpt lat="45.67536" lon="4.61347">
        <ele>422.60000610352</ele>
        <time>2012-04-02T13:29:40.000Z</time>
      </trkpt>
      <trkpt lat="45.67536" lon="4.6135">
        <ele>422.60000610352</ele>
        <time>2012-04-02T13:29:41.000Z</time>
      </trkpt>
      <trkpt lat="45.67535" lon="4.61352">
        <ele>422.79998779297</ele>
        <time>2012-04-02T13:29:42.000Z</time>
      </trkpt>
      <trkpt lat="45.67535" lon="4.61354">
        <ele>422.79998779297</ele>
        <time>2012-04-02T13:29:43.000Z</time>
      </trkpt>
      <trkpt lat="45.67535" lon="4.61356">
        <ele>422.79998779297</ele>
        <time>2012-04-02T13:29:44.000Z</time>
      </trkpt>
      <trkpt lat="45.67535" lon="4.61358">
        <ele>422.79998779297</ele>
        <time>2012-04-02T13:29:45.000Z</time>
      </trkpt>
      <trkpt lat="45.67534" lon="4.6136">
        <ele>422.79998779297</ele>
        <time>2012-04-02T13:29:46.000Z</time>
      </trkpt>
      <trkpt lat="45.67534" lon="4.61362">
        <ele>422.79998779297</ele>
        <time>2012-04-02T13:29:47.000Z</time>
      </trkpt>
      <trkpt lat="45.6753" lon="4.61395">
        <ele>423.60000610352</ele>
        <time>2012-04-02T13:30:03.000Z</time>
      </trkpt>
      <trkpt lat="45.67527" lon="4.61428">
        <ele>423.20001220703</ele>
        <time>2012-04-02T13:30:16.000Z</time>
      </trkpt>
      <trkpt lat="45.67529" lon="4.61429">
        <ele>423.39999389648</ele>
        <time>2012-04-02T13:30:17.000Z</time>
      </trkpt>
      <trkpt lat="45.67539" lon="4.6142">
        <ele>426.39999389648</ele>
        <time>2012-04-02T13:30:26.000Z</time>
      </trkpt>
      <trkpt lat="45.6754" lon="4.61416">
        <ele>427</ele>
        <time>2012-04-02T13:30:29.000Z</time>
      </trkpt>
      <trkpt lat="45.67548" lon="4.61394">
        <ele>428</ele>
        <time>2012-04-02T13:30:44.000Z</time>
      </trkpt>
      <trkpt lat="45.67558" lon="4.61391">
        <ele>430.39999389648</ele>
        <time>2012-04-02T13:30:55.000Z</time>
      </trkpt>
      <trkpt lat="45.67566" lon="4.61391">
        <ele>432.20001220703</ele>
        <time>2012-04-02T13:31:03.000Z</time>
      </trkpt>
      <trkpt lat="45.67578" lon="4.61389">
        <ele>435</ele>
        <time>2012-04-02T13:31:13.000Z</time>
      </trkpt>
      <trkpt lat="45.67579" lon="4.61388">
        <ele>435.39999389648</ele>
        <time>2012-04-02T13:31:15.000Z</time>
      </trkpt>
      <trkpt lat="45.67591" lon="4.61381">
        <ele>437.39999389648</ele>
        <time>2012-04-02T13:31:25.000Z</time>
      </trkpt>
      <trkpt lat="45.67605" lon="4.61388">
        <ele>439.60000610352</ele>
        <time>2012-04-02T13:31:36.000Z</time>
      </trkpt>
      <trkpt lat="45.67607" lon="4.61393">
        <ele>440</ele>
        <time>2012-04-02T13:31:41.000Z</time>
      </trkpt>
      <trkpt lat="45.6761" lon="4.61397">
        <ele>440.39999389648</ele>
        <time>2012-04-02T13:31:45.000Z</time>
      </trkpt>
      <trkpt lat="45.67615" lon="4.61391">
        <ele>441.20001220703</ele>
        <time>2012-04-02T13:31:52.000Z</time>
      </trkpt>
      <trkpt lat="45.67616" lon="4.61386">
        <ele>441.60000610352</ele>
        <time>2012-04-02T13:31:55.000Z</time>
      </trkpt>
      <trkpt lat="45.67621" lon="4.61362">
        <ele>443.39999389648</ele>
        <time>2012-04-02T13:32:12.000Z</time>
      </trkpt>
      <trkpt lat="45.67621" lon="4.61361">
        <ele>443.39999389648</ele>
        <time>2012-04-02T13:32:13.000Z</time>
      </trkpt>
      <trkpt lat="45.67624" lon="4.61346">
        <ele>444.79998779297</ele>
        <time>2012-04-02T13:32:22.000Z</time>
      </trkpt>
      <trkpt lat="45.6763" lon="4.61345">
        <ele>446.20001220703</ele>
        <time>2012-04-02T13:32:27.000Z</time>
      </trkpt>
      <trkpt lat="45.67634" lon="4.61352">
        <ele>446.60000610352</ele>
        <time>2012-04-02T13:32:31.000Z</time>
      </trkpt>
      <trkpt lat="45.67639" lon="4.61357">
        <ele>447.20001220703</ele>
        <time>2012-04-02T13:32:35.000Z</time>
      </trkpt>
      <trkpt lat="45.67654" lon="4.61371">
        <ele>449</ele>
        <time>2012-04-02T13:32:48.000Z</time>
      </trkpt>
      <trkpt lat="45.67674" lon="4.6138">
        <ele>450.60000610352</ele>
        <time>2012-04-02T13:33:04.000Z</time>
      </trkpt>
      <trkpt lat="45.67692" lon="4.61381">
        <ele>450.79998779297</ele>
        <time>2012-04-02T13:33:17.000Z</time>
      </trkpt>
      <trkpt lat="45.67708" lon="4.61375">
        <ele>452.39999389648</ele>
        <time>2012-04-02T13:33:29.000Z</time>
      </trkpt>
      <trkpt lat="45.67714" lon="4.61369">
        <ele>453.39999389648</ele>
        <time>2012-04-02T13:33:33.000Z</time>
      </trkpt>
      <trkpt lat="45.67718" lon="4.61365">
        <ele>454.20001220703</ele>
        <time>2012-04-02T13:33:36.000Z</time>
      </trkpt>
      <trkpt lat="45.67732" lon="4.6135">
        <ele>457.60000610352</ele>
        <time>2012-04-02T13:33:48.000Z</time>
      </trkpt>
      <trkpt lat="45.67747" lon="4.61334">
        <ele>461.79998779297</ele>
        <time>2012-04-02T13:34:03.000Z</time>
      </trkpt>
      <trkpt lat="45.67759" lon="4.61321">
        <ele>463.60000610352</ele>
        <time>2012-04-02T13:34:15.000Z</time>
      </trkpt>
      <trkpt lat="45.67772" lon="4.61309">
        <ele>465.60000610352</ele>
        <time>2012-04-02T13:34:28.000Z</time>
      </trkpt>
      <trkpt lat="45.6778" lon="4.613">
        <ele>467.20001220703</ele>
        <time>2012-04-02T13:34:37.000Z</time>
      </trkpt>
      <trkpt lat="45.67792" lon="4.61288">
        <ele>469.60000610352</ele>
        <time>2012-04-02T13:34:50.000Z</time>
      </trkpt>
      <trkpt lat="45.67802" lon="4.61277">
        <ele>471.79998779297</ele>
        <time>2012-04-02T13:35:00.000Z</time>
      </trkpt>
      <trkpt lat="45.67816" lon="4.61262">
        <ele>475.20001220703</ele>
        <time>2012-04-02T13:35:14.000Z</time>
      </trkpt>
      <trkpt lat="45.6783" lon="4.61251">
        <ele>478.39999389648</ele>
        <time>2012-04-02T13:35:26.000Z</time>
      </trkpt>
      <trkpt lat="45.67837" lon="4.61244">
        <ele>479.60000610352</ele>
        <time>2012-04-02T13:35:33.000Z</time>
      </trkpt>
      <trkpt lat="45.67841" lon="4.61239">
        <ele>480.39999389648</ele>
        <time>2012-04-02T13:35:38.000Z</time>
      </trkpt>
      <trkpt lat="45.67852" lon="4.61232">
        <ele>481.79998779297</ele>
        <time>2012-04-02T13:35:50.000Z</time>
      </trkpt>
      <trkpt lat="45.67859" lon="4.61233">
        <ele>482.20001220703</ele>
        <time>2012-04-02T13:36:03.000Z</time>
      </trkpt>
      <trkpt lat="45.6786" lon="4.61233">
        <ele>482.39999389648</ele>
        <time>2012-04-02T13:36:10.000Z</time>
      </trkpt>
      <trkpt lat="45.67886" lon="4.61246">
        <ele>482.20001220703</ele>
        <time>2012-04-02T13:36:25.000Z</time>
      </trkpt>
      <trkpt lat="45.67926" lon="4.61248">
        <ele>483.39999389648</ele>
        <time>2012-04-02T13:36:37.000Z</time>
      </trkpt>
      <trkpt lat="45.67948" lon="4.61247">
        <ele>483.60000610352</ele>
        <time>2012-04-02T13:36:42.000Z</time>
      </trkpt>
      <trkpt lat="45.67952" lon="4.61249">
        <ele>483.39999389648</ele>
        <time>2012-04-02T13:36:43.000Z</time>
      </trkpt>
      <trkpt lat="45.67957" lon="4.61251">
        <ele>482.60000610352</ele>
        <time>2012-04-02T13:36:44.000Z</time>
      </trkpt>
      <trkpt lat="45.67963" lon="4.61255">
        <ele>481.79998779297</ele>
        <time>2012-04-02T13:36:45.000Z</time>
      </trkpt>
      <trkpt lat="45.67969" lon="4.6126">
        <ele>480.79998779297</ele>
        <time>2012-04-02T13:36:46.000Z</time>
      </trkpt>
      <trkpt lat="45.67977" lon="4.61264">
        <ele>480</ele>
        <time>2012-04-02T13:36:47.000Z</time>
      </trkpt>
      <trkpt lat="45.6801" lon="4.61282">
        <ele>477</ele>
        <time>2012-04-02T13:36:51.000Z</time>
      </trkpt>
      <trkpt lat="45.68034" lon="4.61296">
        <ele>476.79998779297</ele>
        <time>2012-04-02T13:36:54.000Z</time>
      </trkpt>
      <trkpt lat="45.6804" lon="4.613">
        <ele>476.60000610352</ele>
        <time>2012-04-02T13:36:55.000Z</time>
      </trkpt>
      <trkpt lat="45.68067" lon="4.61318">
        <ele>477</ele>
        <time>2012-04-02T13:37:00.000Z</time>
      </trkpt>
      <trkpt lat="45.6807" lon="4.61321">
        <ele>477</ele>
        <time>2012-04-02T13:37:01.000Z</time>
      </trkpt>
      <trkpt lat="45.68073" lon="4.61324">
        <ele>476.79998779297</ele>
        <time>2012-04-02T13:37:02.000Z</time>
      </trkpt>
      <trkpt lat="45.68087" lon="4.61347">
        <ele>477.79998779297</ele>
        <time>2012-04-02T13:37:15.000Z</time>
      </trkpt>
      <trkpt lat="45.681" lon="4.61364">
        <ele>480</ele>
        <time>2012-04-02T13:37:26.000Z</time>
      </trkpt>
      <trkpt lat="45.68112" lon="4.61384">
        <ele>482</ele>
        <time>2012-04-02T13:37:39.000Z</time>
      </trkpt>
      <trkpt lat="45.68129" lon="4.61406">
        <ele>484.20001220703</ele>
        <time>2012-04-02T13:37:54.000Z</time>
      </trkpt>
      <trkpt lat="45.68148" lon="4.61432">
        <ele>486.39999389648</ele>
        <time>2012-04-02T13:38:09.000Z</time>
      </trkpt>
      <trkpt lat="45.68168" lon="4.61463">
        <ele>487.20001220703</ele>
        <time>2012-04-02T13:38:23.000Z</time>
      </trkpt>
      <trkpt lat="45.68171" lon="4.61467">
        <ele>486.79998779297</ele>
        <time>2012-04-02T13:38:26.000Z</time>
      </trkpt>
      <trkpt lat="45.68171" lon="4.61469">
        <ele>486.79998779297</ele>
        <time>2012-04-02T13:38:27.000Z</time>
      </trkpt>
      <trkpt lat="45.6817" lon="4.61478">
        <ele>486.39999389648</ele>
        <time>2012-04-02T13:38:31.000Z</time>
      </trkpt>
      <trkpt lat="45.68169" lon="4.61481">
        <ele>486.39999389648</ele>
        <time>2012-04-02T13:38:33.000Z</time>
      </trkpt>
      <trkpt lat="45.68169" lon="4.61482">
        <ele>486.39999389648</ele>
        <time>2012-04-02T13:38:34.000Z</time>
      </trkpt>
      <trkpt lat="45.6817" lon="4.61483">
        <ele>486.20001220703</ele>
        <time>2012-04-02T13:38:35.000Z</time>
      </trkpt>
      <trkpt lat="45.68171" lon="4.61483">
        <ele>486.20001220703</ele>
        <time>2012-04-02T13:38:36.000Z</time>
      </trkpt>
      <trkpt lat="45.68172" lon="4.61481">
        <ele>486.20001220703</ele>
        <time>2012-04-02T13:38:37.000Z</time>
      </trkpt>
      <trkpt lat="45.68172" lon="4.61479">
        <ele>486.39999389648</ele>
        <time>2012-04-02T13:38:38.000Z</time>
      </trkpt>
      <trkpt lat="45.68172" lon="4.61477">
        <ele>486.39999389648</ele>
        <time>2012-04-02T13:38:39.000Z</time>
      </trkpt>
      <trkpt lat="45.68172" lon="4.61476">
        <ele>486.39999389648</ele>
        <time>2012-04-02T13:38:40.000Z</time>
      </trkpt>
      <trkpt lat="45.68173" lon="4.61474">
        <ele>486.39999389648</ele>
        <time>2012-04-02T13:38:41.000Z</time>
      </trkpt>
      <trkpt lat="45.68173" lon="4.61471">
        <ele>486.39999389648</ele>
        <time>2012-04-02T13:38:55.000Z</time>
      </trkpt>
      <trkpt lat="45.68175" lon="4.61471">
        <ele>486.39999389648</ele>
        <time>2012-04-02T13:38:56.000Z</time>
      </trkpt>
      <trkpt lat="45.68177" lon="4.6147">
        <ele>486.20001220703</ele>
        <time>2012-04-02T13:38:57.000Z</time>
      </trkpt>
      <trkpt lat="45.6818" lon="4.6147">
        <ele>486</ele>
        <time>2012-04-02T13:38:58.000Z</time>
      </trkpt>
      <trkpt lat="45.68182" lon="4.61468">
        <ele>485.79998779297</ele>
        <time>2012-04-02T13:38:59.000Z</time>
      </trkpt>
      <trkpt lat="45.68184" lon="4.61466">
        <ele>485.79998779297</ele>
        <time>2012-04-02T13:39:00.000Z</time>
      </trkpt>
      <trkpt lat="45.68211" lon="4.61447">
        <ele>484.60000610352</ele>
        <time>2012-04-02T13:39:08.000Z</time>
      </trkpt>
      <trkpt lat="45.6822" lon="4.61438">
        <ele>484.60000610352</ele>
        <time>2012-04-02T13:39:10.000Z</time>
      </trkpt>
      <trkpt lat="45.68223" lon="4.61435">
        <ele>484.60000610352</ele>
        <time>2012-04-02T13:39:11.000Z</time>
      </trkpt>
      <trkpt lat="45.68226" lon="4.61432">
        <ele>484.39999389648</ele>
        <time>2012-04-02T13:39:12.000Z</time>
      </trkpt>
      <trkpt lat="45.68228" lon="4.6143">
        <ele>484.39999389648</ele>
        <time>2012-04-02T13:39:13.000Z</time>
      </trkpt>
      <trkpt lat="45.6823" lon="4.61428">
        <ele>484.39999389648</ele>
        <time>2012-04-02T13:39:14.000Z</time>
      </trkpt>
      <trkpt lat="45.68233" lon="4.61426">
        <ele>484.39999389648</ele>
        <time>2012-04-02T13:39:15.000Z</time>
      </trkpt>
      <trkpt lat="45.68235" lon="4.61423">
        <ele>484.60000610352</ele>
        <time>2012-04-02T13:39:16.000Z</time>
      </trkpt>
      <trkpt lat="45.68261" lon="4.61388">
        <ele>484.79998779297</ele>
        <time>2012-04-02T13:39:29.000Z</time>
      </trkpt>
      <trkpt lat="45.68295" lon="4.61346">
        <ele>484</ele>
        <time>2012-04-02T13:39:42.000Z</time>
      </trkpt>
      <trkpt lat="45.68328" lon="4.61288">
        <ele>489.39999389648</ele>
        <time>2012-04-02T13:39:57.000Z</time>
      </trkpt>
      <trkpt lat="45.68336" lon="4.61251">
        <ele>495.20001220703</ele>
        <time>2012-04-02T13:40:10.000Z</time>
      </trkpt>
      <trkpt lat="45.68338" lon="4.6124">
        <ele>496.79998779297</ele>
        <time>2012-04-02T13:40:14.000Z</time>
      </trkpt>
      <trkpt lat="45.68338" lon="4.61237">
        <ele>497.39999389648</ele>
        <time>2012-04-02T13:40:15.000Z</time>
      </trkpt>
      <trkpt lat="45.68341" lon="4.61208">
        <ele>502.60000610352</ele>
        <time>2012-04-02T13:40:27.000Z</time>
      </trkpt>
      <trkpt lat="45.68341" lon="4.61205">
        <ele>503</ele>
        <time>2012-04-02T13:40:28.000Z</time>
      </trkpt>
      <trkpt lat="45.68342" lon="4.61202">
        <ele>503.39999389648</ele>
        <time>2012-04-02T13:40:29.000Z</time>
      </trkpt>
      <trkpt lat="45.68343" lon="4.612">
        <ele>503.79998779297</ele>
        <time>2012-04-02T13:40:30.000Z</time>
      </trkpt>
      <trkpt lat="45.68349" lon="4.61181">
        <ele>506</ele>
        <time>2012-04-02T13:40:38.000Z</time>
      </trkpt>
      <trkpt lat="45.6835" lon="4.61178">
        <ele>506.39999389648</ele>
        <time>2012-04-02T13:40:39.000Z</time>
      </trkpt>
      <trkpt lat="45.6835" lon="4.61177">
        <ele>506.60000610352</ele>
        <time>2012-04-02T13:40:40.000Z</time>
      </trkpt>
      <trkpt lat="45.68354" lon="4.6117">
        <ele>507.20001220703</ele>
        <time>2012-04-02T13:40:43.000Z</time>
      </trkpt>
      <trkpt lat="45.68355" lon="4.61168">
        <ele>507.39999389648</ele>
        <time>2012-04-02T13:40:44.000Z</time>
      </trkpt>
      <trkpt lat="45.68356" lon="4.61166">
        <ele>507.39999389648</ele>
        <time>2012-04-02T13:40:45.000Z</time>
      </trkpt>
      <trkpt lat="45.68357" lon="4.61163">
        <ele>507.60000610352</ele>
        <time>2012-04-02T13:40:47.000Z</time>
      </trkpt>
      <trkpt lat="45.68358" lon="4.61159">
        <ele>508</ele>
        <time>2012-04-02T13:40:49.000Z</time>
      </trkpt>
      <trkpt lat="45.68359" lon="4.61157">
        <ele>508</ele>
        <time>2012-04-02T13:40:50.000Z</time>
      </trkpt>
      <trkpt lat="45.6836" lon="4.61153">
        <ele>508.39999389648</ele>
        <time>2012-04-02T13:40:52.000Z</time>
      </trkpt>
      <trkpt lat="45.68366" lon="4.61141">
        <ele>508.79998779297</ele>
        <time>2012-04-02T13:40:59.000Z</time>
      </trkpt>
      <trkpt lat="45.68373" lon="4.61127">
        <ele>509.20001220703</ele>
        <time>2012-04-02T13:41:08.000Z</time>
      </trkpt>
      <trkpt lat="45.68375" lon="4.6112">
        <ele>509.79998779297</ele>
        <time>2012-04-02T13:41:12.000Z</time>
      </trkpt>
      <trkpt lat="45.68376" lon="4.61119">
        <ele>509.60000610352</ele>
        <time>2012-04-02T13:41:13.000Z</time>
      </trkpt>
      <trkpt lat="45.6838" lon="4.61102">
        <ele>511.20001220703</ele>
        <time>2012-04-02T13:41:24.000Z</time>
      </trkpt>
      <trkpt lat="45.6838" lon="4.61079">
        <ele>514.40002441406</ele>
        <time>2012-04-02T13:41:37.000Z</time>
      </trkpt>
      <trkpt lat="45.6838" lon="4.61072">
        <ele>514.79998779297</ele>
        <time>2012-04-02T13:41:40.000Z</time>
      </trkpt>
      <trkpt lat="45.6838" lon="4.61058">
        <ele>515.59997558594</ele>
        <time>2012-04-02T13:41:45.000Z</time>
      </trkpt>
      <trkpt lat="45.6838" lon="4.61055">
        <ele>515.79998779297</ele>
        <time>2012-04-02T13:41:46.000Z</time>
      </trkpt>
      <trkpt lat="45.68381" lon="4.61051">
        <ele>516</ele>
        <time>2012-04-02T13:41:47.000Z</time>
      </trkpt>
      <trkpt lat="45.68384" lon="4.61022">
        <ele>516.79998779297</ele>
        <time>2012-04-02T13:41:53.000Z</time>
      </trkpt>
      <trkpt lat="45.68385" lon="4.61011">
        <ele>517.20001220703</ele>
        <time>2012-04-02T13:41:55.000Z</time>
      </trkpt>
      <trkpt lat="45.68387" lon="4.61005">
        <ele>517</ele>
        <time>2012-04-02T13:41:56.000Z</time>
      </trkpt>
      <trkpt lat="45.68392" lon="4.60982">
        <ele>517.20001220703</ele>
        <time>2012-04-02T13:42:00.000Z</time>
      </trkpt>
      <trkpt lat="45.68393" lon="4.60975">
        <ele>517</ele>
        <time>2012-04-02T13:42:01.000Z</time>
      </trkpt>
      <trkpt lat="45.68398" lon="4.60952">
        <ele>517.20001220703</ele>
        <time>2012-04-02T13:42:05.000Z</time>
      </trkpt>
      <trkpt lat="45.684" lon="4.60944">
        <ele>517.20001220703</ele>
        <time>2012-04-02T13:42:06.000Z</time>
      </trkpt>
      <trkpt lat="45.68403" lon="4.60937">
        <ele>517</ele>
        <time>2012-04-02T13:42:07.000Z</time>
      </trkpt>
      <trkpt lat="45.68405" lon="4.60929">
        <ele>516.59997558594</ele>
        <time>2012-04-02T13:42:08.000Z</time>
      </trkpt>
      <trkpt lat="45.68408" lon="4.60922">
        <ele>516.20001220703</ele>
        <time>2012-04-02T13:42:09.000Z</time>
      </trkpt>
      <trkpt lat="45.68421" lon="4.60894">
        <ele>518.59997558594</ele>
        <time>2012-04-02T13:42:18.000Z</time>
      </trkpt>
      <trkpt lat="45.68429" lon="4.6089">
        <ele>518</ele>
        <time>2012-04-02T13:42:42.000Z</time>
      </trkpt>
      <trkpt lat="45.68433" lon="4.6089">
        <ele>517.20001220703</ele>
        <time>2012-04-02T13:42:54.000Z</time>
      </trkpt>
      <trkpt lat="45.68435" lon="4.60891">
        <ele>516.59997558594</ele>
        <time>2012-04-02T13:42:56.000Z</time>
      </trkpt>
      <trkpt lat="45.68436" lon="4.6089">
        <ele>516.40002441406</ele>
        <time>2012-04-02T13:42:57.000Z</time>
      </trkpt>
      <trkpt lat="45.68438" lon="4.6089">
        <ele>516</ele>
        <time>2012-04-02T13:42:58.000Z</time>
      </trkpt>
      <trkpt lat="45.68439" lon="4.6089">
        <ele>515.59997558594</ele>
        <time>2012-04-02T13:42:59.000Z</time>
      </trkpt>
      <trkpt lat="45.68441" lon="4.6089">
        <ele>515.40002441406</ele>
        <time>2012-04-02T13:43:00.000Z</time>
      </trkpt>
      <trkpt lat="45.68442" lon="4.60889">
        <ele>515.20001220703</ele>
        <time>2012-04-02T13:43:01.000Z</time>
      </trkpt>
      <trkpt lat="45.68443" lon="4.60889">
        <ele>515</ele>
        <time>2012-04-02T13:43:02.000Z</time>
      </trkpt>
      <trkpt lat="45.68445" lon="4.60889">
        <ele>514.59997558594</ele>
        <time>2012-04-02T13:43:03.000Z</time>
      </trkpt>
      <trkpt lat="45.68449" lon="4.60889">
        <ele>513.79998779297</ele>
        <time>2012-04-02T13:43:06.000Z</time>
      </trkpt>
      <trkpt lat="45.68456" lon="4.60887">
        <ele>512.40002441406</ele>
        <time>2012-04-02T13:43:11.000Z</time>
      </trkpt>
      <trkpt lat="45.68458" lon="4.60886">
        <ele>512.40002441406</ele>
        <time>2012-04-02T13:43:12.000Z</time>
      </trkpt>
      <trkpt lat="45.68464" lon="4.60883">
        <ele>511.60000610352</ele>
        <time>2012-04-02T13:43:23.000Z</time>
      </trkpt>
      <trkpt lat="45.68463" lon="4.60884">
        <ele>511.60000610352</ele>
        <time>2012-04-02T13:43:24.000Z</time>
      </trkpt>
      <trkpt lat="45.68462" lon="4.60885">
        <ele>511.60000610352</ele>
        <time>2012-04-02T13:43:25.000Z</time>
      </trkpt>
      <trkpt lat="45.6846" lon="4.60886">
        <ele>512</ele>
        <time>2012-04-02T13:43:26.000Z</time>
      </trkpt>
      <trkpt lat="45.68457" lon="4.60887">
        <ele>512.40002441406</ele>
        <time>2012-04-02T13:43:27.000Z</time>
      </trkpt>
      <trkpt lat="45.68454" lon="4.60887">
        <ele>513</ele>
        <time>2012-04-02T13:43:28.000Z</time>
      </trkpt>
      <trkpt lat="45.68438" lon="4.6089">
        <ele>516</ele>
        <time>2012-04-02T13:43:33.000Z</time>
      </trkpt>
      <trkpt lat="45.68436" lon="4.60889">
        <ele>516.59997558594</ele>
        <time>2012-04-02T13:43:34.000Z</time>
      </trkpt>
      <trkpt lat="45.68434" lon="4.60888">
        <ele>517.20001220703</ele>
        <time>2012-04-02T13:43:35.000Z</time>
      </trkpt>
      <trkpt lat="45.68433" lon="4.60886">
        <ele>518</ele>
        <time>2012-04-02T13:43:36.000Z</time>
      </trkpt>
      <trkpt lat="45.68434" lon="4.60877">
        <ele>519.79998779297</ele>
        <time>2012-04-02T13:43:42.000Z</time>
      </trkpt>
      <trkpt lat="45.6845" lon="4.60866">
        <ele>518.40002441406</ele>
        <time>2012-04-02T13:43:55.000Z</time>
      </trkpt>
      <trkpt lat="45.6846" lon="4.60856">
        <ele>517.79998779297</ele>
        <time>2012-04-02T13:44:05.000Z</time>
      </trkpt>
      <trkpt lat="45.68471" lon="4.60837">
        <ele>518.59997558594</ele>
        <time>2012-04-02T13:44:18.000Z</time>
      </trkpt>
      <trkpt lat="45.68474" lon="4.60828">
        <ele>518.79998779297</ele>
        <time>2012-04-02T13:44:24.000Z</time>
      </trkpt>
      <trkpt lat="45.6848" lon="4.60815">
        <ele>518.20001220703</ele>
        <time>2012-04-02T13:44:33.000Z</time>
      </trkpt>
      <trkpt lat="45.68484" lon="4.60807">
        <ele>517.20001220703</ele>
        <time>2012-04-02T13:44:37.000Z</time>
      </trkpt>
      <trkpt lat="45.68486" lon="4.6079">
        <ele>517.59997558594</ele>
        <time>2012-04-02T13:44:46.000Z</time>
      </trkpt>
      <trkpt lat="45.68483" lon="4.60768">
        <ele>520.20001220703</ele>
        <time>2012-04-02T13:44:59.000Z</time>
      </trkpt>
      <trkpt lat="45.68477" lon="4.60745">
        <ele>523.40002441406</ele>
        <time>2012-04-02T13:45:12.000Z</time>
      </trkpt>
      <trkpt lat="45.68473" lon="4.60734">
        <ele>524.59997558594</ele>
        <time>2012-04-02T13:45:18.000Z</time>
      </trkpt>
      <trkpt lat="45.68468" lon="4.60725">
        <ele>526.40002441406</ele>
        <time>2012-04-02T13:45:23.000Z</time>
      </trkpt>
      <trkpt lat="45.68458" lon="4.60716">
        <ele>530.40002441406</ele>
        <time>2012-04-02T13:45:31.000Z</time>
      </trkpt>
      <trkpt lat="45.68442" lon="4.60696">
        <ele>536.79998779297</ele>
        <time>2012-04-02T13:45:46.000Z</time>
      </trkpt>
      <trkpt lat="45.68438" lon="4.60677">
        <ele>539.20001220703</ele>
        <time>2012-04-02T13:45:56.000Z</time>
      </trkpt>
      <trkpt lat="45.68437" lon="4.60673">
        <ele>539.40002441406</ele>
        <time>2012-04-02T13:45:59.000Z</time>
      </trkpt>
      <trkpt lat="45.68435" lon="4.6067">
        <ele>540.40002441406</ele>
        <time>2012-04-02T13:46:01.000Z</time>
      </trkpt>
      <trkpt lat="45.68435" lon="4.60667">
        <ele>540.59997558594</ele>
        <time>2012-04-02T13:46:03.000Z</time>
      </trkpt>
      <trkpt lat="45.68434" lon="4.60659">
        <ele>541.20001220703</ele>
        <time>2012-04-02T13:46:08.000Z</time>
      </trkpt>
      <trkpt lat="45.68434" lon="4.60655">
        <ele>541.40002441406</ele>
        <time>2012-04-02T13:46:10.000Z</time>
      </trkpt>
      <trkpt lat="45.68436" lon="4.60639">
        <ele>540.59997558594</ele>
        <time>2012-04-02T13:46:15.000Z</time>
      </trkpt>
      <trkpt lat="45.68438" lon="4.60628">
        <ele>540.20001220703</ele>
        <time>2012-04-02T13:46:18.000Z</time>
      </trkpt>
      <trkpt lat="45.68443" lon="4.60605">
        <ele>538.59997558594</ele>
        <time>2012-04-02T13:46:25.000Z</time>
      </trkpt>
      <trkpt lat="45.68447" lon="4.60566">
        <ele>537.40002441406</ele>
        <time>2012-04-02T13:46:34.000Z</time>
      </trkpt>
      <trkpt lat="45.68445" lon="4.60524">
        <ele>538.79998779297</ele>
        <time>2012-04-02T13:46:44.000Z</time>
      </trkpt>
      <trkpt lat="45.68442" lon="4.60511">
        <ele>540.20001220703</ele>
        <time>2012-04-02T13:46:48.000Z</time>
      </trkpt>
      <trkpt lat="45.68437" lon="4.60477">
        <ele>542.59997558594</ele>
        <time>2012-04-02T13:46:58.000Z</time>
      </trkpt>
      <trkpt lat="45.68431" lon="4.6045">
        <ele>544.59997558594</ele>
        <time>2012-04-02T13:47:08.000Z</time>
      </trkpt>
      <trkpt lat="45.68431" lon="4.60447">
        <ele>544.79998779297</ele>
        <time>2012-04-02T13:47:09.000Z</time>
      </trkpt>
      <trkpt lat="45.68427" lon="4.60421">
        <ele>545.79998779297</ele>
        <time>2012-04-02T13:47:20.000Z</time>
      </trkpt>
      <trkpt lat="45.68427" lon="4.60421">
        <ele>545.79998779297</ele>
        <time>2012-04-02T13:47:21.000Z</time>
      </trkpt>
      <trkpt lat="45.68431" lon="4.60386">
        <ele>547</ele>
        <time>2012-04-02T13:47:30.000Z</time>
      </trkpt>
      <trkpt lat="45.68435" lon="4.60376">
        <ele>547</ele>
        <time>2012-04-02T13:47:32.000Z</time>
      </trkpt>
      <trkpt lat="45.68442" lon="4.60358">
        <ele>547.40002441406</ele>
        <time>2012-04-02T13:47:35.000Z</time>
      </trkpt>
      <trkpt lat="45.68445" lon="4.60354">
        <ele>547</ele>
        <time>2012-04-02T13:47:37.000Z</time>
      </trkpt>
      <trkpt lat="45.68457" lon="4.60331">
        <ele>548.40002441406</ele>
        <time>2012-04-02T13:47:46.000Z</time>
      </trkpt>
      <trkpt lat="45.68459" lon="4.60329">
        <ele>548.40002441406</ele>
        <time>2012-04-02T13:47:48.000Z</time>
      </trkpt>
      <trkpt lat="45.68474" lon="4.60323">
        <ele>548</ele>
        <time>2012-04-02T13:47:57.000Z</time>
      </trkpt>
      <trkpt lat="45.68492" lon="4.60319">
        <ele>546.59997558594</ele>
        <time>2012-04-02T13:48:08.000Z</time>
      </trkpt>
      <trkpt lat="45.68495" lon="4.60317">
        <ele>546.59997558594</ele>
        <time>2012-04-02T13:48:10.000Z</time>
      </trkpt>
      <trkpt lat="45.68503" lon="4.60315">
        <ele>546</ele>
        <time>2012-04-02T13:48:16.000Z</time>
      </trkpt>
      <trkpt lat="45.68511" lon="4.60312">
        <ele>544.59997558594</ele>
        <time>2012-04-02T13:48:21.000Z</time>
      </trkpt>
      <trkpt lat="45.68515" lon="4.60309">
        <ele>544.59997558594</ele>
        <time>2012-04-02T13:48:24.000Z</time>
      </trkpt>
      <trkpt lat="45.68526" lon="4.60297">
        <ele>545</ele>
        <time>2012-04-02T13:48:36.000Z</time>
      </trkpt>
      <trkpt lat="45.68541" lon="4.60274">
        <ele>547.40002441406</ele>
        <time>2012-04-02T13:48:46.000Z</time>
      </trkpt>
      <trkpt lat="45.68552" lon="4.60253">
        <ele>550.40002441406</ele>
        <time>2012-04-02T13:48:54.000Z</time>
      </trkpt>
      <trkpt lat="45.68559" lon="4.60238">
        <ele>552</ele>
        <time>2012-04-02T13:49:02.000Z</time>
      </trkpt>
      <trkpt lat="45.68559" lon="4.60231">
        <ele>553.40002441406</ele>
        <time>2012-04-02T13:49:05.000Z</time>
      </trkpt>
      <trkpt lat="45.68567" lon="4.60217">
        <ele>554.40002441406</ele>
        <time>2012-04-02T13:49:09.000Z</time>
      </trkpt>
      <trkpt lat="45.68586" lon="4.60174">
        <ele>558.20001220703</ele>
        <time>2012-04-02T13:49:20.000Z</time>
      </trkpt>
      <trkpt lat="45.68607" lon="4.60129">
        <ele>557.40002441406</ele>
        <time>2012-04-02T13:49:31.000Z</time>
      </trkpt>
      <trkpt lat="45.68619" lon="4.60088">
        <ele>558.79998779297</ele>
        <time>2012-04-02T13:49:39.000Z</time>
      </trkpt>
      <trkpt lat="45.68624" lon="4.60065">
        <ele>561</ele>
        <time>2012-04-02T13:49:47.000Z</time>
      </trkpt>
      <trkpt lat="45.68635" lon="4.60032">
        <ele>562</ele>
        <time>2012-04-02T13:49:56.000Z</time>
      </trkpt>
      <trkpt lat="45.68642" lon="4.60012">
        <ele>562.59997558594</ele>
        <time>2012-04-02T13:50:02.000Z</time>
      </trkpt>
      <trkpt lat="45.68653" lon="4.59985">
        <ele>562.79998779297</ele>
        <time>2012-04-02T13:50:11.000Z</time>
      </trkpt>
      <trkpt lat="45.68654" lon="4.59978">
        <ele>563.59997558594</ele>
        <time>2012-04-02T13:50:14.000Z</time>
      </trkpt>
      <trkpt lat="45.68665" lon="4.5995">
        <ele>563.59997558594</ele>
        <time>2012-04-02T13:50:24.000Z</time>
      </trkpt>
      <trkpt lat="45.68667" lon="4.59946">
        <ele>563.59997558594</ele>
        <time>2012-04-02T13:50:25.000Z</time>
      </trkpt>
      <trkpt lat="45.68674" lon="4.59918">
        <ele>566.79998779297</ele>
        <time>2012-04-02T13:50:34.000Z</time>
      </trkpt>
      <trkpt lat="45.68681" lon="4.59891">
        <ele>569.79998779297</ele>
        <time>2012-04-02T13:50:45.000Z</time>
      </trkpt>
      <trkpt lat="45.68681" lon="4.59889">
        <ele>570</ele>
        <time>2012-04-02T13:50:46.000Z</time>
      </trkpt>
      <trkpt lat="45.6869" lon="4.59864">
        <ele>572.40002441406</ele>
        <time>2012-04-02T13:50:58.000Z</time>
      </trkpt>
      <trkpt lat="45.68697" lon="4.59846">
        <ele>574.20001220703</ele>
        <time>2012-04-02T13:51:08.000Z</time>
      </trkpt>
      <trkpt lat="45.68705" lon="4.59824">
        <ele>577.20001220703</ele>
        <time>2012-04-02T13:51:22.000Z</time>
      </trkpt>
      <trkpt lat="45.68712" lon="4.59806">
        <ele>579.79998779297</ele>
        <time>2012-04-02T13:51:36.000Z</time>
      </trkpt>
      <trkpt lat="45.68718" lon="4.59799">
        <ele>580</ele>
        <time>2012-04-02T13:51:47.000Z</time>
      </trkpt>
      <trkpt lat="45.68721" lon="4.59797">
        <ele>579.59997558594</ele>
        <time>2012-04-02T13:51:49.000Z</time>
      </trkpt>
      <trkpt lat="45.68738" lon="4.59782">
        <ele>578.79998779297</ele>
        <time>2012-04-02T13:51:58.000Z</time>
      </trkpt>
      <trkpt lat="45.68772" lon="4.59793">
        <ele>575.40002441406</ele>
        <time>2012-04-02T13:52:09.000Z</time>
      </trkpt>
      <trkpt lat="45.68797" lon="4.59827">
        <ele>571.20001220703</ele>
        <time>2012-04-02T13:52:20.000Z</time>
      </trkpt>
      <trkpt lat="45.68808" lon="4.59846">
        <ele>568.59997558594</ele>
        <time>2012-04-02T13:52:28.000Z</time>
      </trkpt>
      <trkpt lat="45.68809" lon="4.59854">
        <ele>567.20001220703</ele>
        <time>2012-04-02T13:52:37.000Z</time>
      </trkpt>
      <trkpt lat="45.68808" lon="4.59852">
        <ele>567.40002441406</ele>
        <time>2012-04-02T13:52:46.000Z</time>
      </trkpt>
      <trkpt lat="45.68811" lon="4.59849">
        <ele>568.40002441406</ele>
        <time>2012-04-02T13:52:50.000Z</time>
      </trkpt>
      <trkpt lat="45.68819" lon="4.59849">
        <ele>569.40002441406</ele>
        <time>2012-04-02T13:53:03.000Z</time>
      </trkpt>
      <trkpt lat="45.68827" lon="4.59853">
        <ele>569.59997558594</ele>
        <time>2012-04-02T13:53:10.000Z</time>
      </trkpt>
      <trkpt lat="45.68838" lon="4.59856">
        <ele>569.40002441406</ele>
        <time>2012-04-02T13:53:19.000Z</time>
      </trkpt>
      <trkpt lat="45.68856" lon="4.59857">
        <ele>568.79998779297</ele>
        <time>2012-04-02T13:53:34.000Z</time>
      </trkpt>
      <trkpt lat="45.68859" lon="4.59856">
        <ele>569</ele>
        <time>2012-04-02T13:53:37.000Z</time>
      </trkpt>
      <trkpt lat="45.68864" lon="4.59852">
        <ele>569.40002441406</ele>
        <time>2012-04-02T13:53:41.000Z</time>
      </trkpt>
      <trkpt lat="45.68877" lon="4.5984">
        <ele>571.59997558594</ele>
        <time>2012-04-02T13:53:53.000Z</time>
      </trkpt>
      <trkpt lat="45.68885" lon="4.59821">
        <ele>574.59997558594</ele>
        <time>2012-04-02T13:54:05.000Z</time>
      </trkpt>
      <trkpt lat="45.68893" lon="4.598">
        <ele>577.20001220703</ele>
        <time>2012-04-02T13:54:16.000Z</time>
      </trkpt>
      <trkpt lat="45.68896" lon="4.5977">
        <ele>581</ele>
        <time>2012-04-02T13:54:29.000Z</time>
      </trkpt>
      <trkpt lat="45.68899" lon="4.59757">
        <ele>582.59997558594</ele>
        <time>2012-04-02T13:54:36.000Z</time>
      </trkpt>
      <trkpt lat="45.689" lon="4.59747">
        <ele>583.79998779297</ele>
        <time>2012-04-02T13:54:41.000Z</time>
      </trkpt>
      <trkpt lat="45.68901" lon="4.59716">
        <ele>587</ele>
        <time>2012-04-02T13:54:55.000Z</time>
      </trkpt>
      <trkpt lat="45.689" lon="4.59692">
        <ele>589.59997558594</ele>
        <time>2012-04-02T13:55:08.000Z</time>
      </trkpt>
      <trkpt lat="45.689" lon="4.59686">
        <ele>590.20001220703</ele>
        <time>2012-04-02T13:55:11.000Z</time>
      </trkpt>
      <trkpt lat="45.68902" lon="4.59657">
        <ele>593.40002441406</ele>
        <time>2012-04-02T13:55:25.000Z</time>
      </trkpt>
      <trkpt lat="45.68903" lon="4.59653">
        <ele>593.79998779297</ele>
        <time>2012-04-02T13:55:27.000Z</time>
      </trkpt>
      <trkpt lat="45.6891" lon="4.59623">
        <ele>596</ele>
        <time>2012-04-02T13:55:38.000Z</time>
      </trkpt>
      <trkpt lat="45.68915" lon="4.59602">
        <ele>597.40002441406</ele>
        <time>2012-04-02T13:55:44.000Z</time>
      </trkpt>
      <trkpt lat="45.68921" lon="4.59571">
        <ele>599</ele>
        <time>2012-04-02T13:55:56.000Z</time>
      </trkpt>
      <trkpt lat="45.68925" lon="4.59556">
        <ele>599.59997558594</ele>
        <time>2012-04-02T13:56:02.000Z</time>
      </trkpt>
      <trkpt lat="45.68927" lon="4.59551">
        <ele>599.59997558594</ele>
        <time>2012-04-02T13:56:05.000Z</time>
      </trkpt>
      <trkpt lat="45.68931" lon="4.59525">
        <ele>602.40002441406</ele>
        <time>2012-04-02T13:56:16.000Z</time>
      </trkpt>
      <trkpt lat="45.6893" lon="4.59515">
        <ele>604.40002441406</ele>
        <time>2012-04-02T13:56:22.000Z</time>
      </trkpt>
      <trkpt lat="45.68932" lon="4.59504">
        <ele>605.20001220703</ele>
        <time>2012-04-02T13:56:26.000Z</time>
      </trkpt>
      <trkpt lat="45.68937" lon="4.59478">
        <ele>605.79998779297</ele>
        <time>2012-04-02T13:56:39.000Z</time>
      </trkpt>
      <trkpt lat="45.68938" lon="4.59464">
        <ele>606.59997558594</ele>
        <time>2012-04-02T13:56:49.000Z</time>
      </trkpt>
      <trkpt lat="45.68938" lon="4.59456">
        <ele>607.20001220703</ele>
        <time>2012-04-02T13:56:54.000Z</time>
      </trkpt>
      <trkpt lat="45.68939" lon="4.59437">
        <ele>608.59997558594</ele>
        <time>2012-04-02T13:57:03.000Z</time>
      </trkpt>
      <trkpt lat="45.6894" lon="4.59433">
        <ele>608.79998779297</ele>
        <time>2012-04-02T13:57:06.000Z</time>
      </trkpt>
      <trkpt lat="45.68941" lon="4.59417">
        <ele>609.79998779297</ele>
        <time>2012-04-02T13:57:15.000Z</time>
      </trkpt>
      <trkpt lat="45.68941" lon="4.59408">
        <ele>609.59997558594</ele>
        <time>2012-04-02T13:57:21.000Z</time>
      </trkpt>
      <trkpt lat="45.68943" lon="4.59395">
        <ele>608.59997558594</ele>
        <time>2012-04-02T13:57:27.000Z</time>
      </trkpt>
      <trkpt lat="45.68945" lon="4.59356">
        <ele>607.40002441406</ele>
        <time>2012-04-02T13:57:39.000Z</time>
      </trkpt>
      <trkpt lat="45.68945" lon="4.59347">
        <ele>607.40002441406</ele>
        <time>2012-04-02T13:57:41.000Z</time>
      </trkpt>
      <trkpt lat="45.68936" lon="4.59325">
        <ele>608.59997558594</ele>
        <time>2012-04-02T13:57:46.000Z</time>
      </trkpt>
      <trkpt lat="45.68932" lon="4.59318">
        <ele>609</ele>
        <time>2012-04-02T13:57:47.000Z</time>
      </trkpt>
      <trkpt lat="45.68923" lon="4.59308">
        <ele>609.59997558594</ele>
        <time>2012-04-02T13:57:49.000Z</time>
      </trkpt>
      <trkpt lat="45.68918" lon="4.59305">
        <ele>610.20001220703</ele>
        <time>2012-04-02T13:57:50.000Z</time>
      </trkpt>
      <trkpt lat="45.68914" lon="4.59302">
        <ele>610.59997558594</ele>
        <time>2012-04-02T13:57:51.000Z</time>
      </trkpt>
      <trkpt lat="45.6891" lon="4.59299">
        <ele>610.79998779297</ele>
        <time>2012-04-02T13:57:52.000Z</time>
      </trkpt>
      <trkpt lat="45.68906" lon="4.59296">
        <ele>611.20001220703</ele>
        <time>2012-04-02T13:57:53.000Z</time>
      </trkpt>
      <trkpt lat="45.689" lon="4.59293">
        <ele>611.59997558594</ele>
        <time>2012-04-02T13:57:54.000Z</time>
      </trkpt>
      <trkpt lat="45.68885" lon="4.59287">
        <ele>613.40002441406</ele>
        <time>2012-04-02T13:57:57.000Z</time>
      </trkpt>
      <trkpt lat="45.68859" lon="4.59286">
        <ele>618</ele>
        <time>2012-04-02T13:58:05.000Z</time>
      </trkpt>
      <trkpt lat="45.68856" lon="4.59285">
        <ele>618.20001220703</ele>
        <time>2012-04-02T13:58:06.000Z</time>
      </trkpt>
      <trkpt lat="45.68854" lon="4.59284">
        <ele>618.40002441406</ele>
        <time>2012-04-02T13:58:07.000Z</time>
      </trkpt>
      <trkpt lat="45.68852" lon="4.59282">
        <ele>618.40002441406</ele>
        <time>2012-04-02T13:58:08.000Z</time>
      </trkpt>
      <trkpt lat="45.6885" lon="4.59281">
        <ele>618.59997558594</ele>
        <time>2012-04-02T13:58:09.000Z</time>
      </trkpt>
      <trkpt lat="45.68848" lon="4.5928">
        <ele>618.79998779297</ele>
        <time>2012-04-02T13:58:10.000Z</time>
      </trkpt>
      <trkpt lat="45.68846" lon="4.59279">
        <ele>619</ele>
        <time>2012-04-02T13:58:11.000Z</time>
      </trkpt>
      <trkpt lat="45.68844" lon="4.59279">
        <ele>619.40002441406</ele>
        <time>2012-04-02T13:58:12.000Z</time>
      </trkpt>
      <trkpt lat="45.68842" lon="4.59279">
        <ele>619.59997558594</ele>
        <time>2012-04-02T13:58:13.000Z</time>
      </trkpt>
      <trkpt lat="45.6884" lon="4.59278">
        <ele>620</ele>
        <time>2012-04-02T13:58:14.000Z</time>
      </trkpt>
      <trkpt lat="45.68837" lon="4.59278">
        <ele>620.40002441406</ele>
        <time>2012-04-02T13:58:15.000Z</time>
      </trkpt>
      <trkpt lat="45.68835" lon="4.59278">
        <ele>620.79998779297</ele>
        <time>2012-04-02T13:58:16.000Z</time>
      </trkpt>
      <trkpt lat="45.68833" lon="4.59278">
        <ele>621.20001220703</ele>
        <time>2012-04-02T13:58:17.000Z</time>
      </trkpt>
      <trkpt lat="45.6883" lon="4.59278">
        <ele>621.59997558594</ele>
        <time>2012-04-02T13:58:19.000Z</time>
      </trkpt>
      <trkpt lat="45.68814" lon="4.59271">
        <ele>623.59997558594</ele>
        <time>2012-04-02T13:58:32.000Z</time>
      </trkpt>
      <trkpt lat="45.68812" lon="4.59269">
        <ele>623.59997558594</ele>
        <time>2012-04-02T13:58:34.000Z</time>
      </trkpt>
      <trkpt lat="45.68811" lon="4.59269">
        <ele>623.79998779297</ele>
        <time>2012-04-02T13:58:35.000Z</time>
      </trkpt>
      <trkpt lat="45.6881" lon="4.59268">
        <ele>624</ele>
        <time>2012-04-02T13:58:36.000Z</time>
      </trkpt>
      <trkpt lat="45.68807" lon="4.59267">
        <ele>624.40002441406</ele>
        <time>2012-04-02T13:58:39.000Z</time>
      </trkpt>
      <trkpt lat="45.68806" lon="4.59267">
        <ele>624.40002441406</ele>
        <time>2012-04-02T13:58:40.000Z</time>
      </trkpt>
      <trkpt lat="45.68795" lon="4.5926">
        <ele>625.59997558594</ele>
        <time>2012-04-02T13:58:52.000Z</time>
      </trkpt>
      <trkpt lat="45.68787" lon="4.59254">
        <ele>626.59997558594</ele>
        <time>2012-04-02T13:59:03.000Z</time>
      </trkpt>
      <trkpt lat="45.68777" lon="4.59249">
        <ele>628.40002441406</ele>
        <time>2012-04-02T13:59:11.000Z</time>
      </trkpt>
      <trkpt lat="45.68775" lon="4.59248">
        <ele>628.79998779297</ele>
        <time>2012-04-02T13:59:13.000Z</time>
      </trkpt>
      <trkpt lat="45.68764" lon="4.59238">
        <ele>633.59997558594</ele>
        <time>2012-04-02T13:59:24.000Z</time>
      </trkpt>
      <trkpt lat="45.68762" lon="4.59231">
        <ele>635.79998779297</ele>
        <time>2012-04-02T13:59:29.000Z</time>
      </trkpt>
      <trkpt lat="45.68761" lon="4.59226">
        <ele>637.20001220703</ele>
        <time>2012-04-02T13:59:32.000Z</time>
      </trkpt>
      <trkpt lat="45.68761" lon="4.59224">
        <ele>637.59997558594</ele>
        <time>2012-04-02T13:59:33.000Z</time>
      </trkpt>
      <trkpt lat="45.68761" lon="4.59222">
        <ele>638</ele>
        <time>2012-04-02T13:59:34.000Z</time>
      </trkpt>
      <trkpt lat="45.68762" lon="4.59216">
        <ele>639</ele>
        <time>2012-04-02T13:59:46.000Z</time>
      </trkpt>
      <trkpt lat="45.6877" lon="4.59209">
        <ele>639</ele>
        <time>2012-04-02T13:59:59.000Z</time>
      </trkpt>
      <trkpt lat="45.68778" lon="4.59201">
        <ele>639</ele>
        <time>2012-04-02T14:00:13.000Z</time>
      </trkpt>
      <trkpt lat="45.68783" lon="4.59193">
        <ele>639.79998779297</ele>
        <time>2012-04-02T14:00:23.000Z</time>
      </trkpt>
      <trkpt lat="45.68784" lon="4.59191">
        <ele>639.79998779297</ele>
        <time>2012-04-02T14:00:25.000Z</time>
      </trkpt>
      <trkpt lat="45.68793" lon="4.59183">
        <ele>639.40002441406</ele>
        <time>2012-04-02T14:00:35.000Z</time>
      </trkpt>
      <trkpt lat="45.688" lon="4.59174">
        <ele>639.79998779297</ele>
        <time>2012-04-02T14:00:47.000Z</time>
      </trkpt>
      <trkpt lat="45.68807" lon="4.59168">
        <ele>639.59997558594</ele>
        <time>2012-04-02T14:00:58.000Z</time>
      </trkpt>
      <trkpt lat="45.68809" lon="4.59168">
        <ele>639.20001220703</ele>
        <time>2012-04-02T14:01:11.000Z</time>
      </trkpt>
      <trkpt lat="45.6881" lon="4.59169">
        <ele>639</ele>
        <time>2012-04-02T14:01:40.000Z</time>
      </trkpt>
      <trkpt lat="45.6881" lon="4.59167">
        <ele>639.20001220703</ele>
        <time>2012-04-02T14:02:01.000Z</time>
      </trkpt>
      <trkpt lat="45.68814" lon="4.59163">
        <ele>639.20001220703</ele>
        <time>2012-04-02T14:02:09.000Z</time>
      </trkpt>
      <trkpt lat="45.68826" lon="4.59147">
        <ele>640.20001220703</ele>
        <time>2012-04-02T14:02:21.000Z</time>
      </trkpt>
      <trkpt lat="45.68831" lon="4.59126">
        <ele>644</ele>
        <time>2012-04-02T14:02:33.000Z</time>
      </trkpt>
      <trkpt lat="45.68832" lon="4.59119">
        <ele>645.20001220703</ele>
        <time>2012-04-02T14:02:37.000Z</time>
      </trkpt>
      <trkpt lat="45.68831" lon="4.59104">
        <ele>649</ele>
        <time>2012-04-02T14:02:47.000Z</time>
      </trkpt>
      <trkpt lat="45.68829" lon="4.59097">
        <ele>651.20001220703</ele>
        <time>2012-04-02T14:02:52.000Z</time>
      </trkpt>
      <trkpt lat="45.6883" lon="4.59082">
        <ele>654.20001220703</ele>
        <time>2012-04-02T14:03:03.000Z</time>
      </trkpt>
      <trkpt lat="45.68831" lon="4.59067">
        <ele>655.59997558594</ele>
        <time>2012-04-02T14:03:14.000Z</time>
      </trkpt>
      <trkpt lat="45.68831" lon="4.59055">
        <ele>657.20001220703</ele>
        <time>2012-04-02T14:03:22.000Z</time>
      </trkpt>
      <trkpt lat="45.68831" lon="4.59041">
        <ele>658.79998779297</ele>
        <time>2012-04-02T14:03:32.000Z</time>
      </trkpt>
      <trkpt lat="45.68832" lon="4.5902">
        <ele>661</ele>
        <time>2012-04-02T14:03:43.000Z</time>
      </trkpt>
      <trkpt lat="45.68836" lon="4.58999">
        <ele>662.79998779297</ele>
        <time>2012-04-02T14:03:54.000Z</time>
      </trkpt>
      <trkpt lat="45.68837" lon="4.58985">
        <ele>663.79998779297</ele>
        <time>2012-04-02T14:04:04.000Z</time>
      </trkpt>
      <trkpt lat="45.68837" lon="4.58978">
        <ele>664.40002441406</ele>
        <time>2012-04-02T14:04:09.000Z</time>
      </trkpt>
      <trkpt lat="45.68837" lon="4.58971">
        <ele>665.20001220703</ele>
        <time>2012-04-02T14:04:13.000Z</time>
      </trkpt>
      <trkpt lat="45.68834" lon="4.58954">
        <ele>666.79998779297</ele>
        <time>2012-04-02T14:04:24.000Z</time>
      </trkpt>
      <trkpt lat="45.68831" lon="4.58939">
        <ele>669</ele>
        <time>2012-04-02T14:04:36.000Z</time>
      </trkpt>
      <trkpt lat="45.68825" lon="4.58926">
        <ele>671.79998779297</ele>
        <time>2012-04-02T14:04:47.000Z</time>
      </trkpt>
      <trkpt lat="45.6882" lon="4.58909">
        <ele>674</ele>
        <time>2012-04-02T14:04:58.000Z</time>
      </trkpt>
      <trkpt lat="45.6882" lon="4.58907">
        <ele>674.20001220703</ele>
        <time>2012-04-02T14:04:59.000Z</time>
      </trkpt>
      <trkpt lat="45.68809" lon="4.58889">
        <ele>677</ele>
        <time>2012-04-02T14:05:13.000Z</time>
      </trkpt>
      <trkpt lat="45.68804" lon="4.5888">
        <ele>678.40002441406</ele>
        <time>2012-04-02T14:05:20.000Z</time>
      </trkpt>
      <trkpt lat="45.68803" lon="4.58879">
        <ele>678.59997558594</ele>
        <time>2012-04-02T14:05:21.000Z</time>
      </trkpt>
      <trkpt lat="45.688" lon="4.58871">
        <ele>679.20001220703</ele>
        <time>2012-04-02T14:05:26.000Z</time>
      </trkpt>
      <trkpt lat="45.68799" lon="4.5887">
        <ele>679.59997558594</ele>
        <time>2012-04-02T14:05:27.000Z</time>
      </trkpt>
      <trkpt lat="45.68797" lon="4.58868">
        <ele>680.20001220703</ele>
        <time>2012-04-02T14:05:29.000Z</time>
      </trkpt>
      <trkpt lat="45.68795" lon="4.58867">
        <ele>680.40002441406</ele>
        <time>2012-04-02T14:05:30.000Z</time>
      </trkpt>
      <trkpt lat="45.68793" lon="4.58866">
        <ele>681.20001220703</ele>
        <time>2012-04-02T14:05:42.000Z</time>
      </trkpt>
      <trkpt lat="45.68788" lon="4.58858">
        <ele>682.40002441406</ele>
        <time>2012-04-02T14:05:53.000Z</time>
      </trkpt>
      <trkpt lat="45.68783" lon="4.58854">
        <ele>683.40002441406</ele>
        <time>2012-04-02T14:06:03.000Z</time>
      </trkpt>
      <trkpt lat="45.68777" lon="4.58847">
        <ele>684.59997558594</ele>
        <time>2012-04-02T14:06:15.000Z</time>
      </trkpt>
      <trkpt lat="45.68774" lon="4.58838">
        <ele>685</ele>
        <time>2012-04-02T14:06:27.000Z</time>
      </trkpt>
      <trkpt lat="45.6877" lon="4.58839">
        <ele>686.40002441406</ele>
        <time>2012-04-02T14:06:39.000Z</time>
      </trkpt>
      <trkpt lat="45.68765" lon="4.5884">
        <ele>687.59997558594</ele>
        <time>2012-04-02T14:06:53.000Z</time>
      </trkpt>
      <trkpt lat="45.68762" lon="4.58839">
        <ele>688.20001220703</ele>
        <time>2012-04-02T14:07:09.000Z</time>
      </trkpt>
      <trkpt lat="45.68757" lon="4.58837">
        <ele>689.40002441406</ele>
        <time>2012-04-02T14:07:19.000Z</time>
      </trkpt>
      <trkpt lat="45.68757" lon="4.58837">
        <ele>689.40002441406</ele>
        <time>2012-04-02T14:07:41.000Z</time>
      </trkpt>
      <trkpt lat="45.68749" lon="4.58833">
        <ele>691.20001220703</ele>
        <time>2012-04-02T14:07:55.000Z</time>
      </trkpt>
      <trkpt lat="45.68743" lon="4.5883">
        <ele>692.59997558594</ele>
        <time>2012-04-02T14:08:07.000Z</time>
      </trkpt>
      <trkpt lat="45.68739" lon="4.58826">
        <ele>693.59997558594</ele>
        <time>2012-04-02T14:08:18.000Z</time>
      </trkpt>
      <trkpt lat="45.68735" lon="4.58822">
        <ele>694.40002441406</ele>
        <time>2012-04-02T14:08:36.000Z</time>
      </trkpt>
      <trkpt lat="45.68734" lon="4.5882">
        <ele>694.59997558594</ele>
        <time>2012-04-02T14:08:37.000Z</time>
      </trkpt>
      <trkpt lat="45.68733" lon="4.58819">
        <ele>694.79998779297</ele>
        <time>2012-04-02T14:08:38.000Z</time>
      </trkpt>
      <trkpt lat="45.68729" lon="4.58815">
        <ele>695.79998779297</ele>
        <time>2012-04-02T14:08:49.000Z</time>
      </trkpt>
      <trkpt lat="45.68724" lon="4.58808">
        <ele>696.79998779297</ele>
        <time>2012-04-02T14:09:00.000Z</time>
      </trkpt>
      <trkpt lat="45.68713" lon="4.58797">
        <ele>699.20001220703</ele>
        <time>2012-04-02T14:09:12.000Z</time>
      </trkpt>
      <trkpt lat="45.68705" lon="4.58786">
        <ele>700.79998779297</ele>
        <time>2012-04-02T14:09:23.000Z</time>
      </trkpt>
      <trkpt lat="45.68702" lon="4.58782">
        <ele>701.59997558594</ele>
        <time>2012-04-02T14:09:36.000Z</time>
      </trkpt>
      <trkpt lat="45.68698" lon="4.5877">
        <ele>702.20001220703</ele>
        <time>2012-04-02T14:09:50.000Z</time>
      </trkpt>
      <trkpt lat="45.68696" lon="4.58766">
        <ele>702.59997558594</ele>
        <time>2012-04-02T14:09:52.000Z</time>
      </trkpt>
      <trkpt lat="45.68695" lon="4.58764">
        <ele>702.79998779297</ele>
        <time>2012-04-02T14:09:53.000Z</time>
      </trkpt>
      <trkpt lat="45.6869" lon="4.58748">
        <ele>703.59997558594</ele>
        <time>2012-04-02T14:10:01.000Z</time>
      </trkpt>
      <trkpt lat="45.68689" lon="4.58745">
        <ele>704</ele>
        <time>2012-04-02T14:10:02.000Z</time>
      </trkpt>
      <trkpt lat="45.68678" lon="4.58719">
        <ele>707.79998779297</ele>
        <time>2012-04-02T14:10:11.000Z</time>
      </trkpt>
      <trkpt lat="45.68677" lon="4.58716">
        <ele>708.20001220703</ele>
        <time>2012-04-02T14:10:12.000Z</time>
      </trkpt>
      <trkpt lat="45.68677" lon="4.58712">
        <ele>708.40002441406</ele>
        <time>2012-04-02T14:10:13.000Z</time>
      </trkpt>
      <trkpt lat="45.68676" lon="4.58708">
        <ele>708.79998779297</ele>
        <time>2012-04-02T14:10:14.000Z</time>
      </trkpt>
      <trkpt lat="45.68676" lon="4.58705">
        <ele>708.79998779297</ele>
        <time>2012-04-02T14:10:15.000Z</time>
      </trkpt>
      <trkpt lat="45.68676" lon="4.58703">
        <ele>708.79998779297</ele>
        <time>2012-04-02T14:10:16.000Z</time>
      </trkpt>
      <trkpt lat="45.68677" lon="4.58692">
        <ele>709.20001220703</ele>
        <time>2012-04-02T14:10:20.000Z</time>
      </trkpt>
      <trkpt lat="45.68676" lon="4.58689">
        <ele>709.20001220703</ele>
        <time>2012-04-02T14:10:21.000Z</time>
      </trkpt>
      <trkpt lat="45.6868" lon="4.58672">
        <ele>708.79998779297</ele>
        <time>2012-04-02T14:10:29.000Z</time>
      </trkpt>
      <trkpt lat="45.68681" lon="4.58664">
        <ele>709</ele>
        <time>2012-04-02T14:10:38.000Z</time>
      </trkpt>
      <trkpt lat="45.68684" lon="4.58651">
        <ele>709</ele>
        <time>2012-04-02T14:10:49.000Z</time>
      </trkpt>
      <trkpt lat="45.68685" lon="4.58649">
        <ele>709.20001220703</ele>
        <time>2012-04-02T14:10:50.000Z</time>
      </trkpt>
      <trkpt lat="45.68685" lon="4.58635">
        <ele>710.20001220703</ele>
        <time>2012-04-02T14:10:56.000Z</time>
      </trkpt>
      <trkpt lat="45.68685" lon="4.58629">
        <ele>710.79998779297</ele>
        <time>2012-04-02T14:10:59.000Z</time>
      </trkpt>
      <trkpt lat="45.68684" lon="4.58619">
        <ele>712</ele>
        <time>2012-04-02T14:11:05.000Z</time>
      </trkpt>
      <trkpt lat="45.68683" lon="4.58609">
        <ele>713.59997558594</ele>
        <time>2012-04-02T14:11:11.000Z</time>
      </trkpt>
      <trkpt lat="45.68681" lon="4.58589">
        <ele>716.20001220703</ele>
        <time>2012-04-02T14:11:23.000Z</time>
      </trkpt>
      <trkpt lat="45.68679" lon="4.58586">
        <ele>717.20001220703</ele>
        <time>2012-04-02T14:11:25.000Z</time>
      </trkpt>
      <trkpt lat="45.68678" lon="4.58585">
        <ele>717.79998779297</ele>
        <time>2012-04-02T14:11:26.000Z</time>
      </trkpt>
      <trkpt lat="45.68675" lon="4.5858">
        <ele>718.79998779297</ele>
        <time>2012-04-02T14:11:29.000Z</time>
      </trkpt>
      <trkpt lat="45.6867" lon="4.58561">
        <ele>720.40002441406</ele>
        <time>2012-04-02T14:11:41.000Z</time>
      </trkpt>
      <trkpt lat="45.68665" lon="4.58548">
        <ele>721.40002441406</ele>
        <time>2012-04-02T14:11:53.000Z</time>
      </trkpt>
      <trkpt lat="45.6866" lon="4.58534">
        <ele>722.40002441406</ele>
        <time>2012-04-02T14:12:02.000Z</time>
      </trkpt>
      <trkpt lat="45.68656" lon="4.58526">
        <ele>723.40002441406</ele>
        <time>2012-04-02T14:12:08.000Z</time>
      </trkpt>
      <trkpt lat="45.68652" lon="4.58518">
        <ele>724.20001220703</ele>
        <time>2012-04-02T14:12:14.000Z</time>
      </trkpt>
      <trkpt lat="45.68644" lon="4.5851">
        <ele>725.79998779297</ele>
        <time>2012-04-02T14:12:24.000Z</time>
      </trkpt>
      <trkpt lat="45.68637" lon="4.58503">
        <ele>727.59997558594</ele>
        <time>2012-04-02T14:12:31.000Z</time>
      </trkpt>
      <trkpt lat="45.68636" lon="4.58502">
        <ele>727.79998779297</ele>
        <time>2012-04-02T14:12:32.000Z</time>
      </trkpt>
      <trkpt lat="45.68634" lon="4.58501">
        <ele>728.20001220703</ele>
        <time>2012-04-02T14:12:33.000Z</time>
      </trkpt>
      <trkpt lat="45.68624" lon="4.58496">
        <ele>730.79998779297</ele>
        <time>2012-04-02T14:12:44.000Z</time>
      </trkpt>
      <trkpt lat="45.68623" lon="4.58495">
        <ele>731.20001220703</ele>
        <time>2012-04-02T14:12:46.000Z</time>
      </trkpt>
      <trkpt lat="45.68618" lon="4.58488">
        <ele>732.40002441406</ele>
        <time>2012-04-02T14:12:52.000Z</time>
      </trkpt>
      <trkpt lat="45.68616" lon="4.58487">
        <ele>732.79998779297</ele>
        <time>2012-04-02T14:12:53.000Z</time>
      </trkpt>
      <trkpt lat="45.68615" lon="4.58485">
        <ele>733.20001220703</ele>
        <time>2012-04-02T14:12:54.000Z</time>
      </trkpt>
      <trkpt lat="45.68604" lon="4.58468">
        <ele>735.59997558594</ele>
        <time>2012-04-02T14:13:05.000Z</time>
      </trkpt>
      <trkpt lat="45.68596" lon="4.58458">
        <ele>737.40002441406</ele>
        <time>2012-04-02T14:13:11.000Z</time>
      </trkpt>
      <trkpt lat="45.68594" lon="4.58456">
        <ele>737.59997558594</ele>
        <time>2012-04-02T14:13:12.000Z</time>
      </trkpt>
      <trkpt lat="45.68593" lon="4.58454">
        <ele>737.79998779297</ele>
        <time>2012-04-02T14:13:13.000Z</time>
      </trkpt>
      <trkpt lat="45.6858" lon="4.58436">
        <ele>739.79998779297</ele>
        <time>2012-04-02T14:13:26.000Z</time>
      </trkpt>
      <trkpt lat="45.68577" lon="4.58422">
        <ele>739.79998779297</ele>
        <time>2012-04-02T14:13:33.000Z</time>
      </trkpt>
      <trkpt lat="45.68579" lon="4.58412">
        <ele>740.20001220703</ele>
        <time>2012-04-02T14:13:40.000Z</time>
      </trkpt>
      <trkpt lat="45.68584" lon="4.58408">
        <ele>740.40002441406</ele>
        <time>2012-04-02T14:13:45.000Z</time>
      </trkpt>
      <trkpt lat="45.68591" lon="4.58402">
        <ele>740.20001220703</ele>
        <time>2012-04-02T14:13:50.000Z</time>
      </trkpt>
      <trkpt lat="45.68615" lon="4.58382">
        <ele>739.20001220703</ele>
        <time>2012-04-02T14:14:02.000Z</time>
      </trkpt>
      <trkpt lat="45.68632" lon="4.58372">
        <ele>738</ele>
        <time>2012-04-02T14:14:11.000Z</time>
      </trkpt>
      <trkpt lat="45.68638" lon="4.5837">
        <ele>737.40002441406</ele>
        <time>2012-04-02T14:14:15.000Z</time>
      </trkpt>
      <trkpt lat="45.68644" lon="4.58366">
        <ele>737.20001220703</ele>
        <time>2012-04-02T14:14:19.000Z</time>
      </trkpt>
      <trkpt lat="45.68652" lon="4.58355">
        <ele>737.59997558594</ele>
        <time>2012-04-02T14:14:25.000Z</time>
      </trkpt>
      <trkpt lat="45.68655" lon="4.58339">
        <ele>740</ele>
        <time>2012-04-02T14:14:36.000Z</time>
      </trkpt>
      <trkpt lat="45.68659" lon="4.58324">
        <ele>741.40002441406</ele>
        <time>2012-04-02T14:14:44.000Z</time>
      </trkpt>
      <trkpt lat="45.68662" lon="4.58309">
        <ele>742.59997558594</ele>
        <time>2012-04-02T14:14:50.000Z</time>
      </trkpt>
      <trkpt lat="45.68669" lon="4.58285">
        <ele>744.20001220703</ele>
        <time>2012-04-02T14:15:02.000Z</time>
      </trkpt>
      <trkpt lat="45.68676" lon="4.58261">
        <ele>745</ele>
        <time>2012-04-02T14:15:12.000Z</time>
      </trkpt>
      <trkpt lat="45.68682" lon="4.58237">
        <ele>744.59997558594</ele>
        <time>2012-04-02T14:15:23.000Z</time>
      </trkpt>
      <trkpt lat="45.68685" lon="4.5821">
        <ele>743.40002441406</ele>
        <time>2012-04-02T14:15:34.000Z</time>
      </trkpt>
      <trkpt lat="45.68681" lon="4.58189">
        <ele>744.20001220703</ele>
        <time>2012-04-02T14:15:45.000Z</time>
      </trkpt>
      <trkpt lat="45.68675" lon="4.58158">
        <ele>745.40002441406</ele>
        <time>2012-04-02T14:15:56.000Z</time>
      </trkpt>
      <trkpt lat="45.6867" lon="4.5815">
        <ele>746.20001220703</ele>
        <time>2012-04-02T14:16:00.000Z</time>
      </trkpt>
      <trkpt lat="45.68665" lon="4.58149">
        <ele>747.59997558594</ele>
        <time>2012-04-02T14:16:04.000Z</time>
      </trkpt>
      <trkpt lat="45.68653" lon="4.58165">
        <ele>750.20001220703</ele>
        <time>2012-04-02T14:16:22.000Z</time>
      </trkpt>
      <trkpt lat="45.68639" lon="4.58181">
        <ele>752.79998779297</ele>
        <time>2012-04-02T14:16:37.000Z</time>
      </trkpt>
      <trkpt lat="45.68639" lon="4.58182">
        <ele>752.79998779297</ele>
        <time>2012-04-02T14:16:38.000Z</time>
      </trkpt>
      <trkpt lat="45.68632" lon="4.58187">
        <ele>754.20001220703</ele>
        <time>2012-04-02T14:16:46.000Z</time>
      </trkpt>
      <trkpt lat="45.68618" lon="4.58191">
        <ele>756.59997558594</ele>
        <time>2012-04-02T14:16:59.000Z</time>
      </trkpt>
      <trkpt lat="45.68609" lon="4.58194">
        <ele>758</ele>
        <time>2012-04-02T14:17:08.000Z</time>
      </trkpt>
      <trkpt lat="45.68595" lon="4.58201">
        <ele>760.40002441406</ele>
        <time>2012-04-02T14:17:22.000Z</time>
      </trkpt>
      <trkpt lat="45.68582" lon="4.58206">
        <ele>762.59997558594</ele>
        <time>2012-04-02T14:17:36.000Z</time>
      </trkpt>
      <trkpt lat="45.68572" lon="4.58208">
        <ele>763.59997558594</ele>
        <time>2012-04-02T14:17:46.000Z</time>
      </trkpt>
      <trkpt lat="45.68569" lon="4.58208">
        <ele>763.79998779297</ele>
        <time>2012-04-02T14:17:48.000Z</time>
      </trkpt>
      <trkpt lat="45.68558" lon="4.58213">
        <ele>765</ele>
        <time>2012-04-02T14:17:58.000Z</time>
      </trkpt>
      <trkpt lat="45.68554" lon="4.58214">
        <ele>765.40002441406</ele>
        <time>2012-04-02T14:18:02.000Z</time>
      </trkpt>
      <trkpt lat="45.68536" lon="4.58203">
        <ele>767</ele>
        <time>2012-04-02T14:18:16.000Z</time>
      </trkpt>
      <trkpt lat="45.6852" lon="4.58167">
        <ele>768.79998779297</ele>
        <time>2012-04-02T14:18:34.000Z</time>
      </trkpt>
      <trkpt lat="45.68517" lon="4.58157">
        <ele>769.40002441406</ele>
        <time>2012-04-02T14:18:39.000Z</time>
      </trkpt>
      <trkpt lat="45.68518" lon="4.58145">
        <ele>769.79998779297</ele>
        <time>2012-04-02T14:18:43.000Z</time>
      </trkpt>
      <trkpt lat="45.6852" lon="4.58137">
        <ele>769.79998779297</ele>
        <time>2012-04-02T14:18:45.000Z</time>
      </trkpt>
      <trkpt lat="45.68526" lon="4.58111">
        <ele>769.59997558594</ele>
        <time>2012-04-02T14:18:50.000Z</time>
      </trkpt>
      <trkpt lat="45.68528" lon="4.58105">
        <ele>769.40002441406</ele>
        <time>2012-04-02T14:18:51.000Z</time>
      </trkpt>
      <trkpt lat="45.68529" lon="4.58099">
        <ele>769.40002441406</ele>
        <time>2012-04-02T14:18:52.000Z</time>
      </trkpt>
      <trkpt lat="45.6853" lon="4.58094">
        <ele>769.20001220703</ele>
        <time>2012-04-02T14:18:53.000Z</time>
      </trkpt>
      <trkpt lat="45.68545" lon="4.58027">
        <ele>770.20001220703</ele>
        <time>2012-04-02T14:19:06.000Z</time>
      </trkpt>
      <trkpt lat="45.68554" lon="4.5796">
        <ele>771.20001220703</ele>
        <time>2012-04-02T14:19:20.000Z</time>
      </trkpt>
      <trkpt lat="45.6855" lon="4.57888">
        <ele>773.79998779297</ele>
        <time>2012-04-02T14:19:34.000Z</time>
      </trkpt>
      <trkpt lat="45.68552" lon="4.57822">
        <ele>772.79998779297</ele>
        <time>2012-04-02T14:19:48.000Z</time>
      </trkpt>
      <trkpt lat="45.68563" lon="4.57761">
        <ele>770.79998779297</ele>
        <time>2012-04-02T14:20:01.000Z</time>
      </trkpt>
      <trkpt lat="45.68576" lon="4.57695">
        <ele>769.59997558594</ele>
        <time>2012-04-02T14:20:14.000Z</time>
      </trkpt>
      <trkpt lat="45.68581" lon="4.57679">
        <ele>769.20001220703</ele>
        <time>2012-04-02T14:20:18.000Z</time>
      </trkpt>
      <trkpt lat="45.686" lon="4.57643">
        <ele>769</ele>
        <time>2012-04-02T14:20:31.000Z</time>
      </trkpt>
      <trkpt lat="45.68613" lon="4.57615">
        <ele>769.40002441406</ele>
        <time>2012-04-02T14:20:40.000Z</time>
      </trkpt>
      <trkpt lat="45.68627" lon="4.57593">
        <ele>770</ele>
        <time>2012-04-02T14:20:50.000Z</time>
      </trkpt>
      <trkpt lat="45.68628" lon="4.57592">
        <ele>770</ele>
        <time>2012-04-02T14:20:51.000Z</time>
      </trkpt>
      <trkpt lat="45.68628" lon="4.57592">
        <ele>770</ele>
        <time>2012-04-02T14:21:02.000Z</time>
      </trkpt>
      <trkpt lat="45.68628" lon="4.57592">
        <ele>770</ele>
        <time>2012-04-02T14:21:30.000Z</time>
      </trkpt>
      <trkpt lat="45.68628" lon="4.57592">
        <ele>770</ele>
        <time>2012-04-02T14:22:03.000Z</time>
      </trkpt>
      <trkpt lat="45.68628" lon="4.57592">
        <ele>770</ele>
        <time>2012-04-02T14:22:40.000Z</time>
      </trkpt>
      <trkpt lat="45.68628" lon="4.57592">
        <ele>770</ele>
        <time>2012-04-02T14:23:11.000Z</time>
      </trkpt>
      <trkpt lat="45.68628" lon="4.57592">
        <ele>770</ele>
        <time>2012-04-02T14:23:30.000Z</time>
      </trkpt>
      <trkpt lat="45.68628" lon="4.57589">
        <ele>770.20001220703</ele>
        <time>2012-04-02T14:23:44.000Z</time>
      </trkpt>
      <trkpt lat="45.68628" lon="4.57589">
        <ele>770.20001220703</ele>
        <time>2012-04-02T14:23:45.000Z</time>
      </trkpt>
      <trkpt lat="45.68629" lon="4.57587">
        <ele>770.20001220703</ele>
        <time>2012-04-02T14:23:46.000Z</time>
      </trkpt>
      <trkpt lat="45.6863" lon="4.57586">
        <ele>770.20001220703</ele>
        <time>2012-04-02T14:23:47.000Z</time>
      </trkpt>
      <trkpt lat="45.68631" lon="4.57585">
        <ele>770.20001220703</ele>
        <time>2012-04-02T14:23:48.000Z</time>
      </trkpt>
      <trkpt lat="45.68633" lon="4.57584">
        <ele>770.40002441406</ele>
        <time>2012-04-02T14:23:49.000Z</time>
      </trkpt>
      <trkpt lat="45.68634" lon="4.57582">
        <ele>770.40002441406</ele>
        <time>2012-04-02T14:23:50.000Z</time>
      </trkpt>
      <trkpt lat="45.68636" lon="4.57581">
        <ele>770.59997558594</ele>
        <time>2012-04-02T14:23:51.000Z</time>
      </trkpt>
      <trkpt lat="45.6866" lon="4.57551">
        <ele>772</ele>
        <time>2012-04-02T14:24:05.000Z</time>
      </trkpt>
      <trkpt lat="45.68684" lon="4.57514">
        <ele>774</ele>
        <time>2012-04-02T14:24:20.000Z</time>
      </trkpt>
      <trkpt lat="45.68702" lon="4.57485">
        <ele>776.20001220703</ele>
        <time>2012-04-02T14:24:35.000Z</time>
      </trkpt>
      <trkpt lat="45.68716" lon="4.57459">
        <ele>778.59997558594</ele>
        <time>2012-04-02T14:24:52.000Z</time>
      </trkpt>
      <trkpt lat="45.68723" lon="4.5745">
        <ele>779.79998779297</ele>
        <time>2012-04-02T14:24:59.000Z</time>
      </trkpt>
      <trkpt lat="45.68724" lon="4.57447">
        <ele>780.20001220703</ele>
        <time>2012-04-02T14:25:01.000Z</time>
      </trkpt>
      <trkpt lat="45.68737" lon="4.57426">
        <ele>782.79998779297</ele>
        <time>2012-04-02T14:25:16.000Z</time>
      </trkpt>
      <trkpt lat="45.6874" lon="4.57422">
        <ele>783.40002441406</ele>
        <time>2012-04-02T14:25:19.000Z</time>
      </trkpt>
      <trkpt lat="45.68741" lon="4.5742">
        <ele>783.59997558594</ele>
        <time>2012-04-02T14:25:20.000Z</time>
      </trkpt>
      <trkpt lat="45.68741" lon="4.57419">
        <ele>783.79998779297</ele>
        <time>2012-04-02T14:25:21.000Z</time>
      </trkpt>
      <trkpt lat="45.68743" lon="4.57415">
        <ele>784.20001220703</ele>
        <time>2012-04-02T14:25:23.000Z</time>
      </trkpt>
      <trkpt lat="45.68755" lon="4.57393">
        <ele>784.79998779297</ele>
        <time>2012-04-02T14:25:36.000Z</time>
      </trkpt>
      <trkpt lat="45.68771" lon="4.57367">
        <ele>784.59997558594</ele>
        <time>2012-04-02T14:25:50.000Z</time>
      </trkpt>
      <trkpt lat="45.68773" lon="4.57364">
        <ele>784.59997558594</ele>
        <time>2012-04-02T14:25:52.000Z</time>
      </trkpt>
      <trkpt lat="45.68774" lon="4.57362">
        <ele>784.59997558594</ele>
        <time>2012-04-02T14:25:53.000Z</time>
      </trkpt>
      <trkpt lat="45.68802" lon="4.57319">
        <ele>785.79998779297</ele>
        <time>2012-04-02T14:26:10.000Z</time>
      </trkpt>
      <trkpt lat="45.68827" lon="4.57277">
        <ele>789.40002441406</ele>
        <time>2012-04-02T14:26:28.000Z</time>
      </trkpt>
      <trkpt lat="45.68851" lon="4.57228">
        <ele>793.40002441406</ele>
        <time>2012-04-02T14:26:47.000Z</time>
      </trkpt>
      <trkpt lat="45.6887" lon="4.57176">
        <ele>797.79998779297</ele>
        <time>2012-04-02T14:27:06.000Z</time>
      </trkpt>
      <trkpt lat="45.6888" lon="4.5713">
        <ele>800.40002441406</ele>
        <time>2012-04-02T14:27:23.000Z</time>
      </trkpt>
      <trkpt lat="45.68891" lon="4.57087">
        <ele>803.40002441406</ele>
        <time>2012-04-02T14:27:39.000Z</time>
      </trkpt>
      <trkpt lat="45.68901" lon="4.57066">
        <ele>805.20001220703</ele>
        <time>2012-04-02T14:27:48.000Z</time>
      </trkpt>
      <trkpt lat="45.68903" lon="4.57064">
        <ele>805.40002441406</ele>
        <time>2012-04-02T14:27:49.000Z</time>
      </trkpt>
      <trkpt lat="45.68904" lon="4.57063">
        <ele>805.59997558594</ele>
        <time>2012-04-02T14:27:50.000Z</time>
      </trkpt>
      <trkpt lat="45.68906" lon="4.57061">
        <ele>806</ele>
        <time>2012-04-02T14:27:51.000Z</time>
      </trkpt>
      <trkpt lat="45.68929" lon="4.57042">
        <ele>808.59997558594</ele>
        <time>2012-04-02T14:28:05.000Z</time>
      </trkpt>
      <trkpt lat="45.68938" lon="4.57036">
        <ele>809</ele>
        <time>2012-04-02T14:28:12.000Z</time>
      </trkpt>
      <trkpt lat="45.68939" lon="4.57034">
        <ele>809.20001220703</ele>
        <time>2012-04-02T14:28:13.000Z</time>
      </trkpt>
      <trkpt lat="45.6894" lon="4.57033">
        <ele>809.20001220703</ele>
        <time>2012-04-02T14:28:14.000Z</time>
      </trkpt>
      <trkpt lat="45.68942" lon="4.57032">
        <ele>809.20001220703</ele>
        <time>2012-04-02T14:28:15.000Z</time>
      </trkpt>
      <trkpt lat="45.68943" lon="4.57031">
        <ele>809.40002441406</ele>
        <time>2012-04-02T14:28:16.000Z</time>
      </trkpt>
      <trkpt lat="45.68944" lon="4.5703">
        <ele>809.40002441406</ele>
        <time>2012-04-02T14:28:17.000Z</time>
      </trkpt>
      <trkpt lat="45.68946" lon="4.5703">
        <ele>809.40002441406</ele>
        <time>2012-04-02T14:28:18.000Z</time>
      </trkpt>
      <trkpt lat="45.68947" lon="4.57029">
        <ele>809.59997558594</ele>
        <time>2012-04-02T14:28:19.000Z</time>
      </trkpt>
      <trkpt lat="45.68949" lon="4.57027">
        <ele>809.59997558594</ele>
        <time>2012-04-02T14:28:20.000Z</time>
      </trkpt>
      <trkpt lat="45.6895" lon="4.57026">
        <ele>809.79998779297</ele>
        <time>2012-04-02T14:28:21.000Z</time>
      </trkpt>
      <trkpt lat="45.68978" lon="4.57005">
        <ele>811.59997558594</ele>
        <time>2012-04-02T14:28:36.000Z</time>
      </trkpt>
      <trkpt lat="45.69004" lon="4.56975">
        <ele>813.20001220703</ele>
        <time>2012-04-02T14:28:49.000Z</time>
      </trkpt>
      <trkpt lat="45.69024" lon="4.56925">
        <ele>812</ele>
        <time>2012-04-02T14:29:04.000Z</time>
      </trkpt>
      <trkpt lat="45.69041" lon="4.56861">
        <ele>811.20001220703</ele>
        <time>2012-04-02T14:29:18.000Z</time>
      </trkpt>
      <trkpt lat="45.6908" lon="4.56809">
        <ele>810.59997558594</ele>
        <time>2012-04-02T14:29:34.000Z</time>
      </trkpt>
      <trkpt lat="45.69125" lon="4.56762">
        <ele>814</ele>
        <time>2012-04-02T14:29:52.000Z</time>
      </trkpt>
      <trkpt lat="45.69136" lon="4.56747">
        <ele>816</ele>
        <time>2012-04-02T14:30:03.000Z</time>
      </trkpt>
      <trkpt lat="45.69138" lon="4.56747">
        <ele>816</ele>
        <time>2012-04-02T14:30:04.000Z</time>
      </trkpt>
      <trkpt lat="45.6914" lon="4.56747">
        <ele>816.20001220703</ele>
        <time>2012-04-02T14:30:05.000Z</time>
      </trkpt>
      <trkpt lat="45.69142" lon="4.56746">
        <ele>816.40002441406</ele>
        <time>2012-04-02T14:30:06.000Z</time>
      </trkpt>
      <trkpt lat="45.69144" lon="4.56745">
        <ele>816.59997558594</ele>
        <time>2012-04-02T14:30:07.000Z</time>
      </trkpt>
      <trkpt lat="45.69162" lon="4.56738">
        <ele>818.40002441406</ele>
        <time>2012-04-02T14:30:19.000Z</time>
      </trkpt>
      <trkpt lat="45.69164" lon="4.56737">
        <ele>818.79998779297</ele>
        <time>2012-04-02T14:30:20.000Z</time>
      </trkpt>
      <trkpt lat="45.69165" lon="4.56736">
        <ele>818.79998779297</ele>
        <time>2012-04-02T14:30:21.000Z</time>
      </trkpt>
      <trkpt lat="45.69166" lon="4.56734">
        <ele>819</ele>
        <time>2012-04-02T14:30:22.000Z</time>
      </trkpt>
      <trkpt lat="45.69167" lon="4.56732">
        <ele>819.40002441406</ele>
        <time>2012-04-02T14:30:23.000Z</time>
      </trkpt>
      <trkpt lat="45.69171" lon="4.56728">
        <ele>820</ele>
        <time>2012-04-02T14:30:26.000Z</time>
      </trkpt>
      <trkpt lat="45.69172" lon="4.56726">
        <ele>820</ele>
        <time>2012-04-02T14:30:27.000Z</time>
      </trkpt>
      <trkpt lat="45.69173" lon="4.56725">
        <ele>820.20001220703</ele>
        <time>2012-04-02T14:30:28.000Z</time>
      </trkpt>
      <trkpt lat="45.69174" lon="4.56725">
        <ele>820.40002441406</ele>
        <time>2012-04-02T14:30:29.000Z</time>
      </trkpt>
      <trkpt lat="45.69175" lon="4.56723">
        <ele>820.59997558594</ele>
        <time>2012-04-02T14:30:30.000Z</time>
      </trkpt>
      <trkpt lat="45.69176" lon="4.56721">
        <ele>820.79998779297</ele>
        <time>2012-04-02T14:30:31.000Z</time>
      </trkpt>
      <trkpt lat="45.69177" lon="4.56719">
        <ele>821</ele>
        <time>2012-04-02T14:30:32.000Z</time>
      </trkpt>
      <trkpt lat="45.69178" lon="4.56718">
        <ele>821.20001220703</ele>
        <time>2012-04-02T14:30:33.000Z</time>
      </trkpt>
      <trkpt lat="45.69181" lon="4.56712">
        <ele>822</ele>
        <time>2012-04-02T14:30:36.000Z</time>
      </trkpt>
      <trkpt lat="45.69182" lon="4.5671">
        <ele>822.20001220703</ele>
        <time>2012-04-02T14:30:37.000Z</time>
      </trkpt>
      <trkpt lat="45.69184" lon="4.56705">
        <ele>823</ele>
        <time>2012-04-02T14:30:43.000Z</time>
      </trkpt>
      <trkpt lat="45.69184" lon="4.56703">
        <ele>823.20001220703</ele>
        <time>2012-04-02T14:30:44.000Z</time>
      </trkpt>
      <trkpt lat="45.69185" lon="4.567">
        <ele>823.59997558594</ele>
        <time>2012-04-02T14:30:47.000Z</time>
      </trkpt>
      <trkpt lat="45.69188" lon="4.56692">
        <ele>824.59997558594</ele>
        <time>2012-04-02T14:30:54.000Z</time>
      </trkpt>
      <trkpt lat="45.6919" lon="4.56685">
        <ele>825.40002441406</ele>
        <time>2012-04-02T14:31:05.000Z</time>
      </trkpt>
      <trkpt lat="45.6919" lon="4.56684">
        <ele>825.79998779297</ele>
        <time>2012-04-02T14:31:06.000Z</time>
      </trkpt>
      <trkpt lat="45.69191" lon="4.56682">
        <ele>826</ele>
        <time>2012-04-02T14:31:07.000Z</time>
      </trkpt>
      <trkpt lat="45.69191" lon="4.5668">
        <ele>826.20001220703</ele>
        <time>2012-04-02T14:31:08.000Z</time>
      </trkpt>
      <trkpt lat="45.69192" lon="4.56678">
        <ele>826.40002441406</ele>
        <time>2012-04-02T14:31:09.000Z</time>
      </trkpt>
      <trkpt lat="45.69192" lon="4.56677">
        <ele>826.59997558594</ele>
        <time>2012-04-02T14:31:10.000Z</time>
      </trkpt>
      <trkpt lat="45.692" lon="4.56662">
        <ele>828.79998779297</ele>
        <time>2012-04-02T14:31:19.000Z</time>
      </trkpt>
      <trkpt lat="45.69201" lon="4.56661">
        <ele>829</ele>
        <time>2012-04-02T14:31:20.000Z</time>
      </trkpt>
      <trkpt lat="45.69202" lon="4.56659">
        <ele>829.20001220703</ele>
        <time>2012-04-02T14:31:21.000Z</time>
      </trkpt>
      <trkpt lat="45.69218" lon="4.56646">
        <ele>832</ele>
        <time>2012-04-02T14:31:36.000Z</time>
      </trkpt>
      <trkpt lat="45.69223" lon="4.56644">
        <ele>832.59997558594</ele>
        <time>2012-04-02T14:31:39.000Z</time>
      </trkpt>
      <trkpt lat="45.69224" lon="4.56643">
        <ele>833</ele>
        <time>2012-04-02T14:31:40.000Z</time>
      </trkpt>
      <trkpt lat="45.69226" lon="4.56641">
        <ele>833.20001220703</ele>
        <time>2012-04-02T14:31:42.000Z</time>
      </trkpt>
      <trkpt lat="45.69229" lon="4.56637">
        <ele>833.79998779297</ele>
        <time>2012-04-02T14:31:46.000Z</time>
      </trkpt>
      <trkpt lat="45.69229" lon="4.56635">
        <ele>834</ele>
        <time>2012-04-02T14:31:47.000Z</time>
      </trkpt>
      <trkpt lat="45.6923" lon="4.56633">
        <ele>834.20001220703</ele>
        <time>2012-04-02T14:31:48.000Z</time>
      </trkpt>
      <trkpt lat="45.69239" lon="4.56621">
        <ele>836</ele>
        <time>2012-04-02T14:31:59.000Z</time>
      </trkpt>
      <trkpt lat="45.69248" lon="4.56608">
        <ele>837.79998779297</ele>
        <time>2012-04-02T14:32:11.000Z</time>
      </trkpt>
      <trkpt lat="45.6926" lon="4.56595">
        <ele>839.79998779297</ele>
        <time>2012-04-02T14:32:23.000Z</time>
      </trkpt>
      <trkpt lat="45.69273" lon="4.56582">
        <ele>841.79998779297</ele>
        <time>2012-04-02T14:32:36.000Z</time>
      </trkpt>
      <trkpt lat="45.69274" lon="4.56581">
        <ele>841.79998779297</ele>
        <time>2012-04-02T14:32:37.000Z</time>
      </trkpt>
      <trkpt lat="45.69286" lon="4.56573">
        <ele>842.79998779297</ele>
        <time>2012-04-02T14:32:48.000Z</time>
      </trkpt>
      <trkpt lat="45.69288" lon="4.56572">
        <ele>842.79998779297</ele>
        <time>2012-04-02T14:32:49.000Z</time>
      </trkpt>
      <trkpt lat="45.69302" lon="4.56566">
        <ele>844.40002441406</ele>
        <time>2012-04-02T14:33:02.000Z</time>
      </trkpt>
      <trkpt lat="45.69314" lon="4.56566">
        <ele>845.79998779297</ele>
        <time>2012-04-02T14:33:12.000Z</time>
      </trkpt>
      <trkpt lat="45.69318" lon="4.56566">
        <ele>846.40002441406</ele>
        <time>2012-04-02T14:33:15.000Z</time>
      </trkpt>
      <trkpt lat="45.69336" lon="4.56559">
        <ele>848.20001220703</ele>
        <time>2012-04-02T14:33:27.000Z</time>
      </trkpt>
      <trkpt lat="45.69337" lon="4.56558">
        <ele>848.20001220703</ele>
        <time>2012-04-02T14:33:28.000Z</time>
      </trkpt>
      <trkpt lat="45.69348" lon="4.56553">
        <ele>848.40002441406</ele>
        <time>2012-04-02T14:33:36.000Z</time>
      </trkpt>
      <trkpt lat="45.69362" lon="4.56544">
        <ele>848.79998779297</ele>
        <time>2012-04-02T14:33:47.000Z</time>
      </trkpt>
      <trkpt lat="45.69363" lon="4.56544">
        <ele>849</ele>
        <time>2012-04-02T14:33:48.000Z</time>
      </trkpt>
      <trkpt lat="45.69367" lon="4.56543">
        <ele>849.20001220703</ele>
        <time>2012-04-02T14:33:51.000Z</time>
      </trkpt>
      <trkpt lat="45.69369" lon="4.56543">
        <ele>849.20001220703</ele>
        <time>2012-04-02T14:33:52.000Z</time>
      </trkpt>
      <trkpt lat="45.69371" lon="4.56543">
        <ele>849.20001220703</ele>
        <time>2012-04-02T14:33:53.000Z</time>
      </trkpt>
      <trkpt lat="45.69373" lon="4.56544">
        <ele>849.40002441406</ele>
        <time>2012-04-02T14:33:54.000Z</time>
      </trkpt>
      <trkpt lat="45.69375" lon="4.56544">
        <ele>849.40002441406</ele>
        <time>2012-04-02T14:33:55.000Z</time>
      </trkpt>
      <trkpt lat="45.69377" lon="4.56545">
        <ele>849.59997558594</ele>
        <time>2012-04-02T14:33:56.000Z</time>
      </trkpt>
      <trkpt lat="45.69379" lon="4.56546">
        <ele>849.59997558594</ele>
        <time>2012-04-02T14:33:57.000Z</time>
      </trkpt>
      <trkpt lat="45.69381" lon="4.56546">
        <ele>849.79998779297</ele>
        <time>2012-04-02T14:33:58.000Z</time>
      </trkpt>
      <trkpt lat="45.69383" lon="4.56546">
        <ele>849.79998779297</ele>
        <time>2012-04-02T14:33:59.000Z</time>
      </trkpt>
      <trkpt lat="45.69393" lon="4.56547">
        <ele>850.20001220703</ele>
        <time>2012-04-02T14:34:06.000Z</time>
      </trkpt>
      <trkpt lat="45.69408" lon="4.56544">
        <ele>851</ele>
        <time>2012-04-02T14:34:13.000Z</time>
      </trkpt>
      <trkpt lat="45.69411" lon="4.56543">
        <ele>851.20001220703</ele>
        <time>2012-04-02T14:34:14.000Z</time>
      </trkpt>
      <trkpt lat="45.69418" lon="4.56536">
        <ele>852</ele>
        <time>2012-04-02T14:34:22.000Z</time>
      </trkpt>
      <trkpt lat="45.69444" lon="4.56518">
        <ele>857</ele>
        <time>2012-04-02T14:34:31.000Z</time>
      </trkpt>
      <trkpt lat="45.69446" lon="4.56517">
        <ele>857.20001220703</ele>
        <time>2012-04-02T14:34:32.000Z</time>
      </trkpt>
      <trkpt lat="45.69453" lon="4.56516">
        <ele>858.20001220703</ele>
        <time>2012-04-02T14:34:36.000Z</time>
      </trkpt>
      <trkpt lat="45.69454" lon="4.56518">
        <ele>858.40002441406</ele>
        <time>2012-04-02T14:34:37.000Z</time>
      </trkpt>
      <trkpt lat="45.69456" lon="4.5652">
        <ele>858.59997558594</ele>
        <time>2012-04-02T14:34:38.000Z</time>
      </trkpt>
      <trkpt lat="45.69459" lon="4.56527">
        <ele>858.79998779297</ele>
        <time>2012-04-02T14:34:42.000Z</time>
      </trkpt>
      <trkpt lat="45.6946" lon="4.56528">
        <ele>859</ele>
        <time>2012-04-02T14:34:43.000Z</time>
      </trkpt>
      <trkpt lat="45.69462" lon="4.5653">
        <ele>859</ele>
        <time>2012-04-02T14:34:44.000Z</time>
      </trkpt>
      <trkpt lat="45.69463" lon="4.56532">
        <ele>859.20001220703</ele>
        <time>2012-04-02T14:34:45.000Z</time>
      </trkpt>
      <trkpt lat="45.69464" lon="4.56534">
        <ele>859.40002441406</ele>
        <time>2012-04-02T14:34:46.000Z</time>
      </trkpt>
      <trkpt lat="45.69465" lon="4.56536">
        <ele>859.40002441406</ele>
        <time>2012-04-02T14:34:47.000Z</time>
      </trkpt>
      <trkpt lat="45.69466" lon="4.56538">
        <ele>859.59997558594</ele>
        <time>2012-04-02T14:34:48.000Z</time>
      </trkpt>
      <trkpt lat="45.69467" lon="4.5654">
        <ele>859.59997558594</ele>
        <time>2012-04-02T14:34:49.000Z</time>
      </trkpt>
      <trkpt lat="45.69468" lon="4.56542">
        <ele>859.79998779297</ele>
        <time>2012-04-02T14:34:50.000Z</time>
      </trkpt>
      <trkpt lat="45.69469" lon="4.56544">
        <ele>860</ele>
        <time>2012-04-02T14:34:51.000Z</time>
      </trkpt>
      <trkpt lat="45.6947" lon="4.56546">
        <ele>860</ele>
        <time>2012-04-02T14:34:52.000Z</time>
      </trkpt>
      <trkpt lat="45.69472" lon="4.56548">
        <ele>860.20001220703</ele>
        <time>2012-04-02T14:34:53.000Z</time>
      </trkpt>
      <trkpt lat="45.69473" lon="4.5655">
        <ele>860.40002441406</ele>
        <time>2012-04-02T14:34:54.000Z</time>
      </trkpt>
      <trkpt lat="45.69474" lon="4.56551">
        <ele>860.59997558594</ele>
        <time>2012-04-02T14:34:55.000Z</time>
      </trkpt>
      <trkpt lat="45.69484" lon="4.5657">
        <ele>862.20001220703</ele>
        <time>2012-04-02T14:35:05.000Z</time>
      </trkpt>
      <trkpt lat="45.69494" lon="4.56586">
        <ele>863.59997558594</ele>
        <time>2012-04-02T14:35:17.000Z</time>
      </trkpt>
      <trkpt lat="45.69505" lon="4.56602">
        <ele>864.79998779297</ele>
        <time>2012-04-02T14:35:26.000Z</time>
      </trkpt>
      <trkpt lat="45.69517" lon="4.5662">
        <ele>866.59997558594</ele>
        <time>2012-04-02T14:35:39.000Z</time>
      </trkpt>
      <trkpt lat="45.69525" lon="4.56633">
        <ele>868</ele>
        <time>2012-04-02T14:35:51.000Z</time>
      </trkpt>
      <trkpt lat="45.69534" lon="4.56651">
        <ele>869.79998779297</ele>
        <time>2012-04-02T14:36:04.000Z</time>
      </trkpt>
      <trkpt lat="45.69542" lon="4.56663">
        <ele>871.79998779297</ele>
        <time>2012-04-02T14:36:15.000Z</time>
      </trkpt>
      <trkpt lat="45.69549" lon="4.56677">
        <ele>873.20001220703</ele>
        <time>2012-04-02T14:36:26.000Z</time>
      </trkpt>
      <trkpt lat="45.69552" lon="4.56682">
        <ele>874.20001220703</ele>
        <time>2012-04-02T14:36:39.000Z</time>
      </trkpt>
      <trkpt lat="45.69554" lon="4.56693">
        <ele>874.20001220703</ele>
        <time>2012-04-02T14:36:47.000Z</time>
      </trkpt>
      <trkpt lat="45.69557" lon="4.56704">
        <ele>875</ele>
        <time>2012-04-02T14:36:52.000Z</time>
      </trkpt>
      <trkpt lat="45.69558" lon="4.56708">
        <ele>875</ele>
        <time>2012-04-02T14:36:54.000Z</time>
      </trkpt>
      <trkpt lat="45.69559" lon="4.5671">
        <ele>875.40002441406</ele>
        <time>2012-04-02T14:36:55.000Z</time>
      </trkpt>
      <trkpt lat="45.69563" lon="4.56719">
        <ele>876.40002441406</ele>
        <time>2012-04-02T14:37:07.000Z</time>
      </trkpt>
      <trkpt lat="45.69563" lon="4.56722">
        <ele>876.59997558594</ele>
        <time>2012-04-02T14:37:16.000Z</time>
      </trkpt>
      <trkpt lat="45.69564" lon="4.56724">
        <ele>876.59997558594</ele>
        <time>2012-04-02T14:37:17.000Z</time>
      </trkpt>
      <trkpt lat="45.69565" lon="4.56727">
        <ele>876.79998779297</ele>
        <time>2012-04-02T14:37:19.000Z</time>
      </trkpt>
      <trkpt lat="45.69567" lon="4.56736">
        <ele>877.40002441406</ele>
        <time>2012-04-02T14:37:23.000Z</time>
      </trkpt>
      <trkpt lat="45.69567" lon="4.56738">
        <ele>877.59997558594</ele>
        <time>2012-04-02T14:37:24.000Z</time>
      </trkpt>
      <trkpt lat="45.69568" lon="4.56741">
        <ele>877.79998779297</ele>
        <time>2012-04-02T14:37:25.000Z</time>
      </trkpt>
      <trkpt lat="45.69574" lon="4.56759">
        <ele>879.40002441406</ele>
        <time>2012-04-02T14:37:36.000Z</time>
      </trkpt>
      <trkpt lat="45.6958" lon="4.56774">
        <ele>881</ele>
        <time>2012-04-02T14:37:41.000Z</time>
      </trkpt>
      <trkpt lat="45.69581" lon="4.56776">
        <ele>881.40002441406</ele>
        <time>2012-04-02T14:37:42.000Z</time>
      </trkpt>
      <trkpt lat="45.69582" lon="4.56779">
        <ele>881.59997558594</ele>
        <time>2012-04-02T14:37:43.000Z</time>
      </trkpt>
      <trkpt lat="45.69583" lon="4.56782">
        <ele>881.79998779297</ele>
        <time>2012-04-02T14:37:44.000Z</time>
      </trkpt>
      <trkpt lat="45.69584" lon="4.56784">
        <ele>882</ele>
        <time>2012-04-02T14:37:45.000Z</time>
      </trkpt>
      <trkpt lat="45.69586" lon="4.56786">
        <ele>882.20001220703</ele>
        <time>2012-04-02T14:37:46.000Z</time>
      </trkpt>
      <trkpt lat="45.69587" lon="4.56789">
        <ele>882.40002441406</ele>
        <time>2012-04-02T14:37:47.000Z</time>
      </trkpt>
      <trkpt lat="45.69596" lon="4.56808">
        <ele>883.59997558594</ele>
        <time>2012-04-02T14:37:52.000Z</time>
      </trkpt>
      <trkpt lat="45.69596" lon="4.56812">
        <ele>883.40002441406</ele>
        <time>2012-04-02T14:37:53.000Z</time>
      </trkpt>
      <trkpt lat="45.69597" lon="4.56817">
        <ele>883.40002441406</ele>
        <time>2012-04-02T14:37:54.000Z</time>
      </trkpt>
      <trkpt lat="45.69605" lon="4.5684">
        <ele>884</ele>
        <time>2012-04-02T14:37:59.000Z</time>
      </trkpt>
      <trkpt lat="45.69607" lon="4.56844">
        <ele>884</ele>
        <time>2012-04-02T14:38:00.000Z</time>
      </trkpt>
      <trkpt lat="45.69609" lon="4.56847">
        <ele>884.20001220703</ele>
        <time>2012-04-02T14:38:01.000Z</time>
      </trkpt>
      <trkpt lat="45.69628" lon="4.56883">
        <ele>884.79998779297</ele>
        <time>2012-04-02T14:38:10.000Z</time>
      </trkpt>
      <trkpt lat="45.69631" lon="4.56893">
        <ele>884.59997558594</ele>
        <time>2012-04-02T14:38:12.000Z</time>
      </trkpt>
      <trkpt lat="45.69633" lon="4.56898">
        <ele>884.59997558594</ele>
        <time>2012-04-02T14:38:13.000Z</time>
      </trkpt>
      <trkpt lat="45.69635" lon="4.56903">
        <ele>884.40002441406</ele>
        <time>2012-04-02T14:38:14.000Z</time>
      </trkpt>
      <trkpt lat="45.69637" lon="4.56908">
        <ele>884.40002441406</ele>
        <time>2012-04-02T14:38:15.000Z</time>
      </trkpt>
      <trkpt lat="45.69638" lon="4.56912">
        <ele>884.40002441406</ele>
        <time>2012-04-02T14:38:16.000Z</time>
      </trkpt>
      <trkpt lat="45.69639" lon="4.56917">
        <ele>884</ele>
        <time>2012-04-02T14:38:17.000Z</time>
      </trkpt>
      <trkpt lat="45.69641" lon="4.56923">
        <ele>883.59997558594</ele>
        <time>2012-04-02T14:38:18.000Z</time>
      </trkpt>
      <trkpt lat="45.69643" lon="4.5693">
        <ele>883</ele>
        <time>2012-04-02T14:38:19.000Z</time>
      </trkpt>
      <trkpt lat="45.69645" lon="4.56938">
        <ele>882.40002441406</ele>
        <time>2012-04-02T14:38:20.000Z</time>
      </trkpt>
      <trkpt lat="45.69647" lon="4.56945">
        <ele>881.59997558594</ele>
        <time>2012-04-02T14:38:21.000Z</time>
      </trkpt>
      <trkpt lat="45.69651" lon="4.56953">
        <ele>881.20001220703</ele>
        <time>2012-04-02T14:38:22.000Z</time>
      </trkpt>
      <trkpt lat="45.69655" lon="4.5696">
        <ele>880.79998779297</ele>
        <time>2012-04-02T14:38:23.000Z</time>
      </trkpt>
      <trkpt lat="45.69658" lon="4.56967">
        <ele>880.40002441406</ele>
        <time>2012-04-02T14:38:24.000Z</time>
      </trkpt>
      <trkpt lat="45.69661" lon="4.56971">
        <ele>880.20001220703</ele>
        <time>2012-04-02T14:38:25.000Z</time>
      </trkpt>
      <trkpt lat="45.69663" lon="4.56974">
        <ele>880.20001220703</ele>
        <time>2012-04-02T14:38:26.000Z</time>
      </trkpt>
      <trkpt lat="45.69665" lon="4.56975">
        <ele>880.20001220703</ele>
        <time>2012-04-02T14:38:27.000Z</time>
      </trkpt>
      <trkpt lat="45.69666" lon="4.56975">
        <ele>880.59997558594</ele>
        <time>2012-04-02T14:38:28.000Z</time>
      </trkpt>
      <trkpt lat="45.69668" lon="4.56975">
        <ele>880.59997558594</ele>
        <time>2012-04-02T14:38:29.000Z</time>
      </trkpt>
      <trkpt lat="45.6967" lon="4.56974">
        <ele>880.79998779297</ele>
        <time>2012-04-02T14:38:30.000Z</time>
      </trkpt>
      <trkpt lat="45.69685" lon="4.56966">
        <ele>882</ele>
        <time>2012-04-02T14:38:39.000Z</time>
      </trkpt>
      <trkpt lat="45.6969" lon="4.56966">
        <ele>882.20001220703</ele>
        <time>2012-04-02T14:38:43.000Z</time>
      </trkpt>
      <trkpt lat="45.69693" lon="4.56964">
        <ele>882.40002441406</ele>
        <time>2012-04-02T14:38:46.000Z</time>
      </trkpt>
      <trkpt lat="45.69694" lon="4.56963">
        <ele>882.59997558594</ele>
        <time>2012-04-02T14:38:47.000Z</time>
      </trkpt>
      <trkpt lat="45.69695" lon="4.56961">
        <ele>882.79998779297</ele>
        <time>2012-04-02T14:38:48.000Z</time>
      </trkpt>
      <trkpt lat="45.69697" lon="4.5696">
        <ele>883</ele>
        <time>2012-04-02T14:38:49.000Z</time>
      </trkpt>
      <trkpt lat="45.69698" lon="4.56959">
        <ele>883.20001220703</ele>
        <time>2012-04-02T14:38:50.000Z</time>
      </trkpt>
      <trkpt lat="45.697" lon="4.56958">
        <ele>883.40002441406</ele>
        <time>2012-04-02T14:38:51.000Z</time>
      </trkpt>
      <trkpt lat="45.69701" lon="4.56958">
        <ele>883.59997558594</ele>
        <time>2012-04-02T14:38:52.000Z</time>
      </trkpt>
      <trkpt lat="45.69713" lon="4.56954">
        <ele>884.20001220703</ele>
        <time>2012-04-02T14:39:04.000Z</time>
      </trkpt>
      <trkpt lat="45.69714" lon="4.56953">
        <ele>884.40002441406</ele>
        <time>2012-04-02T14:39:05.000Z</time>
      </trkpt>
      <trkpt lat="45.69715" lon="4.56953">
        <ele>884.40002441406</ele>
        <time>2012-04-02T14:39:06.000Z</time>
      </trkpt>
      <trkpt lat="45.69715" lon="4.56952">
        <ele>884.59997558594</ele>
        <time>2012-04-02T14:39:07.000Z</time>
      </trkpt>
      <trkpt lat="45.69718" lon="4.56944">
        <ele>886</ele>
        <time>2012-04-02T14:39:13.000Z</time>
      </trkpt>
      <trkpt lat="45.69718" lon="4.56942">
        <ele>886.20001220703</ele>
        <time>2012-04-02T14:39:14.000Z</time>
      </trkpt>
      <trkpt lat="45.69719" lon="4.5694">
        <ele>886.59997558594</ele>
        <time>2012-04-02T14:39:15.000Z</time>
      </trkpt>
      <trkpt lat="45.6972" lon="4.56938">
        <ele>886.79998779297</ele>
        <time>2012-04-02T14:39:16.000Z</time>
      </trkpt>
      <trkpt lat="45.6973" lon="4.56922">
        <ele>889.59997558594</ele>
        <time>2012-04-02T14:39:28.000Z</time>
      </trkpt>
      <trkpt lat="45.69739" lon="4.56906">
        <ele>892</ele>
        <time>2012-04-02T14:39:43.000Z</time>
      </trkpt>
      <trkpt lat="45.69743" lon="4.56901">
        <ele>892.59997558594</ele>
        <time>2012-04-02T14:39:47.000Z</time>
      </trkpt>
      <trkpt lat="45.69746" lon="4.56896">
        <ele>893.40002441406</ele>
        <time>2012-04-02T14:39:52.000Z</time>
      </trkpt>
      <trkpt lat="45.69753" lon="4.56884">
        <ele>894.20001220703</ele>
        <time>2012-04-02T14:40:01.000Z</time>
      </trkpt>
      <trkpt lat="45.69758" lon="4.56876">
        <ele>894.40002441406</ele>
        <time>2012-04-02T14:40:08.000Z</time>
      </trkpt>
      <trkpt lat="45.69758" lon="4.56874">
        <ele>894.40002441406</ele>
        <time>2012-04-02T14:40:09.000Z</time>
      </trkpt>
      <trkpt lat="45.69774" lon="4.56853">
        <ele>894.59997558594</ele>
        <time>2012-04-02T14:40:20.000Z</time>
      </trkpt>
      <trkpt lat="45.6978" lon="4.56842">
        <ele>895.40002441406</ele>
        <time>2012-04-02T14:40:26.000Z</time>
      </trkpt>
      <trkpt lat="45.69781" lon="4.56841">
        <ele>895.40002441406</ele>
        <time>2012-04-02T14:40:27.000Z</time>
      </trkpt>
      <trkpt lat="45.69793" lon="4.56825">
        <ele>896</ele>
        <time>2012-04-02T14:40:37.000Z</time>
      </trkpt>
      <trkpt lat="45.69794" lon="4.56823">
        <ele>896</ele>
        <time>2012-04-02T14:40:38.000Z</time>
      </trkpt>
      <trkpt lat="45.69803" lon="4.56808">
        <ele>896.59997558594</ele>
        <time>2012-04-02T14:40:48.000Z</time>
      </trkpt>
      <trkpt lat="45.69815" lon="4.56793">
        <ele>896.59997558594</ele>
        <time>2012-04-02T14:40:58.000Z</time>
      </trkpt>
      <trkpt lat="45.6982" lon="4.56784">
        <ele>896.79998779297</ele>
        <time>2012-04-02T14:41:02.000Z</time>
      </trkpt>
      <trkpt lat="45.69833" lon="4.56777">
        <ele>896.20001220703</ele>
        <time>2012-04-02T14:41:09.000Z</time>
      </trkpt>
      <trkpt lat="45.69854" lon="4.56762">
        <ele>893.59997558594</ele>
        <time>2012-04-02T14:41:17.000Z</time>
      </trkpt>
      <trkpt lat="45.69888" lon="4.56733">
        <ele>890.40002441406</ele>
        <time>2012-04-02T14:41:26.000Z</time>
      </trkpt>
      <trkpt lat="45.69902" lon="4.56708">
        <ele>890.40002441406</ele>
        <time>2012-04-02T14:41:31.000Z</time>
      </trkpt>
      <trkpt lat="45.69908" lon="4.56698">
        <ele>890.59997558594</ele>
        <time>2012-04-02T14:41:33.000Z</time>
      </trkpt>
      <trkpt lat="45.69911" lon="4.56691">
        <ele>890.79998779297</ele>
        <time>2012-04-02T14:41:34.000Z</time>
      </trkpt>
      <trkpt lat="45.69935" lon="4.56656">
        <ele>888.59997558594</ele>
        <time>2012-04-02T14:41:39.000Z</time>
      </trkpt>
      <trkpt lat="45.69952" lon="4.56625">
        <ele>886.40002441406</ele>
        <time>2012-04-02T14:41:42.000Z</time>
      </trkpt>
      <trkpt lat="45.69958" lon="4.56614">
        <ele>886</ele>
        <time>2012-04-02T14:41:43.000Z</time>
      </trkpt>
      <trkpt lat="45.69963" lon="4.56604">
        <ele>885.59997558594</ele>
        <time>2012-04-02T14:41:44.000Z</time>
      </trkpt>
      <trkpt lat="45.69976" lon="4.56587">
        <ele>885.40002441406</ele>
        <time>2012-04-02T14:41:46.000Z</time>
      </trkpt>
      <trkpt lat="45.69989" lon="4.56571">
        <ele>884.40002441406</ele>
        <time>2012-04-02T14:41:48.000Z</time>
      </trkpt>
      <trkpt lat="45.69994" lon="4.56561">
        <ele>884.20001220703</ele>
        <time>2012-04-02T14:41:49.000Z</time>
      </trkpt>
      <trkpt lat="45.69999" lon="4.56552">
        <ele>884.20001220703</ele>
        <time>2012-04-02T14:41:50.000Z</time>
      </trkpt>
      <trkpt lat="45.7001" lon="4.56532">
        <ele>883.79998779297</ele>
        <time>2012-04-02T14:41:53.000Z</time>
      </trkpt>
      <trkpt lat="45.70013" lon="4.56528">
        <ele>883.59997558594</ele>
        <time>2012-04-02T14:41:54.000Z</time>
      </trkpt>
      <trkpt lat="45.70015" lon="4.56527">
        <ele>883.40002441406</ele>
        <time>2012-04-02T14:41:55.000Z</time>
      </trkpt>
      <trkpt lat="45.70017" lon="4.56527">
        <ele>883.40002441406</ele>
        <time>2012-04-02T14:41:56.000Z</time>
      </trkpt>
      <trkpt lat="45.70019" lon="4.56528">
        <ele>883.20001220703</ele>
        <time>2012-04-02T14:41:57.000Z</time>
      </trkpt>
      <trkpt lat="45.70021" lon="4.56529">
        <ele>882.79998779297</ele>
        <time>2012-04-02T14:41:58.000Z</time>
      </trkpt>
      <trkpt lat="45.70023" lon="4.5653">
        <ele>882.40002441406</ele>
        <time>2012-04-02T14:41:59.000Z</time>
      </trkpt>
      <trkpt lat="45.70025" lon="4.56533">
        <ele>882</ele>
        <time>2012-04-02T14:42:00.000Z</time>
      </trkpt>
      <trkpt lat="45.70027" lon="4.56536">
        <ele>881.59997558594</ele>
        <time>2012-04-02T14:42:01.000Z</time>
      </trkpt>
      <trkpt lat="45.70031" lon="4.56542">
        <ele>880.59997558594</ele>
        <time>2012-04-02T14:42:02.000Z</time>
      </trkpt>
      <trkpt lat="45.70035" lon="4.56547">
        <ele>879.59997558594</ele>
        <time>2012-04-02T14:42:03.000Z</time>
      </trkpt>
      <trkpt lat="45.70039" lon="4.56551">
        <ele>878.59997558594</ele>
        <time>2012-04-02T14:42:04.000Z</time>
      </trkpt>
      <trkpt lat="45.70044" lon="4.56554">
        <ele>877.59997558594</ele>
        <time>2012-04-02T14:42:05.000Z</time>
      </trkpt>
      <trkpt lat="45.70048" lon="4.56557">
        <ele>876.59997558594</ele>
        <time>2012-04-02T14:42:06.000Z</time>
      </trkpt>
      <trkpt lat="45.70051" lon="4.56559">
        <ele>875.79998779297</ele>
        <time>2012-04-02T14:42:07.000Z</time>
      </trkpt>
      <trkpt lat="45.70056" lon="4.5656">
        <ele>874.79998779297</ele>
        <time>2012-04-02T14:42:08.000Z</time>
      </trkpt>
      <trkpt lat="45.70061" lon="4.56561">
        <ele>874</ele>
        <time>2012-04-02T14:42:09.000Z</time>
      </trkpt>
      <trkpt lat="45.70077" lon="4.56565">
        <ele>870.59997558594</ele>
        <time>2012-04-02T14:42:12.000Z</time>
      </trkpt>
      <trkpt lat="45.70082" lon="4.56566">
        <ele>869.59997558594</ele>
        <time>2012-04-02T14:42:13.000Z</time>
      </trkpt>
      <trkpt lat="45.70087" lon="4.56566">
        <ele>869.40002441406</ele>
        <time>2012-04-02T14:42:14.000Z</time>
      </trkpt>
      <trkpt lat="45.70092" lon="4.56565">
        <ele>869.59997558594</ele>
        <time>2012-04-02T14:42:15.000Z</time>
      </trkpt>
      <trkpt lat="45.70108" lon="4.56561">
        <ele>870.20001220703</ele>
        <time>2012-04-02T14:42:19.000Z</time>
      </trkpt>
      <trkpt lat="45.70114" lon="4.56562">
        <ele>870.20001220703</ele>
        <time>2012-04-02T14:42:20.000Z</time>
      </trkpt>
      <trkpt lat="45.70126" lon="4.56563">
        <ele>870</ele>
        <time>2012-04-02T14:42:22.000Z</time>
      </trkpt>
      <trkpt lat="45.70132" lon="4.56564">
        <ele>870</ele>
        <time>2012-04-02T14:42:23.000Z</time>
      </trkpt>
      <trkpt lat="45.70137" lon="4.56567">
        <ele>869.40002441406</ele>
        <time>2012-04-02T14:42:24.000Z</time>
      </trkpt>
      <trkpt lat="45.70141" lon="4.5657">
        <ele>868.79998779297</ele>
        <time>2012-04-02T14:42:25.000Z</time>
      </trkpt>
      <trkpt lat="45.70144" lon="4.56574">
        <ele>868.20001220703</ele>
        <time>2012-04-02T14:42:26.000Z</time>
      </trkpt>
      <trkpt lat="45.70147" lon="4.56577">
        <ele>867.79998779297</ele>
        <time>2012-04-02T14:42:27.000Z</time>
      </trkpt>
      <trkpt lat="45.70172" lon="4.56613">
        <ele>859.79998779297</ele>
        <time>2012-04-02T14:42:35.000Z</time>
      </trkpt>
      <trkpt lat="45.70176" lon="4.56619">
        <ele>858.79998779297</ele>
        <time>2012-04-02T14:42:36.000Z</time>
      </trkpt>
      <trkpt lat="45.70179" lon="4.56625">
        <ele>857.79998779297</ele>
        <time>2012-04-02T14:42:37.000Z</time>
      </trkpt>
      <trkpt lat="45.70183" lon="4.5663">
        <ele>856.79998779297</ele>
        <time>2012-04-02T14:42:38.000Z</time>
      </trkpt>
      <trkpt lat="45.70188" lon="4.56637">
        <ele>855.79998779297</ele>
        <time>2012-04-02T14:42:39.000Z</time>
      </trkpt>
      <trkpt lat="45.70193" lon="4.56643">
        <ele>855.20001220703</ele>
        <time>2012-04-02T14:42:40.000Z</time>
      </trkpt>
      <trkpt lat="45.702" lon="4.56647">
        <ele>855</ele>
        <time>2012-04-02T14:42:41.000Z</time>
      </trkpt>
      <trkpt lat="45.70207" lon="4.5665">
        <ele>855.59997558594</ele>
        <time>2012-04-02T14:42:42.000Z</time>
      </trkpt>
      <trkpt lat="45.70214" lon="4.56652">
        <ele>856.40002441406</ele>
        <time>2012-04-02T14:42:43.000Z</time>
      </trkpt>
      <trkpt lat="45.70222" lon="4.56655">
        <ele>857</ele>
        <time>2012-04-02T14:42:44.000Z</time>
      </trkpt>
      <trkpt lat="45.7023" lon="4.56658">
        <ele>857.40002441406</ele>
        <time>2012-04-02T14:42:45.000Z</time>
      </trkpt>
      <trkpt lat="45.70239" lon="4.56662">
        <ele>857.79998779297</ele>
        <time>2012-04-02T14:42:46.000Z</time>
      </trkpt>
      <trkpt lat="45.70248" lon="4.56666">
        <ele>858</ele>
        <time>2012-04-02T14:42:47.000Z</time>
      </trkpt>
      <trkpt lat="45.70256" lon="4.56672">
        <ele>858.59997558594</ele>
        <time>2012-04-02T14:42:48.000Z</time>
      </trkpt>
      <trkpt lat="45.70263" lon="4.5668">
        <ele>858.79998779297</ele>
        <time>2012-04-02T14:42:49.000Z</time>
      </trkpt>
      <trkpt lat="45.70269" lon="4.5669">
        <ele>858.20001220703</ele>
        <time>2012-04-02T14:42:50.000Z</time>
      </trkpt>
      <trkpt lat="45.70273" lon="4.56702">
        <ele>857.20001220703</ele>
        <time>2012-04-02T14:42:51.000Z</time>
      </trkpt>
      <trkpt lat="45.7028" lon="4.56724">
        <ele>854.59997558594</ele>
        <time>2012-04-02T14:42:53.000Z</time>
      </trkpt>
      <trkpt lat="45.70283" lon="4.56735">
        <ele>853</ele>
        <time>2012-04-02T14:42:54.000Z</time>
      </trkpt>
      <trkpt lat="45.70287" lon="4.56756">
        <ele>850</ele>
        <time>2012-04-02T14:42:56.000Z</time>
      </trkpt>
      <trkpt lat="45.7029" lon="4.56765">
        <ele>849.40002441406</ele>
        <time>2012-04-02T14:42:57.000Z</time>
      </trkpt>
      <trkpt lat="45.70295" lon="4.56774">
        <ele>849.59997558594</ele>
        <time>2012-04-02T14:42:58.000Z</time>
      </trkpt>
      <trkpt lat="45.70299" lon="4.56783">
        <ele>849.79998779297</ele>
        <time>2012-04-02T14:42:59.000Z</time>
      </trkpt>
      <trkpt lat="45.70304" lon="4.56792">
        <ele>849.79998779297</ele>
        <time>2012-04-02T14:43:00.000Z</time>
      </trkpt>
      <trkpt lat="45.70308" lon="4.56801">
        <ele>849.79998779297</ele>
        <time>2012-04-02T14:43:01.000Z</time>
      </trkpt>
      <trkpt lat="45.70312" lon="4.56808">
        <ele>850</ele>
        <time>2012-04-02T14:43:02.000Z</time>
      </trkpt>
      <trkpt lat="45.70315" lon="4.56816">
        <ele>849.59997558594</ele>
        <time>2012-04-02T14:43:03.000Z</time>
      </trkpt>
      <trkpt lat="45.70316" lon="4.56825">
        <ele>848.59997558594</ele>
        <time>2012-04-02T14:43:04.000Z</time>
      </trkpt>
      <trkpt lat="45.70318" lon="4.56835">
        <ele>847.59997558594</ele>
        <time>2012-04-02T14:43:05.000Z</time>
      </trkpt>
      <trkpt lat="45.70319" lon="4.56846">
        <ele>846.59997558594</ele>
        <time>2012-04-02T14:43:06.000Z</time>
      </trkpt>
      <trkpt lat="45.7032" lon="4.56857">
        <ele>845.79998779297</ele>
        <time>2012-04-02T14:43:07.000Z</time>
      </trkpt>
      <trkpt lat="45.7032" lon="4.56866">
        <ele>845</ele>
        <time>2012-04-02T14:43:08.000Z</time>
      </trkpt>
      <trkpt lat="45.70322" lon="4.56882">
        <ele>843.79998779297</ele>
        <time>2012-04-02T14:43:10.000Z</time>
      </trkpt>
      <trkpt lat="45.70324" lon="4.56896">
        <ele>843.20001220703</ele>
        <time>2012-04-02T14:43:12.000Z</time>
      </trkpt>
      <trkpt lat="45.70324" lon="4.56903">
        <ele>842.40002441406</ele>
        <time>2012-04-02T14:43:13.000Z</time>
      </trkpt>
      <trkpt lat="45.70325" lon="4.56911">
        <ele>841.79998779297</ele>
        <time>2012-04-02T14:43:14.000Z</time>
      </trkpt>
      <trkpt lat="45.70327" lon="4.5694">
        <ele>838.79998779297</ele>
        <time>2012-04-02T14:43:17.000Z</time>
      </trkpt>
      <trkpt lat="45.70335" lon="4.56992">
        <ele>834.59997558594</ele>
        <time>2012-04-02T14:43:21.000Z</time>
      </trkpt>
      <trkpt lat="45.70341" lon="4.57041">
        <ele>830.20001220703</ele>
        <time>2012-04-02T14:43:25.000Z</time>
      </trkpt>
      <trkpt lat="45.70344" lon="4.57052">
        <ele>829.40002441406</ele>
        <time>2012-04-02T14:43:26.000Z</time>
      </trkpt>
      <trkpt lat="45.70354" lon="4.57094">
        <ele>826.40002441406</ele>
        <time>2012-04-02T14:43:30.000Z</time>
      </trkpt>
      <trkpt lat="45.7036" lon="4.57129">
        <ele>823.79998779297</ele>
        <time>2012-04-02T14:43:33.000Z</time>
      </trkpt>
      <trkpt lat="45.70364" lon="4.57149">
        <ele>822.40002441406</ele>
        <time>2012-04-02T14:43:35.000Z</time>
      </trkpt>
      <trkpt lat="45.70365" lon="4.57155">
        <ele>822.20001220703</ele>
        <time>2012-04-02T14:43:36.000Z</time>
      </trkpt>
      <trkpt lat="45.70366" lon="4.57159">
        <ele>821.79998779297</ele>
        <time>2012-04-02T14:43:37.000Z</time>
      </trkpt>
      <trkpt lat="45.70367" lon="4.57162">
        <ele>821.59997558594</ele>
        <time>2012-04-02T14:43:38.000Z</time>
      </trkpt>
      <trkpt lat="45.70368" lon="4.57166">
        <ele>821.40002441406</ele>
        <time>2012-04-02T14:43:39.000Z</time>
      </trkpt>
      <trkpt lat="45.70368" lon="4.5717">
        <ele>821</ele>
        <time>2012-04-02T14:43:40.000Z</time>
      </trkpt>
      <trkpt lat="45.70368" lon="4.57175">
        <ele>820.40002441406</ele>
        <time>2012-04-02T14:43:41.000Z</time>
      </trkpt>
      <trkpt lat="45.70369" lon="4.57188">
        <ele>819</ele>
        <time>2012-04-02T14:43:43.000Z</time>
      </trkpt>
      <trkpt lat="45.70369" lon="4.57225">
        <ele>815</ele>
        <time>2012-04-02T14:43:47.000Z</time>
      </trkpt>
      <trkpt lat="45.70369" lon="4.57248">
        <ele>812.40002441406</ele>
        <time>2012-04-02T14:43:49.000Z</time>
      </trkpt>
      <trkpt lat="45.70368" lon="4.57293">
        <ele>807.59997558594</ele>
        <time>2012-04-02T14:43:53.000Z</time>
      </trkpt>
      <trkpt lat="45.70367" lon="4.57303">
        <ele>806.40002441406</ele>
        <time>2012-04-02T14:43:54.000Z</time>
      </trkpt>
      <trkpt lat="45.70361" lon="4.57371">
        <ele>800.20001220703</ele>
        <time>2012-04-02T14:44:00.000Z</time>
      </trkpt>
      <trkpt lat="45.7036" lon="4.57394">
        <ele>798.59997558594</ele>
        <time>2012-04-02T14:44:02.000Z</time>
      </trkpt>
      <trkpt lat="45.7036" lon="4.57405">
        <ele>798</ele>
        <time>2012-04-02T14:44:03.000Z</time>
      </trkpt>
      <trkpt lat="45.70361" lon="4.57416">
        <ele>797.40002441406</ele>
        <time>2012-04-02T14:44:04.000Z</time>
      </trkpt>
      <trkpt lat="45.70361" lon="4.57439">
        <ele>796</ele>
        <time>2012-04-02T14:44:06.000Z</time>
      </trkpt>
      <trkpt lat="45.70365" lon="4.57461">
        <ele>795.20001220703</ele>
        <time>2012-04-02T14:44:08.000Z</time>
      </trkpt>
      <trkpt lat="45.70368" lon="4.5747">
        <ele>795.20001220703</ele>
        <time>2012-04-02T14:44:09.000Z</time>
      </trkpt>
      <trkpt lat="45.7037" lon="4.57481">
        <ele>794.79998779297</ele>
        <time>2012-04-02T14:44:10.000Z</time>
      </trkpt>
      <trkpt lat="45.70375" lon="4.57509">
        <ele>793.40002441406</ele>
        <time>2012-04-02T14:44:13.000Z</time>
      </trkpt>
      <trkpt lat="45.70384" lon="4.57542">
        <ele>791</ele>
        <time>2012-04-02T14:44:17.000Z</time>
      </trkpt>
      <trkpt lat="45.70386" lon="4.5756">
        <ele>789.20001220703</ele>
        <time>2012-04-02T14:44:20.000Z</time>
      </trkpt>
      <trkpt lat="45.70392" lon="4.57579">
        <ele>788</ele>
        <time>2012-04-02T14:44:24.000Z</time>
      </trkpt>
      <trkpt lat="45.70398" lon="4.57596">
        <ele>787</ele>
        <time>2012-04-02T14:44:28.000Z</time>
      </trkpt>
      <trkpt lat="45.70401" lon="4.57601">
        <ele>786.79998779297</ele>
        <time>2012-04-02T14:44:29.000Z</time>
      </trkpt>
      <trkpt lat="45.70418" lon="4.57621">
        <ele>787</ele>
        <time>2012-04-02T14:44:33.000Z</time>
      </trkpt>
      <trkpt lat="45.70427" lon="4.5763">
        <ele>785.40002441406</ele>
        <time>2012-04-02T14:44:35.000Z</time>
      </trkpt>
      <trkpt lat="45.70433" lon="4.57639">
        <ele>784</ele>
        <time>2012-04-02T14:44:37.000Z</time>
      </trkpt>
      <trkpt lat="45.70435" lon="4.57643">
        <ele>783.40002441406</ele>
        <time>2012-04-02T14:44:38.000Z</time>
      </trkpt>
      <trkpt lat="45.70441" lon="4.57657">
        <ele>781.40002441406</ele>
        <time>2012-04-02T14:44:41.000Z</time>
      </trkpt>
      <trkpt lat="45.7045" lon="4.57674">
        <ele>779.59997558594</ele>
        <time>2012-04-02T14:44:44.000Z</time>
      </trkpt>
      <trkpt lat="45.70464" lon="4.577">
        <ele>777.79998779297</ele>
        <time>2012-04-02T14:44:49.000Z</time>
      </trkpt>
      <trkpt lat="45.70479" lon="4.57724">
        <ele>776.20001220703</ele>
        <time>2012-04-02T14:44:55.000Z</time>
      </trkpt>
      <trkpt lat="45.70482" lon="4.5773">
        <ele>775.79998779297</ele>
        <time>2012-04-02T14:44:56.000Z</time>
      </trkpt>
      <trkpt lat="45.70486" lon="4.57737">
        <ele>775.20001220703</ele>
        <time>2012-04-02T14:44:57.000Z</time>
      </trkpt>
      <trkpt lat="45.70516" lon="4.57802">
        <ele>768.20001220703</ele>
        <time>2012-04-02T14:45:04.000Z</time>
      </trkpt>
      <trkpt lat="45.7054" lon="4.57845">
        <ele>762.20001220703</ele>
        <time>2012-04-02T14:45:08.000Z</time>
      </trkpt>
      <trkpt lat="45.70554" lon="4.57866">
        <ele>759.40002441406</ele>
        <time>2012-04-02T14:45:10.000Z</time>
      </trkpt>
      <trkpt lat="45.70566" lon="4.57886">
        <ele>757</ele>
        <time>2012-04-02T14:45:12.000Z</time>
      </trkpt>
      <trkpt lat="45.70578" lon="4.57906">
        <ele>754.20001220703</ele>
        <time>2012-04-02T14:45:14.000Z</time>
      </trkpt>
      <trkpt lat="45.70597" lon="4.57941">
        <ele>751</ele>
        <time>2012-04-02T14:45:17.000Z</time>
      </trkpt>
      <trkpt lat="45.70609" lon="4.57967">
        <ele>749.40002441406</ele>
        <time>2012-04-02T14:45:19.000Z</time>
      </trkpt>
      <trkpt lat="45.70633" lon="4.5802">
        <ele>745.40002441406</ele>
        <time>2012-04-02T14:45:23.000Z</time>
      </trkpt>
      <trkpt lat="45.70649" lon="4.58064">
        <ele>742</ele>
        <time>2012-04-02T14:45:26.000Z</time>
      </trkpt>
      <trkpt lat="45.70663" lon="4.58112">
        <ele>739.59997558594</ele>
        <time>2012-04-02T14:45:29.000Z</time>
      </trkpt>
      <trkpt lat="45.70675" lon="4.5816">
        <ele>738.20001220703</ele>
        <time>2012-04-02T14:45:32.000Z</time>
      </trkpt>
      <trkpt lat="45.70687" lon="4.58208">
        <ele>733.79998779297</ele>
        <time>2012-04-02T14:45:35.000Z</time>
      </trkpt>
      <trkpt lat="45.70693" lon="4.58241">
        <ele>730.59997558594</ele>
        <time>2012-04-02T14:45:37.000Z</time>
      </trkpt>
      <trkpt lat="45.70694" lon="4.58258">
        <ele>729.40002441406</ele>
        <time>2012-04-02T14:45:38.000Z</time>
      </trkpt>
      <trkpt lat="45.70693" lon="4.58275">
        <ele>728.40002441406</ele>
        <time>2012-04-02T14:45:39.000Z</time>
      </trkpt>
      <trkpt lat="45.70693" lon="4.58291">
        <ele>727.40002441406</ele>
        <time>2012-04-02T14:45:40.000Z</time>
      </trkpt>
      <trkpt lat="45.70691" lon="4.58307">
        <ele>726.59997558594</ele>
        <time>2012-04-02T14:45:41.000Z</time>
      </trkpt>
      <trkpt lat="45.7069" lon="4.58323">
        <ele>726</ele>
        <time>2012-04-02T14:45:42.000Z</time>
      </trkpt>
      <trkpt lat="45.70685" lon="4.58353">
        <ele>724.79998779297</ele>
        <time>2012-04-02T14:45:44.000Z</time>
      </trkpt>
      <trkpt lat="45.70683" lon="4.58367">
        <ele>724.20001220703</ele>
        <time>2012-04-02T14:45:45.000Z</time>
      </trkpt>
      <trkpt lat="45.70681" lon="4.58381">
        <ele>723.40002441406</ele>
        <time>2012-04-02T14:45:46.000Z</time>
      </trkpt>
      <trkpt lat="45.70677" lon="4.58411">
        <ele>721.79998779297</ele>
        <time>2012-04-02T14:45:49.000Z</time>
      </trkpt>
      <trkpt lat="45.70671" lon="4.58466">
        <ele>720</ele>
        <time>2012-04-02T14:46:01.000Z</time>
      </trkpt>
      <trkpt lat="45.70667" lon="4.58481">
        <ele>719.79998779297</ele>
        <time>2012-04-02T14:46:05.000Z</time>
      </trkpt>
      <trkpt lat="45.70667" lon="4.58486">
        <ele>719.59997558594</ele>
        <time>2012-04-02T14:46:06.000Z</time>
      </trkpt>
      <trkpt lat="45.70677" lon="4.58524">
        <ele>717.40002441406</ele>
        <time>2012-04-02T14:46:14.000Z</time>
      </trkpt>
      <trkpt lat="45.7068" lon="4.58552">
        <ele>717</ele>
        <time>2012-04-02T14:46:19.000Z</time>
      </trkpt>
      <trkpt lat="45.7068" lon="4.58558">
        <ele>716.79998779297</ele>
        <time>2012-04-02T14:46:20.000Z</time>
      </trkpt>
      <trkpt lat="45.7068" lon="4.58564">
        <ele>716.79998779297</ele>
        <time>2012-04-02T14:46:21.000Z</time>
      </trkpt>
      <trkpt lat="45.70686" lon="4.58643">
        <ele>718.59997558594</ele>
        <time>2012-04-02T14:46:34.000Z</time>
      </trkpt>
      <trkpt lat="45.70685" lon="4.58648">
        <ele>719</ele>
        <time>2012-04-02T14:46:35.000Z</time>
      </trkpt>
      <trkpt lat="45.70683" lon="4.58652">
        <ele>719.59997558594</ele>
        <time>2012-04-02T14:46:36.000Z</time>
      </trkpt>
      <trkpt lat="45.7068" lon="4.58654">
        <ele>720.20001220703</ele>
        <time>2012-04-02T14:46:37.000Z</time>
      </trkpt>
      <trkpt lat="45.70678" lon="4.58655">
        <ele>720.59997558594</ele>
        <time>2012-04-02T14:46:38.000Z</time>
      </trkpt>
      <trkpt lat="45.70676" lon="4.58656">
        <ele>721</ele>
        <time>2012-04-02T14:46:39.000Z</time>
      </trkpt>
      <trkpt lat="45.70664" lon="4.58663">
        <ele>722.40002441406</ele>
        <time>2012-04-02T14:46:45.000Z</time>
      </trkpt>
      <trkpt lat="45.70664" lon="4.58693">
        <ele>723</ele>
        <time>2012-04-02T14:46:55.000Z</time>
      </trkpt>
      <trkpt lat="45.70665" lon="4.58735">
        <ele>723.59997558594</ele>
        <time>2012-04-02T14:47:07.000Z</time>
      </trkpt>
      <trkpt lat="45.7066" lon="4.58782">
        <ele>724.20001220703</ele>
        <time>2012-04-02T14:47:20.000Z</time>
      </trkpt>
      <trkpt lat="45.7064" lon="4.58825">
        <ele>723</ele>
        <time>2012-04-02T14:47:34.000Z</time>
      </trkpt>
      <trkpt lat="45.70625" lon="4.58878">
        <ele>720.59997558594</ele>
        <time>2012-04-02T14:47:43.000Z</time>
      </trkpt>
      <trkpt lat="45.70625" lon="4.58886">
        <ele>720.40002441406</ele>
        <time>2012-04-02T14:47:44.000Z</time>
      </trkpt>
      <trkpt lat="45.70624" lon="4.58901">
        <ele>720</ele>
        <time>2012-04-02T14:47:46.000Z</time>
      </trkpt>
      <trkpt lat="45.70626" lon="4.58921">
        <ele>720.20001220703</ele>
        <time>2012-04-02T14:47:49.000Z</time>
      </trkpt>
      <trkpt lat="45.70628" lon="4.58928">
        <ele>720.59997558594</ele>
        <time>2012-04-02T14:47:50.000Z</time>
      </trkpt>
      <trkpt lat="45.70629" lon="4.58934">
        <ele>721</ele>
        <time>2012-04-02T14:47:51.000Z</time>
      </trkpt>
      <trkpt lat="45.70631" lon="4.58941">
        <ele>721.20001220703</ele>
        <time>2012-04-02T14:47:52.000Z</time>
      </trkpt>
      <trkpt lat="45.70632" lon="4.58947">
        <ele>721.59997558594</ele>
        <time>2012-04-02T14:47:53.000Z</time>
      </trkpt>
      <trkpt lat="45.70634" lon="4.58953">
        <ele>721.79998779297</ele>
        <time>2012-04-02T14:47:54.000Z</time>
      </trkpt>
      <trkpt lat="45.70639" lon="4.5902">
        <ele>723.20001220703</ele>
        <time>2012-04-02T14:48:06.000Z</time>
      </trkpt>
      <trkpt lat="45.70638" lon="4.59039">
        <ele>723.40002441406</ele>
        <time>2012-04-02T14:48:09.000Z</time>
      </trkpt>
      <trkpt lat="45.70637" lon="4.59045">
        <ele>723.20001220703</ele>
        <time>2012-04-02T14:48:10.000Z</time>
      </trkpt>
      <trkpt lat="45.70636" lon="4.5905">
        <ele>723.20001220703</ele>
        <time>2012-04-02T14:48:11.000Z</time>
      </trkpt>
      <trkpt lat="45.70635" lon="4.59056">
        <ele>723.20001220703</ele>
        <time>2012-04-02T14:48:12.000Z</time>
      </trkpt>
      <trkpt lat="45.70634" lon="4.59061">
        <ele>723.20001220703</ele>
        <time>2012-04-02T14:48:13.000Z</time>
      </trkpt>
      <trkpt lat="45.70626" lon="4.59118">
        <ele>724</ele>
        <time>2012-04-02T14:48:25.000Z</time>
      </trkpt>
      <trkpt lat="45.70625" lon="4.59128">
        <ele>724.40002441406</ele>
        <time>2012-04-02T14:48:27.000Z</time>
      </trkpt>
      <trkpt lat="45.70624" lon="4.59133">
        <ele>724.40002441406</ele>
        <time>2012-04-02T14:48:28.000Z</time>
      </trkpt>
      <trkpt lat="45.70622" lon="4.59137">
        <ele>724.59997558594</ele>
        <time>2012-04-02T14:48:29.000Z</time>
      </trkpt>
      <trkpt lat="45.70602" lon="4.59171">
        <ele>726.20001220703</ele>
        <time>2012-04-02T14:48:37.000Z</time>
      </trkpt>
      <trkpt lat="45.70599" lon="4.59176">
        <ele>726.20001220703</ele>
        <time>2012-04-02T14:48:38.000Z</time>
      </trkpt>
      <trkpt lat="45.70585" lon="4.59199">
        <ele>727.20001220703</ele>
        <time>2012-04-02T14:48:43.000Z</time>
      </trkpt>
      <trkpt lat="45.70582" lon="4.59203">
        <ele>727.40002441406</ele>
        <time>2012-04-02T14:48:44.000Z</time>
      </trkpt>
      <trkpt lat="45.70548" lon="4.59257">
        <ele>727.59997558594</ele>
        <time>2012-04-02T14:48:57.000Z</time>
      </trkpt>
      <trkpt lat="45.70541" lon="4.59264">
        <ele>727.20001220703</ele>
        <time>2012-04-02T14:48:59.000Z</time>
      </trkpt>
      <trkpt lat="45.70504" lon="4.5929">
        <ele>729</ele>
        <time>2012-04-02T14:49:08.000Z</time>
      </trkpt>
      <trkpt lat="45.70462" lon="4.59324">
        <ele>729</ele>
        <time>2012-04-02T14:49:20.000Z</time>
      </trkpt>
      <trkpt lat="45.70448" lon="4.59354">
        <ele>729.79998779297</ele>
        <time>2012-04-02T14:49:28.000Z</time>
      </trkpt>
      <trkpt lat="45.70434" lon="4.594">
        <ele>731.59997558594</ele>
        <time>2012-04-02T14:49:39.000Z</time>
      </trkpt>
      <trkpt lat="45.7043" lon="4.59407">
        <ele>732</ele>
        <time>2012-04-02T14:49:42.000Z</time>
      </trkpt>
      <trkpt lat="45.7043" lon="4.59409">
        <ele>732.20001220703</ele>
        <time>2012-04-02T14:49:43.000Z</time>
      </trkpt>
      <trkpt lat="45.70428" lon="4.59412">
        <ele>732.40002441406</ele>
        <time>2012-04-02T14:49:44.000Z</time>
      </trkpt>
      <trkpt lat="45.70427" lon="4.59414">
        <ele>732.40002441406</ele>
        <time>2012-04-02T14:49:45.000Z</time>
      </trkpt>
      <trkpt lat="45.70426" lon="4.59416">
        <ele>732.59997558594</ele>
        <time>2012-04-02T14:49:46.000Z</time>
      </trkpt>
      <trkpt lat="45.70425" lon="4.59418">
        <ele>733</ele>
        <time>2012-04-02T14:49:47.000Z</time>
      </trkpt>
      <trkpt lat="45.70424" lon="4.59421">
        <ele>733.20001220703</ele>
        <time>2012-04-02T14:49:48.000Z</time>
      </trkpt>
      <trkpt lat="45.70423" lon="4.59423">
        <ele>733.59997558594</ele>
        <time>2012-04-02T14:49:49.000Z</time>
      </trkpt>
      <trkpt lat="45.70412" lon="4.59448">
        <ele>736.40002441406</ele>
        <time>2012-04-02T14:50:02.000Z</time>
      </trkpt>
      <trkpt lat="45.70406" lon="4.59464">
        <ele>737.20001220703</ele>
        <time>2012-04-02T14:50:11.000Z</time>
      </trkpt>
      <trkpt lat="45.70406" lon="4.59465">
        <ele>737.40002441406</ele>
        <time>2012-04-02T14:50:12.000Z</time>
      </trkpt>
      <trkpt lat="45.70401" lon="4.59493">
        <ele>740</ele>
        <time>2012-04-02T14:50:27.000Z</time>
      </trkpt>
      <trkpt lat="45.70394" lon="4.59528">
        <ele>743.40002441406</ele>
        <time>2012-04-02T14:50:42.000Z</time>
      </trkpt>
      <trkpt lat="45.70393" lon="4.59537">
        <ele>744.40002441406</ele>
        <time>2012-04-02T14:50:46.000Z</time>
      </trkpt>
      <trkpt lat="45.70393" lon="4.59539">
        <ele>744.59997558594</ele>
        <time>2012-04-02T14:50:47.000Z</time>
      </trkpt>
      <trkpt lat="45.70393" lon="4.59541">
        <ele>745</ele>
        <time>2012-04-02T14:50:48.000Z</time>
      </trkpt>
      <trkpt lat="45.70393" lon="4.59543">
        <ele>745.20001220703</ele>
        <time>2012-04-02T14:50:49.000Z</time>
      </trkpt>
      <trkpt lat="45.70393" lon="4.59546">
        <ele>745.40002441406</ele>
        <time>2012-04-02T14:50:50.000Z</time>
      </trkpt>
      <trkpt lat="45.70393" lon="4.59548">
        <ele>745.79998779297</ele>
        <time>2012-04-02T14:50:51.000Z</time>
      </trkpt>
      <trkpt lat="45.70393" lon="4.59549">
        <ele>746</ele>
        <time>2012-04-02T14:50:52.000Z</time>
      </trkpt>
      <trkpt lat="45.70392" lon="4.59551">
        <ele>746.20001220703</ele>
        <time>2012-04-02T14:50:53.000Z</time>
      </trkpt>
      <trkpt lat="45.70391" lon="4.59553">
        <ele>746.20001220703</ele>
        <time>2012-04-02T14:50:54.000Z</time>
      </trkpt>
      <trkpt lat="45.7039" lon="4.59556">
        <ele>746.40002441406</ele>
        <time>2012-04-02T14:50:55.000Z</time>
      </trkpt>
      <trkpt lat="45.70389" lon="4.59558">
        <ele>746.59997558594</ele>
        <time>2012-04-02T14:50:56.000Z</time>
      </trkpt>
      <trkpt lat="45.70385" lon="4.59579">
        <ele>749</ele>
        <time>2012-04-02T14:51:06.000Z</time>
      </trkpt>
      <trkpt lat="45.70388" lon="4.59585">
        <ele>750</ele>
        <time>2012-04-02T14:51:11.000Z</time>
      </trkpt>
      <trkpt lat="45.70389" lon="4.59586">
        <ele>750.40002441406</ele>
        <time>2012-04-02T14:51:12.000Z</time>
      </trkpt>
      <trkpt lat="45.7039" lon="4.59587">
        <ele>750.79998779297</ele>
        <time>2012-04-02T14:51:13.000Z</time>
      </trkpt>
      <trkpt lat="45.70391" lon="4.59589">
        <ele>751.20001220703</ele>
        <time>2012-04-02T14:51:14.000Z</time>
      </trkpt>
      <trkpt lat="45.70392" lon="4.5959">
        <ele>751.59997558594</ele>
        <time>2012-04-02T14:51:15.000Z</time>
      </trkpt>
      <trkpt lat="45.70399" lon="4.59594">
        <ele>753.20001220703</ele>
        <time>2012-04-02T14:51:22.000Z</time>
      </trkpt>
      <trkpt lat="45.70402" lon="4.59596">
        <ele>753.79998779297</ele>
        <time>2012-04-02T14:51:25.000Z</time>
      </trkpt>
      <trkpt lat="45.70405" lon="4.59597">
        <ele>754.59997558594</ele>
        <time>2012-04-02T14:51:27.000Z</time>
      </trkpt>
      <trkpt lat="45.70418" lon="4.59607">
        <ele>757.20001220703</ele>
        <time>2012-04-02T14:51:35.000Z</time>
      </trkpt>
      <trkpt lat="45.7042" lon="4.59609">
        <ele>757</ele>
        <time>2012-04-02T14:51:36.000Z</time>
      </trkpt>
      <trkpt lat="45.70422" lon="4.59611">
        <ele>757</ele>
        <time>2012-04-02T14:51:37.000Z</time>
      </trkpt>
      <trkpt lat="45.70424" lon="4.59614">
        <ele>757</ele>
        <time>2012-04-02T14:51:38.000Z</time>
      </trkpt>
      <trkpt lat="45.70425" lon="4.59617">
        <ele>757.20001220703</ele>
        <time>2012-04-02T14:51:39.000Z</time>
      </trkpt>
      <trkpt lat="45.70428" lon="4.5962">
        <ele>757</ele>
        <time>2012-04-02T14:51:40.000Z</time>
      </trkpt>
      <trkpt lat="45.7043" lon="4.59623">
        <ele>757</ele>
        <time>2012-04-02T14:51:41.000Z</time>
      </trkpt>
      <trkpt lat="45.70432" lon="4.59627">
        <ele>757</ele>
        <time>2012-04-02T14:51:42.000Z</time>
      </trkpt>
      <trkpt lat="45.70434" lon="4.59629">
        <ele>757</ele>
        <time>2012-04-02T14:51:43.000Z</time>
      </trkpt>
      <trkpt lat="45.70435" lon="4.59632">
        <ele>757.20001220703</ele>
        <time>2012-04-02T14:51:44.000Z</time>
      </trkpt>
      <trkpt lat="45.70437" lon="4.59636">
        <ele>757.20001220703</ele>
        <time>2012-04-02T14:51:45.000Z</time>
      </trkpt>
      <trkpt lat="45.70439" lon="4.59641">
        <ele>757.40002441406</ele>
        <time>2012-04-02T14:51:46.000Z</time>
      </trkpt>
      <trkpt lat="45.70441" lon="4.59647">
        <ele>757.59997558594</ele>
        <time>2012-04-02T14:51:47.000Z</time>
      </trkpt>
      <trkpt lat="45.70445" lon="4.59653">
        <ele>757.59997558594</ele>
        <time>2012-04-02T14:51:48.000Z</time>
      </trkpt>
      <trkpt lat="45.70448" lon="4.5966">
        <ele>757.59997558594</ele>
        <time>2012-04-02T14:51:49.000Z</time>
      </trkpt>
      <trkpt lat="45.70451" lon="4.59667">
        <ele>757.79998779297</ele>
        <time>2012-04-02T14:51:50.000Z</time>
      </trkpt>
      <trkpt lat="45.70454" lon="4.59674">
        <ele>758</ele>
        <time>2012-04-02T14:51:51.000Z</time>
      </trkpt>
      <trkpt lat="45.70457" lon="4.59687">
        <ele>759</ele>
        <time>2012-04-02T14:51:53.000Z</time>
      </trkpt>
      <trkpt lat="45.70457" lon="4.59693">
        <ele>759.40002441406</ele>
        <time>2012-04-02T14:51:54.000Z</time>
      </trkpt>
      <trkpt lat="45.70466" lon="4.59741">
        <ele>763.20001220703</ele>
        <time>2012-04-02T14:52:03.000Z</time>
      </trkpt>
      <trkpt lat="45.70475" lon="4.59782">
        <ele>764</ele>
        <time>2012-04-02T14:52:13.000Z</time>
      </trkpt>
      <trkpt lat="45.70476" lon="4.59786">
        <ele>764</ele>
        <time>2012-04-02T14:52:14.000Z</time>
      </trkpt>
      <trkpt lat="45.70477" lon="4.5979">
        <ele>764.20001220703</ele>
        <time>2012-04-02T14:52:15.000Z</time>
      </trkpt>
      <trkpt lat="45.70477" lon="4.59793">
        <ele>764.40002441406</ele>
        <time>2012-04-02T14:52:16.000Z</time>
      </trkpt>
      <trkpt lat="45.70477" lon="4.59796">
        <ele>764.59997558594</ele>
        <time>2012-04-02T14:52:17.000Z</time>
      </trkpt>
      <trkpt lat="45.70477" lon="4.598">
        <ele>764.79998779297</ele>
        <time>2012-04-02T14:52:18.000Z</time>
      </trkpt>
      <trkpt lat="45.70477" lon="4.59803">
        <ele>765.20001220703</ele>
        <time>2012-04-02T14:52:19.000Z</time>
      </trkpt>
      <trkpt lat="45.70477" lon="4.59807">
        <ele>765.40002441406</ele>
        <time>2012-04-02T14:52:20.000Z</time>
      </trkpt>
      <trkpt lat="45.70478" lon="4.59811">
        <ele>765.40002441406</ele>
        <time>2012-04-02T14:52:21.000Z</time>
      </trkpt>
      <trkpt lat="45.70478" lon="4.59814">
        <ele>765.59997558594</ele>
        <time>2012-04-02T14:52:22.000Z</time>
      </trkpt>
      <trkpt lat="45.7048" lon="4.59817">
        <ele>765.40002441406</ele>
        <time>2012-04-02T14:52:23.000Z</time>
      </trkpt>
      <trkpt lat="45.7048" lon="4.59821">
        <ele>765.40002441406</ele>
        <time>2012-04-02T14:52:24.000Z</time>
      </trkpt>
      <trkpt lat="45.70481" lon="4.59825">
        <ele>765.59997558594</ele>
        <time>2012-04-02T14:52:25.000Z</time>
      </trkpt>
      <trkpt lat="45.70481" lon="4.59828">
        <ele>765.59997558594</ele>
        <time>2012-04-02T14:52:26.000Z</time>
      </trkpt>
      <trkpt lat="45.7048" lon="4.59868">
        <ele>766</ele>
        <time>2012-04-02T14:52:35.000Z</time>
      </trkpt>
      <trkpt lat="45.70475" lon="4.59925">
        <ele>766.79998779297</ele>
        <time>2012-04-02T14:52:45.000Z</time>
      </trkpt>
      <trkpt lat="45.70473" lon="4.59931">
        <ele>767.40002441406</ele>
        <time>2012-04-02T14:52:46.000Z</time>
      </trkpt>
      <trkpt lat="45.70467" lon="4.59947">
        <ele>769.20001220703</ele>
        <time>2012-04-02T14:52:49.000Z</time>
      </trkpt>
      <trkpt lat="45.70454" lon="4.60002">
        <ele>773.59997558594</ele>
        <time>2012-04-02T14:52:59.000Z</time>
      </trkpt>
      <trkpt lat="45.70447" lon="4.60029">
        <ele>775.40002441406</ele>
        <time>2012-04-02T14:53:04.000Z</time>
      </trkpt>
      <trkpt lat="45.70447" lon="4.60036">
        <ele>775.40002441406</ele>
        <time>2012-04-02T14:53:05.000Z</time>
      </trkpt>
      <trkpt lat="45.70444" lon="4.60072">
        <ele>775.40002441406</ele>
        <time>2012-04-02T14:53:10.000Z</time>
      </trkpt>
      <trkpt lat="45.70443" lon="4.6008">
        <ele>775.59997558594</ele>
        <time>2012-04-02T14:53:11.000Z</time>
      </trkpt>
      <trkpt lat="45.70442" lon="4.60095">
        <ele>776</ele>
        <time>2012-04-02T14:53:13.000Z</time>
      </trkpt>
      <trkpt lat="45.70442" lon="4.60115">
        <ele>775.59997558594</ele>
        <time>2012-04-02T14:53:16.000Z</time>
      </trkpt>
      <trkpt lat="45.70443" lon="4.60122">
        <ele>775.20001220703</ele>
        <time>2012-04-02T14:53:17.000Z</time>
      </trkpt>
      <trkpt lat="45.70443" lon="4.60129">
        <ele>775</ele>
        <time>2012-04-02T14:53:18.000Z</time>
      </trkpt>
      <trkpt lat="45.70444" lon="4.60136">
        <ele>774.59997558594</ele>
        <time>2012-04-02T14:53:19.000Z</time>
      </trkpt>
      <trkpt lat="45.70444" lon="4.60143">
        <ele>774.40002441406</ele>
        <time>2012-04-02T14:53:20.000Z</time>
      </trkpt>
      <trkpt lat="45.70445" lon="4.60152">
        <ele>774.20001220703</ele>
        <time>2012-04-02T14:53:21.000Z</time>
      </trkpt>
      <trkpt lat="45.70445" lon="4.6016">
        <ele>774.20001220703</ele>
        <time>2012-04-02T14:53:22.000Z</time>
      </trkpt>
      <trkpt lat="45.70446" lon="4.60225">
        <ele>775.79998779297</ele>
        <time>2012-04-02T14:53:32.000Z</time>
      </trkpt>
      <trkpt lat="45.7045" lon="4.6027">
        <ele>777.20001220703</ele>
        <time>2012-04-02T14:53:43.000Z</time>
      </trkpt>
      <trkpt lat="45.70458" lon="4.60311">
        <ele>778</ele>
        <time>2012-04-02T14:53:54.000Z</time>
      </trkpt>
      <trkpt lat="45.70459" lon="4.60314">
        <ele>777.59997558594</ele>
        <time>2012-04-02T14:53:55.000Z</time>
      </trkpt>
      <trkpt lat="45.70461" lon="4.60317">
        <ele>777.40002441406</ele>
        <time>2012-04-02T14:53:56.000Z</time>
      </trkpt>
      <trkpt lat="45.70462" lon="4.6032">
        <ele>777.20001220703</ele>
        <time>2012-04-02T14:53:57.000Z</time>
      </trkpt>
      <trkpt lat="45.70463" lon="4.60323">
        <ele>777.20001220703</ele>
        <time>2012-04-02T14:53:58.000Z</time>
      </trkpt>
      <trkpt lat="45.70466" lon="4.60363">
        <ele>778.79998779297</ele>
        <time>2012-04-02T14:54:10.000Z</time>
      </trkpt>
      <trkpt lat="45.70469" lon="4.60386">
        <ele>779.40002441406</ele>
        <time>2012-04-02T14:54:17.000Z</time>
      </trkpt>
      <trkpt lat="45.70474" lon="4.60401">
        <ele>778.59997558594</ele>
        <time>2012-04-02T14:54:22.000Z</time>
      </trkpt>
      <trkpt lat="45.70475" lon="4.60405">
        <ele>778.40002441406</ele>
        <time>2012-04-02T14:54:23.000Z</time>
      </trkpt>
      <trkpt lat="45.70476" lon="4.6041">
        <ele>778.59997558594</ele>
        <time>2012-04-02T14:54:24.000Z</time>
      </trkpt>
      <trkpt lat="45.70483" lon="4.60471">
        <ele>775.79998779297</ele>
        <time>2012-04-02T14:54:36.000Z</time>
      </trkpt>
      <trkpt lat="45.7049" lon="4.60513">
        <ele>772.79998779297</ele>
        <time>2012-04-02T14:54:45.000Z</time>
      </trkpt>
      <trkpt lat="45.70483" lon="4.60569">
        <ele>774</ele>
        <time>2012-04-02T14:54:57.000Z</time>
      </trkpt>
      <trkpt lat="45.70477" lon="4.60597">
        <ele>774.40002441406</ele>
        <time>2012-04-02T14:55:06.000Z</time>
      </trkpt>
      <trkpt lat="45.70474" lon="4.60614">
        <ele>773</ele>
        <time>2012-04-02T14:55:12.000Z</time>
      </trkpt>
      <trkpt lat="45.70472" lon="4.60622">
        <ele>772.59997558594</ele>
        <time>2012-04-02T14:55:15.000Z</time>
      </trkpt>
      <trkpt lat="45.70451" lon="4.60648">
        <ele>775.59997558594</ele>
        <time>2012-04-02T14:55:25.000Z</time>
      </trkpt>
      <trkpt lat="45.7044" lon="4.60662">
        <ele>776.59997558594</ele>
        <time>2012-04-02T14:55:29.000Z</time>
      </trkpt>
      <trkpt lat="45.70414" lon="4.60694">
        <ele>776.20001220703</ele>
        <time>2012-04-02T14:55:35.000Z</time>
      </trkpt>
      <trkpt lat="45.70406" lon="4.60701">
        <ele>775.59997558594</ele>
        <time>2012-04-02T14:55:37.000Z</time>
      </trkpt>
      <trkpt lat="45.70401" lon="4.60703">
        <ele>775.59997558594</ele>
        <time>2012-04-02T14:55:38.000Z</time>
      </trkpt>
      <trkpt lat="45.70397" lon="4.60705">
        <ele>775.59997558594</ele>
        <time>2012-04-02T14:55:39.000Z</time>
      </trkpt>
      <trkpt lat="45.70389" lon="4.6071">
        <ele>775.40002441406</ele>
        <time>2012-04-02T14:55:41.000Z</time>
      </trkpt>
      <trkpt lat="45.70384" lon="4.60712">
        <ele>775.20001220703</ele>
        <time>2012-04-02T14:55:42.000Z</time>
      </trkpt>
      <trkpt lat="45.7038" lon="4.60713">
        <ele>775.59997558594</ele>
        <time>2012-04-02T14:55:43.000Z</time>
      </trkpt>
      <trkpt lat="45.70376" lon="4.60714">
        <ele>776</ele>
        <time>2012-04-02T14:55:44.000Z</time>
      </trkpt>
      <trkpt lat="45.70372" lon="4.60716">
        <ele>776</ele>
        <time>2012-04-02T14:55:45.000Z</time>
      </trkpt>
      <trkpt lat="45.70368" lon="4.60717">
        <ele>776</ele>
        <time>2012-04-02T14:55:46.000Z</time>
      </trkpt>
      <trkpt lat="45.70366" lon="4.60719">
        <ele>775.59997558594</ele>
        <time>2012-04-02T14:55:47.000Z</time>
      </trkpt>
      <trkpt lat="45.70362" lon="4.6072">
        <ele>776</ele>
        <time>2012-04-02T14:55:48.000Z</time>
      </trkpt>
      <trkpt lat="45.70359" lon="4.6072">
        <ele>776.40002441406</ele>
        <time>2012-04-02T14:55:49.000Z</time>
      </trkpt>
      <trkpt lat="45.70354" lon="4.60721">
        <ele>776.40002441406</ele>
        <time>2012-04-02T14:55:50.000Z</time>
      </trkpt>
      <trkpt lat="45.7035" lon="4.60723">
        <ele>776.40002441406</ele>
        <time>2012-04-02T14:55:51.000Z</time>
      </trkpt>
      <trkpt lat="45.7031" lon="4.60735">
        <ele>775</ele>
        <time>2012-04-02T14:56:01.000Z</time>
      </trkpt>
      <trkpt lat="45.70288" lon="4.60736">
        <ele>775.20001220703</ele>
        <time>2012-04-02T14:56:05.000Z</time>
      </trkpt>
      <trkpt lat="45.70284" lon="4.60736">
        <ele>775.40002441406</ele>
        <time>2012-04-02T14:56:06.000Z</time>
      </trkpt>
      <trkpt lat="45.70279" lon="4.60736">
        <ele>775.40002441406</ele>
        <time>2012-04-02T14:56:07.000Z</time>
      </trkpt>
      <trkpt lat="45.70241" lon="4.60741">
        <ele>775</ele>
        <time>2012-04-02T14:56:18.000Z</time>
      </trkpt>
      <trkpt lat="45.70236" lon="4.60742">
        <ele>775</ele>
        <time>2012-04-02T14:56:20.000Z</time>
      </trkpt>
      <trkpt lat="45.70234" lon="4.60743">
        <ele>774.79998779297</ele>
        <time>2012-04-02T14:56:21.000Z</time>
      </trkpt>
      <trkpt lat="45.70231" lon="4.60743">
        <ele>774.59997558594</ele>
        <time>2012-04-02T14:56:22.000Z</time>
      </trkpt>
      <trkpt lat="45.70229" lon="4.60744">
        <ele>774.59997558594</ele>
        <time>2012-04-02T14:56:23.000Z</time>
      </trkpt>
      <trkpt lat="45.70227" lon="4.60744">
        <ele>774.59997558594</ele>
        <time>2012-04-02T14:56:24.000Z</time>
      </trkpt>
      <trkpt lat="45.70224" lon="4.60744">
        <ele>774.59997558594</ele>
        <time>2012-04-02T14:56:25.000Z</time>
      </trkpt>
      <trkpt lat="45.70222" lon="4.60744">
        <ele>774.59997558594</ele>
        <time>2012-04-02T14:56:26.000Z</time>
      </trkpt>
      <trkpt lat="45.70203" lon="4.60746">
        <ele>774.59997558594</ele>
        <time>2012-04-02T14:56:33.000Z</time>
      </trkpt>
      <trkpt lat="45.70182" lon="4.60749">
        <ele>774.59997558594</ele>
        <time>2012-04-02T14:56:41.000Z</time>
      </trkpt>
      <trkpt lat="45.70181" lon="4.6075">
        <ele>774.59997558594</ele>
        <time>2012-04-02T14:56:42.000Z</time>
      </trkpt>
      <trkpt lat="45.70179" lon="4.60752">
        <ele>774.79998779297</ele>
        <time>2012-04-02T14:56:43.000Z</time>
      </trkpt>
      <trkpt lat="45.70177" lon="4.60754">
        <ele>774.79998779297</ele>
        <time>2012-04-02T14:56:44.000Z</time>
      </trkpt>
      <trkpt lat="45.70175" lon="4.60755">
        <ele>775</ele>
        <time>2012-04-02T14:56:45.000Z</time>
      </trkpt>
      <trkpt lat="45.70146" lon="4.60754">
        <ele>771</ele>
        <time>2012-04-02T14:56:55.000Z</time>
      </trkpt>
      <trkpt lat="45.70117" lon="4.6075">
        <ele>765</ele>
        <time>2012-04-02T14:57:05.000Z</time>
      </trkpt>
      <trkpt lat="45.70113" lon="4.60749">
        <ele>764.20001220703</ele>
        <time>2012-04-02T14:57:11.000Z</time>
      </trkpt>
      <trkpt lat="45.70113" lon="4.60749">
        <ele>764</ele>
        <time>2012-04-02T14:57:21.000Z</time>
      </trkpt>
      <trkpt lat="45.70112" lon="4.60749">
        <ele>763.79998779297</ele>
        <time>2012-04-02T14:57:52.000Z</time>
      </trkpt>
      <trkpt lat="45.70112" lon="4.6075">
        <ele>763.79998779297</ele>
        <time>2012-04-02T14:58:18.000Z</time>
      </trkpt>
      <trkpt lat="45.70112" lon="4.60751">
        <ele>764</ele>
        <time>2012-04-02T14:58:44.000Z</time>
      </trkpt>
      <trkpt lat="45.70112" lon="4.6075">
        <ele>763.79998779297</ele>
        <time>2012-04-02T14:59:11.000Z</time>
      </trkpt>
      <trkpt lat="45.70112" lon="4.60751">
        <ele>764</ele>
        <time>2012-04-02T14:59:43.000Z</time>
      </trkpt>
      <trkpt lat="45.70113" lon="4.60751">
        <ele>764</ele>
        <time>2012-04-02T15:00:16.000Z</time>
      </trkpt>
      <trkpt lat="45.70113" lon="4.6075">
        <ele>764</ele>
        <time>2012-04-02T15:00:50.000Z</time>
      </trkpt>
      <trkpt lat="45.70112" lon="4.60749">
        <ele>763.79998779297</ele>
        <time>2012-04-02T15:01:19.000Z</time>
      </trkpt>
      <trkpt lat="45.70113" lon="4.60749">
        <ele>764</ele>
        <time>2012-04-02T15:01:29.000Z</time>
      </trkpt>
      <trkpt lat="45.70113" lon="4.60749">
        <ele>764.20001220703</ele>
        <time>2012-04-02T15:01:55.000Z</time>
      </trkpt>
      <trkpt lat="45.70113" lon="4.60748">
        <ele>764</ele>
        <time>2012-04-02T15:02:06.000Z</time>
      </trkpt>
      <trkpt lat="45.70114" lon="4.60748">
        <ele>764.40002441406</ele>
        <time>2012-04-02T15:02:40.000Z</time>
      </trkpt>
      <trkpt lat="45.70114" lon="4.60744">
        <ele>764.40002441406</ele>
        <time>2012-04-02T15:02:51.000Z</time>
      </trkpt>
      <trkpt lat="45.70115" lon="4.60742">
        <ele>764.59997558594</ele>
        <time>2012-04-02T15:03:06.000Z</time>
      </trkpt>
      <trkpt lat="45.70114" lon="4.60742">
        <ele>764.40002441406</ele>
        <time>2012-04-02T15:03:13.000Z</time>
      </trkpt>
      <trkpt lat="45.70119" lon="4.60734">
        <ele>765.59997558594</ele>
        <time>2012-04-02T15:03:17.000Z</time>
      </trkpt>
      <trkpt lat="45.70127" lon="4.60726">
        <ele>767.20001220703</ele>
        <time>2012-04-02T15:03:20.000Z</time>
      </trkpt>
      <trkpt lat="45.70139" lon="4.60744">
        <ele>769.59997558594</ele>
        <time>2012-04-02T15:03:28.000Z</time>
      </trkpt>
      <trkpt lat="45.70159" lon="4.60758">
        <ele>773.79998779297</ele>
        <time>2012-04-02T15:03:38.000Z</time>
      </trkpt>
      <trkpt lat="45.70167" lon="4.60755">
        <ele>775.20001220703</ele>
        <time>2012-04-02T15:03:42.000Z</time>
      </trkpt>
      <trkpt lat="45.7018" lon="4.60758">
        <ele>774.79998779297</ele>
        <time>2012-04-02T15:03:52.000Z</time>
      </trkpt>
      <trkpt lat="45.70188" lon="4.60758">
        <ele>774.59997558594</ele>
        <time>2012-04-02T15:04:02.000Z</time>
      </trkpt>
      <trkpt lat="45.70215" lon="4.60758">
        <ele>773.79998779297</ele>
        <time>2012-04-02T15:04:12.000Z</time>
      </trkpt>
      <trkpt lat="45.70222" lon="4.60759">
        <ele>773.59997558594</ele>
        <time>2012-04-02T15:04:14.000Z</time>
      </trkpt>
      <trkpt lat="45.70229" lon="4.60763">
        <ele>773.20001220703</ele>
        <time>2012-04-02T15:04:16.000Z</time>
      </trkpt>
      <trkpt lat="45.70232" lon="4.60767">
        <ele>773</ele>
        <time>2012-04-02T15:04:17.000Z</time>
      </trkpt>
      <trkpt lat="45.70235" lon="4.6077">
        <ele>773</ele>
        <time>2012-04-02T15:04:18.000Z</time>
      </trkpt>
      <trkpt lat="45.70237" lon="4.60773">
        <ele>772.79998779297</ele>
        <time>2012-04-02T15:04:19.000Z</time>
      </trkpt>
      <trkpt lat="45.70238" lon="4.60776">
        <ele>772.59997558594</ele>
        <time>2012-04-02T15:04:20.000Z</time>
      </trkpt>
      <trkpt lat="45.7024" lon="4.6078">
        <ele>772.40002441406</ele>
        <time>2012-04-02T15:04:21.000Z</time>
      </trkpt>
      <trkpt lat="45.70243" lon="4.60789">
        <ele>772</ele>
        <time>2012-04-02T15:04:23.000Z</time>
      </trkpt>
      <trkpt lat="45.70247" lon="4.60792">
        <ele>771.59997558594</ele>
        <time>2012-04-02T15:04:24.000Z</time>
      </trkpt>
      <trkpt lat="45.7025" lon="4.60795">
        <ele>771.40002441406</ele>
        <time>2012-04-02T15:04:25.000Z</time>
      </trkpt>
      <trkpt lat="45.70252" lon="4.60798">
        <ele>770.79998779297</ele>
        <time>2012-04-02T15:04:26.000Z</time>
      </trkpt>
      <trkpt lat="45.70255" lon="4.60801">
        <ele>770.20001220703</ele>
        <time>2012-04-02T15:04:27.000Z</time>
      </trkpt>
      <trkpt lat="45.70257" lon="4.60805">
        <ele>769.59997558594</ele>
        <time>2012-04-02T15:04:28.000Z</time>
      </trkpt>
      <trkpt lat="45.70259" lon="4.60808">
        <ele>769</ele>
        <time>2012-04-02T15:04:29.000Z</time>
      </trkpt>
      <trkpt lat="45.7026" lon="4.60811">
        <ele>768.40002441406</ele>
        <time>2012-04-02T15:04:30.000Z</time>
      </trkpt>
      <trkpt lat="45.70261" lon="4.60814">
        <ele>768.20001220703</ele>
        <time>2012-04-02T15:04:31.000Z</time>
      </trkpt>
      <trkpt lat="45.70262" lon="4.60817">
        <ele>767.59997558594</ele>
        <time>2012-04-02T15:04:32.000Z</time>
      </trkpt>
      <trkpt lat="45.70263" lon="4.60821">
        <ele>767</ele>
        <time>2012-04-02T15:04:33.000Z</time>
      </trkpt>
      <trkpt lat="45.70265" lon="4.60825">
        <ele>766.20001220703</ele>
        <time>2012-04-02T15:04:34.000Z</time>
      </trkpt>
      <trkpt lat="45.70268" lon="4.60832">
        <ele>764.79998779297</ele>
        <time>2012-04-02T15:04:36.000Z</time>
      </trkpt>
      <trkpt lat="45.70269" lon="4.60835">
        <ele>764.40002441406</ele>
        <time>2012-04-02T15:04:37.000Z</time>
      </trkpt>
      <trkpt lat="45.7027" lon="4.60838">
        <ele>764.20001220703</ele>
        <time>2012-04-02T15:04:38.000Z</time>
      </trkpt>
      <trkpt lat="45.70271" lon="4.6084">
        <ele>763.79998779297</ele>
        <time>2012-04-02T15:04:39.000Z</time>
      </trkpt>
      <trkpt lat="45.70273" lon="4.60843">
        <ele>763.20001220703</ele>
        <time>2012-04-02T15:04:40.000Z</time>
      </trkpt>
      <trkpt lat="45.70274" lon="4.60846">
        <ele>763</ele>
        <time>2012-04-02T15:04:41.000Z</time>
      </trkpt>
      <trkpt lat="45.70275" lon="4.60849">
        <ele>762.59997558594</ele>
        <time>2012-04-02T15:04:42.000Z</time>
      </trkpt>
      <trkpt lat="45.70276" lon="4.60852">
        <ele>762.40002441406</ele>
        <time>2012-04-02T15:04:43.000Z</time>
      </trkpt>
      <trkpt lat="45.70276" lon="4.60854">
        <ele>762.40002441406</ele>
        <time>2012-04-02T15:04:44.000Z</time>
      </trkpt>
      <trkpt lat="45.70277" lon="4.60856">
        <ele>762.20001220703</ele>
        <time>2012-04-02T15:04:45.000Z</time>
      </trkpt>
      <trkpt lat="45.70278" lon="4.60859">
        <ele>761.79998779297</ele>
        <time>2012-04-02T15:04:46.000Z</time>
      </trkpt>
      <trkpt lat="45.70279" lon="4.60861">
        <ele>761.59997558594</ele>
        <time>2012-04-02T15:04:47.000Z</time>
      </trkpt>
      <trkpt lat="45.70279" lon="4.60863">
        <ele>761.40002441406</ele>
        <time>2012-04-02T15:04:48.000Z</time>
      </trkpt>
      <trkpt lat="45.70279" lon="4.60864">
        <ele>761.40002441406</ele>
        <time>2012-04-02T15:04:49.000Z</time>
      </trkpt>
      <trkpt lat="45.7028" lon="4.60868">
        <ele>761.20001220703</ele>
        <time>2012-04-02T15:04:50.000Z</time>
      </trkpt>
      <trkpt lat="45.70282" lon="4.60872">
        <ele>760.59997558594</ele>
        <time>2012-04-02T15:04:51.000Z</time>
      </trkpt>
      <trkpt lat="45.70283" lon="4.60875">
        <ele>760</ele>
        <time>2012-04-02T15:04:52.000Z</time>
      </trkpt>
      <trkpt lat="45.70283" lon="4.60878">
        <ele>760</ele>
        <time>2012-04-02T15:04:53.000Z</time>
      </trkpt>
      <trkpt lat="45.70284" lon="4.60882">
        <ele>759.59997558594</ele>
        <time>2012-04-02T15:04:54.000Z</time>
      </trkpt>
      <trkpt lat="45.70285" lon="4.60885">
        <ele>759.40002441406</ele>
        <time>2012-04-02T15:04:55.000Z</time>
      </trkpt>
      <trkpt lat="45.70284" lon="4.60888">
        <ele>759.59997558594</ele>
        <time>2012-04-02T15:04:56.000Z</time>
      </trkpt>
      <trkpt lat="45.70283" lon="4.60915">
        <ele>760.20001220703</ele>
        <time>2012-04-02T15:05:02.000Z</time>
      </trkpt>
      <trkpt lat="45.70282" lon="4.60919">
        <ele>760.59997558594</ele>
        <time>2012-04-02T15:05:03.000Z</time>
      </trkpt>
      <trkpt lat="45.70279" lon="4.60951">
        <ele>763.40002441406</ele>
        <time>2012-04-02T15:05:12.000Z</time>
      </trkpt>
      <trkpt lat="45.70287" lon="4.61002">
        <ele>762.59997558594</ele>
        <time>2012-04-02T15:05:23.000Z</time>
      </trkpt>
      <trkpt lat="45.70287" lon="4.61008">
        <ele>762.40002441406</ele>
        <time>2012-04-02T15:05:24.000Z</time>
      </trkpt>
      <trkpt lat="45.70286" lon="4.61014">
        <ele>762.79998779297</ele>
        <time>2012-04-02T15:05:25.000Z</time>
      </trkpt>
      <trkpt lat="45.70285" lon="4.61021">
        <ele>763.40002441406</ele>
        <time>2012-04-02T15:05:26.000Z</time>
      </trkpt>
      <trkpt lat="45.70283" lon="4.61027">
        <ele>764</ele>
        <time>2012-04-02T15:05:27.000Z</time>
      </trkpt>
      <trkpt lat="45.70282" lon="4.61034">
        <ele>764.59997558594</ele>
        <time>2012-04-02T15:05:28.000Z</time>
      </trkpt>
      <trkpt lat="45.70281" lon="4.61042">
        <ele>764.79998779297</ele>
        <time>2012-04-02T15:05:29.000Z</time>
      </trkpt>
      <trkpt lat="45.70281" lon="4.61051">
        <ele>765</ele>
        <time>2012-04-02T15:05:30.000Z</time>
      </trkpt>
      <trkpt lat="45.70281" lon="4.6106">
        <ele>765</ele>
        <time>2012-04-02T15:05:31.000Z</time>
      </trkpt>
      <trkpt lat="45.70282" lon="4.61069">
        <ele>764.59997558594</ele>
        <time>2012-04-02T15:05:32.000Z</time>
      </trkpt>
      <trkpt lat="45.70283" lon="4.61077">
        <ele>764.20001220703</ele>
        <time>2012-04-02T15:05:33.000Z</time>
      </trkpt>
      <trkpt lat="45.70284" lon="4.61085">
        <ele>763.79998779297</ele>
        <time>2012-04-02T15:05:34.000Z</time>
      </trkpt>
      <trkpt lat="45.70286" lon="4.61093">
        <ele>762.79998779297</ele>
        <time>2012-04-02T15:05:35.000Z</time>
      </trkpt>
      <trkpt lat="45.70288" lon="4.61101">
        <ele>762</ele>
        <time>2012-04-02T15:05:36.000Z</time>
      </trkpt>
      <trkpt lat="45.70289" lon="4.6111">
        <ele>761.59997558594</ele>
        <time>2012-04-02T15:05:37.000Z</time>
      </trkpt>
      <trkpt lat="45.70289" lon="4.61119">
        <ele>761.40002441406</ele>
        <time>2012-04-02T15:05:38.000Z</time>
      </trkpt>
      <trkpt lat="45.70289" lon="4.61138">
        <ele>761</ele>
        <time>2012-04-02T15:05:40.000Z</time>
      </trkpt>
      <trkpt lat="45.70291" lon="4.61148">
        <ele>760.40002441406</ele>
        <time>2012-04-02T15:05:41.000Z</time>
      </trkpt>
      <trkpt lat="45.70292" lon="4.61158">
        <ele>759.59997558594</ele>
        <time>2012-04-02T15:05:42.000Z</time>
      </trkpt>
      <trkpt lat="45.70292" lon="4.61166">
        <ele>759.40002441406</ele>
        <time>2012-04-02T15:05:43.000Z</time>
      </trkpt>
      <trkpt lat="45.70292" lon="4.61171">
        <ele>759</ele>
        <time>2012-04-02T15:05:44.000Z</time>
      </trkpt>
      <trkpt lat="45.70293" lon="4.61176">
        <ele>758.79998779297</ele>
        <time>2012-04-02T15:05:45.000Z</time>
      </trkpt>
      <trkpt lat="45.70294" lon="4.61185">
        <ele>758.20001220703</ele>
        <time>2012-04-02T15:05:46.000Z</time>
      </trkpt>
      <trkpt lat="45.70294" lon="4.6119">
        <ele>757.59997558594</ele>
        <time>2012-04-02T15:05:47.000Z</time>
      </trkpt>
      <trkpt lat="45.70294" lon="4.61197">
        <ele>757.59997558594</ele>
        <time>2012-04-02T15:05:48.000Z</time>
      </trkpt>
      <trkpt lat="45.70298" lon="4.61227">
        <ele>755.40002441406</ele>
        <time>2012-04-02T15:05:55.000Z</time>
      </trkpt>
      <trkpt lat="45.7031" lon="4.61279">
        <ele>748.20001220703</ele>
        <time>2012-04-02T15:06:05.000Z</time>
      </trkpt>
      <trkpt lat="45.70313" lon="4.61297">
        <ele>746.59997558594</ele>
        <time>2012-04-02T15:06:08.000Z</time>
      </trkpt>
      <trkpt lat="45.70314" lon="4.61304">
        <ele>745.79998779297</ele>
        <time>2012-04-02T15:06:09.000Z</time>
      </trkpt>
      <trkpt lat="45.70315" lon="4.61312">
        <ele>745.20001220703</ele>
        <time>2012-04-02T15:06:10.000Z</time>
      </trkpt>
      <trkpt lat="45.70316" lon="4.61319">
        <ele>744.59997558594</ele>
        <time>2012-04-02T15:06:11.000Z</time>
      </trkpt>
      <trkpt lat="45.70317" lon="4.61326">
        <ele>744.20001220703</ele>
        <time>2012-04-02T15:06:12.000Z</time>
      </trkpt>
      <trkpt lat="45.70319" lon="4.61334">
        <ele>743.20001220703</ele>
        <time>2012-04-02T15:06:13.000Z</time>
      </trkpt>
      <trkpt lat="45.70322" lon="4.61343">
        <ele>741.79998779297</ele>
        <time>2012-04-02T15:06:14.000Z</time>
      </trkpt>
      <trkpt lat="45.70325" lon="4.61352">
        <ele>740.40002441406</ele>
        <time>2012-04-02T15:06:15.000Z</time>
      </trkpt>
      <trkpt lat="45.70332" lon="4.61383">
        <ele>736.59997558594</ele>
        <time>2012-04-02T15:06:18.000Z</time>
      </trkpt>
      <trkpt lat="45.70335" lon="4.61393">
        <ele>735</ele>
        <time>2012-04-02T15:06:19.000Z</time>
      </trkpt>
      <trkpt lat="45.7034" lon="4.61414">
        <ele>732.40002441406</ele>
        <time>2012-04-02T15:06:21.000Z</time>
      </trkpt>
      <trkpt lat="45.70343" lon="4.61423">
        <ele>731</ele>
        <time>2012-04-02T15:06:22.000Z</time>
      </trkpt>
      <trkpt lat="45.70358" lon="4.61462">
        <ele>725.40002441406</ele>
        <time>2012-04-02T15:06:26.000Z</time>
      </trkpt>
      <trkpt lat="45.70363" lon="4.61472">
        <ele>723.59997558594</ele>
        <time>2012-04-02T15:06:27.000Z</time>
      </trkpt>
      <trkpt lat="45.70371" lon="4.61492">
        <ele>720.79998779297</ele>
        <time>2012-04-02T15:06:29.000Z</time>
      </trkpt>
      <trkpt lat="45.70374" lon="4.61502">
        <ele>719.79998779297</ele>
        <time>2012-04-02T15:06:30.000Z</time>
      </trkpt>
      <trkpt lat="45.7039" lon="4.61539">
        <ele>715</ele>
        <time>2012-04-02T15:06:34.000Z</time>
      </trkpt>
      <trkpt lat="45.70402" lon="4.61561">
        <ele>711</ele>
        <time>2012-04-02T15:06:37.000Z</time>
      </trkpt>
      <trkpt lat="45.70406" lon="4.61566">
        <ele>709.79998779297</ele>
        <time>2012-04-02T15:06:38.000Z</time>
      </trkpt>
      <trkpt lat="45.70409" lon="4.61568">
        <ele>708.59997558594</ele>
        <time>2012-04-02T15:06:39.000Z</time>
      </trkpt>
      <trkpt lat="45.70412" lon="4.61571">
        <ele>707.40002441406</ele>
        <time>2012-04-02T15:06:40.000Z</time>
      </trkpt>
      <trkpt lat="45.70417" lon="4.61575">
        <ele>705.79998779297</ele>
        <time>2012-04-02T15:06:41.000Z</time>
      </trkpt>
      <trkpt lat="45.70422" lon="4.61579">
        <ele>704.59997558594</ele>
        <time>2012-04-02T15:06:42.000Z</time>
      </trkpt>
      <trkpt lat="45.70426" lon="4.61582">
        <ele>703.79998779297</ele>
        <time>2012-04-02T15:06:43.000Z</time>
      </trkpt>
      <trkpt lat="45.70431" lon="4.61585">
        <ele>702.79998779297</ele>
        <time>2012-04-02T15:06:44.000Z</time>
      </trkpt>
      <trkpt lat="45.70436" lon="4.61588">
        <ele>701.79998779297</ele>
        <time>2012-04-02T15:06:45.000Z</time>
      </trkpt>
      <trkpt lat="45.70441" lon="4.61591">
        <ele>700.59997558594</ele>
        <time>2012-04-02T15:06:46.000Z</time>
      </trkpt>
      <trkpt lat="45.70445" lon="4.61594">
        <ele>699.79998779297</ele>
        <time>2012-04-02T15:06:47.000Z</time>
      </trkpt>
      <trkpt lat="45.70448" lon="4.61595">
        <ele>699.20001220703</ele>
        <time>2012-04-02T15:06:48.000Z</time>
      </trkpt>
      <trkpt lat="45.70468" lon="4.61614">
        <ele>694.79998779297</ele>
        <time>2012-04-02T15:06:55.000Z</time>
      </trkpt>
      <trkpt lat="45.70487" lon="4.61637">
        <ele>690.79998779297</ele>
        <time>2012-04-02T15:06:59.000Z</time>
      </trkpt>
      <trkpt lat="45.705" lon="4.61648">
        <ele>687.79998779297</ele>
        <time>2012-04-02T15:07:02.000Z</time>
      </trkpt>
      <trkpt lat="45.70504" lon="4.6165">
        <ele>687.40002441406</ele>
        <time>2012-04-02T15:07:03.000Z</time>
      </trkpt>
      <trkpt lat="45.70508" lon="4.61652">
        <ele>686.79998779297</ele>
        <time>2012-04-02T15:07:04.000Z</time>
      </trkpt>
      <trkpt lat="45.70511" lon="4.61654">
        <ele>686.40002441406</ele>
        <time>2012-04-02T15:07:05.000Z</time>
      </trkpt>
      <trkpt lat="45.70514" lon="4.61656">
        <ele>686.20001220703</ele>
        <time>2012-04-02T15:07:06.000Z</time>
      </trkpt>
      <trkpt lat="45.70515" lon="4.61658">
        <ele>686</ele>
        <time>2012-04-02T15:07:07.000Z</time>
      </trkpt>
      <trkpt lat="45.70517" lon="4.61661">
        <ele>685.79998779297</ele>
        <time>2012-04-02T15:07:08.000Z</time>
      </trkpt>
      <trkpt lat="45.70518" lon="4.61666">
        <ele>685.59997558594</ele>
        <time>2012-04-02T15:07:09.000Z</time>
      </trkpt>
      <trkpt lat="45.70518" lon="4.6167">
        <ele>685.59997558594</ele>
        <time>2012-04-02T15:07:10.000Z</time>
      </trkpt>
      <trkpt lat="45.70517" lon="4.61674">
        <ele>685.59997558594</ele>
        <time>2012-04-02T15:07:11.000Z</time>
      </trkpt>
      <trkpt lat="45.70516" lon="4.61678">
        <ele>685.59997558594</ele>
        <time>2012-04-02T15:07:12.000Z</time>
      </trkpt>
      <trkpt lat="45.70494" lon="4.6173">
        <ele>687.20001220703</ele>
        <time>2012-04-02T15:07:24.000Z</time>
      </trkpt>
      <trkpt lat="45.70483" lon="4.61772">
        <ele>689.20001220703</ele>
        <time>2012-04-02T15:07:34.000Z</time>
      </trkpt>
      <trkpt lat="45.70478" lon="4.61795">
        <ele>690</ele>
        <time>2012-04-02T15:07:39.000Z</time>
      </trkpt>
      <trkpt lat="45.70462" lon="4.61858">
        <ele>692.79998779297</ele>
        <time>2012-04-02T15:07:54.000Z</time>
      </trkpt>
      <trkpt lat="45.70451" lon="4.61918">
        <ele>693.79998779297</ele>
        <time>2012-04-02T15:08:06.000Z</time>
      </trkpt>
      <trkpt lat="45.70437" lon="4.61985">
        <ele>694</ele>
        <time>2012-04-02T15:08:19.000Z</time>
      </trkpt>
      <trkpt lat="45.70416" lon="4.62036">
        <ele>696</ele>
        <time>2012-04-02T15:08:33.000Z</time>
      </trkpt>
      <trkpt lat="45.70394" lon="4.62054">
        <ele>700.59997558594</ele>
        <time>2012-04-02T15:08:47.000Z</time>
      </trkpt>
      <trkpt lat="45.70388" lon="4.62058">
        <ele>701.79998779297</ele>
        <time>2012-04-02T15:08:51.000Z</time>
      </trkpt>
      <trkpt lat="45.70387" lon="4.62059">
        <ele>702</ele>
        <time>2012-04-02T15:08:52.000Z</time>
      </trkpt>
      <trkpt lat="45.70386" lon="4.62061">
        <ele>702.20001220703</ele>
        <time>2012-04-02T15:08:53.000Z</time>
      </trkpt>
      <trkpt lat="45.70385" lon="4.62062">
        <ele>702.59997558594</ele>
        <time>2012-04-02T15:08:54.000Z</time>
      </trkpt>
      <trkpt lat="45.70383" lon="4.62063">
        <ele>702.79998779297</ele>
        <time>2012-04-02T15:08:55.000Z</time>
      </trkpt>
      <trkpt lat="45.70382" lon="4.62063">
        <ele>703.20001220703</ele>
        <time>2012-04-02T15:08:56.000Z</time>
      </trkpt>
      <trkpt lat="45.70361" lon="4.62079">
        <ele>707.20001220703</ele>
        <time>2012-04-02T15:09:11.000Z</time>
      </trkpt>
      <trkpt lat="45.70344" lon="4.62095">
        <ele>710</ele>
        <time>2012-04-02T15:09:25.000Z</time>
      </trkpt>
      <trkpt lat="45.70328" lon="4.6211">
        <ele>711.20001220703</ele>
        <time>2012-04-02T15:09:37.000Z</time>
      </trkpt>
      <trkpt lat="45.70327" lon="4.62111">
        <ele>711.20001220703</ele>
        <time>2012-04-02T15:09:38.000Z</time>
      </trkpt>
      <trkpt lat="45.70325" lon="4.62112">
        <ele>711.20001220703</ele>
        <time>2012-04-02T15:09:39.000Z</time>
      </trkpt>
      <trkpt lat="45.70324" lon="4.62114">
        <ele>711.20001220703</ele>
        <time>2012-04-02T15:09:40.000Z</time>
      </trkpt>
      <trkpt lat="45.70323" lon="4.62115">
        <ele>711</ele>
        <time>2012-04-02T15:09:41.000Z</time>
      </trkpt>
      <trkpt lat="45.70301" lon="4.62129">
        <ele>711</ele>
        <time>2012-04-02T15:09:54.000Z</time>
      </trkpt>
      <trkpt lat="45.70265" lon="4.6214">
        <ele>711.79998779297</ele>
        <time>2012-04-02T15:10:09.000Z</time>
      </trkpt>
      <trkpt lat="45.70208" lon="4.62138">
        <ele>710.79998779297</ele>
        <time>2012-04-02T15:10:27.000Z</time>
      </trkpt>
      <trkpt lat="45.70173" lon="4.621">
        <ele>718.20001220703</ele>
        <time>2012-04-02T15:10:42.000Z</time>
      </trkpt>
      <trkpt lat="45.70149" lon="4.62073">
        <ele>721.20001220703</ele>
        <time>2012-04-02T15:10:52.000Z</time>
      </trkpt>
      <trkpt lat="45.70114" lon="4.6205">
        <ele>720</ele>
        <time>2012-04-02T15:11:04.000Z</time>
      </trkpt>
      <trkpt lat="45.70101" lon="4.62044">
        <ele>719.40002441406</ele>
        <time>2012-04-02T15:11:07.000Z</time>
      </trkpt>
      <trkpt lat="45.70097" lon="4.62041">
        <ele>719.20001220703</ele>
        <time>2012-04-02T15:11:08.000Z</time>
      </trkpt>
      <trkpt lat="45.70094" lon="4.62038">
        <ele>719.40002441406</ele>
        <time>2012-04-02T15:11:09.000Z</time>
      </trkpt>
      <trkpt lat="45.70092" lon="4.62035">
        <ele>719.40002441406</ele>
        <time>2012-04-02T15:11:10.000Z</time>
      </trkpt>
      <trkpt lat="45.7009" lon="4.62033">
        <ele>719.40002441406</ele>
        <time>2012-04-02T15:11:11.000Z</time>
      </trkpt>
      <trkpt lat="45.70089" lon="4.62031">
        <ele>719.40002441406</ele>
        <time>2012-04-02T15:11:12.000Z</time>
      </trkpt>
      <trkpt lat="45.70075" lon="4.62013">
        <ele>720.59997558594</ele>
        <time>2012-04-02T15:11:21.000Z</time>
      </trkpt>
      <trkpt lat="45.70074" lon="4.62014">
        <ele>720.40002441406</ele>
        <time>2012-04-02T15:11:22.000Z</time>
      </trkpt>
      <trkpt lat="45.70072" lon="4.62015">
        <ele>720.20001220703</ele>
        <time>2012-04-02T15:11:23.000Z</time>
      </trkpt>
      <trkpt lat="45.7007" lon="4.62018">
        <ele>719.59997558594</ele>
        <time>2012-04-02T15:11:24.000Z</time>
      </trkpt>
      <trkpt lat="45.70068" lon="4.62023">
        <ele>718.79998779297</ele>
        <time>2012-04-02T15:11:25.000Z</time>
      </trkpt>
      <trkpt lat="45.70065" lon="4.62029">
        <ele>718</ele>
        <time>2012-04-02T15:11:26.000Z</time>
      </trkpt>
      <trkpt lat="45.70063" lon="4.62035">
        <ele>717</ele>
        <time>2012-04-02T15:11:27.000Z</time>
      </trkpt>
      <trkpt lat="45.70062" lon="4.62045">
        <ele>715.59997558594</ele>
        <time>2012-04-02T15:11:29.000Z</time>
      </trkpt>
      <trkpt lat="45.70063" lon="4.6205">
        <ele>715</ele>
        <time>2012-04-02T15:11:30.000Z</time>
      </trkpt>
      <trkpt lat="45.70065" lon="4.62055">
        <ele>714.40002441406</ele>
        <time>2012-04-02T15:11:31.000Z</time>
      </trkpt>
      <trkpt lat="45.70067" lon="4.6206">
        <ele>714</ele>
        <time>2012-04-02T15:11:32.000Z</time>
      </trkpt>
      <trkpt lat="45.7007" lon="4.62065">
        <ele>713.40002441406</ele>
        <time>2012-04-02T15:11:33.000Z</time>
      </trkpt>
      <trkpt lat="45.70072" lon="4.6207">
        <ele>713</ele>
        <time>2012-04-02T15:11:34.000Z</time>
      </trkpt>
      <trkpt lat="45.70073" lon="4.62074">
        <ele>712.40002441406</ele>
        <time>2012-04-02T15:11:35.000Z</time>
      </trkpt>
      <trkpt lat="45.70072" lon="4.62077">
        <ele>712</ele>
        <time>2012-04-02T15:11:36.000Z</time>
      </trkpt>
      <trkpt lat="45.70071" lon="4.62079">
        <ele>711.59997558594</ele>
        <time>2012-04-02T15:11:37.000Z</time>
      </trkpt>
      <trkpt lat="45.7007" lon="4.6208">
        <ele>711.40002441406</ele>
        <time>2012-04-02T15:11:38.000Z</time>
      </trkpt>
      <trkpt lat="45.70068" lon="4.62081">
        <ele>711.20001220703</ele>
        <time>2012-04-02T15:11:40.000Z</time>
      </trkpt>
      <trkpt lat="45.70067" lon="4.62083">
        <ele>710.79998779297</ele>
        <time>2012-04-02T15:11:42.000Z</time>
      </trkpt>
      <trkpt lat="45.70068" lon="4.62085">
        <ele>710.40002441406</ele>
        <time>2012-04-02T15:11:43.000Z</time>
      </trkpt>
      <trkpt lat="45.70069" lon="4.62088">
        <ele>710</ele>
        <time>2012-04-02T15:11:44.000Z</time>
      </trkpt>
      <trkpt lat="45.7007" lon="4.6209">
        <ele>709.59997558594</ele>
        <time>2012-04-02T15:11:45.000Z</time>
      </trkpt>
      <trkpt lat="45.70071" lon="4.62091">
        <ele>709.40002441406</ele>
        <time>2012-04-02T15:11:46.000Z</time>
      </trkpt>
      <trkpt lat="45.70072" lon="4.62094">
        <ele>708.79998779297</ele>
        <time>2012-04-02T15:11:47.000Z</time>
      </trkpt>
      <trkpt lat="45.70073" lon="4.62097">
        <ele>708</ele>
        <time>2012-04-02T15:11:48.000Z</time>
      </trkpt>
      <trkpt lat="45.70074" lon="4.62102">
        <ele>707.20001220703</ele>
        <time>2012-04-02T15:11:49.000Z</time>
      </trkpt>
      <trkpt lat="45.70075" lon="4.62105">
        <ele>706.40002441406</ele>
        <time>2012-04-02T15:11:50.000Z</time>
      </trkpt>
      <trkpt lat="45.70076" lon="4.62109">
        <ele>705.59997558594</ele>
        <time>2012-04-02T15:11:51.000Z</time>
      </trkpt>
      <trkpt lat="45.70077" lon="4.62111">
        <ele>705.20001220703</ele>
        <time>2012-04-02T15:11:52.000Z</time>
      </trkpt>
      <trkpt lat="45.70085" lon="4.62124">
        <ele>702.40002441406</ele>
        <time>2012-04-02T15:11:57.000Z</time>
      </trkpt>
      <trkpt lat="45.70091" lon="4.62136">
        <ele>700.20001220703</ele>
        <time>2012-04-02T15:12:01.000Z</time>
      </trkpt>
      <trkpt lat="45.70091" lon="4.62137">
        <ele>700</ele>
        <time>2012-04-02T15:12:02.000Z</time>
      </trkpt>
      <trkpt lat="45.70093" lon="4.6214">
        <ele>699.40002441406</ele>
        <time>2012-04-02T15:12:15.000Z</time>
      </trkpt>
      <trkpt lat="45.70094" lon="4.62143">
        <ele>699</ele>
        <time>2012-04-02T15:12:42.000Z</time>
      </trkpt>
      <trkpt lat="45.70093" lon="4.62144">
        <ele>698.40002441406</ele>
        <time>2012-04-02T15:13:15.000Z</time>
      </trkpt>
      <trkpt lat="45.70093" lon="4.62144">
        <ele>698.40002441406</ele>
        <time>2012-04-02T15:13:41.000Z</time>
      </trkpt>
      <trkpt lat="45.70093" lon="4.62145">
        <ele>698.20001220703</ele>
        <time>2012-04-02T15:14:06.000Z</time>
      </trkpt>
      <trkpt lat="45.70092" lon="4.62145">
        <ele>698.20001220703</ele>
        <time>2012-04-02T15:14:25.000Z</time>
      </trkpt>
      <trkpt lat="45.70092" lon="4.62146">
        <ele>698</ele>
        <time>2012-04-02T15:14:51.000Z</time>
      </trkpt>
      <trkpt lat="45.70092" lon="4.62146">
        <ele>698</ele>
        <time>2012-04-02T15:15:17.000Z</time>
      </trkpt>
      <trkpt lat="45.70093" lon="4.62145">
        <ele>698.20001220703</ele>
        <time>2012-04-02T15:15:35.000Z</time>
      </trkpt>
      <trkpt lat="45.70093" lon="4.62145">
        <ele>698.20001220703</ele>
        <time>2012-04-02T15:15:46.000Z</time>
      </trkpt>
      <trkpt lat="45.70094" lon="4.62145">
        <ele>698.20001220703</ele>
        <time>2012-04-02T15:15:59.000Z</time>
      </trkpt>
      <trkpt lat="45.70095" lon="4.62147">
        <ele>697.79998779297</ele>
        <time>2012-04-02T15:16:23.000Z</time>
      </trkpt>
      <trkpt lat="45.70095" lon="4.62148">
        <ele>697.79998779297</ele>
        <time>2012-04-02T15:16:49.000Z</time>
      </trkpt>
      <trkpt lat="45.70096" lon="4.62149">
        <ele>697.40002441406</ele>
        <time>2012-04-02T15:17:18.000Z</time>
      </trkpt>
      <trkpt lat="45.70095" lon="4.6215">
        <ele>697.40002441406</ele>
        <time>2012-04-02T15:17:41.000Z</time>
      </trkpt>
      <trkpt lat="45.70096" lon="4.6215">
        <ele>697.40002441406</ele>
        <time>2012-04-02T15:18:00.000Z</time>
      </trkpt>
      <trkpt lat="45.70096" lon="4.62148">
        <ele>698</ele>
        <time>2012-04-02T15:18:27.000Z</time>
      </trkpt>
      <trkpt lat="45.70097" lon="4.62148">
        <ele>698</ele>
        <time>2012-04-02T15:18:57.000Z</time>
      </trkpt>
      <trkpt lat="45.70097" lon="4.62147">
        <ele>698.20001220703</ele>
        <time>2012-04-02T15:19:21.000Z</time>
      </trkpt>
      <trkpt lat="45.70097" lon="4.62148">
        <ele>698</ele>
        <time>2012-04-02T15:19:50.000Z</time>
      </trkpt>
      <trkpt lat="45.70098" lon="4.62148">
        <ele>698</ele>
        <time>2012-04-02T15:20:21.000Z</time>
      </trkpt>
      <trkpt lat="45.70098" lon="4.62147">
        <ele>698.20001220703</ele>
        <time>2012-04-02T15:20:47.000Z</time>
      </trkpt>
      <trkpt lat="45.70098" lon="4.62146">
        <ele>698.40002441406</ele>
        <time>2012-04-02T15:21:11.000Z</time>
      </trkpt>
      <trkpt lat="45.70098" lon="4.62147">
        <ele>698.40002441406</ele>
        <time>2012-04-02T15:21:40.000Z</time>
      </trkpt>
      <trkpt lat="45.70098" lon="4.62146">
        <ele>698.59997558594</ele>
        <time>2012-04-02T15:22:00.000Z</time>
      </trkpt>
      <trkpt lat="45.70099" lon="4.62147">
        <ele>698.40002441406</ele>
        <time>2012-04-02T15:22:24.000Z</time>
      </trkpt>
      <trkpt lat="45.701" lon="4.62147">
        <ele>698.59997558594</ele>
        <time>2012-04-02T15:22:56.000Z</time>
      </trkpt>
      <trkpt lat="45.701" lon="4.62146">
        <ele>698.79998779297</ele>
        <time>2012-04-02T15:23:27.000Z</time>
      </trkpt>
      <trkpt lat="45.70099" lon="4.62147">
        <ele>698.59997558594</ele>
        <time>2012-04-02T15:23:53.000Z</time>
      </trkpt>
      <trkpt lat="45.70099" lon="4.62148">
        <ele>698.20001220703</ele>
        <time>2012-04-02T15:24:16.000Z</time>
      </trkpt>
      <trkpt lat="45.70099" lon="4.62148">
        <ele>698.20001220703</ele>
        <time>2012-04-02T15:24:38.000Z</time>
      </trkpt>
      <trkpt lat="45.70099" lon="4.62147">
        <ele>698.40002441406</ele>
        <time>2012-04-02T15:25:05.000Z</time>
      </trkpt>
      <trkpt lat="45.70099" lon="4.62147">
        <ele>698.40002441406</ele>
        <time>2012-04-02T15:25:29.000Z</time>
      </trkpt>
      <trkpt lat="45.70098" lon="4.62147">
        <ele>698.40002441406</ele>
        <time>2012-04-02T15:25:52.000Z</time>
      </trkpt>
      <trkpt lat="45.70098" lon="4.62147">
        <ele>698.40002441406</ele>
        <time>2012-04-02T15:26:17.000Z</time>
      </trkpt>
      <trkpt lat="45.70097" lon="4.62146">
        <ele>698.40002441406</ele>
        <time>2012-04-02T15:26:47.000Z</time>
      </trkpt>
      <trkpt lat="45.70098" lon="4.62145">
        <ele>698.59997558594</ele>
        <time>2012-04-02T15:27:10.000Z</time>
      </trkpt>
      <trkpt lat="45.70099" lon="4.62144">
        <ele>699</ele>
        <time>2012-04-02T15:27:39.000Z</time>
      </trkpt>
      <trkpt lat="45.70099" lon="4.62144">
        <ele>699.20001220703</ele>
        <time>2012-04-02T15:27:59.000Z</time>
      </trkpt>
      <trkpt lat="45.701" lon="4.62145">
        <ele>699</ele>
        <time>2012-04-02T15:28:09.000Z</time>
      </trkpt>
      <trkpt lat="45.70102" lon="4.6215">
        <ele>698</ele>
        <time>2012-04-02T15:28:13.000Z</time>
      </trkpt>
      <trkpt lat="45.70104" lon="4.62152">
        <ele>697.79998779297</ele>
        <time>2012-04-02T15:28:14.000Z</time>
      </trkpt>
      <trkpt lat="45.70107" lon="4.62153">
        <ele>697.79998779297</ele>
        <time>2012-04-02T15:28:15.000Z</time>
      </trkpt>
      <trkpt lat="45.7011" lon="4.62155">
        <ele>697.59997558594</ele>
        <time>2012-04-02T15:28:16.000Z</time>
      </trkpt>
      <trkpt lat="45.70113" lon="4.62159">
        <ele>697.20001220703</ele>
        <time>2012-04-02T15:28:17.000Z</time>
      </trkpt>
      <trkpt lat="45.70115" lon="4.62162">
        <ele>696.40002441406</ele>
        <time>2012-04-02T15:28:18.000Z</time>
      </trkpt>
      <trkpt lat="45.70117" lon="4.62165">
        <ele>696</ele>
        <time>2012-04-02T15:28:19.000Z</time>
      </trkpt>
      <trkpt lat="45.70137" lon="4.62183">
        <ele>692.40002441406</ele>
        <time>2012-04-02T15:28:26.000Z</time>
      </trkpt>
      <trkpt lat="45.7015" lon="4.62197">
        <ele>689.20001220703</ele>
        <time>2012-04-02T15:28:30.000Z</time>
      </trkpt>
      <trkpt lat="45.70153" lon="4.62202">
        <ele>688.20001220703</ele>
        <time>2012-04-02T15:28:31.000Z</time>
      </trkpt>
      <trkpt lat="45.70158" lon="4.62207">
        <ele>687.20001220703</ele>
        <time>2012-04-02T15:28:32.000Z</time>
      </trkpt>
      <trkpt lat="45.70175" lon="4.62232">
        <ele>682.20001220703</ele>
        <time>2012-04-02T15:28:36.000Z</time>
      </trkpt>
      <trkpt lat="45.70185" lon="4.62245">
        <ele>680.20001220703</ele>
        <time>2012-04-02T15:28:38.000Z</time>
      </trkpt>
      <trkpt lat="45.70197" lon="4.62261">
        <ele>678.40002441406</ele>
        <time>2012-04-02T15:28:40.000Z</time>
      </trkpt>
      <trkpt lat="45.70203" lon="4.6227">
        <ele>677.59997558594</ele>
        <time>2012-04-02T15:28:41.000Z</time>
      </trkpt>
      <trkpt lat="45.70208" lon="4.62278">
        <ele>677</ele>
        <time>2012-04-02T15:28:42.000Z</time>
      </trkpt>
      <trkpt lat="45.70217" lon="4.62291">
        <ele>676</ele>
        <time>2012-04-02T15:28:44.000Z</time>
      </trkpt>
      <trkpt lat="45.70221" lon="4.62298">
        <ele>675.59997558594</ele>
        <time>2012-04-02T15:28:45.000Z</time>
      </trkpt>
      <trkpt lat="45.70238" lon="4.62324">
        <ele>674.40002441406</ele>
        <time>2012-04-02T15:28:49.000Z</time>
      </trkpt>
      <trkpt lat="45.70258" lon="4.62355">
        <ele>673</ele>
        <time>2012-04-02T15:28:54.000Z</time>
      </trkpt>
      <trkpt lat="45.70269" lon="4.62377">
        <ele>670.59997558594</ele>
        <time>2012-04-02T15:28:57.000Z</time>
      </trkpt>
      <trkpt lat="45.70273" lon="4.62384">
        <ele>670</ele>
        <time>2012-04-02T15:28:58.000Z</time>
      </trkpt>
      <trkpt lat="45.70276" lon="4.62391">
        <ele>669.40002441406</ele>
        <time>2012-04-02T15:28:59.000Z</time>
      </trkpt>
      <trkpt lat="45.70294" lon="4.62429">
        <ele>667.20001220703</ele>
        <time>2012-04-02T15:29:05.000Z</time>
      </trkpt>
      <trkpt lat="45.70314" lon="4.6247">
        <ele>667.59997558594</ele>
        <time>2012-04-02T15:29:14.000Z</time>
      </trkpt>
      <trkpt lat="45.70321" lon="4.62485">
        <ele>668.40002441406</ele>
        <time>2012-04-02T15:29:17.000Z</time>
      </trkpt>
      <trkpt lat="45.70322" lon="4.62491">
        <ele>668.40002441406</ele>
        <time>2012-04-02T15:29:18.000Z</time>
      </trkpt>
      <trkpt lat="45.70323" lon="4.62498">
        <ele>668.20001220703</ele>
        <time>2012-04-02T15:29:19.000Z</time>
      </trkpt>
      <trkpt lat="45.70323" lon="4.62504">
        <ele>667.59997558594</ele>
        <time>2012-04-02T15:29:20.000Z</time>
      </trkpt>
      <trkpt lat="45.70322" lon="4.6251">
        <ele>666.59997558594</ele>
        <time>2012-04-02T15:29:21.000Z</time>
      </trkpt>
      <trkpt lat="45.70321" lon="4.62517">
        <ele>665.79998779297</ele>
        <time>2012-04-02T15:29:22.000Z</time>
      </trkpt>
      <trkpt lat="45.70322" lon="4.62525">
        <ele>665</ele>
        <time>2012-04-02T15:29:23.000Z</time>
      </trkpt>
      <trkpt lat="45.70323" lon="4.62533">
        <ele>664.40002441406</ele>
        <time>2012-04-02T15:29:24.000Z</time>
      </trkpt>
      <trkpt lat="45.70327" lon="4.62554">
        <ele>663.40002441406</ele>
        <time>2012-04-02T15:29:27.000Z</time>
      </trkpt>
      <trkpt lat="45.7033" lon="4.62562">
        <ele>663.40002441406</ele>
        <time>2012-04-02T15:29:28.000Z</time>
      </trkpt>
      <trkpt lat="45.70333" lon="4.6257">
        <ele>663.40002441406</ele>
        <time>2012-04-02T15:29:29.000Z</time>
      </trkpt>
      <trkpt lat="45.70336" lon="4.62575">
        <ele>662.59997558594</ele>
        <time>2012-04-02T15:29:30.000Z</time>
      </trkpt>
      <trkpt lat="45.70338" lon="4.62579">
        <ele>661.79998779297</ele>
        <time>2012-04-02T15:29:31.000Z</time>
      </trkpt>
      <trkpt lat="45.70339" lon="4.62581">
        <ele>661.40002441406</ele>
        <time>2012-04-02T15:29:32.000Z</time>
      </trkpt>
      <trkpt lat="45.70339" lon="4.62584">
        <ele>661.20001220703</ele>
        <time>2012-04-02T15:29:33.000Z</time>
      </trkpt>
      <trkpt lat="45.70339" lon="4.62586">
        <ele>661</ele>
        <time>2012-04-02T15:29:34.000Z</time>
      </trkpt>
      <trkpt lat="45.70338" lon="4.62588">
        <ele>661</ele>
        <time>2012-04-02T15:29:35.000Z</time>
      </trkpt>
      <trkpt lat="45.70337" lon="4.62589">
        <ele>661</ele>
        <time>2012-04-02T15:29:36.000Z</time>
      </trkpt>
      <trkpt lat="45.70335" lon="4.6259">
        <ele>661.40002441406</ele>
        <time>2012-04-02T15:29:37.000Z</time>
      </trkpt>
      <trkpt lat="45.70333" lon="4.62591">
        <ele>661.40002441406</ele>
        <time>2012-04-02T15:29:38.000Z</time>
      </trkpt>
      <trkpt lat="45.7033" lon="4.62591">
        <ele>660.79998779297</ele>
        <time>2012-04-02T15:29:39.000Z</time>
      </trkpt>
      <trkpt lat="45.70328" lon="4.62592">
        <ele>660</ele>
        <time>2012-04-02T15:29:40.000Z</time>
      </trkpt>
      <trkpt lat="45.70326" lon="4.62594">
        <ele>659.40002441406</ele>
        <time>2012-04-02T15:29:41.000Z</time>
      </trkpt>
      <trkpt lat="45.70323" lon="4.62596">
        <ele>658.59997558594</ele>
        <time>2012-04-02T15:29:42.000Z</time>
      </trkpt>
      <trkpt lat="45.70316" lon="4.62602">
        <ele>656.40002441406</ele>
        <time>2012-04-02T15:29:46.000Z</time>
      </trkpt>
      <trkpt lat="45.70315" lon="4.62604">
        <ele>656.20001220703</ele>
        <time>2012-04-02T15:29:47.000Z</time>
      </trkpt>
      <trkpt lat="45.70314" lon="4.62606">
        <ele>655.79998779297</ele>
        <time>2012-04-02T15:29:48.000Z</time>
      </trkpt>
      <trkpt lat="45.70313" lon="4.62608">
        <ele>655.20001220703</ele>
        <time>2012-04-02T15:29:49.000Z</time>
      </trkpt>
      <trkpt lat="45.70312" lon="4.62611">
        <ele>654.79998779297</ele>
        <time>2012-04-02T15:29:50.000Z</time>
      </trkpt>
      <trkpt lat="45.70311" lon="4.62613">
        <ele>654.59997558594</ele>
        <time>2012-04-02T15:29:51.000Z</time>
      </trkpt>
      <trkpt lat="45.70311" lon="4.62616">
        <ele>654.40002441406</ele>
        <time>2012-04-02T15:29:52.000Z</time>
      </trkpt>
      <trkpt lat="45.70311" lon="4.62618">
        <ele>654.20001220703</ele>
        <time>2012-04-02T15:29:53.000Z</time>
      </trkpt>
      <trkpt lat="45.7031" lon="4.6262">
        <ele>653.79998779297</ele>
        <time>2012-04-02T15:29:54.000Z</time>
      </trkpt>
      <trkpt lat="45.70304" lon="4.62629">
        <ele>652</ele>
        <time>2012-04-02T15:30:09.000Z</time>
      </trkpt>
      <trkpt lat="45.70304" lon="4.62631">
        <ele>651.79998779297</ele>
        <time>2012-04-02T15:30:10.000Z</time>
      </trkpt>
      <trkpt lat="45.70303" lon="4.62632">
        <ele>651.59997558594</ele>
        <time>2012-04-02T15:30:11.000Z</time>
      </trkpt>
      <trkpt lat="45.70302" lon="4.62635">
        <ele>651.20001220703</ele>
        <time>2012-04-02T15:30:12.000Z</time>
      </trkpt>
      <trkpt lat="45.70295" lon="4.62653">
        <ele>648.59997558594</ele>
        <time>2012-04-02T15:30:18.000Z</time>
      </trkpt>
      <trkpt lat="45.70294" lon="4.62658">
        <ele>648</ele>
        <time>2012-04-02T15:30:19.000Z</time>
      </trkpt>
      <trkpt lat="45.70292" lon="4.62664">
        <ele>647.20001220703</ele>
        <time>2012-04-02T15:30:20.000Z</time>
      </trkpt>
      <trkpt lat="45.7029" lon="4.62671">
        <ele>647</ele>
        <time>2012-04-02T15:30:21.000Z</time>
      </trkpt>
      <trkpt lat="45.70288" lon="4.62679">
        <ele>647</ele>
        <time>2012-04-02T15:30:22.000Z</time>
      </trkpt>
      <trkpt lat="45.70286" lon="4.62687">
        <ele>647</ele>
        <time>2012-04-02T15:30:23.000Z</time>
      </trkpt>
      <trkpt lat="45.70269" lon="4.62732">
        <ele>646</ele>
        <time>2012-04-02T15:30:28.000Z</time>
      </trkpt>
      <trkpt lat="45.70252" lon="4.62767">
        <ele>645.40002441406</ele>
        <time>2012-04-02T15:30:32.000Z</time>
      </trkpt>
      <trkpt lat="45.70248" lon="4.62772">
        <ele>644.79998779297</ele>
        <time>2012-04-02T15:30:33.000Z</time>
      </trkpt>
      <trkpt lat="45.70244" lon="4.62777">
        <ele>643.59997558594</ele>
        <time>2012-04-02T15:30:34.000Z</time>
      </trkpt>
      <trkpt lat="45.7024" lon="4.62782">
        <ele>642.79998779297</ele>
        <time>2012-04-02T15:30:35.000Z</time>
      </trkpt>
      <trkpt lat="45.70236" lon="4.62787">
        <ele>641.59997558594</ele>
        <time>2012-04-02T15:30:36.000Z</time>
      </trkpt>
      <trkpt lat="45.70231" lon="4.62793">
        <ele>640.40002441406</ele>
        <time>2012-04-02T15:30:37.000Z</time>
      </trkpt>
      <trkpt lat="45.70226" lon="4.62798">
        <ele>639</ele>
        <time>2012-04-02T15:30:38.000Z</time>
      </trkpt>
      <trkpt lat="45.70221" lon="4.62804">
        <ele>637.79998779297</ele>
        <time>2012-04-02T15:30:39.000Z</time>
      </trkpt>
      <trkpt lat="45.70212" lon="4.62819">
        <ele>636</ele>
        <time>2012-04-02T15:30:42.000Z</time>
      </trkpt>
      <trkpt lat="45.70196" lon="4.62845">
        <ele>634</ele>
        <time>2012-04-02T15:30:47.000Z</time>
      </trkpt>
      <trkpt lat="45.70192" lon="4.62849">
        <ele>633.40002441406</ele>
        <time>2012-04-02T15:30:48.000Z</time>
      </trkpt>
      <trkpt lat="45.70182" lon="4.6286">
        <ele>631.79998779297</ele>
        <time>2012-04-02T15:30:50.000Z</time>
      </trkpt>
      <trkpt lat="45.70178" lon="4.62868">
        <ele>631.59997558594</ele>
        <time>2012-04-02T15:30:51.000Z</time>
      </trkpt>
      <trkpt lat="45.70173" lon="4.62877">
        <ele>631.59997558594</ele>
        <time>2012-04-02T15:30:52.000Z</time>
      </trkpt>
      <trkpt lat="45.70168" lon="4.62885">
        <ele>631.20001220703</ele>
        <time>2012-04-02T15:30:53.000Z</time>
      </trkpt>
      <trkpt lat="45.70162" lon="4.62893">
        <ele>631</ele>
        <time>2012-04-02T15:30:54.000Z</time>
      </trkpt>
      <trkpt lat="45.70156" lon="4.62901">
        <ele>631.20001220703</ele>
        <time>2012-04-02T15:30:55.000Z</time>
      </trkpt>
      <trkpt lat="45.70151" lon="4.62909">
        <ele>631.20001220703</ele>
        <time>2012-04-02T15:30:56.000Z</time>
      </trkpt>
      <trkpt lat="45.70145" lon="4.62916">
        <ele>631.20001220703</ele>
        <time>2012-04-02T15:30:57.000Z</time>
      </trkpt>
      <trkpt lat="45.70129" lon="4.62937">
        <ele>631.59997558594</ele>
        <time>2012-04-02T15:31:00.000Z</time>
      </trkpt>
      <trkpt lat="45.70123" lon="4.62942">
        <ele>631.20001220703</ele>
        <time>2012-04-02T15:31:01.000Z</time>
      </trkpt>
      <trkpt lat="45.7011" lon="4.62951">
        <ele>630.20001220703</ele>
        <time>2012-04-02T15:31:03.000Z</time>
      </trkpt>
      <trkpt lat="45.70072" lon="4.62975">
        <ele>627.40002441406</ele>
        <time>2012-04-02T15:31:08.000Z</time>
      </trkpt>
      <trkpt lat="45.70046" lon="4.62986">
        <ele>624.20001220703</ele>
        <time>2012-04-02T15:31:11.000Z</time>
      </trkpt>
      <trkpt lat="45.70039" lon="4.62988">
        <ele>623.20001220703</ele>
        <time>2012-04-02T15:31:12.000Z</time>
      </trkpt>
      <trkpt lat="45.70032" lon="4.62989">
        <ele>622.20001220703</ele>
        <time>2012-04-02T15:31:13.000Z</time>
      </trkpt>
      <trkpt lat="45.70027" lon="4.62992">
        <ele>621.79998779297</ele>
        <time>2012-04-02T15:31:14.000Z</time>
      </trkpt>
      <trkpt lat="45.70023" lon="4.62995">
        <ele>621.59997558594</ele>
        <time>2012-04-02T15:31:15.000Z</time>
      </trkpt>
      <trkpt lat="45.70019" lon="4.62998">
        <ele>621.40002441406</ele>
        <time>2012-04-02T15:31:16.000Z</time>
      </trkpt>
      <trkpt lat="45.70014" lon="4.63">
        <ele>621</ele>
        <time>2012-04-02T15:31:17.000Z</time>
      </trkpt>
      <trkpt lat="45.7001" lon="4.63001">
        <ele>620.40002441406</ele>
        <time>2012-04-02T15:31:18.000Z</time>
      </trkpt>
      <trkpt lat="45.70007" lon="4.63003">
        <ele>620</ele>
        <time>2012-04-02T15:31:19.000Z</time>
      </trkpt>
      <trkpt lat="45.70004" lon="4.63005">
        <ele>619.59997558594</ele>
        <time>2012-04-02T15:31:20.000Z</time>
      </trkpt>
      <trkpt lat="45.7" lon="4.63006">
        <ele>619.20001220703</ele>
        <time>2012-04-02T15:31:21.000Z</time>
      </trkpt>
      <trkpt lat="45.69998" lon="4.63007">
        <ele>618.79998779297</ele>
        <time>2012-04-02T15:31:22.000Z</time>
      </trkpt>
      <trkpt lat="45.69996" lon="4.63008">
        <ele>618.20001220703</ele>
        <time>2012-04-02T15:31:23.000Z</time>
      </trkpt>
      <trkpt lat="45.69994" lon="4.63007">
        <ele>617.79998779297</ele>
        <time>2012-04-02T15:31:24.000Z</time>
      </trkpt>
      <trkpt lat="45.69992" lon="4.63007">
        <ele>617.20001220703</ele>
        <time>2012-04-02T15:31:25.000Z</time>
      </trkpt>
      <trkpt lat="45.6999" lon="4.63007">
        <ele>616.79998779297</ele>
        <time>2012-04-02T15:31:26.000Z</time>
      </trkpt>
      <trkpt lat="45.69989" lon="4.63008">
        <ele>616.40002441406</ele>
        <time>2012-04-02T15:31:27.000Z</time>
      </trkpt>
      <trkpt lat="45.69988" lon="4.63009">
        <ele>616.40002441406</ele>
        <time>2012-04-02T15:31:28.000Z</time>
      </trkpt>
      <trkpt lat="45.69984" lon="4.63011">
        <ele>615.59997558594</ele>
        <time>2012-04-02T15:31:31.000Z</time>
      </trkpt>
      <trkpt lat="45.69982" lon="4.63011">
        <ele>615.20001220703</ele>
        <time>2012-04-02T15:31:32.000Z</time>
      </trkpt>
      <trkpt lat="45.6998" lon="4.63011">
        <ele>614.79998779297</ele>
        <time>2012-04-02T15:31:33.000Z</time>
      </trkpt>
      <trkpt lat="45.69964" lon="4.63013">
        <ele>610.79998779297</ele>
        <time>2012-04-02T15:31:37.000Z</time>
      </trkpt>
      <trkpt lat="45.69959" lon="4.63012">
        <ele>609.40002441406</ele>
        <time>2012-04-02T15:31:39.000Z</time>
      </trkpt>
      <trkpt lat="45.69955" lon="4.63013">
        <ele>608.59997558594</ele>
        <time>2012-04-02T15:31:40.000Z</time>
      </trkpt>
      <trkpt lat="45.69952" lon="4.63015">
        <ele>608</ele>
        <time>2012-04-02T15:31:41.000Z</time>
      </trkpt>
      <trkpt lat="45.69948" lon="4.63017">
        <ele>607.20001220703</ele>
        <time>2012-04-02T15:31:42.000Z</time>
      </trkpt>
      <trkpt lat="45.69944" lon="4.63017">
        <ele>606</ele>
        <time>2012-04-02T15:31:43.000Z</time>
      </trkpt>
      <trkpt lat="45.69939" lon="4.63017">
        <ele>604.79998779297</ele>
        <time>2012-04-02T15:31:44.000Z</time>
      </trkpt>
      <trkpt lat="45.69936" lon="4.63018">
        <ele>604</ele>
        <time>2012-04-02T15:31:45.000Z</time>
      </trkpt>
      <trkpt lat="45.69934" lon="4.6302">
        <ele>603.59997558594</ele>
        <time>2012-04-02T15:31:46.000Z</time>
      </trkpt>
      <trkpt lat="45.69932" lon="4.63023">
        <ele>603.40002441406</ele>
        <time>2012-04-02T15:31:47.000Z</time>
      </trkpt>
      <trkpt lat="45.69929" lon="4.63025">
        <ele>602.79998779297</ele>
        <time>2012-04-02T15:31:48.000Z</time>
      </trkpt>
      <trkpt lat="45.69926" lon="4.63026">
        <ele>602.20001220703</ele>
        <time>2012-04-02T15:31:49.000Z</time>
      </trkpt>
      <trkpt lat="45.69924" lon="4.63027">
        <ele>601.59997558594</ele>
        <time>2012-04-02T15:31:50.000Z</time>
      </trkpt>
      <trkpt lat="45.6992" lon="4.63027">
        <ele>600.40002441406</ele>
        <time>2012-04-02T15:31:57.000Z</time>
      </trkpt>
      <trkpt lat="45.69918" lon="4.6303">
        <ele>600.20001220703</ele>
        <time>2012-04-02T15:31:58.000Z</time>
      </trkpt>
      <trkpt lat="45.69916" lon="4.63034">
        <ele>600</ele>
        <time>2012-04-02T15:31:59.000Z</time>
      </trkpt>
      <trkpt lat="45.69913" lon="4.63036">
        <ele>599.20001220703</ele>
        <time>2012-04-02T15:32:00.000Z</time>
      </trkpt>
      <trkpt lat="45.6991" lon="4.63039">
        <ele>598.40002441406</ele>
        <time>2012-04-02T15:32:01.000Z</time>
      </trkpt>
      <trkpt lat="45.69905" lon="4.63042">
        <ele>597</ele>
        <time>2012-04-02T15:32:03.000Z</time>
      </trkpt>
      <trkpt lat="45.69903" lon="4.63045">
        <ele>596.59997558594</ele>
        <time>2012-04-02T15:32:04.000Z</time>
      </trkpt>
      <trkpt lat="45.69897" lon="4.63052">
        <ele>595.20001220703</ele>
        <time>2012-04-02T15:32:07.000Z</time>
      </trkpt>
      <trkpt lat="45.69885" lon="4.63073">
        <ele>592.40002441406</ele>
        <time>2012-04-02T15:32:12.000Z</time>
      </trkpt>
      <trkpt lat="45.69882" lon="4.63077">
        <ele>591.59997558594</ele>
        <time>2012-04-02T15:32:13.000Z</time>
      </trkpt>
      <trkpt lat="45.69871" lon="4.63095">
        <ele>589</ele>
        <time>2012-04-02T15:32:20.000Z</time>
      </trkpt>
      <trkpt lat="45.6987" lon="4.63097">
        <ele>588.59997558594</ele>
        <time>2012-04-02T15:32:21.000Z</time>
      </trkpt>
      <trkpt lat="45.6986" lon="4.63114">
        <ele>586</ele>
        <time>2012-04-02T15:32:27.000Z</time>
      </trkpt>
      <trkpt lat="45.69857" lon="4.6312">
        <ele>585.20001220703</ele>
        <time>2012-04-02T15:32:29.000Z</time>
      </trkpt>
      <trkpt lat="45.69843" lon="4.63133">
        <ele>580.59997558594</ele>
        <time>2012-04-02T15:32:34.000Z</time>
      </trkpt>
      <trkpt lat="45.6984" lon="4.63137">
        <ele>579.59997558594</ele>
        <time>2012-04-02T15:32:35.000Z</time>
      </trkpt>
      <trkpt lat="45.69837" lon="4.63141">
        <ele>578.59997558594</ele>
        <time>2012-04-02T15:32:36.000Z</time>
      </trkpt>
      <trkpt lat="45.69834" lon="4.63146">
        <ele>577.79998779297</ele>
        <time>2012-04-02T15:32:37.000Z</time>
      </trkpt>
      <trkpt lat="45.69816" lon="4.6318">
        <ele>573.59997558594</ele>
        <time>2012-04-02T15:32:43.000Z</time>
      </trkpt>
      <trkpt lat="45.6981" lon="4.63198">
        <ele>571.40002441406</ele>
        <time>2012-04-02T15:32:48.000Z</time>
      </trkpt>
      <trkpt lat="45.69809" lon="4.63205">
        <ele>570.79998779297</ele>
        <time>2012-04-02T15:32:49.000Z</time>
      </trkpt>
      <trkpt lat="45.69807" lon="4.63213">
        <ele>570</ele>
        <time>2012-04-02T15:32:50.000Z</time>
      </trkpt>
      <trkpt lat="45.69801" lon="4.63251">
        <ele>567</ele>
        <time>2012-04-02T15:32:54.000Z</time>
      </trkpt>
      <trkpt lat="45.69798" lon="4.63267">
        <ele>564</ele>
        <time>2012-04-02T15:32:56.000Z</time>
      </trkpt>
      <trkpt lat="45.69795" lon="4.63294">
        <ele>559.40002441406</ele>
        <time>2012-04-02T15:32:59.000Z</time>
      </trkpt>
      <trkpt lat="45.69794" lon="4.63308">
        <ele>557.20001220703</ele>
        <time>2012-04-02T15:33:01.000Z</time>
      </trkpt>
      <trkpt lat="45.69795" lon="4.63314">
        <ele>556.59997558594</ele>
        <time>2012-04-02T15:33:02.000Z</time>
      </trkpt>
      <trkpt lat="45.69797" lon="4.63321">
        <ele>556</ele>
        <time>2012-04-02T15:33:03.000Z</time>
      </trkpt>
      <trkpt lat="45.69798" lon="4.63336">
        <ele>554</ele>
        <time>2012-04-02T15:33:05.000Z</time>
      </trkpt>
      <trkpt lat="45.69801" lon="4.63344">
        <ele>553.40002441406</ele>
        <time>2012-04-02T15:33:06.000Z</time>
      </trkpt>
      <trkpt lat="45.69805" lon="4.63351">
        <ele>553</ele>
        <time>2012-04-02T15:33:07.000Z</time>
      </trkpt>
      <trkpt lat="45.6981" lon="4.63358">
        <ele>553</ele>
        <time>2012-04-02T15:33:08.000Z</time>
      </trkpt>
      <trkpt lat="45.69816" lon="4.63365">
        <ele>552.79998779297</ele>
        <time>2012-04-02T15:33:09.000Z</time>
      </trkpt>
      <trkpt lat="45.69821" lon="4.63371">
        <ele>552.79998779297</ele>
        <time>2012-04-02T15:33:10.000Z</time>
      </trkpt>
      <trkpt lat="45.69827" lon="4.63378">
        <ele>552.59997558594</ele>
        <time>2012-04-02T15:33:11.000Z</time>
      </trkpt>
      <trkpt lat="45.69837" lon="4.63391">
        <ele>552.40002441406</ele>
        <time>2012-04-02T15:33:13.000Z</time>
      </trkpt>
      <trkpt lat="45.69852" lon="4.63405">
        <ele>554.79998779297</ele>
        <time>2012-04-02T15:33:16.000Z</time>
      </trkpt>
      <trkpt lat="45.69857" lon="4.63412">
        <ele>554.79998779297</ele>
        <time>2012-04-02T15:33:17.000Z</time>
      </trkpt>
      <trkpt lat="45.69868" lon="4.63433">
        <ele>555.20001220703</ele>
        <time>2012-04-02T15:33:20.000Z</time>
      </trkpt>
      <trkpt lat="45.6987" lon="4.63441">
        <ele>554.79998779297</ele>
        <time>2012-04-02T15:33:21.000Z</time>
      </trkpt>
      <trkpt lat="45.69871" lon="4.63449">
        <ele>553.59997558594</ele>
        <time>2012-04-02T15:33:22.000Z</time>
      </trkpt>
      <trkpt lat="45.6987" lon="4.63457">
        <ele>552.40002441406</ele>
        <time>2012-04-02T15:33:23.000Z</time>
      </trkpt>
      <trkpt lat="45.6987" lon="4.63464">
        <ele>551.20001220703</ele>
        <time>2012-04-02T15:33:24.000Z</time>
      </trkpt>
      <trkpt lat="45.69869" lon="4.63472">
        <ele>549.79998779297</ele>
        <time>2012-04-02T15:33:25.000Z</time>
      </trkpt>
      <trkpt lat="45.69868" lon="4.63493">
        <ele>546.20001220703</ele>
        <time>2012-04-02T15:33:28.000Z</time>
      </trkpt>
      <trkpt lat="45.6987" lon="4.63499">
        <ele>545.79998779297</ele>
        <time>2012-04-02T15:33:29.000Z</time>
      </trkpt>
      <trkpt lat="45.69871" lon="4.63506">
        <ele>545.79998779297</ele>
        <time>2012-04-02T15:33:30.000Z</time>
      </trkpt>
      <trkpt lat="45.69872" lon="4.63513">
        <ele>545.59997558594</ele>
        <time>2012-04-02T15:33:31.000Z</time>
      </trkpt>
      <trkpt lat="45.69872" lon="4.63519">
        <ele>545.40002441406</ele>
        <time>2012-04-02T15:33:32.000Z</time>
      </trkpt>
      <trkpt lat="45.69872" lon="4.63526">
        <ele>545</ele>
        <time>2012-04-02T15:33:33.000Z</time>
      </trkpt>
      <trkpt lat="45.69873" lon="4.63531">
        <ele>544.79998779297</ele>
        <time>2012-04-02T15:33:34.000Z</time>
      </trkpt>
      <trkpt lat="45.69873" lon="4.63536">
        <ele>544.40002441406</ele>
        <time>2012-04-02T15:33:35.000Z</time>
      </trkpt>
      <trkpt lat="45.69872" lon="4.63542">
        <ele>543.59997558594</ele>
        <time>2012-04-02T15:33:36.000Z</time>
      </trkpt>
      <trkpt lat="45.6987" lon="4.63547">
        <ele>542.79998779297</ele>
        <time>2012-04-02T15:33:37.000Z</time>
      </trkpt>
      <trkpt lat="45.69869" lon="4.6355">
        <ele>542</ele>
        <time>2012-04-02T15:33:38.000Z</time>
      </trkpt>
      <trkpt lat="45.69868" lon="4.63552">
        <ele>541.59997558594</ele>
        <time>2012-04-02T15:33:39.000Z</time>
      </trkpt>
      <trkpt lat="45.69867" lon="4.63555">
        <ele>541</ele>
        <time>2012-04-02T15:33:40.000Z</time>
      </trkpt>
      <trkpt lat="45.69866" lon="4.63558">
        <ele>540.40002441406</ele>
        <time>2012-04-02T15:33:41.000Z</time>
      </trkpt>
      <trkpt lat="45.69857" lon="4.63583">
        <ele>535</ele>
        <time>2012-04-02T15:33:47.000Z</time>
      </trkpt>
      <trkpt lat="45.69856" lon="4.63587">
        <ele>534.40002441406</ele>
        <time>2012-04-02T15:33:48.000Z</time>
      </trkpt>
      <trkpt lat="45.69855" lon="4.63591">
        <ele>534</ele>
        <time>2012-04-02T15:33:49.000Z</time>
      </trkpt>
      <trkpt lat="45.69851" lon="4.63602">
        <ele>532.59997558594</ele>
        <time>2012-04-02T15:33:51.000Z</time>
      </trkpt>
      <trkpt lat="45.69849" lon="4.63609">
        <ele>531.79998779297</ele>
        <time>2012-04-02T15:33:52.000Z</time>
      </trkpt>
      <trkpt lat="45.69847" lon="4.63618">
        <ele>531</ele>
        <time>2012-04-02T15:33:53.000Z</time>
      </trkpt>
      <trkpt lat="45.69845" lon="4.63627">
        <ele>530.40002441406</ele>
        <time>2012-04-02T15:33:54.000Z</time>
      </trkpt>
      <trkpt lat="45.69844" lon="4.63635">
        <ele>530</ele>
        <time>2012-04-02T15:33:55.000Z</time>
      </trkpt>
      <trkpt lat="45.69843" lon="4.63643">
        <ele>529.40002441406</ele>
        <time>2012-04-02T15:33:56.000Z</time>
      </trkpt>
      <trkpt lat="45.69842" lon="4.63652">
        <ele>529.20001220703</ele>
        <time>2012-04-02T15:33:57.000Z</time>
      </trkpt>
      <trkpt lat="45.6984" lon="4.63661">
        <ele>528.79998779297</ele>
        <time>2012-04-02T15:33:58.000Z</time>
      </trkpt>
      <trkpt lat="45.69838" lon="4.6367">
        <ele>528</ele>
        <time>2012-04-02T15:33:59.000Z</time>
      </trkpt>
      <trkpt lat="45.69825" lon="4.63706">
        <ele>525.59997558594</ele>
        <time>2012-04-02T15:34:03.000Z</time>
      </trkpt>
      <trkpt lat="45.69815" lon="4.63717">
        <ele>523.59997558594</ele>
        <time>2012-04-02T15:34:05.000Z</time>
      </trkpt>
      <trkpt lat="45.6981" lon="4.63723">
        <ele>522.79998779297</ele>
        <time>2012-04-02T15:34:06.000Z</time>
      </trkpt>
      <trkpt lat="45.69795" lon="4.63755">
        <ele>520.20001220703</ele>
        <time>2012-04-02T15:34:11.000Z</time>
      </trkpt>
      <trkpt lat="45.69789" lon="4.63768">
        <ele>518.40002441406</ele>
        <time>2012-04-02T15:34:13.000Z</time>
      </trkpt>
      <trkpt lat="45.69786" lon="4.63776">
        <ele>517.59997558594</ele>
        <time>2012-04-02T15:34:14.000Z</time>
      </trkpt>
      <trkpt lat="45.69782" lon="4.63782">
        <ele>516.59997558594</ele>
        <time>2012-04-02T15:34:15.000Z</time>
      </trkpt>
      <trkpt lat="45.69778" lon="4.63786">
        <ele>515.59997558594</ele>
        <time>2012-04-02T15:34:16.000Z</time>
      </trkpt>
      <trkpt lat="45.69774" lon="4.63789">
        <ele>514.79998779297</ele>
        <time>2012-04-02T15:34:17.000Z</time>
      </trkpt>
      <trkpt lat="45.6977" lon="4.63791">
        <ele>513.79998779297</ele>
        <time>2012-04-02T15:34:18.000Z</time>
      </trkpt>
      <trkpt lat="45.69766" lon="4.63794">
        <ele>513</ele>
        <time>2012-04-02T15:34:19.000Z</time>
      </trkpt>
      <trkpt lat="45.69764" lon="4.63798">
        <ele>512.40002441406</ele>
        <time>2012-04-02T15:34:20.000Z</time>
      </trkpt>
      <trkpt lat="45.69763" lon="4.63803">
        <ele>512.20001220703</ele>
        <time>2012-04-02T15:34:21.000Z</time>
      </trkpt>
      <trkpt lat="45.69762" lon="4.63809">
        <ele>512</ele>
        <time>2012-04-02T15:34:22.000Z</time>
      </trkpt>
      <trkpt lat="45.69762" lon="4.63815">
        <ele>511.79998779297</ele>
        <time>2012-04-02T15:34:23.000Z</time>
      </trkpt>
      <trkpt lat="45.69764" lon="4.63839">
        <ele>511.20001220703</ele>
        <time>2012-04-02T15:34:29.000Z</time>
      </trkpt>
      <trkpt lat="45.69768" lon="4.63854">
        <ele>510.60000610352</ele>
        <time>2012-04-02T15:34:34.000Z</time>
      </trkpt>
      <trkpt lat="45.69769" lon="4.63858">
        <ele>510.39999389648</ele>
        <time>2012-04-02T15:34:35.000Z</time>
      </trkpt>
      <trkpt lat="45.6977" lon="4.63863">
        <ele>510.20001220703</ele>
        <time>2012-04-02T15:34:36.000Z</time>
      </trkpt>
      <trkpt lat="45.69771" lon="4.63869">
        <ele>509.60000610352</ele>
        <time>2012-04-02T15:34:37.000Z</time>
      </trkpt>
      <trkpt lat="45.6977" lon="4.63874">
        <ele>509</ele>
        <time>2012-04-02T15:34:38.000Z</time>
      </trkpt>
      <trkpt lat="45.69769" lon="4.63878">
        <ele>508.20001220703</ele>
        <time>2012-04-02T15:34:39.000Z</time>
      </trkpt>
      <trkpt lat="45.69766" lon="4.63883">
        <ele>507.20001220703</ele>
        <time>2012-04-02T15:34:40.000Z</time>
      </trkpt>
      <trkpt lat="45.69762" lon="4.63886">
        <ele>506.20001220703</ele>
        <time>2012-04-02T15:34:41.000Z</time>
      </trkpt>
      <trkpt lat="45.69758" lon="4.63889">
        <ele>505.20001220703</ele>
        <time>2012-04-02T15:34:42.000Z</time>
      </trkpt>
      <trkpt lat="45.69754" lon="4.6389">
        <ele>504.39999389648</ele>
        <time>2012-04-02T15:34:43.000Z</time>
      </trkpt>
      <trkpt lat="45.6975" lon="4.6389">
        <ele>503.60000610352</ele>
        <time>2012-04-02T15:34:44.000Z</time>
      </trkpt>
      <trkpt lat="45.69742" lon="4.63891">
        <ele>502.60000610352</ele>
        <time>2012-04-02T15:34:47.000Z</time>
      </trkpt>
      <trkpt lat="45.6974" lon="4.63893">
        <ele>502.20001220703</ele>
        <time>2012-04-02T15:34:48.000Z</time>
      </trkpt>
      <trkpt lat="45.69739" lon="4.63894">
        <ele>502</ele>
        <time>2012-04-02T15:34:49.000Z</time>
      </trkpt>
      <trkpt lat="45.69724" lon="4.63902">
        <ele>499.79998779297</ele>
        <time>2012-04-02T15:34:54.000Z</time>
      </trkpt>
      <trkpt lat="45.69719" lon="4.63902">
        <ele>499.20001220703</ele>
        <time>2012-04-02T15:34:55.000Z</time>
      </trkpt>
      <trkpt lat="45.69686" lon="4.63902">
        <ele>496</ele>
        <time>2012-04-02T15:35:01.000Z</time>
      </trkpt>
      <trkpt lat="45.6968" lon="4.639">
        <ele>495.60000610352</ele>
        <time>2012-04-02T15:35:02.000Z</time>
      </trkpt>
      <trkpt lat="45.69674" lon="4.63897">
        <ele>495.20001220703</ele>
        <time>2012-04-02T15:35:03.000Z</time>
      </trkpt>
      <trkpt lat="45.69648" lon="4.63878">
        <ele>493.79998779297</ele>
        <time>2012-04-02T15:35:08.000Z</time>
      </trkpt>
      <trkpt lat="45.69625" lon="4.63858">
        <ele>492.60000610352</ele>
        <time>2012-04-02T15:35:12.000Z</time>
      </trkpt>
      <trkpt lat="45.69594" lon="4.63837">
        <ele>490</ele>
        <time>2012-04-02T15:35:16.000Z</time>
      </trkpt>
      <trkpt lat="45.69558" lon="4.63819">
        <ele>484.39999389648</ele>
        <time>2012-04-02T15:35:20.000Z</time>
      </trkpt>
      <trkpt lat="45.69541" lon="4.63812">
        <ele>481.39999389648</ele>
        <time>2012-04-02T15:35:22.000Z</time>
      </trkpt>
      <trkpt lat="45.69533" lon="4.6381">
        <ele>480.20001220703</ele>
        <time>2012-04-02T15:35:23.000Z</time>
      </trkpt>
      <trkpt lat="45.69527" lon="4.63809">
        <ele>479.39999389648</ele>
        <time>2012-04-02T15:35:24.000Z</time>
      </trkpt>
      <trkpt lat="45.69522" lon="4.63811">
        <ele>478.79998779297</ele>
        <time>2012-04-02T15:35:25.000Z</time>
      </trkpt>
      <trkpt lat="45.69519" lon="4.63816">
        <ele>478.60000610352</ele>
        <time>2012-04-02T15:35:26.000Z</time>
      </trkpt>
      <trkpt lat="45.69517" lon="4.63822">
        <ele>478.79998779297</ele>
        <time>2012-04-02T15:35:27.000Z</time>
      </trkpt>
      <trkpt lat="45.69517" lon="4.63829">
        <ele>479.20001220703</ele>
        <time>2012-04-02T15:35:28.000Z</time>
      </trkpt>
      <trkpt lat="45.69516" lon="4.63837">
        <ele>479.39999389648</ele>
        <time>2012-04-02T15:35:29.000Z</time>
      </trkpt>
      <trkpt lat="45.69516" lon="4.63852">
        <ele>479.20001220703</ele>
        <time>2012-04-02T15:35:31.000Z</time>
      </trkpt>
      <trkpt lat="45.69513" lon="4.63914">
        <ele>478.20001220703</ele>
        <time>2012-04-02T15:35:38.000Z</time>
      </trkpt>
      <trkpt lat="45.69515" lon="4.63934">
        <ele>476.39999389648</ele>
        <time>2012-04-02T15:35:40.000Z</time>
      </trkpt>
      <trkpt lat="45.69519" lon="4.63962">
        <ele>473.39999389648</ele>
        <time>2012-04-02T15:35:43.000Z</time>
      </trkpt>
      <trkpt lat="45.69519" lon="4.6397">
        <ele>472.39999389648</ele>
        <time>2012-04-02T15:35:44.000Z</time>
      </trkpt>
      <trkpt lat="45.69518" lon="4.63977">
        <ele>471.60000610352</ele>
        <time>2012-04-02T15:35:45.000Z</time>
      </trkpt>
      <trkpt lat="45.69514" lon="4.63988">
        <ele>470</ele>
        <time>2012-04-02T15:35:49.000Z</time>
      </trkpt>
      <trkpt lat="45.69491" lon="4.63986">
        <ele>468.79998779297</ele>
        <time>2012-04-02T15:35:56.000Z</time>
      </trkpt>
      <trkpt lat="45.6948" lon="4.63984">
        <ele>468</ele>
        <time>2012-04-02T15:35:58.000Z</time>
      </trkpt>
      <trkpt lat="45.69473" lon="4.63983">
        <ele>467.39999389648</ele>
        <time>2012-04-02T15:35:59.000Z</time>
      </trkpt>
      <trkpt lat="45.69466" lon="4.63984">
        <ele>466.60000610352</ele>
        <time>2012-04-02T15:36:00.000Z</time>
      </trkpt>
      <trkpt lat="45.69433" lon="4.63992">
        <ele>463</ele>
        <time>2012-04-02T15:36:04.000Z</time>
      </trkpt>
      <trkpt lat="45.69408" lon="4.63999">
        <ele>460</ele>
        <time>2012-04-02T15:36:07.000Z</time>
      </trkpt>
      <trkpt lat="45.69391" lon="4.64004">
        <ele>456.79998779297</ele>
        <time>2012-04-02T15:36:09.000Z</time>
      </trkpt>
      <trkpt lat="45.69362" lon="4.64013">
        <ele>451.60000610352</ele>
        <time>2012-04-02T15:36:12.000Z</time>
      </trkpt>
      <trkpt lat="45.69354" lon="4.64017">
        <ele>450</ele>
        <time>2012-04-02T15:36:13.000Z</time>
      </trkpt>
      <trkpt lat="45.69347" lon="4.6402">
        <ele>448.60000610352</ele>
        <time>2012-04-02T15:36:14.000Z</time>
      </trkpt>
      <trkpt lat="45.69325" lon="4.64028">
        <ele>444.79998779297</ele>
        <time>2012-04-02T15:36:17.000Z</time>
      </trkpt>
      <trkpt lat="45.69299" lon="4.64037">
        <ele>441.60000610352</ele>
        <time>2012-04-02T15:36:21.000Z</time>
      </trkpt>
      <trkpt lat="45.69285" lon="4.64042">
        <ele>440</ele>
        <time>2012-04-02T15:36:23.000Z</time>
      </trkpt>
      <trkpt lat="45.69259" lon="4.64053">
        <ele>436.79998779297</ele>
        <time>2012-04-02T15:36:27.000Z</time>
      </trkpt>
      <trkpt lat="45.69252" lon="4.64056">
        <ele>436.20001220703</ele>
        <time>2012-04-02T15:36:28.000Z</time>
      </trkpt>
      <trkpt lat="45.69246" lon="4.64058">
        <ele>435.20001220703</ele>
        <time>2012-04-02T15:36:29.000Z</time>
      </trkpt>
      <trkpt lat="45.69239" lon="4.6406">
        <ele>434</ele>
        <time>2012-04-02T15:36:30.000Z</time>
      </trkpt>
      <trkpt lat="45.69232" lon="4.64061">
        <ele>433</ele>
        <time>2012-04-02T15:36:31.000Z</time>
      </trkpt>
      <trkpt lat="45.69214" lon="4.64063">
        <ele>430.20001220703</ele>
        <time>2012-04-02T15:36:34.000Z</time>
      </trkpt>
      <trkpt lat="45.692" lon="4.64065">
        <ele>428</ele>
        <time>2012-04-02T15:36:37.000Z</time>
      </trkpt>
      <trkpt lat="45.69192" lon="4.64067">
        <ele>426.79998779297</ele>
        <time>2012-04-02T15:36:39.000Z</time>
      </trkpt>
      <trkpt lat="45.69172" lon="4.64069">
        <ele>424</ele>
        <time>2012-04-02T15:36:43.000Z</time>
      </trkpt>
      <trkpt lat="45.69157" lon="4.6407">
        <ele>422</ele>
        <time>2012-04-02T15:36:46.000Z</time>
      </trkpt>
      <trkpt lat="45.69141" lon="4.64071">
        <ele>420</ele>
        <time>2012-04-02T15:36:50.000Z</time>
      </trkpt>
      <trkpt lat="45.69124" lon="4.64073">
        <ele>418.20001220703</ele>
        <time>2012-04-02T15:36:53.000Z</time>
      </trkpt>
      <trkpt lat="45.6911" lon="4.64076">
        <ele>416.60000610352</ele>
        <time>2012-04-02T15:36:56.000Z</time>
      </trkpt>
      <trkpt lat="45.69103" lon="4.64076">
        <ele>415.79998779297</ele>
        <time>2012-04-02T15:36:58.000Z</time>
      </trkpt>
      <trkpt lat="45.69098" lon="4.64076">
        <ele>415.20001220703</ele>
        <time>2012-04-02T15:36:59.000Z</time>
      </trkpt>
      <trkpt lat="45.69092" lon="4.64077">
        <ele>414.79998779297</ele>
        <time>2012-04-02T15:37:00.000Z</time>
      </trkpt>
      <trkpt lat="45.69087" lon="4.64079">
        <ele>414.20001220703</ele>
        <time>2012-04-02T15:37:01.000Z</time>
      </trkpt>
      <trkpt lat="45.69082" lon="4.64082">
        <ele>413.79998779297</ele>
        <time>2012-04-02T15:37:02.000Z</time>
      </trkpt>
      <trkpt lat="45.69078" lon="4.64085">
        <ele>413</ele>
        <time>2012-04-02T15:37:03.000Z</time>
      </trkpt>
      <trkpt lat="45.69074" lon="4.64086">
        <ele>412.39999389648</ele>
        <time>2012-04-02T15:37:04.000Z</time>
      </trkpt>
      <trkpt lat="45.6907" lon="4.64087">
        <ele>411.79998779297</ele>
        <time>2012-04-02T15:37:05.000Z</time>
      </trkpt>
      <trkpt lat="45.6906" lon="4.64089">
        <ele>410</ele>
        <time>2012-04-02T15:37:08.000Z</time>
      </trkpt>
      <trkpt lat="45.69058" lon="4.64089">
        <ele>409.60000610352</ele>
        <time>2012-04-02T15:37:09.000Z</time>
      </trkpt>
      <trkpt lat="45.69054" lon="4.64091">
        <ele>409</ele>
        <time>2012-04-02T15:37:11.000Z</time>
      </trkpt>
      <trkpt lat="45.69051" lon="4.64092">
        <ele>408.60000610352</ele>
        <time>2012-04-02T15:37:12.000Z</time>
      </trkpt>
      <trkpt lat="45.69048" lon="4.64093">
        <ele>408</ele>
        <time>2012-04-02T15:37:13.000Z</time>
      </trkpt>
      <trkpt lat="45.69045" lon="4.64093">
        <ele>407.60000610352</ele>
        <time>2012-04-02T15:37:14.000Z</time>
      </trkpt>
      <trkpt lat="45.69042" lon="4.64092">
        <ele>407</ele>
        <time>2012-04-02T15:37:15.000Z</time>
      </trkpt>
      <trkpt lat="45.69027" lon="4.64093">
        <ele>404.60000610352</ele>
        <time>2012-04-02T15:37:20.000Z</time>
      </trkpt>
      <trkpt lat="45.69022" lon="4.64095">
        <ele>403.60000610352</ele>
        <time>2012-04-02T15:37:22.000Z</time>
      </trkpt>
      <trkpt lat="45.6902" lon="4.64097">
        <ele>403.39999389648</ele>
        <time>2012-04-02T15:37:23.000Z</time>
      </trkpt>
      <trkpt lat="45.69018" lon="4.64098">
        <ele>403</ele>
        <time>2012-04-02T15:37:24.000Z</time>
      </trkpt>
      <trkpt lat="45.69016" lon="4.64098">
        <ele>402.60000610352</ele>
        <time>2012-04-02T15:37:25.000Z</time>
      </trkpt>
      <trkpt lat="45.69006" lon="4.64106">
        <ele>401</ele>
        <time>2012-04-02T15:37:32.000Z</time>
      </trkpt>
      <trkpt lat="45.69004" lon="4.64109">
        <ele>400.79998779297</ele>
        <time>2012-04-02T15:37:33.000Z</time>
      </trkpt>
      <trkpt lat="45.69003" lon="4.64112">
        <ele>400.60000610352</ele>
        <time>2012-04-02T15:37:34.000Z</time>
      </trkpt>
      <trkpt lat="45.69001" lon="4.64115">
        <ele>400.20001220703</ele>
        <time>2012-04-02T15:37:35.000Z</time>
      </trkpt>
      <trkpt lat="45.69" lon="4.64117">
        <ele>400</ele>
        <time>2012-04-02T15:37:36.000Z</time>
      </trkpt>
      <trkpt lat="45.68998" lon="4.64119">
        <ele>400</ele>
        <time>2012-04-02T15:37:37.000Z</time>
      </trkpt>
      <trkpt lat="45.68995" lon="4.64119">
        <ele>400.20001220703</ele>
        <time>2012-04-02T15:37:38.000Z</time>
      </trkpt>
      <trkpt lat="45.68991" lon="4.64118">
        <ele>400.39999389648</ele>
        <time>2012-04-02T15:37:39.000Z</time>
      </trkpt>
      <trkpt lat="45.68986" lon="4.64116">
        <ele>400.60000610352</ele>
        <time>2012-04-02T15:37:40.000Z</time>
      </trkpt>
      <trkpt lat="45.68981" lon="4.64115">
        <ele>400.79998779297</ele>
        <time>2012-04-02T15:37:41.000Z</time>
      </trkpt>
      <trkpt lat="45.68977" lon="4.64114">
        <ele>401</ele>
        <time>2012-04-02T15:37:42.000Z</time>
      </trkpt>
      <trkpt lat="45.68972" lon="4.64114">
        <ele>401.20001220703</ele>
        <time>2012-04-02T15:37:43.000Z</time>
      </trkpt>
      <trkpt lat="45.68969" lon="4.64115">
        <ele>401.20001220703</ele>
        <time>2012-04-02T15:37:44.000Z</time>
      </trkpt>
      <trkpt lat="45.68966" lon="4.64117">
        <ele>401.20001220703</ele>
        <time>2012-04-02T15:37:45.000Z</time>
      </trkpt>
      <trkpt lat="45.68938" lon="4.64129">
        <ele>401</ele>
        <time>2012-04-02T15:37:58.000Z</time>
      </trkpt>
      <trkpt lat="45.68915" lon="4.64137">
        <ele>400.60000610352</ele>
        <time>2012-04-02T15:38:08.000Z</time>
      </trkpt>
      <trkpt lat="45.68895" lon="4.64151">
        <ele>401.20001220703</ele>
        <time>2012-04-02T15:38:20.000Z</time>
      </trkpt>
      <trkpt lat="45.68871" lon="4.64169">
        <ele>402.39999389648</ele>
        <time>2012-04-02T15:38:33.000Z</time>
      </trkpt>
      <trkpt lat="45.68851" lon="4.64191">
        <ele>403.20001220703</ele>
        <time>2012-04-02T15:38:45.000Z</time>
      </trkpt>
      <trkpt lat="45.68829" lon="4.64223">
        <ele>402.20001220703</ele>
        <time>2012-04-02T15:38:56.000Z</time>
      </trkpt>
      <trkpt lat="45.68788" lon="4.64262">
        <ele>402.20001220703</ele>
        <time>2012-04-02T15:39:12.000Z</time>
      </trkpt>
      <trkpt lat="45.68749" lon="4.64274">
        <ele>404.60000610352</ele>
        <time>2012-04-02T15:39:24.000Z</time>
      </trkpt>
      <trkpt lat="45.68704" lon="4.64265">
        <ele>405.79998779297</ele>
        <time>2012-04-02T15:39:36.000Z</time>
      </trkpt>
      <trkpt lat="45.68644" lon="4.64248">
        <ele>406.20001220703</ele>
        <time>2012-04-02T15:39:50.000Z</time>
      </trkpt>
      <trkpt lat="45.68623" lon="4.64239">
        <ele>405.60000610352</ele>
        <time>2012-04-02T15:39:55.000Z</time>
      </trkpt>
      <trkpt lat="45.68606" lon="4.64234">
        <ele>405</ele>
        <time>2012-04-02T15:39:59.000Z</time>
      </trkpt>
      <trkpt lat="45.68565" lon="4.64213">
        <ele>402</ele>
        <time>2012-04-02T15:40:07.000Z</time>
      </trkpt>
      <trkpt lat="45.68548" lon="4.64201">
        <ele>400</ele>
        <time>2012-04-02T15:40:10.000Z</time>
      </trkpt>
      <trkpt lat="45.68542" lon="4.64198">
        <ele>399.39999389648</ele>
        <time>2012-04-02T15:40:11.000Z</time>
      </trkpt>
      <trkpt lat="45.68529" lon="4.64191">
        <ele>397.60000610352</ele>
        <time>2012-04-02T15:40:13.000Z</time>
      </trkpt>
      <trkpt lat="45.68497" lon="4.64172">
        <ele>392.79998779297</ele>
        <time>2012-04-02T15:40:17.000Z</time>
      </trkpt>
      <trkpt lat="45.68478" lon="4.64161">
        <ele>389.60000610352</ele>
        <time>2012-04-02T15:40:19.000Z</time>
      </trkpt>
      <trkpt lat="45.68459" lon="4.64151">
        <ele>386.79998779297</ele>
        <time>2012-04-02T15:40:21.000Z</time>
      </trkpt>
      <trkpt lat="45.68435" lon="4.64139">
        <ele>383.20001220703</ele>
        <time>2012-04-02T15:40:24.000Z</time>
      </trkpt>
      <trkpt lat="45.68427" lon="4.64136">
        <ele>382</ele>
        <time>2012-04-02T15:40:25.000Z</time>
      </trkpt>
      <trkpt lat="45.68419" lon="4.64135">
        <ele>381.20001220703</ele>
        <time>2012-04-02T15:40:26.000Z</time>
      </trkpt>
      <trkpt lat="45.68412" lon="4.64138">
        <ele>380.39999389648</ele>
        <time>2012-04-02T15:40:27.000Z</time>
      </trkpt>
      <trkpt lat="45.68405" lon="4.64141">
        <ele>380</ele>
        <time>2012-04-02T15:40:28.000Z</time>
      </trkpt>
      <trkpt lat="45.684" lon="4.64142">
        <ele>379.39999389648</ele>
        <time>2012-04-02T15:40:29.000Z</time>
      </trkpt>
      <trkpt lat="45.68395" lon="4.64141">
        <ele>378.79998779297</ele>
        <time>2012-04-02T15:40:30.000Z</time>
      </trkpt>
      <trkpt lat="45.6839" lon="4.64136">
        <ele>378.39999389648</ele>
        <time>2012-04-02T15:40:31.000Z</time>
      </trkpt>
      <trkpt lat="45.68389" lon="4.64129">
        <ele>378.39999389648</ele>
        <time>2012-04-02T15:40:32.000Z</time>
      </trkpt>
      <trkpt lat="45.68389" lon="4.64121">
        <ele>378.39999389648</ele>
        <time>2012-04-02T15:40:33.000Z</time>
      </trkpt>
      <trkpt lat="45.68388" lon="4.64114">
        <ele>378.20001220703</ele>
        <time>2012-04-02T15:40:34.000Z</time>
      </trkpt>
      <trkpt lat="45.68386" lon="4.64108">
        <ele>378.20001220703</ele>
        <time>2012-04-02T15:40:35.000Z</time>
      </trkpt>
      <trkpt lat="45.68384" lon="4.64102">
        <ele>378</ele>
        <time>2012-04-02T15:40:36.000Z</time>
      </trkpt>
      <trkpt lat="45.68382" lon="4.64098">
        <ele>378</ele>
        <time>2012-04-02T15:40:37.000Z</time>
      </trkpt>
      <trkpt lat="45.6838" lon="4.64094">
        <ele>378</ele>
        <time>2012-04-02T15:40:38.000Z</time>
      </trkpt>
      <trkpt lat="45.68378" lon="4.64092">
        <ele>378</ele>
        <time>2012-04-02T15:40:39.000Z</time>
      </trkpt>
      <trkpt lat="45.68376" lon="4.64089">
        <ele>378</ele>
        <time>2012-04-02T15:40:40.000Z</time>
      </trkpt>
      <trkpt lat="45.68373" lon="4.64088">
        <ele>377.79998779297</ele>
        <time>2012-04-02T15:40:42.000Z</time>
      </trkpt>
      <trkpt lat="45.68372" lon="4.64089">
        <ele>377.79998779297</ele>
        <time>2012-04-02T15:40:43.000Z</time>
      </trkpt>
      <trkpt lat="45.68372" lon="4.64093">
        <ele>377.79998779297</ele>
        <time>2012-04-02T15:40:50.000Z</time>
      </trkpt>
      <trkpt lat="45.68373" lon="4.64093">
        <ele>377.79998779297</ele>
        <time>2012-04-02T15:40:59.000Z</time>
      </trkpt>
      <trkpt lat="45.68373" lon="4.64093">
        <ele>377.79998779297</ele>
        <time>2012-04-02T15:41:01.000Z</time>
      </trkpt>
      <trkpt lat="45.68373" lon="4.64093">
        <ele>377.79998779297</ele>
        <time>2012-04-02T15:41:02.000Z</time>
      </trkpt>
      <trkpt lat="45.68373" lon="4.64091">
        <ele>377.79998779297</ele>
        <time>2012-04-02T15:41:20.000Z</time>
      </trkpt>
    </trkseg>
  </trk>
</gpx>